<?xml version="1.0" encoding="UTF-8" standalone="no" ?>
<gpx xmlns="http://www.topografix.com/GPX/1/1" xmlns:xsi="http://www.w3.org/2001/XMLSchema-instance" xsi:schemaLocation="http://www.topografix.com/GPX/1/1 http://www.topografix.com/GPX/1/1/gpx.xsd" version="1.1" creator="VisuGPX - https://www.visugpx.com">
  <metadata>
    <name>La Toureloise 2016</name>
  </metadata>
  <trk>
    <name><![CDATA[La Tour-de-Salvagny]]></name>
    <extensions>
      <line xmlns="http://www.topografix.com/GPX/gpx_style/0/2">
        <color>0000FF</color>
        <width>4</width>
      </line>
    </extensions>
    <trkseg>
      <trkpt lat="45.80298" lon="4.71974">
        <ele>310.447784</ele>
        <time>2016-10-02T06:10:51Z</time>
      </trkpt>
      <trkpt lat="45.80301" lon="4.71972">
        <ele>310.469452</ele>
        <time>2016-10-02T06:10:53Z</time>
      </trkpt>
      <trkpt lat="45.8036" lon="4.71933">
        <ele>310.514221</ele>
        <time>2016-10-02T06:10:55Z</time>
      </trkpt>
      <trkpt lat="45.80362" lon="4.71931">
        <ele>310.616241</ele>
        <time>2016-10-02T06:10:57Z</time>
      </trkpt>
      <trkpt lat="45.80366" lon="4.7193">
        <ele>310.646179</ele>
        <time>2016-10-02T06:10:59Z</time>
      </trkpt>
      <trkpt lat="45.8037" lon="4.71928">
        <ele>310.915466</ele>
        <time>2016-10-02T06:11:01Z</time>
      </trkpt>
      <trkpt lat="45.80375" lon="4.71927">
        <ele>311.238159</ele>
        <time>2016-10-02T06:11:03Z</time>
      </trkpt>
      <trkpt lat="45.8038" lon="4.71925">
        <ele>310.9599</ele>
        <time>2016-10-02T06:11:05Z</time>
      </trkpt>
      <trkpt lat="45.80385" lon="4.71924">
        <ele>311.135223</ele>
        <time>2016-10-02T06:11:07Z</time>
      </trkpt>
      <trkpt lat="45.8039" lon="4.71922">
        <ele>311.058228</ele>
        <time>2016-10-02T06:11:09Z</time>
      </trkpt>
      <trkpt lat="45.80396" lon="4.71922">
        <ele>311.026398</ele>
        <time>2016-10-02T06:11:11Z</time>
      </trkpt>
      <trkpt lat="45.80401" lon="4.71923">
        <ele>311.064911</ele>
        <time>2016-10-02T06:11:13Z</time>
      </trkpt>
      <trkpt lat="45.80407" lon="4.71925">
        <ele>311.006409</ele>
        <time>2016-10-02T06:11:15Z</time>
      </trkpt>
      <trkpt lat="45.80413" lon="4.71929">
        <ele>311.044891</ele>
        <time>2016-10-02T06:11:17Z</time>
      </trkpt>
      <trkpt lat="45.80418" lon="4.71934">
        <ele>311.081238</ele>
        <time>2016-10-02T06:11:19Z</time>
      </trkpt>
      <trkpt lat="45.80422" lon="4.7194">
        <ele>311.130981</ele>
        <time>2016-10-02T06:11:21Z</time>
      </trkpt>
      <trkpt lat="45.80426" lon="4.71946">
        <ele>311.203674</ele>
        <time>2016-10-02T06:11:23Z</time>
      </trkpt>
      <trkpt lat="45.80433" lon="4.71949">
        <ele>311.246552</ele>
        <time>2016-10-02T06:11:25Z</time>
      </trkpt>
      <trkpt lat="45.80439" lon="4.71951">
        <ele>311.296173</ele>
        <time>2016-10-02T06:11:27Z</time>
      </trkpt>
      <trkpt lat="45.80447" lon="4.71954">
        <ele>311.356018</ele>
        <time>2016-10-02T06:11:29Z</time>
      </trkpt>
      <trkpt lat="45.80455" lon="4.71957">
        <ele>311.38382</ele>
        <time>2016-10-02T06:11:31Z</time>
      </trkpt>
      <trkpt lat="45.80463" lon="4.7196">
        <ele>311.508118</ele>
        <time>2016-10-02T06:11:33Z</time>
      </trkpt>
      <trkpt lat="45.80472" lon="4.71963">
        <ele>311.604462</ele>
        <time>2016-10-02T06:11:35Z</time>
      </trkpt>
      <trkpt lat="45.80481" lon="4.71966">
        <ele>311.788513</ele>
        <time>2016-10-02T06:11:37Z</time>
      </trkpt>
      <trkpt lat="45.80491" lon="4.71969">
        <ele>311.831268</ele>
        <time>2016-10-02T06:11:39Z</time>
      </trkpt>
      <trkpt lat="45.80501" lon="4.71972">
        <ele>311.927704</ele>
        <time>2016-10-02T06:11:41Z</time>
      </trkpt>
      <trkpt lat="45.8051" lon="4.71975">
        <ele>311.957611</ele>
        <time>2016-10-02T06:11:43Z</time>
      </trkpt>
      <trkpt lat="45.8052" lon="4.71979">
        <ele>312.111755</ele>
        <time>2016-10-02T06:11:45Z</time>
      </trkpt>
      <trkpt lat="45.80529" lon="4.71982">
        <ele>312.267883</ele>
        <time>2016-10-02T06:11:47Z</time>
      </trkpt>
      <trkpt lat="45.80538" lon="4.71985">
        <ele>312.468964</ele>
        <time>2016-10-02T06:11:49Z</time>
      </trkpt>
      <trkpt lat="45.80545" lon="4.71989">
        <ele>312.545959</ele>
        <time>2016-10-02T06:11:51Z</time>
      </trkpt>
      <trkpt lat="45.8055" lon="4.71992">
        <ele>312.533142</ele>
        <time>2016-10-02T06:11:53Z</time>
      </trkpt>
      <trkpt lat="45.80553" lon="4.71996">
        <ele>312.661011</ele>
        <time>2016-10-02T06:11:55Z</time>
      </trkpt>
      <trkpt lat="45.80553" lon="4.72002">
        <ele>312.727325</ele>
        <time>2016-10-02T06:11:57Z</time>
      </trkpt>
      <trkpt lat="45.80551" lon="4.72009">
        <ele>312.819244</ele>
        <time>2016-10-02T06:11:59Z</time>
      </trkpt>
      <trkpt lat="45.80548" lon="4.72016">
        <ele>312.805847</ele>
        <time>2016-10-02T06:12:01Z</time>
      </trkpt>
      <trkpt lat="45.80547" lon="4.72022">
        <ele>312.848602</ele>
        <time>2016-10-02T06:12:03Z</time>
      </trkpt>
      <trkpt lat="45.80545" lon="4.72029">
        <ele>312.904236</ele>
        <time>2016-10-02T06:12:05Z</time>
      </trkpt>
      <trkpt lat="45.80544" lon="4.72036">
        <ele>312.933533</ele>
        <time>2016-10-02T06:12:07Z</time>
      </trkpt>
      <trkpt lat="45.80541" lon="4.72046">
        <ele>312.970215</ele>
        <time>2016-10-02T06:12:09Z</time>
      </trkpt>
      <trkpt lat="45.8054" lon="4.72056">
        <ele>312.912506</ele>
        <time>2016-10-02T06:12:11Z</time>
      </trkpt>
      <trkpt lat="45.80539" lon="4.72068">
        <ele>312.856873</ele>
        <time>2016-10-02T06:12:13Z</time>
      </trkpt>
      <trkpt lat="45.80539" lon="4.7208">
        <ele>312.677032</ele>
        <time>2016-10-02T06:12:15Z</time>
      </trkpt>
      <trkpt lat="45.8054" lon="4.72089">
        <ele>312.595795</ele>
        <time>2016-10-02T06:12:17Z</time>
      </trkpt>
      <trkpt lat="45.80541" lon="4.72096">
        <ele>312.324188</ele>
        <time>2016-10-02T06:12:19Z</time>
      </trkpt>
      <trkpt lat="45.80541" lon="4.721">
        <ele>312.268585</ele>
        <time>2016-10-02T06:12:21Z</time>
      </trkpt>
      <trkpt lat="45.80541" lon="4.72103">
        <ele>312.001099</ele>
        <time>2016-10-02T06:12:25Z</time>
      </trkpt>
      <trkpt lat="45.80539" lon="4.72103">
        <ele>311.531281</ele>
        <time>2016-10-02T06:20:23Z</time>
      </trkpt>
      <trkpt lat="45.80538" lon="4.721">
        <ele>311.584717</ele>
        <time>2016-10-02T06:20:25Z</time>
      </trkpt>
      <trkpt lat="45.80537" lon="4.72094">
        <ele>311.616791</ele>
        <time>2016-10-02T06:20:27Z</time>
      </trkpt>
      <trkpt lat="45.80535" lon="4.72092">
        <ele>311.642456</ele>
        <time>2016-10-02T06:20:29Z</time>
      </trkpt>
      <trkpt lat="45.80533" lon="4.72089">
        <ele>311.646179</ele>
        <time>2016-10-02T06:20:31Z</time>
      </trkpt>
      <trkpt lat="45.80532" lon="4.72086">
        <ele>311.842896</ele>
        <time>2016-10-02T06:20:33Z</time>
      </trkpt>
      <trkpt lat="45.80532" lon="4.72082">
        <ele>311.913879</ele>
        <time>2016-10-02T06:20:35Z</time>
      </trkpt>
      <trkpt lat="45.80533" lon="4.72076">
        <ele>311.992615</ele>
        <time>2016-10-02T06:20:37Z</time>
      </trkpt>
      <trkpt lat="45.80534" lon="4.7207">
        <ele>312.024933</ele>
        <time>2016-10-02T06:20:39Z</time>
      </trkpt>
      <trkpt lat="45.80534" lon="4.72065">
        <ele>312.081207</ele>
        <time>2016-10-02T06:20:41Z</time>
      </trkpt>
      <trkpt lat="45.80534" lon="4.7206">
        <ele>312.094025</ele>
        <time>2016-10-02T06:20:43Z</time>
      </trkpt>
      <trkpt lat="45.80536" lon="4.72054">
        <ele>312.100403</ele>
        <time>2016-10-02T06:20:45Z</time>
      </trkpt>
      <trkpt lat="45.80537" lon="4.72049">
        <ele>312.301544</ele>
        <time>2016-10-02T06:20:47Z</time>
      </trkpt>
      <trkpt lat="45.80538" lon="4.72044">
        <ele>312.458771</ele>
        <time>2016-10-02T06:20:49Z</time>
      </trkpt>
      <trkpt lat="45.80539" lon="4.72039">
        <ele>312.553741</ele>
        <time>2016-10-02T06:20:51Z</time>
      </trkpt>
      <trkpt lat="45.8054" lon="4.72036">
        <ele>312.677795</ele>
        <time>2016-10-02T06:20:53Z</time>
      </trkpt>
      <trkpt lat="45.80541" lon="4.72032">
        <ele>312.699524</ele>
        <time>2016-10-02T06:20:55Z</time>
      </trkpt>
      <trkpt lat="45.80541" lon="4.72027">
        <ele>312.763702</ele>
        <time>2016-10-02T06:20:57Z</time>
      </trkpt>
      <trkpt lat="45.80544" lon="4.72021">
        <ele>312.808563</ele>
        <time>2016-10-02T06:20:59Z</time>
      </trkpt>
      <trkpt lat="45.80546" lon="4.72016">
        <ele>312.911072</ele>
        <time>2016-10-02T06:21:01Z</time>
      </trkpt>
      <trkpt lat="45.80549" lon="4.72012">
        <ele>312.970673</ele>
        <time>2016-10-02T06:21:03Z</time>
      </trkpt>
      <trkpt lat="45.80551" lon="4.72008">
        <ele>313.078491</ele>
        <time>2016-10-02T06:21:05Z</time>
      </trkpt>
      <trkpt lat="45.80552" lon="4.72004">
        <ele>313.217499</ele>
        <time>2016-10-02T06:21:07Z</time>
      </trkpt>
      <trkpt lat="45.80554" lon="4.72002">
        <ele>313.264587</ele>
        <time>2016-10-02T06:21:09Z</time>
      </trkpt>
      <trkpt lat="45.80557" lon="4.72002">
        <ele>313.352905</ele>
        <time>2016-10-02T06:21:11Z</time>
      </trkpt>
      <trkpt lat="45.80558" lon="4.72">
        <ele>313.507446</ele>
        <time>2016-10-02T06:21:13Z</time>
      </trkpt>
      <trkpt lat="45.80557" lon="4.71998">
        <ele>313.443146</ele>
        <time>2016-10-02T06:21:15Z</time>
      </trkpt>
      <trkpt lat="45.80556" lon="4.71999">
        <ele>313.485962</ele>
        <time>2016-10-02T06:21:17Z</time>
      </trkpt>
      <trkpt lat="45.80554" lon="4.72002">
        <ele>313.569794</ele>
        <time>2016-10-02T06:21:19Z</time>
      </trkpt>
      <trkpt lat="45.8055" lon="4.72003">
        <ele>313.597626</ele>
        <time>2016-10-02T06:21:21Z</time>
      </trkpt>
      <trkpt lat="45.80545" lon="4.72001">
        <ele>313.731628</ele>
        <time>2016-10-02T06:21:23Z</time>
      </trkpt>
      <trkpt lat="45.80539" lon="4.71998">
        <ele>313.825745</ele>
        <time>2016-10-02T06:21:25Z</time>
      </trkpt>
      <trkpt lat="45.80534" lon="4.71996">
        <ele>314.067444</ele>
        <time>2016-10-02T06:21:27Z</time>
      </trkpt>
      <trkpt lat="45.80528" lon="4.71995">
        <ele>313.859894</ele>
        <time>2016-10-02T06:21:29Z</time>
      </trkpt>
      <trkpt lat="45.80522" lon="4.71994">
        <ele>313.880157</ele>
        <time>2016-10-02T06:21:31Z</time>
      </trkpt>
      <trkpt lat="45.80514" lon="4.71992">
        <ele>313.934601</ele>
        <time>2016-10-02T06:21:33Z</time>
      </trkpt>
      <trkpt lat="45.80506" lon="4.71989">
        <ele>314.039429</ele>
        <time>2016-10-02T06:21:35Z</time>
      </trkpt>
      <trkpt lat="45.80498" lon="4.71985">
        <ele>314.1763</ele>
        <time>2016-10-02T06:21:37Z</time>
      </trkpt>
      <trkpt lat="45.80491" lon="4.71982">
        <ele>314.250702</ele>
        <time>2016-10-02T06:21:39Z</time>
      </trkpt>
      <trkpt lat="45.80485" lon="4.71979">
        <ele>314.310577</ele>
        <time>2016-10-02T06:21:41Z</time>
      </trkpt>
      <trkpt lat="45.80478" lon="4.71976">
        <ele>314.436951</ele>
        <time>2016-10-02T06:21:43Z</time>
      </trkpt>
      <trkpt lat="45.80471" lon="4.71974">
        <ele>314.595184</ele>
        <time>2016-10-02T06:21:45Z</time>
      </trkpt>
      <trkpt lat="45.80465" lon="4.71972">
        <ele>314.630646</ele>
        <time>2016-10-02T06:21:47Z</time>
      </trkpt>
      <trkpt lat="45.80458" lon="4.71969">
        <ele>314.600525</ele>
        <time>2016-10-02T06:21:49Z</time>
      </trkpt>
      <trkpt lat="45.80451" lon="4.71967">
        <ele>314.589172</ele>
        <time>2016-10-02T06:21:51Z</time>
      </trkpt>
      <trkpt lat="45.80444" lon="4.71964">
        <ele>314.638397</ele>
        <time>2016-10-02T06:21:53Z</time>
      </trkpt>
      <trkpt lat="45.80438" lon="4.71962">
        <ele>314.636688</ele>
        <time>2016-10-02T06:21:55Z</time>
      </trkpt>
      <trkpt lat="45.80432" lon="4.71959">
        <ele>314.596069</ele>
        <time>2016-10-02T06:21:57Z</time>
      </trkpt>
      <trkpt lat="45.80425" lon="4.71958">
        <ele>314.501923</ele>
        <time>2016-10-02T06:21:59Z</time>
      </trkpt>
      <trkpt lat="45.80419" lon="4.71957">
        <ele>314.436401</ele>
        <time>2016-10-02T06:22:01Z</time>
      </trkpt>
      <trkpt lat="45.80412" lon="4.71956">
        <ele>314.42572</ele>
        <time>2016-10-02T06:22:03Z</time>
      </trkpt>
      <trkpt lat="45.80405" lon="4.71955">
        <ele>314.355164</ele>
        <time>2016-10-02T06:22:05Z</time>
      </trkpt>
      <trkpt lat="45.80397" lon="4.71955">
        <ele>314.277893</ele>
        <time>2016-10-02T06:22:07Z</time>
      </trkpt>
      <trkpt lat="45.8039" lon="4.71954">
        <ele>314.052032</ele>
        <time>2016-10-02T06:22:09Z</time>
      </trkpt>
      <trkpt lat="45.80382" lon="4.71955">
        <ele>314.137604</ele>
        <time>2016-10-02T06:22:11Z</time>
      </trkpt>
      <trkpt lat="45.80374" lon="4.71957">
        <ele>314.082336</ele>
        <time>2016-10-02T06:22:13Z</time>
      </trkpt>
      <trkpt lat="45.80367" lon="4.71959">
        <ele>314.037415</ele>
        <time>2016-10-02T06:22:15Z</time>
      </trkpt>
      <trkpt lat="45.8036" lon="4.71963">
        <ele>313.81073</ele>
        <time>2016-10-02T06:22:17Z</time>
      </trkpt>
      <trkpt lat="45.80353" lon="4.71967">
        <ele>313.509247</ele>
        <time>2016-10-02T06:22:19Z</time>
      </trkpt>
      <trkpt lat="45.80345" lon="4.71972">
        <ele>313.353577</ele>
        <time>2016-10-02T06:22:21Z</time>
      </trkpt>
      <trkpt lat="45.80336" lon="4.71979">
        <ele>313.216736</ele>
        <time>2016-10-02T06:22:23Z</time>
      </trkpt>
      <trkpt lat="45.80328" lon="4.71988">
        <ele>313.090576</ele>
        <time>2016-10-02T06:22:25Z</time>
      </trkpt>
      <trkpt lat="45.8032" lon="4.71996">
        <ele>312.942535</ele>
        <time>2016-10-02T06:22:27Z</time>
      </trkpt>
      <trkpt lat="45.80311" lon="4.72005">
        <ele>312.712433</ele>
        <time>2016-10-02T06:22:29Z</time>
      </trkpt>
      <trkpt lat="45.80303" lon="4.72013">
        <ele>312.500916</ele>
        <time>2016-10-02T06:22:31Z</time>
      </trkpt>
      <trkpt lat="45.80294" lon="4.72021">
        <ele>312.490204</ele>
        <time>2016-10-02T06:22:33Z</time>
      </trkpt>
      <trkpt lat="45.80286" lon="4.72029">
        <ele>312.251831</ele>
        <time>2016-10-02T06:22:35Z</time>
      </trkpt>
      <trkpt lat="45.80278" lon="4.72038">
        <ele>312.041931</ele>
        <time>2016-10-02T06:22:37Z</time>
      </trkpt>
      <trkpt lat="45.80269" lon="4.72047">
        <ele>311.783234</ele>
        <time>2016-10-02T06:22:39Z</time>
      </trkpt>
      <trkpt lat="45.80261" lon="4.72056">
        <ele>311.520294</ele>
        <time>2016-10-02T06:22:41Z</time>
      </trkpt>
      <trkpt lat="45.80253" lon="4.72065">
        <ele>311.171753</ele>
        <time>2016-10-02T06:22:43Z</time>
      </trkpt>
      <trkpt lat="45.80244" lon="4.72075">
        <ele>311.214539</ele>
        <time>2016-10-02T06:22:45Z</time>
      </trkpt>
      <trkpt lat="45.80235" lon="4.72085">
        <ele>310.938934</ele>
        <time>2016-10-02T06:22:47Z</time>
      </trkpt>
      <trkpt lat="45.80226" lon="4.72096">
        <ele>310.851257</ele>
        <time>2016-10-02T06:22:49Z</time>
      </trkpt>
      <trkpt lat="45.80216" lon="4.72106">
        <ele>310.611481</ele>
        <time>2016-10-02T06:22:51Z</time>
      </trkpt>
      <trkpt lat="45.80207" lon="4.72116">
        <ele>310.215332</ele>
        <time>2016-10-02T06:22:53Z</time>
      </trkpt>
      <trkpt lat="45.80196" lon="4.72125">
        <ele>309.95224</ele>
        <time>2016-10-02T06:22:55Z</time>
      </trkpt>
      <trkpt lat="45.80185" lon="4.72131">
        <ele>309.70636</ele>
        <time>2016-10-02T06:22:57Z</time>
      </trkpt>
      <trkpt lat="45.80174" lon="4.72138">
        <ele>309.501129</ele>
        <time>2016-10-02T06:22:59Z</time>
      </trkpt>
      <trkpt lat="45.80164" lon="4.72147">
        <ele>309.356842</ele>
        <time>2016-10-02T06:23:01Z</time>
      </trkpt>
      <trkpt lat="45.80153" lon="4.72154">
        <ele>308.852448</ele>
        <time>2016-10-02T06:23:03Z</time>
      </trkpt>
      <trkpt lat="45.80141" lon="4.72154">
        <ele>308.360901</ele>
        <time>2016-10-02T06:23:05Z</time>
      </trkpt>
      <trkpt lat="45.8013" lon="4.72148">
        <ele>308.070648</ele>
        <time>2016-10-02T06:23:07Z</time>
      </trkpt>
      <trkpt lat="45.80121" lon="4.72138">
        <ele>307.75531</ele>
        <time>2016-10-02T06:23:09Z</time>
      </trkpt>
      <trkpt lat="45.80113" lon="4.72127">
        <ele>307.500977</ele>
        <time>2016-10-02T06:23:11Z</time>
      </trkpt>
      <trkpt lat="45.80104" lon="4.72116">
        <ele>307.208191</ele>
        <time>2016-10-02T06:23:13Z</time>
      </trkpt>
      <trkpt lat="45.80095" lon="4.72103">
        <ele>306.947357</ele>
        <time>2016-10-02T06:23:15Z</time>
      </trkpt>
      <trkpt lat="45.80085" lon="4.72091">
        <ele>306.638031</ele>
        <time>2016-10-02T06:23:17Z</time>
      </trkpt>
      <trkpt lat="45.80076" lon="4.72077">
        <ele>306.437103</ele>
        <time>2016-10-02T06:23:19Z</time>
      </trkpt>
      <trkpt lat="45.80067" lon="4.72064">
        <ele>306.327728</ele>
        <time>2016-10-02T06:23:21Z</time>
      </trkpt>
      <trkpt lat="45.80053" lon="4.72047">
        <ele>306.15033</ele>
        <time>2016-10-02T06:23:24Z</time>
      </trkpt>
      <trkpt lat="45.80044" lon="4.72035">
        <ele>305.968719</ele>
        <time>2016-10-02T06:23:26Z</time>
      </trkpt>
      <trkpt lat="45.80034" lon="4.72023">
        <ele>305.44931</ele>
        <time>2016-10-02T06:23:28Z</time>
      </trkpt>
      <trkpt lat="45.80024" lon="4.72012">
        <ele>305.333466</ele>
        <time>2016-10-02T06:23:30Z</time>
      </trkpt>
      <trkpt lat="45.80013" lon="4.72003">
        <ele>304.906097</ele>
        <time>2016-10-02T06:23:32Z</time>
      </trkpt>
      <trkpt lat="45.80002" lon="4.71996">
        <ele>304.662048</ele>
        <time>2016-10-02T06:23:34Z</time>
      </trkpt>
      <trkpt lat="45.7999" lon="4.71989">
        <ele>304.463806</ele>
        <time>2016-10-02T06:23:36Z</time>
      </trkpt>
      <trkpt lat="45.79979" lon="4.71981">
        <ele>304.126221</ele>
        <time>2016-10-02T06:23:38Z</time>
      </trkpt>
      <trkpt lat="45.79967" lon="4.71973">
        <ele>303.647583</ele>
        <time>2016-10-02T06:23:40Z</time>
      </trkpt>
      <trkpt lat="45.79955" lon="4.71963">
        <ele>303.350586</ele>
        <time>2016-10-02T06:23:42Z</time>
      </trkpt>
      <trkpt lat="45.79943" lon="4.71952">
        <ele>303.21405</ele>
        <time>2016-10-02T06:23:44Z</time>
      </trkpt>
      <trkpt lat="45.79929" lon="4.71941">
        <ele>303.027222</ele>
        <time>2016-10-02T06:23:46Z</time>
      </trkpt>
      <trkpt lat="45.79915" lon="4.7193">
        <ele>302.583069</ele>
        <time>2016-10-02T06:23:48Z</time>
      </trkpt>
      <trkpt lat="45.79898" lon="4.71915">
        <ele>301.861237</ele>
        <time>2016-10-02T06:23:50Z</time>
      </trkpt>
      <trkpt lat="45.79882" lon="4.71899">
        <ele>301.266663</ele>
        <time>2016-10-02T06:23:52Z</time>
      </trkpt>
      <trkpt lat="45.79871" lon="4.71885">
        <ele>300.429718</ele>
        <time>2016-10-02T06:23:54Z</time>
      </trkpt>
      <trkpt lat="45.79866" lon="4.71868">
        <ele>299.115265</ele>
        <time>2016-10-02T06:23:56Z</time>
      </trkpt>
      <trkpt lat="45.79868" lon="4.71847">
        <ele>298.534637</ele>
        <time>2016-10-02T06:23:58Z</time>
      </trkpt>
      <trkpt lat="45.79878" lon="4.71827">
        <ele>297.542755</ele>
        <time>2016-10-02T06:24:00Z</time>
      </trkpt>
      <trkpt lat="45.79889" lon="4.71806">
        <ele>296.310608</ele>
        <time>2016-10-02T06:24:02Z</time>
      </trkpt>
      <trkpt lat="45.79899" lon="4.71788">
        <ele>294.887543</ele>
        <time>2016-10-02T06:24:04Z</time>
      </trkpt>
      <trkpt lat="45.79909" lon="4.71775">
        <ele>293.383575</ele>
        <time>2016-10-02T06:24:06Z</time>
      </trkpt>
      <trkpt lat="45.79916" lon="4.71766">
        <ele>292.075409</ele>
        <time>2016-10-02T06:24:08Z</time>
      </trkpt>
      <trkpt lat="45.79921" lon="4.71757">
        <ele>290.848511</ele>
        <time>2016-10-02T06:24:10Z</time>
      </trkpt>
      <trkpt lat="45.79927" lon="4.71745">
        <ele>289.68811</ele>
        <time>2016-10-02T06:24:12Z</time>
      </trkpt>
      <trkpt lat="45.79936" lon="4.71734">
        <ele>288.441956</ele>
        <time>2016-10-02T06:24:14Z</time>
      </trkpt>
      <trkpt lat="45.79945" lon="4.71724">
        <ele>287.061371</ele>
        <time>2016-10-02T06:24:16Z</time>
      </trkpt>
      <trkpt lat="45.79956" lon="4.71715">
        <ele>285.883545</ele>
        <time>2016-10-02T06:24:18Z</time>
      </trkpt>
      <trkpt lat="45.79966" lon="4.71704">
        <ele>284.688873</ele>
        <time>2016-10-02T06:24:20Z</time>
      </trkpt>
      <trkpt lat="45.79972" lon="4.7169">
        <ele>283.344818</ele>
        <time>2016-10-02T06:24:22Z</time>
      </trkpt>
      <trkpt lat="45.7998" lon="4.71676">
        <ele>281.703308</ele>
        <time>2016-10-02T06:24:24Z</time>
      </trkpt>
      <trkpt lat="45.79989" lon="4.71663">
        <ele>280.366455</ele>
        <time>2016-10-02T06:24:26Z</time>
      </trkpt>
      <trkpt lat="45.79998" lon="4.7165">
        <ele>279.310883</ele>
        <time>2016-10-02T06:24:28Z</time>
      </trkpt>
      <trkpt lat="45.80007" lon="4.71638">
        <ele>278.88446</ele>
        <time>2016-10-02T06:24:30Z</time>
      </trkpt>
      <trkpt lat="45.80016" lon="4.71626">
        <ele>278.048584</ele>
        <time>2016-10-02T06:24:32Z</time>
      </trkpt>
      <trkpt lat="45.80024" lon="4.71615">
        <ele>276.874603</ele>
        <time>2016-10-02T06:24:34Z</time>
      </trkpt>
      <trkpt lat="45.80032" lon="4.71603">
        <ele>276.262695</ele>
        <time>2016-10-02T06:24:36Z</time>
      </trkpt>
      <trkpt lat="45.8004" lon="4.71593">
        <ele>276.094818</ele>
        <time>2016-10-02T06:24:38Z</time>
      </trkpt>
      <trkpt lat="45.80047" lon="4.71582">
        <ele>275.59137</ele>
        <time>2016-10-02T06:24:40Z</time>
      </trkpt>
      <trkpt lat="45.80051" lon="4.71571">
        <ele>275.527405</ele>
        <time>2016-10-02T06:24:42Z</time>
      </trkpt>
      <trkpt lat="45.80057" lon="4.7156">
        <ele>275.165955</ele>
        <time>2016-10-02T06:24:44Z</time>
      </trkpt>
      <trkpt lat="45.80065" lon="4.71551">
        <ele>275.197906</ele>
        <time>2016-10-02T06:24:46Z</time>
      </trkpt>
      <trkpt lat="45.80074" lon="4.71543">
        <ele>274.974182</ele>
        <time>2016-10-02T06:24:48Z</time>
      </trkpt>
      <trkpt lat="45.80083" lon="4.71534">
        <ele>274.718445</ele>
        <time>2016-10-02T06:24:50Z</time>
      </trkpt>
      <trkpt lat="45.80092" lon="4.71525">
        <ele>274.464935</ele>
        <time>2016-10-02T06:24:52Z</time>
      </trkpt>
      <trkpt lat="45.80102" lon="4.71517">
        <ele>274.119781</ele>
        <time>2016-10-02T06:24:54Z</time>
      </trkpt>
      <trkpt lat="45.80111" lon="4.71508">
        <ele>273.785309</ele>
        <time>2016-10-02T06:24:56Z</time>
      </trkpt>
      <trkpt lat="45.8012" lon="4.715">
        <ele>273.474182</ele>
        <time>2016-10-02T06:24:58Z</time>
      </trkpt>
      <trkpt lat="45.80129" lon="4.71491">
        <ele>273.468323</ele>
        <time>2016-10-02T06:25:00Z</time>
      </trkpt>
      <trkpt lat="45.80138" lon="4.71482">
        <ele>273.432068</ele>
        <time>2016-10-02T06:25:02Z</time>
      </trkpt>
      <trkpt lat="45.80148" lon="4.71473">
        <ele>273.402252</ele>
        <time>2016-10-02T06:25:04Z</time>
      </trkpt>
      <trkpt lat="45.80157" lon="4.71464">
        <ele>273.391602</ele>
        <time>2016-10-02T06:25:06Z</time>
      </trkpt>
      <trkpt lat="45.80166" lon="4.71455">
        <ele>273.119049</ele>
        <time>2016-10-02T06:25:08Z</time>
      </trkpt>
      <trkpt lat="45.80174" lon="4.71446">
        <ele>273.137756</ele>
        <time>2016-10-02T06:25:10Z</time>
      </trkpt>
      <trkpt lat="45.80183" lon="4.71436">
        <ele>273.134674</ele>
        <time>2016-10-02T06:25:12Z</time>
      </trkpt>
      <trkpt lat="45.8019" lon="4.71427">
        <ele>273.232605</ele>
        <time>2016-10-02T06:25:14Z</time>
      </trkpt>
      <trkpt lat="45.80198" lon="4.71422">
        <ele>273.057922</ele>
        <time>2016-10-02T06:25:16Z</time>
      </trkpt>
      <trkpt lat="45.80206" lon="4.7142">
        <ele>272.916748</ele>
        <time>2016-10-02T06:25:18Z</time>
      </trkpt>
      <trkpt lat="45.80215" lon="4.7141">
        <ele>272.657166</ele>
        <time>2016-10-02T06:25:20Z</time>
      </trkpt>
      <trkpt lat="45.80219" lon="4.71403">
        <ele>272.405762</ele>
        <time>2016-10-02T06:25:22Z</time>
      </trkpt>
      <trkpt lat="45.80217" lon="4.71404">
        <ele>272.309906</ele>
        <time>2016-10-02T06:25:24Z</time>
      </trkpt>
      <trkpt lat="45.80214" lon="4.71409">
        <ele>272.11557</ele>
        <time>2016-10-02T06:25:26Z</time>
      </trkpt>
      <trkpt lat="45.80209" lon="4.71409">
        <ele>271.811035</ele>
        <time>2016-10-02T06:25:28Z</time>
      </trkpt>
      <trkpt lat="45.80204" lon="4.71402">
        <ele>271.659851</ele>
        <time>2016-10-02T06:25:30Z</time>
      </trkpt>
      <trkpt lat="45.80203" lon="4.71396">
        <ele>271.608734</ele>
        <time>2016-10-02T06:25:32Z</time>
      </trkpt>
      <trkpt lat="45.80204" lon="4.71387">
        <ele>271.427643</ele>
        <time>2016-10-02T06:25:34Z</time>
      </trkpt>
      <trkpt lat="45.80208" lon="4.71382">
        <ele>271.421234</ele>
        <time>2016-10-02T06:25:36Z</time>
      </trkpt>
      <trkpt lat="45.8021" lon="4.71376">
        <ele>271.344543</ele>
        <time>2016-10-02T06:25:38Z</time>
      </trkpt>
      <trkpt lat="45.80209" lon="4.71368">
        <ele>271.157135</ele>
        <time>2016-10-02T06:25:40Z</time>
      </trkpt>
      <trkpt lat="45.80205" lon="4.71362">
        <ele>270.960632</ele>
        <time>2016-10-02T06:25:42Z</time>
      </trkpt>
      <trkpt lat="45.80205" lon="4.71352">
        <ele>270.813629</ele>
        <time>2016-10-02T06:25:44Z</time>
      </trkpt>
      <trkpt lat="45.8021" lon="4.71344">
        <ele>270.647522</ele>
        <time>2016-10-02T06:25:46Z</time>
      </trkpt>
      <trkpt lat="45.80215" lon="4.71337">
        <ele>270.730927</ele>
        <time>2016-10-02T06:25:48Z</time>
      </trkpt>
      <trkpt lat="45.80219" lon="4.71328">
        <ele>270.539246</ele>
        <time>2016-10-02T06:25:50Z</time>
      </trkpt>
      <trkpt lat="45.80224" lon="4.71317">
        <ele>270.294037</ele>
        <time>2016-10-02T06:25:52Z</time>
      </trkpt>
      <trkpt lat="45.8023" lon="4.71307">
        <ele>270.171387</ele>
        <time>2016-10-02T06:25:54Z</time>
      </trkpt>
      <trkpt lat="45.80233" lon="4.71298">
        <ele>269.915802</ele>
        <time>2016-10-02T06:25:56Z</time>
      </trkpt>
      <trkpt lat="45.80237" lon="4.71289">
        <ele>269.743317</ele>
        <time>2016-10-02T06:25:58Z</time>
      </trkpt>
      <trkpt lat="45.80242" lon="4.7128">
        <ele>269.619232</ele>
        <time>2016-10-02T06:26:00Z</time>
      </trkpt>
      <trkpt lat="45.80246" lon="4.71271">
        <ele>269.529419</ele>
        <time>2016-10-02T06:26:02Z</time>
      </trkpt>
      <trkpt lat="45.80251" lon="4.7126">
        <ele>269.478333</ele>
        <time>2016-10-02T06:26:04Z</time>
      </trkpt>
      <trkpt lat="45.80256" lon="4.71247">
        <ele>269.371857</ele>
        <time>2016-10-02T06:26:06Z</time>
      </trkpt>
      <trkpt lat="45.80263" lon="4.71236">
        <ele>269.190857</ele>
        <time>2016-10-02T06:26:08Z</time>
      </trkpt>
      <trkpt lat="45.80269" lon="4.71225">
        <ele>269.297272</ele>
        <time>2016-10-02T06:26:10Z</time>
      </trkpt>
      <trkpt lat="45.80273" lon="4.71213">
        <ele>269.409241</ele>
        <time>2016-10-02T06:26:12Z</time>
      </trkpt>
      <trkpt lat="45.80278" lon="4.71201">
        <ele>269.413513</ele>
        <time>2016-10-02T06:26:14Z</time>
      </trkpt>
      <trkpt lat="45.80285" lon="4.7119">
        <ele>269.366669</ele>
        <time>2016-10-02T06:26:16Z</time>
      </trkpt>
      <trkpt lat="45.8029" lon="4.7118">
        <ele>269.336853</ele>
        <time>2016-10-02T06:26:18Z</time>
      </trkpt>
      <trkpt lat="45.80294" lon="4.71172">
        <ele>269.32196</ele>
        <time>2016-10-02T06:26:20Z</time>
      </trkpt>
      <trkpt lat="45.80299" lon="4.71163">
        <ele>269.266663</ele>
        <time>2016-10-02T06:26:22Z</time>
      </trkpt>
      <trkpt lat="45.80305" lon="4.71153">
        <ele>269.322083</ele>
        <time>2016-10-02T06:26:24Z</time>
      </trkpt>
      <trkpt lat="45.8031" lon="4.71141">
        <ele>269.224091</ele>
        <time>2016-10-02T06:26:26Z</time>
      </trkpt>
      <trkpt lat="45.80316" lon="4.71128">
        <ele>269.445587</ele>
        <time>2016-10-02T06:26:28Z</time>
      </trkpt>
      <trkpt lat="45.80322" lon="4.71116">
        <ele>269.568787</ele>
        <time>2016-10-02T06:26:30Z</time>
      </trkpt>
      <trkpt lat="45.80328" lon="4.71104">
        <ele>269.670959</ele>
        <time>2016-10-02T06:26:32Z</time>
      </trkpt>
      <trkpt lat="45.80335" lon="4.71094">
        <ele>269.700287</ele>
        <time>2016-10-02T06:26:34Z</time>
      </trkpt>
      <trkpt lat="45.80342" lon="4.71085">
        <ele>270.023254</ele>
        <time>2016-10-02T06:26:36Z</time>
      </trkpt>
      <trkpt lat="45.80348" lon="4.71074">
        <ele>270.208008</ele>
        <time>2016-10-02T06:26:38Z</time>
      </trkpt>
      <trkpt lat="45.80354" lon="4.71063">
        <ele>270.125488</ele>
        <time>2016-10-02T06:26:40Z</time>
      </trkpt>
      <trkpt lat="45.80356" lon="4.71051">
        <ele>270.204285</ele>
        <time>2016-10-02T06:26:42Z</time>
      </trkpt>
      <trkpt lat="45.80356" lon="4.71036">
        <ele>270.091431</ele>
        <time>2016-10-02T06:26:44Z</time>
      </trkpt>
      <trkpt lat="45.8036" lon="4.71023">
        <ele>270.276703</ele>
        <time>2016-10-02T06:26:46Z</time>
      </trkpt>
      <trkpt lat="45.80365" lon="4.71011">
        <ele>270.165985</ele>
        <time>2016-10-02T06:26:48Z</time>
      </trkpt>
      <trkpt lat="45.8037" lon="4.71">
        <ele>270.210693</ele>
        <time>2016-10-02T06:26:50Z</time>
      </trkpt>
      <trkpt lat="45.80376" lon="4.70991">
        <ele>270.022766</ele>
        <time>2016-10-02T06:26:52Z</time>
      </trkpt>
      <trkpt lat="45.80382" lon="4.70982">
        <ele>269.964081</ele>
        <time>2016-10-02T06:26:54Z</time>
      </trkpt>
      <trkpt lat="45.8039" lon="4.70979">
        <ele>270.06134</ele>
        <time>2016-10-02T06:26:56Z</time>
      </trkpt>
      <trkpt lat="45.80398" lon="4.70977">
        <ele>270.063416</ele>
        <time>2016-10-02T06:26:58Z</time>
      </trkpt>
      <trkpt lat="45.80405" lon="4.70972">
        <ele>270.210388</ele>
        <time>2016-10-02T06:27:00Z</time>
      </trkpt>
      <trkpt lat="45.80414" lon="4.70967">
        <ele>270.485229</ele>
        <time>2016-10-02T06:27:02Z</time>
      </trkpt>
      <trkpt lat="45.80421" lon="4.70961">
        <ele>270.762024</ele>
        <time>2016-10-02T06:27:04Z</time>
      </trkpt>
      <trkpt lat="45.80428" lon="4.70952">
        <ele>270.628967</ele>
        <time>2016-10-02T06:27:06Z</time>
      </trkpt>
      <trkpt lat="45.80434" lon="4.70946">
        <ele>270.912323</ele>
        <time>2016-10-02T06:27:08Z</time>
      </trkpt>
      <trkpt lat="45.80441" lon="4.7094">
        <ele>270.974091</ele>
        <time>2016-10-02T06:27:10Z</time>
      </trkpt>
      <trkpt lat="45.80446" lon="4.70931">
        <ele>271.146698</ele>
        <time>2016-10-02T06:27:12Z</time>
      </trkpt>
      <trkpt lat="45.80447" lon="4.70917">
        <ele>271.434296</ele>
        <time>2016-10-02T06:27:14Z</time>
      </trkpt>
      <trkpt lat="45.80448" lon="4.70901">
        <ele>271.67926</ele>
        <time>2016-10-02T06:27:16Z</time>
      </trkpt>
      <trkpt lat="45.80445" lon="4.70883">
        <ele>271.389587</ele>
        <time>2016-10-02T06:27:18Z</time>
      </trkpt>
      <trkpt lat="45.80441" lon="4.70865">
        <ele>271.564758</ele>
        <time>2016-10-02T06:27:20Z</time>
      </trkpt>
      <trkpt lat="45.80434" lon="4.70848">
        <ele>271.954559</ele>
        <time>2016-10-02T06:27:22Z</time>
      </trkpt>
      <trkpt lat="45.80426" lon="4.70835">
        <ele>272.146362</ele>
        <time>2016-10-02T06:27:24Z</time>
      </trkpt>
      <trkpt lat="45.80417" lon="4.70831">
        <ele>272.440002</ele>
        <time>2016-10-02T06:27:26Z</time>
      </trkpt>
      <trkpt lat="45.80409" lon="4.70834">
        <ele>272.612732</ele>
        <time>2016-10-02T06:27:28Z</time>
      </trkpt>
      <trkpt lat="45.80403" lon="4.70838">
        <ele>273.09198</ele>
        <time>2016-10-02T06:27:30Z</time>
      </trkpt>
      <trkpt lat="45.80398" lon="4.70844">
        <ele>273.564911</ele>
        <time>2016-10-02T06:27:32Z</time>
      </trkpt>
      <trkpt lat="45.80394" lon="4.70849">
        <ele>273.882782</ele>
        <time>2016-10-02T06:27:34Z</time>
      </trkpt>
      <trkpt lat="45.80389" lon="4.70853">
        <ele>274.256287</ele>
        <time>2016-10-02T06:27:36Z</time>
      </trkpt>
      <trkpt lat="45.80384" lon="4.70856">
        <ele>274.588654</ele>
        <time>2016-10-02T06:27:38Z</time>
      </trkpt>
      <trkpt lat="45.80379" lon="4.7086">
        <ele>274.982849</ele>
        <time>2016-10-02T06:27:40Z</time>
      </trkpt>
      <trkpt lat="45.80374" lon="4.70865">
        <ele>275.349304</ele>
        <time>2016-10-02T06:27:42Z</time>
      </trkpt>
      <trkpt lat="45.80369" lon="4.70869">
        <ele>275.485718</ele>
        <time>2016-10-02T06:27:44Z</time>
      </trkpt>
      <trkpt lat="45.80365" lon="4.70874">
        <ele>275.684875</ele>
        <time>2016-10-02T06:27:46Z</time>
      </trkpt>
      <trkpt lat="45.80362" lon="4.70879">
        <ele>276.245239</ele>
        <time>2016-10-02T06:27:48Z</time>
      </trkpt>
      <trkpt lat="45.80359" lon="4.70886">
        <ele>276.458374</ele>
        <time>2016-10-02T06:27:50Z</time>
      </trkpt>
      <trkpt lat="45.80356" lon="4.70893">
        <ele>276.724792</ele>
        <time>2016-10-02T06:27:52Z</time>
      </trkpt>
      <trkpt lat="45.80352" lon="4.709">
        <ele>276.880371</ele>
        <time>2016-10-02T06:27:54Z</time>
      </trkpt>
      <trkpt lat="45.80346" lon="4.70905">
        <ele>277.151001</ele>
        <time>2016-10-02T06:27:56Z</time>
      </trkpt>
      <trkpt lat="45.80341" lon="4.70911">
        <ele>277.398254</ele>
        <time>2016-10-02T06:27:58Z</time>
      </trkpt>
      <trkpt lat="45.80335" lon="4.70917">
        <ele>278.10788</ele>
        <time>2016-10-02T06:28:00Z</time>
      </trkpt>
      <trkpt lat="45.8033" lon="4.70921">
        <ele>278.532043</ele>
        <time>2016-10-02T06:28:02Z</time>
      </trkpt>
      <trkpt lat="45.80325" lon="4.70925">
        <ele>278.892303</ele>
        <time>2016-10-02T06:28:04Z</time>
      </trkpt>
      <trkpt lat="45.8032" lon="4.7093">
        <ele>279.210266</ele>
        <time>2016-10-02T06:28:06Z</time>
      </trkpt>
      <trkpt lat="45.80315" lon="4.70935">
        <ele>279.610809</ele>
        <time>2016-10-02T06:28:08Z</time>
      </trkpt>
      <trkpt lat="45.8031" lon="4.70941">
        <ele>280.162903</ele>
        <time>2016-10-02T06:28:10Z</time>
      </trkpt>
      <trkpt lat="45.80305" lon="4.70946">
        <ele>280.555237</ele>
        <time>2016-10-02T06:28:12Z</time>
      </trkpt>
      <trkpt lat="45.803" lon="4.7095">
        <ele>280.777008</ele>
        <time>2016-10-02T06:28:14Z</time>
      </trkpt>
      <trkpt lat="45.80294" lon="4.70954">
        <ele>281.20813</ele>
        <time>2016-10-02T06:28:16Z</time>
      </trkpt>
      <trkpt lat="45.80288" lon="4.70956">
        <ele>281.683563</ele>
        <time>2016-10-02T06:28:18Z</time>
      </trkpt>
      <trkpt lat="45.80283" lon="4.70957">
        <ele>282.218811</ele>
        <time>2016-10-02T06:28:20Z</time>
      </trkpt>
      <trkpt lat="45.80277" lon="4.70959">
        <ele>282.613342</ele>
        <time>2016-10-02T06:28:22Z</time>
      </trkpt>
      <trkpt lat="45.80272" lon="4.70959">
        <ele>283.112122</ele>
        <time>2016-10-02T06:28:24Z</time>
      </trkpt>
      <trkpt lat="45.80267" lon="4.70958">
        <ele>283.570709</ele>
        <time>2016-10-02T06:28:26Z</time>
      </trkpt>
      <trkpt lat="45.80262" lon="4.70957">
        <ele>284.157074</ele>
        <time>2016-10-02T06:28:28Z</time>
      </trkpt>
      <trkpt lat="45.80257" lon="4.70955">
        <ele>284.637024</ele>
        <time>2016-10-02T06:28:30Z</time>
      </trkpt>
      <trkpt lat="45.80251" lon="4.70954">
        <ele>285.005585</ele>
        <time>2016-10-02T06:28:32Z</time>
      </trkpt>
      <trkpt lat="45.80246" lon="4.70953">
        <ele>285.468414</ele>
        <time>2016-10-02T06:28:34Z</time>
      </trkpt>
      <trkpt lat="45.80241" lon="4.70952">
        <ele>286.114624</ele>
        <time>2016-10-02T06:28:36Z</time>
      </trkpt>
      <trkpt lat="45.80235" lon="4.70951">
        <ele>286.706451</ele>
        <time>2016-10-02T06:28:38Z</time>
      </trkpt>
      <trkpt lat="45.80229" lon="4.7095">
        <ele>287.085297</ele>
        <time>2016-10-02T06:28:40Z</time>
      </trkpt>
      <trkpt lat="45.80223" lon="4.70949">
        <ele>287.496887</ele>
        <time>2016-10-02T06:28:42Z</time>
      </trkpt>
      <trkpt lat="45.80217" lon="4.70949">
        <ele>287.938477</ele>
        <time>2016-10-02T06:28:44Z</time>
      </trkpt>
      <trkpt lat="45.80212" lon="4.70948">
        <ele>288.533722</ele>
        <time>2016-10-02T06:28:46Z</time>
      </trkpt>
      <trkpt lat="45.80206" lon="4.70948">
        <ele>288.725708</ele>
        <time>2016-10-02T06:28:48Z</time>
      </trkpt>
      <trkpt lat="45.80201" lon="4.70947">
        <ele>289.178986</ele>
        <time>2016-10-02T06:28:50Z</time>
      </trkpt>
      <trkpt lat="45.80195" lon="4.70946">
        <ele>289.659058</ele>
        <time>2016-10-02T06:28:52Z</time>
      </trkpt>
      <trkpt lat="45.8019" lon="4.70946">
        <ele>290.028198</ele>
        <time>2016-10-02T06:28:54Z</time>
      </trkpt>
      <trkpt lat="45.80183" lon="4.70945">
        <ele>290.34137</ele>
        <time>2016-10-02T06:28:56Z</time>
      </trkpt>
      <trkpt lat="45.80177" lon="4.70945">
        <ele>290.827881</ele>
        <time>2016-10-02T06:28:58Z</time>
      </trkpt>
      <trkpt lat="45.80171" lon="4.70944">
        <ele>291.075439</ele>
        <time>2016-10-02T06:29:00Z</time>
      </trkpt>
      <trkpt lat="45.80164" lon="4.70943">
        <ele>291.586548</ele>
        <time>2016-10-02T06:29:02Z</time>
      </trkpt>
      <trkpt lat="45.80158" lon="4.70942">
        <ele>291.970886</ele>
        <time>2016-10-02T06:29:04Z</time>
      </trkpt>
      <trkpt lat="45.80152" lon="4.70941">
        <ele>292.246979</ele>
        <time>2016-10-02T06:29:06Z</time>
      </trkpt>
      <trkpt lat="45.80146" lon="4.7094">
        <ele>292.678802</ele>
        <time>2016-10-02T06:29:08Z</time>
      </trkpt>
      <trkpt lat="45.8014" lon="4.70939">
        <ele>293.041687</ele>
        <time>2016-10-02T06:29:10Z</time>
      </trkpt>
      <trkpt lat="45.80134" lon="4.70938">
        <ele>293.53952</ele>
        <time>2016-10-02T06:29:12Z</time>
      </trkpt>
      <trkpt lat="45.80127" lon="4.70936">
        <ele>294.064697</ele>
        <time>2016-10-02T06:29:14Z</time>
      </trkpt>
      <trkpt lat="45.80121" lon="4.70935">
        <ele>294.56427</ele>
        <time>2016-10-02T06:29:16Z</time>
      </trkpt>
      <trkpt lat="45.80115" lon="4.70934">
        <ele>295.04364</ele>
        <time>2016-10-02T06:29:18Z</time>
      </trkpt>
      <trkpt lat="45.80109" lon="4.70933">
        <ele>295.182404</ele>
        <time>2016-10-02T06:29:20Z</time>
      </trkpt>
      <trkpt lat="45.80103" lon="4.70933">
        <ele>295.642242</ele>
        <time>2016-10-02T06:29:22Z</time>
      </trkpt>
      <trkpt lat="45.80097" lon="4.70932">
        <ele>296.103394</ele>
        <time>2016-10-02T06:29:24Z</time>
      </trkpt>
      <trkpt lat="45.80092" lon="4.70932">
        <ele>296.504791</ele>
        <time>2016-10-02T06:29:26Z</time>
      </trkpt>
      <trkpt lat="45.80086" lon="4.70932">
        <ele>296.79306</ele>
        <time>2016-10-02T06:29:28Z</time>
      </trkpt>
      <trkpt lat="45.8008" lon="4.70931">
        <ele>297.249054</ele>
        <time>2016-10-02T06:29:30Z</time>
      </trkpt>
      <trkpt lat="45.80075" lon="4.70931">
        <ele>297.72525</ele>
        <time>2016-10-02T06:29:32Z</time>
      </trkpt>
      <trkpt lat="45.8007" lon="4.70929">
        <ele>297.981506</ele>
        <time>2016-10-02T06:29:34Z</time>
      </trkpt>
      <trkpt lat="45.80069" lon="4.70922">
        <ele>298.541473</ele>
        <time>2016-10-02T06:29:36Z</time>
      </trkpt>
      <trkpt lat="45.80073" lon="4.70915">
        <ele>299.066925</ele>
        <time>2016-10-02T06:29:38Z</time>
      </trkpt>
      <trkpt lat="45.80077" lon="4.70907">
        <ele>299.472717</ele>
        <time>2016-10-02T06:29:40Z</time>
      </trkpt>
      <trkpt lat="45.80081" lon="4.70899">
        <ele>299.974579</ele>
        <time>2016-10-02T06:29:42Z</time>
      </trkpt>
      <trkpt lat="45.80085" lon="4.7089">
        <ele>300.475433</ele>
        <time>2016-10-02T06:29:44Z</time>
      </trkpt>
      <trkpt lat="45.80088" lon="4.7088">
        <ele>300.925446</ele>
        <time>2016-10-02T06:29:46Z</time>
      </trkpt>
      <trkpt lat="45.8009" lon="4.7087">
        <ele>301.326294</ele>
        <time>2016-10-02T06:29:48Z</time>
      </trkpt>
      <trkpt lat="45.80092" lon="4.70859">
        <ele>301.576202</ele>
        <time>2016-10-02T06:29:50Z</time>
      </trkpt>
      <trkpt lat="45.80093" lon="4.70848">
        <ele>301.905151</ele>
        <time>2016-10-02T06:29:52Z</time>
      </trkpt>
      <trkpt lat="45.80094" lon="4.70837">
        <ele>301.950012</ele>
        <time>2016-10-02T06:29:54Z</time>
      </trkpt>
      <trkpt lat="45.80095" lon="4.70826">
        <ele>302.123047</ele>
        <time>2016-10-02T06:29:56Z</time>
      </trkpt>
      <trkpt lat="45.80096" lon="4.70815">
        <ele>302.443542</ele>
        <time>2016-10-02T06:29:58Z</time>
      </trkpt>
      <trkpt lat="45.80098" lon="4.70803">
        <ele>302.687103</ele>
        <time>2016-10-02T06:30:00Z</time>
      </trkpt>
      <trkpt lat="45.801" lon="4.70791">
        <ele>303.078064</ele>
        <time>2016-10-02T06:30:02Z</time>
      </trkpt>
      <trkpt lat="45.80101" lon="4.70779">
        <ele>303.29599</ele>
        <time>2016-10-02T06:30:04Z</time>
      </trkpt>
      <trkpt lat="45.80103" lon="4.70767">
        <ele>303.597229</ele>
        <time>2016-10-02T06:30:06Z</time>
      </trkpt>
      <trkpt lat="45.80103" lon="4.70754">
        <ele>303.825867</ele>
        <time>2016-10-02T06:30:08Z</time>
      </trkpt>
      <trkpt lat="45.80103" lon="4.70741">
        <ele>304.107849</ele>
        <time>2016-10-02T06:30:10Z</time>
      </trkpt>
      <trkpt lat="45.801" lon="4.70728">
        <ele>304.287659</ele>
        <time>2016-10-02T06:30:12Z</time>
      </trkpt>
      <trkpt lat="45.80097" lon="4.70715">
        <ele>304.600098</ele>
        <time>2016-10-02T06:30:14Z</time>
      </trkpt>
      <trkpt lat="45.80094" lon="4.70702">
        <ele>304.74115</ele>
        <time>2016-10-02T06:30:16Z</time>
      </trkpt>
      <trkpt lat="45.8009" lon="4.70689">
        <ele>304.844666</ele>
        <time>2016-10-02T06:30:18Z</time>
      </trkpt>
      <trkpt lat="45.80086" lon="4.70677">
        <ele>304.97287</ele>
        <time>2016-10-02T06:30:20Z</time>
      </trkpt>
      <trkpt lat="45.80082" lon="4.70665">
        <ele>305.15451</ele>
        <time>2016-10-02T06:30:22Z</time>
      </trkpt>
      <trkpt lat="45.80077" lon="4.70654">
        <ele>305.184418</ele>
        <time>2016-10-02T06:30:24Z</time>
      </trkpt>
      <trkpt lat="45.80071" lon="4.70643">
        <ele>305.197235</ele>
        <time>2016-10-02T06:30:26Z</time>
      </trkpt>
      <trkpt lat="45.80066" lon="4.70633">
        <ele>305.188629</ele>
        <time>2016-10-02T06:30:28Z</time>
      </trkpt>
      <trkpt lat="45.80059" lon="4.70623">
        <ele>305.323242</ele>
        <time>2016-10-02T06:30:30Z</time>
      </trkpt>
      <trkpt lat="45.80054" lon="4.70613">
        <ele>305.545471</ele>
        <time>2016-10-02T06:30:32Z</time>
      </trkpt>
      <trkpt lat="45.80048" lon="4.70603">
        <ele>305.571106</ele>
        <time>2016-10-02T06:30:34Z</time>
      </trkpt>
      <trkpt lat="45.80043" lon="4.70593">
        <ele>305.735626</ele>
        <time>2016-10-02T06:30:36Z</time>
      </trkpt>
      <trkpt lat="45.80037" lon="4.70583">
        <ele>305.861694</ele>
        <time>2016-10-02T06:30:38Z</time>
      </trkpt>
      <trkpt lat="45.80032" lon="4.70572">
        <ele>306.049774</ele>
        <time>2016-10-02T06:30:40Z</time>
      </trkpt>
      <trkpt lat="45.80027" lon="4.70561">
        <ele>306.086121</ele>
        <time>2016-10-02T06:30:42Z</time>
      </trkpt>
      <trkpt lat="45.80024" lon="4.7055">
        <ele>306.180176</ele>
        <time>2016-10-02T06:30:44Z</time>
      </trkpt>
      <trkpt lat="45.80019" lon="4.70538">
        <ele>306.368225</ele>
        <time>2016-10-02T06:30:46Z</time>
      </trkpt>
      <trkpt lat="45.80017" lon="4.70528">
        <ele>306.39386</ele>
        <time>2016-10-02T06:30:48Z</time>
      </trkpt>
      <trkpt lat="45.80016" lon="4.70516">
        <ele>306.539215</ele>
        <time>2016-10-02T06:30:50Z</time>
      </trkpt>
      <trkpt lat="45.80016" lon="4.70504">
        <ele>306.878143</ele>
        <time>2016-10-02T06:30:52Z</time>
      </trkpt>
      <trkpt lat="45.80016" lon="4.70492">
        <ele>307.143646</ele>
        <time>2016-10-02T06:30:54Z</time>
      </trkpt>
      <trkpt lat="45.80018" lon="4.70481">
        <ele>307.190247</ele>
        <time>2016-10-02T06:30:56Z</time>
      </trkpt>
      <trkpt lat="45.80019" lon="4.7047">
        <ele>307.513031</ele>
        <time>2016-10-02T06:30:58Z</time>
      </trkpt>
      <trkpt lat="45.80022" lon="4.70459">
        <ele>307.673889</ele>
        <time>2016-10-02T06:31:00Z</time>
      </trkpt>
      <trkpt lat="45.80024" lon="4.70448">
        <ele>307.774353</ele>
        <time>2016-10-02T06:31:02Z</time>
      </trkpt>
      <trkpt lat="45.80027" lon="4.70437">
        <ele>307.829895</ele>
        <time>2016-10-02T06:31:04Z</time>
      </trkpt>
      <trkpt lat="45.80029" lon="4.70427">
        <ele>307.898285</ele>
        <time>2016-10-02T06:31:06Z</time>
      </trkpt>
      <trkpt lat="45.80031" lon="4.70416">
        <ele>308.07785</ele>
        <time>2016-10-02T06:31:08Z</time>
      </trkpt>
      <trkpt lat="45.80034" lon="4.70404">
        <ele>308.26593</ele>
        <time>2016-10-02T06:31:10Z</time>
      </trkpt>
      <trkpt lat="45.80036" lon="4.70393">
        <ele>308.285187</ele>
        <time>2016-10-02T06:31:12Z</time>
      </trkpt>
      <trkpt lat="45.8004" lon="4.70382">
        <ele>308.418488</ele>
        <time>2016-10-02T06:31:14Z</time>
      </trkpt>
      <trkpt lat="45.80043" lon="4.70372">
        <ele>308.548859</ele>
        <time>2016-10-02T06:31:16Z</time>
      </trkpt>
      <trkpt lat="45.80048" lon="4.70361">
        <ele>308.839081</ele>
        <time>2016-10-02T06:31:18Z</time>
      </trkpt>
      <trkpt lat="45.80054" lon="4.7035">
        <ele>309.232483</ele>
        <time>2016-10-02T06:31:20Z</time>
      </trkpt>
      <trkpt lat="45.80058" lon="4.70339">
        <ele>309.373596</ele>
        <time>2016-10-02T06:31:22Z</time>
      </trkpt>
      <trkpt lat="45.80063" lon="4.70328">
        <ele>309.577698</ele>
        <time>2016-10-02T06:31:24Z</time>
      </trkpt>
      <trkpt lat="45.80067" lon="4.70318">
        <ele>309.705994</ele>
        <time>2016-10-02T06:31:26Z</time>
      </trkpt>
      <trkpt lat="45.80072" lon="4.70306">
        <ele>309.874878</ele>
        <time>2016-10-02T06:31:28Z</time>
      </trkpt>
      <trkpt lat="45.80077" lon="4.70295">
        <ele>310.0737</ele>
        <time>2016-10-02T06:31:30Z</time>
      </trkpt>
      <trkpt lat="45.80082" lon="4.70284">
        <ele>310.010529</ele>
        <time>2016-10-02T06:31:32Z</time>
      </trkpt>
      <trkpt lat="45.80087" lon="4.70273">
        <ele>309.934021</ele>
        <time>2016-10-02T06:31:34Z</time>
      </trkpt>
      <trkpt lat="45.80092" lon="4.70262">
        <ele>310.01947</ele>
        <time>2016-10-02T06:31:36Z</time>
      </trkpt>
      <trkpt lat="45.80097" lon="4.70252">
        <ele>309.867645</ele>
        <time>2016-10-02T06:31:38Z</time>
      </trkpt>
      <trkpt lat="45.80097" lon="4.7024">
        <ele>309.912537</ele>
        <time>2016-10-02T06:31:40Z</time>
      </trkpt>
      <trkpt lat="45.80095" lon="4.70228">
        <ele>310.013123</ele>
        <time>2016-10-02T06:31:42Z</time>
      </trkpt>
      <trkpt lat="45.80091" lon="4.70216">
        <ele>310.241882</ele>
        <time>2016-10-02T06:31:44Z</time>
      </trkpt>
      <trkpt lat="45.80087" lon="4.70203">
        <ele>310.578522</ele>
        <time>2016-10-02T06:31:46Z</time>
      </trkpt>
      <trkpt lat="45.80084" lon="4.70189">
        <ele>310.700378</ele>
        <time>2016-10-02T06:31:48Z</time>
      </trkpt>
      <trkpt lat="45.80079" lon="4.70177">
        <ele>310.88208</ele>
        <time>2016-10-02T06:31:50Z</time>
      </trkpt>
      <trkpt lat="45.80074" lon="4.70166">
        <ele>310.952637</ele>
        <time>2016-10-02T06:31:52Z</time>
      </trkpt>
      <trkpt lat="45.80067" lon="4.70157">
        <ele>311.320404</ele>
        <time>2016-10-02T06:31:54Z</time>
      </trkpt>
      <trkpt lat="45.80061" lon="4.70147">
        <ele>311.498138</ele>
        <time>2016-10-02T06:31:56Z</time>
      </trkpt>
      <trkpt lat="45.80054" lon="4.70141">
        <ele>311.556488</ele>
        <time>2016-10-02T06:31:58Z</time>
      </trkpt>
      <trkpt lat="45.80046" lon="4.7014">
        <ele>311.644775</ele>
        <time>2016-10-02T06:32:00Z</time>
      </trkpt>
      <trkpt lat="45.80036" lon="4.7014">
        <ele>311.291992</ele>
        <time>2016-10-02T06:32:02Z</time>
      </trkpt>
      <trkpt lat="45.80026" lon="4.70141">
        <ele>311.270752</ele>
        <time>2016-10-02T06:32:04Z</time>
      </trkpt>
      <trkpt lat="45.80016" lon="4.7014">
        <ele>311.310242</ele>
        <time>2016-10-02T06:32:06Z</time>
      </trkpt>
      <trkpt lat="45.80007" lon="4.7014">
        <ele>311.261078</ele>
        <time>2016-10-02T06:32:08Z</time>
      </trkpt>
      <trkpt lat="45.79998" lon="4.7014">
        <ele>311.484436</ele>
        <time>2016-10-02T06:32:10Z</time>
      </trkpt>
      <trkpt lat="45.79988" lon="4.70141">
        <ele>311.418121</ele>
        <time>2016-10-02T06:32:12Z</time>
      </trkpt>
      <trkpt lat="45.79977" lon="4.70141">
        <ele>311.77948</ele>
        <time>2016-10-02T06:32:14Z</time>
      </trkpt>
      <trkpt lat="45.79968" lon="4.70142">
        <ele>312.075531</ele>
        <time>2016-10-02T06:32:16Z</time>
      </trkpt>
      <trkpt lat="45.7996" lon="4.70138">
        <ele>312.482697</ele>
        <time>2016-10-02T06:32:18Z</time>
      </trkpt>
      <trkpt lat="45.79953" lon="4.7013">
        <ele>312.638794</ele>
        <time>2016-10-02T06:32:20Z</time>
      </trkpt>
      <trkpt lat="45.79946" lon="4.70121">
        <ele>312.47644</ele>
        <time>2016-10-02T06:32:22Z</time>
      </trkpt>
      <trkpt lat="45.7994" lon="4.7011">
        <ele>312.546997</ele>
        <time>2016-10-02T06:32:24Z</time>
      </trkpt>
      <trkpt lat="45.79933" lon="4.701">
        <ele>312.332275</ele>
        <time>2016-10-02T06:32:26Z</time>
      </trkpt>
      <trkpt lat="45.79927" lon="4.7009">
        <ele>312.458405</ele>
        <time>2016-10-02T06:32:28Z</time>
      </trkpt>
      <trkpt lat="45.79921" lon="4.7008">
        <ele>312.612396</ele>
        <time>2016-10-02T06:32:30Z</time>
      </trkpt>
      <trkpt lat="45.79915" lon="4.70068">
        <ele>312.838959</ele>
        <time>2016-10-02T06:32:32Z</time>
      </trkpt>
      <trkpt lat="45.79908" lon="4.70057">
        <ele>312.774811</ele>
        <time>2016-10-02T06:32:34Z</time>
      </trkpt>
      <trkpt lat="45.79902" lon="4.70045">
        <ele>312.812286</ele>
        <time>2016-10-02T06:32:36Z</time>
      </trkpt>
      <trkpt lat="45.79896" lon="4.70033">
        <ele>313.012726</ele>
        <time>2016-10-02T06:32:38Z</time>
      </trkpt>
      <trkpt lat="45.79892" lon="4.70021">
        <ele>313.185944</ele>
        <time>2016-10-02T06:32:40Z</time>
      </trkpt>
      <trkpt lat="45.79888" lon="4.70008">
        <ele>313.029785</ele>
        <time>2016-10-02T06:32:42Z</time>
      </trkpt>
      <trkpt lat="45.79887" lon="4.69994">
        <ele>313.215668</ele>
        <time>2016-10-02T06:32:44Z</time>
      </trkpt>
      <trkpt lat="45.79887" lon="4.69981">
        <ele>313.266998</ele>
        <time>2016-10-02T06:32:46Z</time>
      </trkpt>
      <trkpt lat="45.79888" lon="4.69968">
        <ele>313.439575</ele>
        <time>2016-10-02T06:32:48Z</time>
      </trkpt>
      <trkpt lat="45.79889" lon="4.69955">
        <ele>313.764679</ele>
        <time>2016-10-02T06:32:50Z</time>
      </trkpt>
      <trkpt lat="45.79891" lon="4.69942">
        <ele>313.853577</ele>
        <time>2016-10-02T06:32:52Z</time>
      </trkpt>
      <trkpt lat="45.79893" lon="4.69929">
        <ele>314.218048</ele>
        <time>2016-10-02T06:32:54Z</time>
      </trkpt>
      <trkpt lat="45.79895" lon="4.69916">
        <ele>314.177429</ele>
        <time>2016-10-02T06:32:56Z</time>
      </trkpt>
      <trkpt lat="45.79896" lon="4.69905">
        <ele>314.195862</ele>
        <time>2016-10-02T06:32:58Z</time>
      </trkpt>
      <trkpt lat="45.79899" lon="4.69892">
        <ele>314.217255</ele>
        <time>2016-10-02T06:33:00Z</time>
      </trkpt>
      <trkpt lat="45.79902" lon="4.6988">
        <ele>314.730347</ele>
        <time>2016-10-02T06:33:02Z</time>
      </trkpt>
      <trkpt lat="45.79903" lon="4.69868">
        <ele>314.830872</ele>
        <time>2016-10-02T06:33:04Z</time>
      </trkpt>
      <trkpt lat="45.79906" lon="4.69858">
        <ele>315.044769</ele>
        <time>2016-10-02T06:33:06Z</time>
      </trkpt>
      <trkpt lat="45.79908" lon="4.69847">
        <ele>315.577362</ele>
        <time>2016-10-02T06:33:08Z</time>
      </trkpt>
      <trkpt lat="45.79911" lon="4.69836">
        <ele>315.562408</ele>
        <time>2016-10-02T06:33:10Z</time>
      </trkpt>
      <trkpt lat="45.79913" lon="4.69825">
        <ele>315.767761</ele>
        <time>2016-10-02T06:33:12Z</time>
      </trkpt>
      <trkpt lat="45.79916" lon="4.69815">
        <ele>315.866852</ele>
        <time>2016-10-02T06:33:14Z</time>
      </trkpt>
      <trkpt lat="45.79918" lon="4.69804">
        <ele>316.07431</ele>
        <time>2016-10-02T06:33:16Z</time>
      </trkpt>
      <trkpt lat="45.79919" lon="4.69793">
        <ele>316.343445</ele>
        <time>2016-10-02T06:33:18Z</time>
      </trkpt>
      <trkpt lat="45.7992" lon="4.69782">
        <ele>316.512482</ele>
        <time>2016-10-02T06:33:20Z</time>
      </trkpt>
      <trkpt lat="45.7992" lon="4.69772">
        <ele>316.777771</ele>
        <time>2016-10-02T06:33:22Z</time>
      </trkpt>
      <trkpt lat="45.79921" lon="4.69762">
        <ele>317.271912</ele>
        <time>2016-10-02T06:33:24Z</time>
      </trkpt>
      <trkpt lat="45.79921" lon="4.69752">
        <ele>317.725403</ele>
        <time>2016-10-02T06:33:26Z</time>
      </trkpt>
      <trkpt lat="45.79921" lon="4.69741">
        <ele>318.12262</ele>
        <time>2016-10-02T06:33:28Z</time>
      </trkpt>
      <trkpt lat="45.79922" lon="4.6973">
        <ele>318.364166</ele>
        <time>2016-10-02T06:33:30Z</time>
      </trkpt>
      <trkpt lat="45.79923" lon="4.69719">
        <ele>318.439087</ele>
        <time>2016-10-02T06:33:32Z</time>
      </trkpt>
      <trkpt lat="45.79924" lon="4.69706">
        <ele>318.559021</ele>
        <time>2016-10-02T06:33:34Z</time>
      </trkpt>
      <trkpt lat="45.79923" lon="4.69694">
        <ele>318.9263</ele>
        <time>2016-10-02T06:33:36Z</time>
      </trkpt>
      <trkpt lat="45.79923" lon="4.69682">
        <ele>319.163849</ele>
        <time>2016-10-02T06:33:38Z</time>
      </trkpt>
      <trkpt lat="45.79922" lon="4.6967">
        <ele>319.516907</ele>
        <time>2016-10-02T06:33:40Z</time>
      </trkpt>
      <trkpt lat="45.79922" lon="4.69658">
        <ele>319.835693</ele>
        <time>2016-10-02T06:33:42Z</time>
      </trkpt>
      <trkpt lat="45.79923" lon="4.69646">
        <ele>320.139648</ele>
        <time>2016-10-02T06:33:44Z</time>
      </trkpt>
      <trkpt lat="45.79924" lon="4.69635">
        <ele>320.621246</ele>
        <time>2016-10-02T06:33:46Z</time>
      </trkpt>
      <trkpt lat="45.79925" lon="4.69624">
        <ele>320.738953</ele>
        <time>2016-10-02T06:33:48Z</time>
      </trkpt>
      <trkpt lat="45.79927" lon="4.69613">
        <ele>320.905914</ele>
        <time>2016-10-02T06:33:50Z</time>
      </trkpt>
      <trkpt lat="45.79928" lon="4.69602">
        <ele>321.238892</ele>
        <time>2016-10-02T06:33:52Z</time>
      </trkpt>
      <trkpt lat="45.79929" lon="4.69591">
        <ele>321.412262</ele>
        <time>2016-10-02T06:33:54Z</time>
      </trkpt>
      <trkpt lat="45.79931" lon="4.69579">
        <ele>321.837555</ele>
        <time>2016-10-02T06:33:56Z</time>
      </trkpt>
      <trkpt lat="45.79932" lon="4.69567">
        <ele>322.114105</ele>
        <time>2016-10-02T06:33:58Z</time>
      </trkpt>
      <trkpt lat="45.79934" lon="4.69555">
        <ele>322.371002</ele>
        <time>2016-10-02T06:34:00Z</time>
      </trkpt>
      <trkpt lat="45.79935" lon="4.69543">
        <ele>322.685699</ele>
        <time>2016-10-02T06:34:02Z</time>
      </trkpt>
      <trkpt lat="45.79936" lon="4.6953">
        <ele>322.847076</ele>
        <time>2016-10-02T06:34:04Z</time>
      </trkpt>
      <trkpt lat="45.79937" lon="4.69517">
        <ele>322.857819</ele>
        <time>2016-10-02T06:34:06Z</time>
      </trkpt>
      <trkpt lat="45.79937" lon="4.69503">
        <ele>323.041321</ele>
        <time>2016-10-02T06:34:08Z</time>
      </trkpt>
      <trkpt lat="45.79938" lon="4.6949">
        <ele>323.189758</ele>
        <time>2016-10-02T06:34:10Z</time>
      </trkpt>
      <trkpt lat="45.79939" lon="4.69476">
        <ele>323.561035</ele>
        <time>2016-10-02T06:34:12Z</time>
      </trkpt>
      <trkpt lat="45.79939" lon="4.69463">
        <ele>323.682922</ele>
        <time>2016-10-02T06:34:14Z</time>
      </trkpt>
      <trkpt lat="45.7994" lon="4.69451">
        <ele>323.787781</ele>
        <time>2016-10-02T06:34:16Z</time>
      </trkpt>
      <trkpt lat="45.7994" lon="4.6944">
        <ele>323.972412</ele>
        <time>2016-10-02T06:34:18Z</time>
      </trkpt>
      <trkpt lat="45.79935" lon="4.69432">
        <ele>324.160828</ele>
        <time>2016-10-02T06:34:20Z</time>
      </trkpt>
      <trkpt lat="45.79927" lon="4.69426">
        <ele>324.291412</ele>
        <time>2016-10-02T06:34:22Z</time>
      </trkpt>
      <trkpt lat="45.79919" lon="4.69421">
        <ele>324.543365</ele>
        <time>2016-10-02T06:34:24Z</time>
      </trkpt>
      <trkpt lat="45.79911" lon="4.69413">
        <ele>324.609711</ele>
        <time>2016-10-02T06:34:26Z</time>
      </trkpt>
      <trkpt lat="45.79903" lon="4.69404">
        <ele>324.703949</ele>
        <time>2016-10-02T06:34:28Z</time>
      </trkpt>
      <trkpt lat="45.79896" lon="4.69396">
        <ele>325.022278</ele>
        <time>2016-10-02T06:34:30Z</time>
      </trkpt>
      <trkpt lat="45.79889" lon="4.69387">
        <ele>325.267273</ele>
        <time>2016-10-02T06:34:32Z</time>
      </trkpt>
      <trkpt lat="45.79882" lon="4.69378">
        <ele>325.546448</ele>
        <time>2016-10-02T06:34:34Z</time>
      </trkpt>
      <trkpt lat="45.79876" lon="4.69368">
        <ele>325.820526</ele>
        <time>2016-10-02T06:34:36Z</time>
      </trkpt>
      <trkpt lat="45.7987" lon="4.69359">
        <ele>325.916931</ele>
        <time>2016-10-02T06:34:38Z</time>
      </trkpt>
      <trkpt lat="45.79864" lon="4.69349">
        <ele>326.045441</ele>
        <time>2016-10-02T06:34:40Z</time>
      </trkpt>
      <trkpt lat="45.79858" lon="4.69339">
        <ele>326.244568</ele>
        <time>2016-10-02T06:34:42Z</time>
      </trkpt>
      <trkpt lat="45.79852" lon="4.69329">
        <ele>326.403015</ele>
        <time>2016-10-02T06:34:44Z</time>
      </trkpt>
      <trkpt lat="45.79847" lon="4.69319">
        <ele>326.637238</ele>
        <time>2016-10-02T06:34:46Z</time>
      </trkpt>
      <trkpt lat="45.79841" lon="4.69309">
        <ele>327.003387</ele>
        <time>2016-10-02T06:34:48Z</time>
      </trkpt>
      <trkpt lat="45.79836" lon="4.69299">
        <ele>327.226685</ele>
        <time>2016-10-02T06:34:50Z</time>
      </trkpt>
      <trkpt lat="45.79831" lon="4.6929">
        <ele>327.517883</ele>
        <time>2016-10-02T06:34:52Z</time>
      </trkpt>
      <trkpt lat="45.79825" lon="4.6928">
        <ele>327.907776</ele>
        <time>2016-10-02T06:34:54Z</time>
      </trkpt>
      <trkpt lat="45.79821" lon="4.6927">
        <ele>328.263245</ele>
        <time>2016-10-02T06:34:56Z</time>
      </trkpt>
      <trkpt lat="45.79816" lon="4.6926">
        <ele>328.49118</ele>
        <time>2016-10-02T06:34:58Z</time>
      </trkpt>
      <trkpt lat="45.79811" lon="4.6925">
        <ele>328.730591</ele>
        <time>2016-10-02T06:35:00Z</time>
      </trkpt>
      <trkpt lat="45.79806" lon="4.6924">
        <ele>329.056183</ele>
        <time>2016-10-02T06:35:02Z</time>
      </trkpt>
      <trkpt lat="45.79801" lon="4.69231">
        <ele>329.375977</ele>
        <time>2016-10-02T06:35:04Z</time>
      </trkpt>
      <trkpt lat="45.79796" lon="4.69221">
        <ele>329.650146</ele>
        <time>2016-10-02T06:35:06Z</time>
      </trkpt>
      <trkpt lat="45.79791" lon="4.69212">
        <ele>329.928619</ele>
        <time>2016-10-02T06:35:08Z</time>
      </trkpt>
      <trkpt lat="45.79785" lon="4.69203">
        <ele>330.14566</ele>
        <time>2016-10-02T06:35:10Z</time>
      </trkpt>
      <trkpt lat="45.79778" lon="4.69195">
        <ele>330.295593</ele>
        <time>2016-10-02T06:35:12Z</time>
      </trkpt>
      <trkpt lat="45.79771" lon="4.69189">
        <ele>330.553986</ele>
        <time>2016-10-02T06:35:14Z</time>
      </trkpt>
      <trkpt lat="45.79763" lon="4.69183">
        <ele>330.701813</ele>
        <time>2016-10-02T06:35:16Z</time>
      </trkpt>
      <trkpt lat="45.79756" lon="4.69177">
        <ele>330.957123</ele>
        <time>2016-10-02T06:35:18Z</time>
      </trkpt>
      <trkpt lat="45.79747" lon="4.69172">
        <ele>331.327728</ele>
        <time>2016-10-02T06:35:20Z</time>
      </trkpt>
      <trkpt lat="45.79739" lon="4.69167">
        <ele>331.40918</ele>
        <time>2016-10-02T06:35:22Z</time>
      </trkpt>
      <trkpt lat="45.79731" lon="4.69161">
        <ele>331.456299</ele>
        <time>2016-10-02T06:35:24Z</time>
      </trkpt>
      <trkpt lat="45.79723" lon="4.69156">
        <ele>331.773102</ele>
        <time>2016-10-02T06:35:26Z</time>
      </trkpt>
      <trkpt lat="45.79714" lon="4.6915">
        <ele>332.201508</ele>
        <time>2016-10-02T06:35:28Z</time>
      </trkpt>
      <trkpt lat="45.79705" lon="4.69144">
        <ele>332.392822</ele>
        <time>2016-10-02T06:35:30Z</time>
      </trkpt>
      <trkpt lat="45.79696" lon="4.69138">
        <ele>332.673431</ele>
        <time>2016-10-02T06:35:32Z</time>
      </trkpt>
      <trkpt lat="45.79687" lon="4.69132">
        <ele>332.637665</ele>
        <time>2016-10-02T06:35:34Z</time>
      </trkpt>
      <trkpt lat="45.79678" lon="4.69125">
        <ele>332.676239</ele>
        <time>2016-10-02T06:35:36Z</time>
      </trkpt>
      <trkpt lat="45.79668" lon="4.69119">
        <ele>332.782227</ele>
        <time>2016-10-02T06:35:38Z</time>
      </trkpt>
      <trkpt lat="45.79659" lon="4.69111">
        <ele>332.990082</ele>
        <time>2016-10-02T06:35:40Z</time>
      </trkpt>
      <trkpt lat="45.79649" lon="4.69103">
        <ele>333.037079</ele>
        <time>2016-10-02T06:35:42Z</time>
      </trkpt>
      <trkpt lat="45.7964" lon="4.69093">
        <ele>333.011383</ele>
        <time>2016-10-02T06:35:44Z</time>
      </trkpt>
      <trkpt lat="45.79632" lon="4.69083">
        <ele>333.221344</ele>
        <time>2016-10-02T06:35:46Z</time>
      </trkpt>
      <trkpt lat="45.79624" lon="4.69071">
        <ele>333.144226</ele>
        <time>2016-10-02T06:35:48Z</time>
      </trkpt>
      <trkpt lat="45.79616" lon="4.69059">
        <ele>333.258911</ele>
        <time>2016-10-02T06:35:50Z</time>
      </trkpt>
      <trkpt lat="45.79608" lon="4.69048">
        <ele>333.371643</ele>
        <time>2016-10-02T06:35:52Z</time>
      </trkpt>
      <trkpt lat="45.796" lon="4.6904">
        <ele>333.418823</ele>
        <time>2016-10-02T06:35:54Z</time>
      </trkpt>
      <trkpt lat="45.7959" lon="4.69034">
        <ele>333.478821</ele>
        <time>2016-10-02T06:35:56Z</time>
      </trkpt>
      <trkpt lat="45.79582" lon="4.6903">
        <ele>333.471985</ele>
        <time>2016-10-02T06:35:58Z</time>
      </trkpt>
      <trkpt lat="45.79573" lon="4.69027">
        <ele>333.534851</ele>
        <time>2016-10-02T06:36:00Z</time>
      </trkpt>
      <trkpt lat="45.79564" lon="4.69026">
        <ele>333.659119</ele>
        <time>2016-10-02T06:36:02Z</time>
      </trkpt>
      <trkpt lat="45.79556" lon="4.69025">
        <ele>333.909729</ele>
        <time>2016-10-02T06:36:04Z</time>
      </trkpt>
      <trkpt lat="45.79548" lon="4.69024">
        <ele>334.178406</ele>
        <time>2016-10-02T06:36:06Z</time>
      </trkpt>
      <trkpt lat="45.7954" lon="4.69023">
        <ele>334.313446</ele>
        <time>2016-10-02T06:36:08Z</time>
      </trkpt>
      <trkpt lat="45.79532" lon="4.69022">
        <ele>334.384216</ele>
        <time>2016-10-02T06:36:10Z</time>
      </trkpt>
      <trkpt lat="45.79524" lon="4.69021">
        <ele>334.610809</ele>
        <time>2016-10-02T06:36:12Z</time>
      </trkpt>
      <trkpt lat="45.79516" lon="4.6902">
        <ele>334.863739</ele>
        <time>2016-10-02T06:36:14Z</time>
      </trkpt>
      <trkpt lat="45.79508" lon="4.69019">
        <ele>334.983093</ele>
        <time>2016-10-02T06:36:16Z</time>
      </trkpt>
      <trkpt lat="45.79501" lon="4.69018">
        <ele>335.42038</ele>
        <time>2016-10-02T06:36:18Z</time>
      </trkpt>
      <trkpt lat="45.79493" lon="4.69016">
        <ele>335.663879</ele>
        <time>2016-10-02T06:36:20Z</time>
      </trkpt>
      <trkpt lat="45.79486" lon="4.69013">
        <ele>335.87616</ele>
        <time>2016-10-02T06:36:22Z</time>
      </trkpt>
      <trkpt lat="45.7948" lon="4.69006">
        <ele>336.212769</ele>
        <time>2016-10-02T06:36:24Z</time>
      </trkpt>
      <trkpt lat="45.79475" lon="4.68995">
        <ele>336.727173</ele>
        <time>2016-10-02T06:36:26Z</time>
      </trkpt>
      <trkpt lat="45.79474" lon="4.68983">
        <ele>336.947968</ele>
        <time>2016-10-02T06:36:28Z</time>
      </trkpt>
      <trkpt lat="45.79473" lon="4.68971">
        <ele>337.349792</ele>
        <time>2016-10-02T06:36:30Z</time>
      </trkpt>
      <trkpt lat="45.79472" lon="4.6896">
        <ele>337.653687</ele>
        <time>2016-10-02T06:36:32Z</time>
      </trkpt>
      <trkpt lat="45.79472" lon="4.68948">
        <ele>338.035248</ele>
        <time>2016-10-02T06:36:34Z</time>
      </trkpt>
      <trkpt lat="45.79472" lon="4.68936">
        <ele>338.333252</ele>
        <time>2016-10-02T06:36:36Z</time>
      </trkpt>
      <trkpt lat="45.79472" lon="4.68924">
        <ele>338.729828</ele>
        <time>2016-10-02T06:36:38Z</time>
      </trkpt>
      <trkpt lat="45.79472" lon="4.68913">
        <ele>339.053619</ele>
        <time>2016-10-02T06:36:40Z</time>
      </trkpt>
      <trkpt lat="45.79473" lon="4.68902">
        <ele>339.187927</ele>
        <time>2016-10-02T06:36:42Z</time>
      </trkpt>
      <trkpt lat="45.79474" lon="4.68894">
        <ele>339.586365</ele>
        <time>2016-10-02T06:36:44Z</time>
      </trkpt>
      <trkpt lat="45.79474" lon="4.68888">
        <ele>339.892914</ele>
        <time>2016-10-02T06:36:46Z</time>
      </trkpt>
      <trkpt lat="45.79475" lon="4.68883">
        <ele>340.148132</ele>
        <time>2016-10-02T06:36:48Z</time>
      </trkpt>
      <trkpt lat="45.79476" lon="4.68876">
        <ele>340.40332</ele>
        <time>2016-10-02T06:36:50Z</time>
      </trkpt>
      <trkpt lat="45.79476" lon="4.68867">
        <ele>340.742096</ele>
        <time>2016-10-02T06:36:52Z</time>
      </trkpt>
      <trkpt lat="45.79477" lon="4.68858">
        <ele>341.048279</ele>
        <time>2016-10-02T06:36:54Z</time>
      </trkpt>
      <trkpt lat="45.79477" lon="4.68848">
        <ele>341.181213</ele>
        <time>2016-10-02T06:36:56Z</time>
      </trkpt>
      <trkpt lat="45.79477" lon="4.68837">
        <ele>341.288422</ele>
        <time>2016-10-02T06:36:58Z</time>
      </trkpt>
      <trkpt lat="45.79478" lon="4.68826">
        <ele>341.431</ele>
        <time>2016-10-02T06:37:00Z</time>
      </trkpt>
      <trkpt lat="45.79479" lon="4.68815">
        <ele>341.805084</ele>
        <time>2016-10-02T06:37:02Z</time>
      </trkpt>
      <trkpt lat="45.7948" lon="4.68804">
        <ele>341.987366</ele>
        <time>2016-10-02T06:37:04Z</time>
      </trkpt>
      <trkpt lat="45.79481" lon="4.68792">
        <ele>342.105316</ele>
        <time>2016-10-02T06:37:06Z</time>
      </trkpt>
      <trkpt lat="45.79482" lon="4.6878">
        <ele>342.268311</ele>
        <time>2016-10-02T06:37:08Z</time>
      </trkpt>
      <trkpt lat="45.79485" lon="4.68768">
        <ele>342.615967</ele>
        <time>2016-10-02T06:37:10Z</time>
      </trkpt>
      <trkpt lat="45.79488" lon="4.68756">
        <ele>342.731781</ele>
        <time>2016-10-02T06:37:12Z</time>
      </trkpt>
      <trkpt lat="45.79492" lon="4.68744">
        <ele>342.987122</ele>
        <time>2016-10-02T06:37:14Z</time>
      </trkpt>
      <trkpt lat="45.79496" lon="4.68733">
        <ele>343.177917</ele>
        <time>2016-10-02T06:37:16Z</time>
      </trkpt>
      <trkpt lat="45.79501" lon="4.68722">
        <ele>343.389801</ele>
        <time>2016-10-02T06:37:18Z</time>
      </trkpt>
      <trkpt lat="45.79506" lon="4.68712">
        <ele>343.775909</ele>
        <time>2016-10-02T06:37:20Z</time>
      </trkpt>
      <trkpt lat="45.7951" lon="4.68703">
        <ele>343.90033</ele>
        <time>2016-10-02T06:37:22Z</time>
      </trkpt>
      <trkpt lat="45.79514" lon="4.68694">
        <ele>344.207062</ele>
        <time>2016-10-02T06:37:24Z</time>
      </trkpt>
      <trkpt lat="45.79519" lon="4.68685">
        <ele>344.538116</ele>
        <time>2016-10-02T06:37:26Z</time>
      </trkpt>
      <trkpt lat="45.79523" lon="4.68676">
        <ele>344.746216</ele>
        <time>2016-10-02T06:37:28Z</time>
      </trkpt>
      <trkpt lat="45.79528" lon="4.68668">
        <ele>344.983612</ele>
        <time>2016-10-02T06:37:30Z</time>
      </trkpt>
      <trkpt lat="45.79532" lon="4.68659">
        <ele>345.22821</ele>
        <time>2016-10-02T06:37:32Z</time>
      </trkpt>
      <trkpt lat="45.79536" lon="4.68651">
        <ele>345.500702</ele>
        <time>2016-10-02T06:37:34Z</time>
      </trkpt>
      <trkpt lat="45.79541" lon="4.68642">
        <ele>345.69635</ele>
        <time>2016-10-02T06:37:36Z</time>
      </trkpt>
      <trkpt lat="45.79545" lon="4.68634">
        <ele>345.908752</ele>
        <time>2016-10-02T06:37:38Z</time>
      </trkpt>
      <trkpt lat="45.79549" lon="4.68626">
        <ele>346.301392</ele>
        <time>2016-10-02T06:37:40Z</time>
      </trkpt>
      <trkpt lat="45.79553" lon="4.68618">
        <ele>346.526642</ele>
        <time>2016-10-02T06:37:42Z</time>
      </trkpt>
      <trkpt lat="45.79557" lon="4.6861">
        <ele>346.871124</ele>
        <time>2016-10-02T06:37:44Z</time>
      </trkpt>
      <trkpt lat="45.79561" lon="4.68603">
        <ele>347.208191</ele>
        <time>2016-10-02T06:37:46Z</time>
      </trkpt>
      <trkpt lat="45.79564" lon="4.68596">
        <ele>347.600861</ele>
        <time>2016-10-02T06:37:48Z</time>
      </trkpt>
      <trkpt lat="45.79567" lon="4.68589">
        <ele>347.939728</ele>
        <time>2016-10-02T06:37:50Z</time>
      </trkpt>
      <trkpt lat="45.79569" lon="4.68582">
        <ele>348.34729</ele>
        <time>2016-10-02T06:37:52Z</time>
      </trkpt>
      <trkpt lat="45.79571" lon="4.68576">
        <ele>348.759064</ele>
        <time>2016-10-02T06:37:54Z</time>
      </trkpt>
      <trkpt lat="45.79573" lon="4.68569">
        <ele>349.122253</ele>
        <time>2016-10-02T06:37:56Z</time>
      </trkpt>
      <trkpt lat="45.79575" lon="4.68562">
        <ele>349.6185</ele>
        <time>2016-10-02T06:37:58Z</time>
      </trkpt>
      <trkpt lat="45.79577" lon="4.68556">
        <ele>349.959778</ele>
        <time>2016-10-02T06:38:00Z</time>
      </trkpt>
      <trkpt lat="45.79579" lon="4.68549">
        <ele>350.279602</ele>
        <time>2016-10-02T06:38:02Z</time>
      </trkpt>
      <trkpt lat="45.79581" lon="4.68542">
        <ele>350.874146</ele>
        <time>2016-10-02T06:38:04Z</time>
      </trkpt>
      <trkpt lat="45.79583" lon="4.68534">
        <ele>351.133881</ele>
        <time>2016-10-02T06:38:06Z</time>
      </trkpt>
      <trkpt lat="45.79586" lon="4.68527">
        <ele>351.281647</ele>
        <time>2016-10-02T06:38:08Z</time>
      </trkpt>
      <trkpt lat="45.79588" lon="4.68519">
        <ele>351.721619</ele>
        <time>2016-10-02T06:38:10Z</time>
      </trkpt>
      <trkpt lat="45.79591" lon="4.68512">
        <ele>352.17746</ele>
        <time>2016-10-02T06:38:12Z</time>
      </trkpt>
      <trkpt lat="45.79594" lon="4.68505">
        <ele>352.613251</ele>
        <time>2016-10-02T06:38:14Z</time>
      </trkpt>
      <trkpt lat="45.79596" lon="4.68498">
        <ele>352.937439</ele>
        <time>2016-10-02T06:38:16Z</time>
      </trkpt>
      <trkpt lat="45.79599" lon="4.6849">
        <ele>353.499268</ele>
        <time>2016-10-02T06:38:18Z</time>
      </trkpt>
      <trkpt lat="45.79602" lon="4.68483">
        <ele>353.948029</ele>
        <time>2016-10-02T06:38:20Z</time>
      </trkpt>
      <trkpt lat="45.79605" lon="4.68476">
        <ele>354.422546</ele>
        <time>2016-10-02T06:38:22Z</time>
      </trkpt>
      <trkpt lat="45.79607" lon="4.68468">
        <ele>354.961426</ele>
        <time>2016-10-02T06:38:24Z</time>
      </trkpt>
      <trkpt lat="45.7961" lon="4.68461">
        <ele>355.362823</ele>
        <time>2016-10-02T06:38:26Z</time>
      </trkpt>
      <trkpt lat="45.79613" lon="4.68453">
        <ele>355.830933</ele>
        <time>2016-10-02T06:38:28Z</time>
      </trkpt>
      <trkpt lat="45.79616" lon="4.68446">
        <ele>356.007019</ele>
        <time>2016-10-02T06:38:30Z</time>
      </trkpt>
      <trkpt lat="45.79618" lon="4.68439">
        <ele>356.370239</ele>
        <time>2016-10-02T06:38:32Z</time>
      </trkpt>
      <trkpt lat="45.79621" lon="4.68432">
        <ele>356.732056</ele>
        <time>2016-10-02T06:38:34Z</time>
      </trkpt>
      <trkpt lat="45.79624" lon="4.68425">
        <ele>357.029907</ele>
        <time>2016-10-02T06:38:36Z</time>
      </trkpt>
      <trkpt lat="45.79627" lon="4.68418">
        <ele>357.420563</ele>
        <time>2016-10-02T06:38:38Z</time>
      </trkpt>
      <trkpt lat="45.79629" lon="4.68411">
        <ele>357.725525</ele>
        <time>2016-10-02T06:38:40Z</time>
      </trkpt>
      <trkpt lat="45.79632" lon="4.68404">
        <ele>358.097595</ele>
        <time>2016-10-02T06:38:42Z</time>
      </trkpt>
      <trkpt lat="45.79635" lon="4.68396">
        <ele>358.475159</ele>
        <time>2016-10-02T06:38:44Z</time>
      </trkpt>
      <trkpt lat="45.79637" lon="4.6839">
        <ele>358.771667</ele>
        <time>2016-10-02T06:38:46Z</time>
      </trkpt>
      <trkpt lat="45.79639" lon="4.68383">
        <ele>359.211975</ele>
        <time>2016-10-02T06:38:48Z</time>
      </trkpt>
      <trkpt lat="45.79642" lon="4.68376">
        <ele>359.652374</ele>
        <time>2016-10-02T06:38:50Z</time>
      </trkpt>
      <trkpt lat="45.79644" lon="4.68369">
        <ele>359.993927</ele>
        <time>2016-10-02T06:38:52Z</time>
      </trkpt>
      <trkpt lat="45.79647" lon="4.68363">
        <ele>360.258118</ele>
        <time>2016-10-02T06:38:54Z</time>
      </trkpt>
      <trkpt lat="45.79649" lon="4.68356">
        <ele>360.511688</ele>
        <time>2016-10-02T06:38:56Z</time>
      </trkpt>
      <trkpt lat="45.79652" lon="4.68349">
        <ele>360.924194</ele>
        <time>2016-10-02T06:38:58Z</time>
      </trkpt>
      <trkpt lat="45.79654" lon="4.68341">
        <ele>361.247498</ele>
        <time>2016-10-02T06:39:00Z</time>
      </trkpt>
      <trkpt lat="45.79656" lon="4.68333">
        <ele>361.550415</ele>
        <time>2016-10-02T06:39:02Z</time>
      </trkpt>
      <trkpt lat="45.79657" lon="4.68325">
        <ele>361.874878</ele>
        <time>2016-10-02T06:39:04Z</time>
      </trkpt>
      <trkpt lat="45.79658" lon="4.68318">
        <ele>362.167175</ele>
        <time>2016-10-02T06:39:06Z</time>
      </trkpt>
      <trkpt lat="45.79659" lon="4.6831">
        <ele>362.558289</ele>
        <time>2016-10-02T06:39:08Z</time>
      </trkpt>
      <trkpt lat="45.7966" lon="4.68302">
        <ele>362.962341</ele>
        <time>2016-10-02T06:39:10Z</time>
      </trkpt>
      <trkpt lat="45.7966" lon="4.68295">
        <ele>363.329712</ele>
        <time>2016-10-02T06:39:12Z</time>
      </trkpt>
      <trkpt lat="45.79661" lon="4.68288">
        <ele>363.762817</ele>
        <time>2016-10-02T06:39:14Z</time>
      </trkpt>
      <trkpt lat="45.79662" lon="4.68282">
        <ele>364.115295</ele>
        <time>2016-10-02T06:39:16Z</time>
      </trkpt>
      <trkpt lat="45.79662" lon="4.68276">
        <ele>364.596741</ele>
        <time>2016-10-02T06:39:18Z</time>
      </trkpt>
      <trkpt lat="45.79662" lon="4.68269">
        <ele>364.792419</ele>
        <time>2016-10-02T06:39:20Z</time>
      </trkpt>
      <trkpt lat="45.79663" lon="4.68262">
        <ele>365.248108</ele>
        <time>2016-10-02T06:39:22Z</time>
      </trkpt>
      <trkpt lat="45.79663" lon="4.68255">
        <ele>365.752777</ele>
        <time>2016-10-02T06:39:24Z</time>
      </trkpt>
      <trkpt lat="45.79663" lon="4.68248">
        <ele>366.126923</ele>
        <time>2016-10-02T06:39:26Z</time>
      </trkpt>
      <trkpt lat="45.79664" lon="4.68242">
        <ele>366.653656</ele>
        <time>2016-10-02T06:39:28Z</time>
      </trkpt>
      <trkpt lat="45.79664" lon="4.68235">
        <ele>367.115906</ele>
        <time>2016-10-02T06:39:30Z</time>
      </trkpt>
      <trkpt lat="45.79665" lon="4.68228">
        <ele>367.659912</ele>
        <time>2016-10-02T06:39:32Z</time>
      </trkpt>
      <trkpt lat="45.79666" lon="4.6822">
        <ele>368.109222</ele>
        <time>2016-10-02T06:39:34Z</time>
      </trkpt>
      <trkpt lat="45.79667" lon="4.68213">
        <ele>368.616608</ele>
        <time>2016-10-02T06:39:36Z</time>
      </trkpt>
      <trkpt lat="45.79668" lon="4.68206">
        <ele>369.1026</ele>
        <time>2016-10-02T06:39:38Z</time>
      </trkpt>
      <trkpt lat="45.79669" lon="4.68199">
        <ele>369.544098</ele>
        <time>2016-10-02T06:39:40Z</time>
      </trkpt>
      <trkpt lat="45.7967" lon="4.68192">
        <ele>369.986633</ele>
        <time>2016-10-02T06:39:42Z</time>
      </trkpt>
      <trkpt lat="45.79671" lon="4.68184">
        <ele>370.513428</ele>
        <time>2016-10-02T06:39:44Z</time>
      </trkpt>
      <trkpt lat="45.79671" lon="4.68177">
        <ele>370.705872</ele>
        <time>2016-10-02T06:39:46Z</time>
      </trkpt>
      <trkpt lat="45.79672" lon="4.68169">
        <ele>371.282257</ele>
        <time>2016-10-02T06:39:48Z</time>
      </trkpt>
      <trkpt lat="45.79672" lon="4.68161">
        <ele>371.721954</ele>
        <time>2016-10-02T06:39:50Z</time>
      </trkpt>
      <trkpt lat="45.79671" lon="4.68153">
        <ele>372.089722</ele>
        <time>2016-10-02T06:39:52Z</time>
      </trkpt>
      <trkpt lat="45.7967" lon="4.68145">
        <ele>372.599457</ele>
        <time>2016-10-02T06:39:54Z</time>
      </trkpt>
      <trkpt lat="45.7967" lon="4.68136">
        <ele>373.049011</ele>
        <time>2016-10-02T06:39:56Z</time>
      </trkpt>
      <trkpt lat="45.79669" lon="4.68127">
        <ele>373.552307</ele>
        <time>2016-10-02T06:39:58Z</time>
      </trkpt>
      <trkpt lat="45.79668" lon="4.68118">
        <ele>373.929565</ele>
        <time>2016-10-02T06:40:00Z</time>
      </trkpt>
      <trkpt lat="45.79667" lon="4.68108">
        <ele>374.378876</ele>
        <time>2016-10-02T06:40:02Z</time>
      </trkpt>
      <trkpt lat="45.79667" lon="4.68099">
        <ele>374.718781</ele>
        <time>2016-10-02T06:40:04Z</time>
      </trkpt>
      <trkpt lat="45.79666" lon="4.68089">
        <ele>375.127838</ele>
        <time>2016-10-02T06:40:06Z</time>
      </trkpt>
      <trkpt lat="45.79665" lon="4.68079">
        <ele>375.482849</ele>
        <time>2016-10-02T06:40:08Z</time>
      </trkpt>
      <trkpt lat="45.79664" lon="4.68069">
        <ele>375.941193</ele>
        <time>2016-10-02T06:40:10Z</time>
      </trkpt>
      <trkpt lat="45.79662" lon="4.68058">
        <ele>376.160706</ele>
        <time>2016-10-02T06:40:12Z</time>
      </trkpt>
      <trkpt lat="45.79661" lon="4.68047">
        <ele>376.401672</ele>
        <time>2016-10-02T06:40:14Z</time>
      </trkpt>
      <trkpt lat="45.79659" lon="4.68036">
        <ele>376.847107</ele>
        <time>2016-10-02T06:40:16Z</time>
      </trkpt>
      <trkpt lat="45.79658" lon="4.68024">
        <ele>377.081757</ele>
        <time>2016-10-02T06:40:18Z</time>
      </trkpt>
      <trkpt lat="45.79656" lon="4.68013">
        <ele>377.275452</ele>
        <time>2016-10-02T06:40:20Z</time>
      </trkpt>
      <trkpt lat="45.79654" lon="4.68002">
        <ele>377.67926</ele>
        <time>2016-10-02T06:40:22Z</time>
      </trkpt>
      <trkpt lat="45.79652" lon="4.6799">
        <ele>377.943909</ele>
        <time>2016-10-02T06:40:24Z</time>
      </trkpt>
      <trkpt lat="45.79649" lon="4.67978">
        <ele>378.117004</ele>
        <time>2016-10-02T06:40:26Z</time>
      </trkpt>
      <trkpt lat="45.79645" lon="4.67967">
        <ele>378.347595</ele>
        <time>2016-10-02T06:40:28Z</time>
      </trkpt>
      <trkpt lat="45.7964" lon="4.67954">
        <ele>378.542145</ele>
        <time>2016-10-02T06:40:30Z</time>
      </trkpt>
      <trkpt lat="45.79635" lon="4.67944">
        <ele>378.645935</ele>
        <time>2016-10-02T06:40:32Z</time>
      </trkpt>
      <trkpt lat="45.7963" lon="4.67932">
        <ele>378.822418</ele>
        <time>2016-10-02T06:40:34Z</time>
      </trkpt>
      <trkpt lat="45.79626" lon="4.6792">
        <ele>378.947235</ele>
        <time>2016-10-02T06:40:36Z</time>
      </trkpt>
      <trkpt lat="45.79622" lon="4.67908">
        <ele>378.964172</ele>
        <time>2016-10-02T06:40:38Z</time>
      </trkpt>
      <trkpt lat="45.79618" lon="4.67896">
        <ele>379.073151</ele>
        <time>2016-10-02T06:40:40Z</time>
      </trkpt>
      <trkpt lat="45.79615" lon="4.67884">
        <ele>379.238831</ele>
        <time>2016-10-02T06:40:42Z</time>
      </trkpt>
      <trkpt lat="45.79611" lon="4.67872">
        <ele>379.329224</ele>
        <time>2016-10-02T06:40:44Z</time>
      </trkpt>
      <trkpt lat="45.79607" lon="4.67861">
        <ele>379.428253</ele>
        <time>2016-10-02T06:40:46Z</time>
      </trkpt>
      <trkpt lat="45.79604" lon="4.6785">
        <ele>379.505341</ele>
        <time>2016-10-02T06:40:48Z</time>
      </trkpt>
      <trkpt lat="45.796" lon="4.67839">
        <ele>379.48172</ele>
        <time>2016-10-02T06:40:50Z</time>
      </trkpt>
      <trkpt lat="45.79596" lon="4.67828">
        <ele>379.390381</ele>
        <time>2016-10-02T06:40:52Z</time>
      </trkpt>
      <trkpt lat="45.79593" lon="4.67817">
        <ele>379.504456</ele>
        <time>2016-10-02T06:40:54Z</time>
      </trkpt>
      <trkpt lat="45.79589" lon="4.67807">
        <ele>379.676697</ele>
        <time>2016-10-02T06:40:56Z</time>
      </trkpt>
      <trkpt lat="45.79586" lon="4.67797">
        <ele>379.710999</ele>
        <time>2016-10-02T06:40:58Z</time>
      </trkpt>
      <trkpt lat="45.79583" lon="4.67787">
        <ele>379.94989</ele>
        <time>2016-10-02T06:41:00Z</time>
      </trkpt>
      <trkpt lat="45.7958" lon="4.67778">
        <ele>379.984802</ele>
        <time>2016-10-02T06:41:02Z</time>
      </trkpt>
      <trkpt lat="45.79578" lon="4.67768">
        <ele>380.240967</ele>
        <time>2016-10-02T06:41:04Z</time>
      </trkpt>
      <trkpt lat="45.79575" lon="4.67761">
        <ele>380.510071</ele>
        <time>2016-10-02T06:41:06Z</time>
      </trkpt>
      <trkpt lat="45.79573" lon="4.67753">
        <ele>380.661987</ele>
        <time>2016-10-02T06:41:08Z</time>
      </trkpt>
      <trkpt lat="45.79571" lon="4.67746">
        <ele>380.965881</ele>
        <time>2016-10-02T06:41:10Z</time>
      </trkpt>
      <trkpt lat="45.79568" lon="4.6774">
        <ele>381.159943</ele>
        <time>2016-10-02T06:41:12Z</time>
      </trkpt>
      <trkpt lat="45.79566" lon="4.67733">
        <ele>381.517059</ele>
        <time>2016-10-02T06:41:14Z</time>
      </trkpt>
      <trkpt lat="45.79564" lon="4.67726">
        <ele>381.812042</ele>
        <time>2016-10-02T06:41:16Z</time>
      </trkpt>
      <trkpt lat="45.79561" lon="4.67721">
        <ele>382.212494</ele>
        <time>2016-10-02T06:41:18Z</time>
      </trkpt>
      <trkpt lat="45.79559" lon="4.67715">
        <ele>382.701569</ele>
        <time>2016-10-02T06:41:20Z</time>
      </trkpt>
      <trkpt lat="45.79556" lon="4.6771">
        <ele>383.173157</ele>
        <time>2016-10-02T06:41:22Z</time>
      </trkpt>
      <trkpt lat="45.79553" lon="4.67705">
        <ele>383.549988</ele>
        <time>2016-10-02T06:41:24Z</time>
      </trkpt>
      <trkpt lat="45.79551" lon="4.677">
        <ele>383.993591</ele>
        <time>2016-10-02T06:41:26Z</time>
      </trkpt>
      <trkpt lat="45.79548" lon="4.67695">
        <ele>384.360046</ele>
        <time>2016-10-02T06:41:28Z</time>
      </trkpt>
      <trkpt lat="45.79546" lon="4.67689">
        <ele>385.033997</ele>
        <time>2016-10-02T06:41:30Z</time>
      </trkpt>
      <trkpt lat="45.79544" lon="4.67684">
        <ele>385.446228</ele>
        <time>2016-10-02T06:41:32Z</time>
      </trkpt>
      <trkpt lat="45.79542" lon="4.6768">
        <ele>385.855438</ele>
        <time>2016-10-02T06:41:34Z</time>
      </trkpt>
      <trkpt lat="45.79541" lon="4.67675">
        <ele>386.062195</ele>
        <time>2016-10-02T06:41:36Z</time>
      </trkpt>
      <trkpt lat="45.7954" lon="4.6767">
        <ele>386.462555</ele>
        <time>2016-10-02T06:41:38Z</time>
      </trkpt>
      <trkpt lat="45.79538" lon="4.67666">
        <ele>387.018219</ele>
        <time>2016-10-02T06:41:40Z</time>
      </trkpt>
      <trkpt lat="45.79536" lon="4.67661">
        <ele>387.64505</ele>
        <time>2016-10-02T06:41:42Z</time>
      </trkpt>
      <trkpt lat="45.79535" lon="4.67657">
        <ele>388.290833</ele>
        <time>2016-10-02T06:41:44Z</time>
      </trkpt>
      <trkpt lat="45.79533" lon="4.67651">
        <ele>388.733154</ele>
        <time>2016-10-02T06:41:46Z</time>
      </trkpt>
      <trkpt lat="45.79531" lon="4.67647">
        <ele>389.207275</ele>
        <time>2016-10-02T06:41:48Z</time>
      </trkpt>
      <trkpt lat="45.79529" lon="4.67642">
        <ele>389.455475</ele>
        <time>2016-10-02T06:41:50Z</time>
      </trkpt>
      <trkpt lat="45.79528" lon="4.67637">
        <ele>389.788849</ele>
        <time>2016-10-02T06:41:52Z</time>
      </trkpt>
      <trkpt lat="45.79527" lon="4.67632">
        <ele>390.262543</ele>
        <time>2016-10-02T06:41:54Z</time>
      </trkpt>
      <trkpt lat="45.79525" lon="4.67627">
        <ele>390.721466</ele>
        <time>2016-10-02T06:41:56Z</time>
      </trkpt>
      <trkpt lat="45.79524" lon="4.67623">
        <ele>391.268829</ele>
        <time>2016-10-02T06:41:58Z</time>
      </trkpt>
      <trkpt lat="45.79522" lon="4.6762">
        <ele>391.741119</ele>
        <time>2016-10-02T06:42:00Z</time>
      </trkpt>
      <trkpt lat="45.79521" lon="4.67615">
        <ele>392.113922</ele>
        <time>2016-10-02T06:42:02Z</time>
      </trkpt>
      <trkpt lat="45.7952" lon="4.67611">
        <ele>392.572968</ele>
        <time>2016-10-02T06:42:04Z</time>
      </trkpt>
      <trkpt lat="45.79519" lon="4.67607">
        <ele>392.812195</ele>
        <time>2016-10-02T06:42:06Z</time>
      </trkpt>
      <trkpt lat="45.79518" lon="4.67603">
        <ele>393.314667</ele>
        <time>2016-10-02T06:42:08Z</time>
      </trkpt>
      <trkpt lat="45.79517" lon="4.676">
        <ele>393.833099</ele>
        <time>2016-10-02T06:42:10Z</time>
      </trkpt>
      <trkpt lat="45.79516" lon="4.67597">
        <ele>394.264221</ele>
        <time>2016-10-02T06:42:12Z</time>
      </trkpt>
      <trkpt lat="45.79514" lon="4.67593">
        <ele>394.74057</ele>
        <time>2016-10-02T06:42:14Z</time>
      </trkpt>
      <trkpt lat="45.79514" lon="4.67589">
        <ele>395.161285</ele>
        <time>2016-10-02T06:42:16Z</time>
      </trkpt>
      <trkpt lat="45.79513" lon="4.67586">
        <ele>395.64447</ele>
        <time>2016-10-02T06:42:18Z</time>
      </trkpt>
      <trkpt lat="45.79513" lon="4.67584">
        <ele>396.13382</ele>
        <time>2016-10-02T06:42:20Z</time>
      </trkpt>
      <trkpt lat="45.79512" lon="4.67581">
        <ele>396.431335</ele>
        <time>2016-10-02T06:42:22Z</time>
      </trkpt>
      <trkpt lat="45.79512" lon="4.67578">
        <ele>396.741821</ele>
        <time>2016-10-02T06:42:24Z</time>
      </trkpt>
      <trkpt lat="45.79511" lon="4.67576">
        <ele>397.073151</ele>
        <time>2016-10-02T06:42:26Z</time>
      </trkpt>
      <trkpt lat="45.79511" lon="4.67572">
        <ele>397.407288</ele>
        <time>2016-10-02T06:42:28Z</time>
      </trkpt>
      <trkpt lat="45.79511" lon="4.67569">
        <ele>397.872742</ele>
        <time>2016-10-02T06:42:30Z</time>
      </trkpt>
      <trkpt lat="45.79511" lon="4.67566">
        <ele>398.274292</ele>
        <time>2016-10-02T06:42:32Z</time>
      </trkpt>
      <trkpt lat="45.7951" lon="4.67562">
        <ele>398.449402</ele>
        <time>2016-10-02T06:42:34Z</time>
      </trkpt>
      <trkpt lat="45.79509" lon="4.67558">
        <ele>398.830994</ele>
        <time>2016-10-02T06:42:36Z</time>
      </trkpt>
      <trkpt lat="45.79509" lon="4.67554">
        <ele>399.301147</ele>
        <time>2016-10-02T06:42:38Z</time>
      </trkpt>
      <trkpt lat="45.79509" lon="4.67551">
        <ele>399.541962</ele>
        <time>2016-10-02T06:42:40Z</time>
      </trkpt>
      <trkpt lat="45.79509" lon="4.67547">
        <ele>399.806854</ele>
        <time>2016-10-02T06:42:42Z</time>
      </trkpt>
      <trkpt lat="45.79508" lon="4.67543">
        <ele>399.968597</ele>
        <time>2016-10-02T06:42:44Z</time>
      </trkpt>
      <trkpt lat="45.79508" lon="4.67539">
        <ele>400.164612</ele>
        <time>2016-10-02T06:42:46Z</time>
      </trkpt>
      <trkpt lat="45.79507" lon="4.67535">
        <ele>400.341187</ele>
        <time>2016-10-02T06:42:48Z</time>
      </trkpt>
      <trkpt lat="45.79507" lon="4.67531">
        <ele>400.579193</ele>
        <time>2016-10-02T06:42:50Z</time>
      </trkpt>
      <trkpt lat="45.79506" lon="4.67527">
        <ele>400.84021</ele>
        <time>2016-10-02T06:42:52Z</time>
      </trkpt>
      <trkpt lat="45.79506" lon="4.67523">
        <ele>401.094116</ele>
        <time>2016-10-02T06:42:54Z</time>
      </trkpt>
      <trkpt lat="45.79505" lon="4.67519">
        <ele>401.398254</ele>
        <time>2016-10-02T06:42:56Z</time>
      </trkpt>
      <trkpt lat="45.79505" lon="4.67514">
        <ele>401.641632</ele>
        <time>2016-10-02T06:42:58Z</time>
      </trkpt>
      <trkpt lat="45.79504" lon="4.6751">
        <ele>401.963074</ele>
        <time>2016-10-02T06:43:00Z</time>
      </trkpt>
      <trkpt lat="45.79504" lon="4.67506">
        <ele>402.114075</ele>
        <time>2016-10-02T06:43:02Z</time>
      </trkpt>
      <trkpt lat="45.79504" lon="4.67502">
        <ele>402.430603</ele>
        <time>2016-10-02T06:43:04Z</time>
      </trkpt>
      <trkpt lat="45.79504" lon="4.67498">
        <ele>402.67218</ele>
        <time>2016-10-02T06:43:06Z</time>
      </trkpt>
      <trkpt lat="45.79503" lon="4.6749">
        <ele>402.788879</ele>
        <time>2016-10-02T06:43:10Z</time>
      </trkpt>
      <trkpt lat="45.79502" lon="4.67486">
        <ele>403.268372</ele>
        <time>2016-10-02T06:43:12Z</time>
      </trkpt>
      <trkpt lat="45.79501" lon="4.67482">
        <ele>403.667542</ele>
        <time>2016-10-02T06:43:14Z</time>
      </trkpt>
      <trkpt lat="45.795" lon="4.67478">
        <ele>404.133606</ele>
        <time>2016-10-02T06:43:16Z</time>
      </trkpt>
      <trkpt lat="45.795" lon="4.67474">
        <ele>404.612183</ele>
        <time>2016-10-02T06:43:18Z</time>
      </trkpt>
      <trkpt lat="45.79499" lon="4.67469">
        <ele>404.98114</ele>
        <time>2016-10-02T06:43:20Z</time>
      </trkpt>
      <trkpt lat="45.79498" lon="4.67465">
        <ele>405.168884</ele>
        <time>2016-10-02T06:43:22Z</time>
      </trkpt>
      <trkpt lat="45.79497" lon="4.6746">
        <ele>405.490509</ele>
        <time>2016-10-02T06:43:24Z</time>
      </trkpt>
      <trkpt lat="45.79496" lon="4.67455">
        <ele>405.909149</ele>
        <time>2016-10-02T06:43:26Z</time>
      </trkpt>
      <trkpt lat="45.79496" lon="4.6745">
        <ele>406.363983</ele>
        <time>2016-10-02T06:43:28Z</time>
      </trkpt>
      <trkpt lat="45.79496" lon="4.67446">
        <ele>406.832489</ele>
        <time>2016-10-02T06:43:30Z</time>
      </trkpt>
      <trkpt lat="45.79496" lon="4.67442">
        <ele>407.287811</ele>
        <time>2016-10-02T06:43:32Z</time>
      </trkpt>
      <trkpt lat="45.79497" lon="4.67437">
        <ele>407.521179</ele>
        <time>2016-10-02T06:43:34Z</time>
      </trkpt>
      <trkpt lat="45.79498" lon="4.67433">
        <ele>407.684875</ele>
        <time>2016-10-02T06:43:36Z</time>
      </trkpt>
      <trkpt lat="45.79499" lon="4.67429">
        <ele>408.032776</ele>
        <time>2016-10-02T06:43:38Z</time>
      </trkpt>
      <trkpt lat="45.795" lon="4.67424">
        <ele>408.395935</ele>
        <time>2016-10-02T06:43:40Z</time>
      </trkpt>
      <trkpt lat="45.79499" lon="4.67419">
        <ele>408.527771</ele>
        <time>2016-10-02T06:43:42Z</time>
      </trkpt>
      <trkpt lat="45.79499" lon="4.67415">
        <ele>408.93573</ele>
        <time>2016-10-02T06:43:44Z</time>
      </trkpt>
      <trkpt lat="45.795" lon="4.67412">
        <ele>409.259521</ele>
        <time>2016-10-02T06:43:46Z</time>
      </trkpt>
      <trkpt lat="45.795" lon="4.67408">
        <ele>409.596863</ele>
        <time>2016-10-02T06:43:48Z</time>
      </trkpt>
      <trkpt lat="45.79501" lon="4.67405">
        <ele>409.944427</ele>
        <time>2016-10-02T06:43:50Z</time>
      </trkpt>
      <trkpt lat="45.79501" lon="4.67401">
        <ele>410.321716</ele>
        <time>2016-10-02T06:43:52Z</time>
      </trkpt>
      <trkpt lat="45.79504" lon="4.67398">
        <ele>410.705475</ele>
        <time>2016-10-02T06:43:54Z</time>
      </trkpt>
      <trkpt lat="45.79506" lon="4.67396">
        <ele>411.035797</ele>
        <time>2016-10-02T06:43:56Z</time>
      </trkpt>
      <trkpt lat="45.79507" lon="4.67393">
        <ele>411.273285</ele>
        <time>2016-10-02T06:43:58Z</time>
      </trkpt>
      <trkpt lat="45.79509" lon="4.67388">
        <ele>411.361816</ele>
        <time>2016-10-02T06:44:00Z</time>
      </trkpt>
      <trkpt lat="45.79511" lon="4.67382">
        <ele>411.663025</ele>
        <time>2016-10-02T06:44:02Z</time>
      </trkpt>
      <trkpt lat="45.79513" lon="4.67376">
        <ele>411.932922</ele>
        <time>2016-10-02T06:44:04Z</time>
      </trkpt>
      <trkpt lat="45.79514" lon="4.6737">
        <ele>412.220642</ele>
        <time>2016-10-02T06:44:06Z</time>
      </trkpt>
      <trkpt lat="45.79516" lon="4.67365">
        <ele>412.371338</ele>
        <time>2016-10-02T06:44:08Z</time>
      </trkpt>
      <trkpt lat="45.79518" lon="4.6736">
        <ele>412.607086</ele>
        <time>2016-10-02T06:44:10Z</time>
      </trkpt>
      <trkpt lat="45.79519" lon="4.67354">
        <ele>413.036804</ele>
        <time>2016-10-02T06:44:12Z</time>
      </trkpt>
      <trkpt lat="45.79518" lon="4.67349">
        <ele>413.278717</ele>
        <time>2016-10-02T06:44:14Z</time>
      </trkpt>
      <trkpt lat="45.79517" lon="4.67345">
        <ele>413.635071</ele>
        <time>2016-10-02T06:44:16Z</time>
      </trkpt>
      <trkpt lat="45.79517" lon="4.67341">
        <ele>413.911774</ele>
        <time>2016-10-02T06:44:18Z</time>
      </trkpt>
      <trkpt lat="45.79516" lon="4.67336">
        <ele>414.236969</ele>
        <time>2016-10-02T06:44:20Z</time>
      </trkpt>
      <trkpt lat="45.79515" lon="4.67332">
        <ele>414.631439</ele>
        <time>2016-10-02T06:44:22Z</time>
      </trkpt>
      <trkpt lat="45.79514" lon="4.67329">
        <ele>415.22525</ele>
        <time>2016-10-02T06:44:24Z</time>
      </trkpt>
      <trkpt lat="45.79512" lon="4.67327">
        <ele>415.411041</ele>
        <time>2016-10-02T06:44:26Z</time>
      </trkpt>
      <trkpt lat="45.79509" lon="4.67324">
        <ele>415.830139</ele>
        <time>2016-10-02T06:44:28Z</time>
      </trkpt>
      <trkpt lat="45.79509" lon="4.6732">
        <ele>416.18866</ele>
        <time>2016-10-02T06:44:30Z</time>
      </trkpt>
      <trkpt lat="45.79508" lon="4.67317">
        <ele>416.618561</ele>
        <time>2016-10-02T06:44:32Z</time>
      </trkpt>
      <trkpt lat="45.79507" lon="4.67314">
        <ele>416.992584</ele>
        <time>2016-10-02T06:44:34Z</time>
      </trkpt>
      <trkpt lat="45.79506" lon="4.6731">
        <ele>417.271301</ele>
        <time>2016-10-02T06:44:36Z</time>
      </trkpt>
      <trkpt lat="45.79503" lon="4.67308">
        <ele>417.599701</ele>
        <time>2016-10-02T06:44:38Z</time>
      </trkpt>
      <trkpt lat="45.79501" lon="4.67306">
        <ele>418.01236</ele>
        <time>2016-10-02T06:44:40Z</time>
      </trkpt>
      <trkpt lat="45.79499" lon="4.67304">
        <ele>418.480133</ele>
        <time>2016-10-02T06:44:42Z</time>
      </trkpt>
      <trkpt lat="45.79498" lon="4.673">
        <ele>418.825836</ele>
        <time>2016-10-02T06:44:44Z</time>
      </trkpt>
      <trkpt lat="45.79497" lon="4.67297">
        <ele>419.37677</ele>
        <time>2016-10-02T06:44:46Z</time>
      </trkpt>
      <trkpt lat="45.79495" lon="4.67294">
        <ele>419.852539</ele>
        <time>2016-10-02T06:44:48Z</time>
      </trkpt>
      <trkpt lat="45.79494" lon="4.67291">
        <ele>420.388123</ele>
        <time>2016-10-02T06:44:50Z</time>
      </trkpt>
      <trkpt lat="45.79494" lon="4.67287">
        <ele>420.833313</ele>
        <time>2016-10-02T06:44:52Z</time>
      </trkpt>
      <trkpt lat="45.79493" lon="4.67284">
        <ele>421.023499</ele>
        <time>2016-10-02T06:44:54Z</time>
      </trkpt>
      <trkpt lat="45.79493" lon="4.67281">
        <ele>421.395172</ele>
        <time>2016-10-02T06:44:56Z</time>
      </trkpt>
      <trkpt lat="45.79493" lon="4.67277">
        <ele>421.872803</ele>
        <time>2016-10-02T06:44:58Z</time>
      </trkpt>
      <trkpt lat="45.79493" lon="4.67274">
        <ele>422.317383</ele>
        <time>2016-10-02T06:45:00Z</time>
      </trkpt>
      <trkpt lat="45.79492" lon="4.6727">
        <ele>422.741516</ele>
        <time>2016-10-02T06:45:02Z</time>
      </trkpt>
      <trkpt lat="45.79491" lon="4.67266">
        <ele>423.135559</ele>
        <time>2016-10-02T06:45:04Z</time>
      </trkpt>
      <trkpt lat="45.79491" lon="4.67263">
        <ele>423.513428</ele>
        <time>2016-10-02T06:45:06Z</time>
      </trkpt>
      <trkpt lat="45.79491" lon="4.67259">
        <ele>423.80957</ele>
        <time>2016-10-02T06:45:08Z</time>
      </trkpt>
      <trkpt lat="45.79492" lon="4.67255">
        <ele>424.1922</ele>
        <time>2016-10-02T06:45:10Z</time>
      </trkpt>
      <trkpt lat="45.79493" lon="4.67252">
        <ele>424.533752</ele>
        <time>2016-10-02T06:45:12Z</time>
      </trkpt>
      <trkpt lat="45.79493" lon="4.67248">
        <ele>424.912048</ele>
        <time>2016-10-02T06:45:14Z</time>
      </trkpt>
      <trkpt lat="45.79494" lon="4.67244">
        <ele>425.316345</ele>
        <time>2016-10-02T06:45:16Z</time>
      </trkpt>
      <trkpt lat="45.79495" lon="4.6724">
        <ele>425.694733</ele>
        <time>2016-10-02T06:45:18Z</time>
      </trkpt>
      <trkpt lat="45.79495" lon="4.67236">
        <ele>426.057953</ele>
        <time>2016-10-02T06:45:20Z</time>
      </trkpt>
      <trkpt lat="45.79495" lon="4.67232">
        <ele>426.24176</ele>
        <time>2016-10-02T06:45:22Z</time>
      </trkpt>
      <trkpt lat="45.79494" lon="4.67228">
        <ele>426.609314</ele>
        <time>2016-10-02T06:45:24Z</time>
      </trkpt>
      <trkpt lat="45.79493" lon="4.67224">
        <ele>426.970367</ele>
        <time>2016-10-02T06:45:26Z</time>
      </trkpt>
      <trkpt lat="45.79493" lon="4.6722">
        <ele>427.335846</ele>
        <time>2016-10-02T06:45:28Z</time>
      </trkpt>
      <trkpt lat="45.79492" lon="4.67216">
        <ele>427.56073</ele>
        <time>2016-10-02T06:45:30Z</time>
      </trkpt>
      <trkpt lat="45.79492" lon="4.67212">
        <ele>428.034363</ele>
        <time>2016-10-02T06:45:32Z</time>
      </trkpt>
      <trkpt lat="45.79492" lon="4.67209">
        <ele>428.47345</ele>
        <time>2016-10-02T06:45:34Z</time>
      </trkpt>
      <trkpt lat="45.79492" lon="4.67204">
        <ele>428.812988</ele>
        <time>2016-10-02T06:45:36Z</time>
      </trkpt>
      <trkpt lat="45.79492" lon="4.672">
        <ele>429.120056</ele>
        <time>2016-10-02T06:45:38Z</time>
      </trkpt>
      <trkpt lat="45.79492" lon="4.67196">
        <ele>429.551178</ele>
        <time>2016-10-02T06:45:40Z</time>
      </trkpt>
      <trkpt lat="45.79492" lon="4.67192">
        <ele>429.86322</ele>
        <time>2016-10-02T06:45:42Z</time>
      </trkpt>
      <trkpt lat="45.79493" lon="4.67188">
        <ele>430.298035</ele>
        <time>2016-10-02T06:45:44Z</time>
      </trkpt>
      <trkpt lat="45.79492" lon="4.67183">
        <ele>430.462463</ele>
        <time>2016-10-02T06:45:46Z</time>
      </trkpt>
      <trkpt lat="45.79492" lon="4.67179">
        <ele>430.787292</ele>
        <time>2016-10-02T06:45:48Z</time>
      </trkpt>
      <trkpt lat="45.79492" lon="4.67174">
        <ele>431.116058</ele>
        <time>2016-10-02T06:45:50Z</time>
      </trkpt>
      <trkpt lat="45.79491" lon="4.67169">
        <ele>431.475189</ele>
        <time>2016-10-02T06:45:52Z</time>
      </trkpt>
      <trkpt lat="45.79492" lon="4.67165">
        <ele>431.931641</ele>
        <time>2016-10-02T06:45:54Z</time>
      </trkpt>
      <trkpt lat="45.79493" lon="4.6716">
        <ele>432.275635</ele>
        <time>2016-10-02T06:45:56Z</time>
      </trkpt>
      <trkpt lat="45.79495" lon="4.67155">
        <ele>432.6586</ele>
        <time>2016-10-02T06:45:58Z</time>
      </trkpt>
      <trkpt lat="45.79496" lon="4.67149">
        <ele>432.976624</ele>
        <time>2016-10-02T06:46:00Z</time>
      </trkpt>
      <trkpt lat="45.79497" lon="4.67144">
        <ele>433.290131</ele>
        <time>2016-10-02T06:46:02Z</time>
      </trkpt>
      <trkpt lat="45.79499" lon="4.67138">
        <ele>433.714203</ele>
        <time>2016-10-02T06:46:04Z</time>
      </trkpt>
      <trkpt lat="45.795" lon="4.67132">
        <ele>434.110504</ele>
        <time>2016-10-02T06:46:06Z</time>
      </trkpt>
      <trkpt lat="45.795" lon="4.67125">
        <ele>434.495605</ele>
        <time>2016-10-02T06:46:08Z</time>
      </trkpt>
      <trkpt lat="45.79499" lon="4.67119">
        <ele>434.867767</ele>
        <time>2016-10-02T06:46:10Z</time>
      </trkpt>
      <trkpt lat="45.79499" lon="4.67112">
        <ele>435.174988</ele>
        <time>2016-10-02T06:46:12Z</time>
      </trkpt>
      <trkpt lat="45.79499" lon="4.67106">
        <ele>435.547272</ele>
        <time>2016-10-02T06:46:14Z</time>
      </trkpt>
      <trkpt lat="45.79499" lon="4.671">
        <ele>435.637787</ele>
        <time>2016-10-02T06:46:16Z</time>
      </trkpt>
      <trkpt lat="45.795" lon="4.67093">
        <ele>435.977539</ele>
        <time>2016-10-02T06:46:18Z</time>
      </trkpt>
      <trkpt lat="45.79501" lon="4.67087">
        <ele>436.427734</ele>
        <time>2016-10-02T06:46:20Z</time>
      </trkpt>
      <trkpt lat="45.79503" lon="4.67081">
        <ele>436.644592</ele>
        <time>2016-10-02T06:46:22Z</time>
      </trkpt>
      <trkpt lat="45.79504" lon="4.67074">
        <ele>437.208984</ele>
        <time>2016-10-02T06:46:24Z</time>
      </trkpt>
      <trkpt lat="45.79506" lon="4.67067">
        <ele>437.45575</ele>
        <time>2016-10-02T06:46:26Z</time>
      </trkpt>
      <trkpt lat="45.79508" lon="4.67061">
        <ele>437.793365</ele>
        <time>2016-10-02T06:46:28Z</time>
      </trkpt>
      <trkpt lat="45.79509" lon="4.67055">
        <ele>438.092102</ele>
        <time>2016-10-02T06:46:30Z</time>
      </trkpt>
      <trkpt lat="45.7951" lon="4.67047">
        <ele>438.373474</ele>
        <time>2016-10-02T06:46:32Z</time>
      </trkpt>
      <trkpt lat="45.79511" lon="4.67038">
        <ele>438.676514</ele>
        <time>2016-10-02T06:46:34Z</time>
      </trkpt>
      <trkpt lat="45.79516" lon="4.67031">
        <ele>438.935852</ele>
        <time>2016-10-02T06:46:36Z</time>
      </trkpt>
      <trkpt lat="45.7952" lon="4.67023">
        <ele>439.295166</ele>
        <time>2016-10-02T06:46:38Z</time>
      </trkpt>
      <trkpt lat="45.79523" lon="4.67013">
        <ele>439.511658</ele>
        <time>2016-10-02T06:46:40Z</time>
      </trkpt>
      <trkpt lat="45.79523" lon="4.67003">
        <ele>439.6026</ele>
        <time>2016-10-02T06:46:42Z</time>
      </trkpt>
      <trkpt lat="45.7952" lon="4.66993">
        <ele>439.899353</ele>
        <time>2016-10-02T06:46:44Z</time>
      </trkpt>
      <trkpt lat="45.79517" lon="4.66982">
        <ele>440.015198</ele>
        <time>2016-10-02T06:46:46Z</time>
      </trkpt>
      <trkpt lat="45.79515" lon="4.66972">
        <ele>440.207611</ele>
        <time>2016-10-02T06:46:48Z</time>
      </trkpt>
      <trkpt lat="45.79514" lon="4.6696">
        <ele>440.395935</ele>
        <time>2016-10-02T06:46:50Z</time>
      </trkpt>
      <trkpt lat="45.79512" lon="4.66948">
        <ele>440.513245</ele>
        <time>2016-10-02T06:46:52Z</time>
      </trkpt>
      <trkpt lat="45.79511" lon="4.66937">
        <ele>440.617126</ele>
        <time>2016-10-02T06:46:54Z</time>
      </trkpt>
      <trkpt lat="45.79512" lon="4.66927">
        <ele>440.7211</ele>
        <time>2016-10-02T06:46:56Z</time>
      </trkpt>
      <trkpt lat="45.7951" lon="4.66916">
        <ele>440.974792</ele>
        <time>2016-10-02T06:46:58Z</time>
      </trkpt>
      <trkpt lat="45.79505" lon="4.66906">
        <ele>440.98761</ele>
        <time>2016-10-02T06:47:00Z</time>
      </trkpt>
      <trkpt lat="45.79501" lon="4.66896">
        <ele>441.101898</ele>
        <time>2016-10-02T06:47:02Z</time>
      </trkpt>
      <trkpt lat="45.79499" lon="4.66883">
        <ele>441.108398</ele>
        <time>2016-10-02T06:47:04Z</time>
      </trkpt>
      <trkpt lat="45.79497" lon="4.66869">
        <ele>441.071533</ele>
        <time>2016-10-02T06:47:06Z</time>
      </trkpt>
      <trkpt lat="45.79495" lon="4.66855">
        <ele>441.150482</ele>
        <time>2016-10-02T06:47:08Z</time>
      </trkpt>
      <trkpt lat="45.79494" lon="4.6684">
        <ele>441.331207</ele>
        <time>2016-10-02T06:47:10Z</time>
      </trkpt>
      <trkpt lat="45.79493" lon="4.66826">
        <ele>441.42218</ele>
        <time>2016-10-02T06:47:12Z</time>
      </trkpt>
      <trkpt lat="45.79491" lon="4.66811">
        <ele>441.439514</ele>
        <time>2016-10-02T06:47:14Z</time>
      </trkpt>
      <trkpt lat="45.7949" lon="4.66797">
        <ele>441.482819</ele>
        <time>2016-10-02T06:47:16Z</time>
      </trkpt>
      <trkpt lat="45.79488" lon="4.66784">
        <ele>441.6185</ele>
        <time>2016-10-02T06:47:18Z</time>
      </trkpt>
      <trkpt lat="45.79486" lon="4.66773">
        <ele>441.724609</ele>
        <time>2016-10-02T06:47:20Z</time>
      </trkpt>
      <trkpt lat="45.7948" lon="4.66768">
        <ele>441.832855</ele>
        <time>2016-10-02T06:47:22Z</time>
      </trkpt>
      <trkpt lat="45.79475" lon="4.66769">
        <ele>441.999573</ele>
        <time>2016-10-02T06:47:24Z</time>
      </trkpt>
      <trkpt lat="45.7947" lon="4.6677">
        <ele>442.11322</ele>
        <time>2016-10-02T06:47:26Z</time>
      </trkpt>
      <trkpt lat="45.79466" lon="4.66769">
        <ele>442.314636</ele>
        <time>2016-10-02T06:47:28Z</time>
      </trkpt>
      <trkpt lat="45.79461" lon="4.66767">
        <ele>442.3255</ele>
        <time>2016-10-02T06:47:30Z</time>
      </trkpt>
      <trkpt lat="45.79459" lon="4.66764">
        <ele>442.465149</ele>
        <time>2016-10-02T06:47:32Z</time>
      </trkpt>
      <trkpt lat="45.79459" lon="4.6676">
        <ele>442.709473</ele>
        <time>2016-10-02T06:47:34Z</time>
      </trkpt>
      <trkpt lat="45.7946" lon="4.66755">
        <ele>442.98233</ele>
        <time>2016-10-02T06:47:36Z</time>
      </trkpt>
      <trkpt lat="45.79461" lon="4.66752">
        <ele>443.077576</ele>
        <time>2016-10-02T06:47:38Z</time>
      </trkpt>
      <trkpt lat="45.79459" lon="4.66744">
        <ele>443.462494</ele>
        <time>2016-10-02T06:48:55Z</time>
      </trkpt>
      <trkpt lat="45.79459" lon="4.66732">
        <ele>443.568665</ele>
        <time>2016-10-02T06:48:57Z</time>
      </trkpt>
      <trkpt lat="45.7946" lon="4.66726">
        <ele>443.529633</ele>
        <time>2016-10-02T06:48:59Z</time>
      </trkpt>
      <trkpt lat="45.79459" lon="4.6672">
        <ele>443.53183</ele>
        <time>2016-10-02T06:49:01Z</time>
      </trkpt>
      <trkpt lat="45.79459" lon="4.66712">
        <ele>443.545074</ele>
        <time>2016-10-02T06:49:03Z</time>
      </trkpt>
      <trkpt lat="45.7946" lon="4.66704">
        <ele>443.499573</ele>
        <time>2016-10-02T06:49:05Z</time>
      </trkpt>
      <trkpt lat="45.79461" lon="4.66696">
        <ele>443.332855</ele>
        <time>2016-10-02T06:49:07Z</time>
      </trkpt>
      <trkpt lat="45.79462" lon="4.66686">
        <ele>443.329285</ele>
        <time>2016-10-02T06:49:09Z</time>
      </trkpt>
      <trkpt lat="45.79463" lon="4.66678">
        <ele>443.257813</ele>
        <time>2016-10-02T06:49:11Z</time>
      </trkpt>
      <trkpt lat="45.79464" lon="4.66668">
        <ele>443.191345</ele>
        <time>2016-10-02T06:49:13Z</time>
      </trkpt>
      <trkpt lat="45.79466" lon="4.66658">
        <ele>443.035461</ele>
        <time>2016-10-02T06:49:15Z</time>
      </trkpt>
      <trkpt lat="45.79469" lon="4.66646">
        <ele>443.029236</ele>
        <time>2016-10-02T06:49:17Z</time>
      </trkpt>
      <trkpt lat="45.79471" lon="4.66632">
        <ele>442.996765</ele>
        <time>2016-10-02T06:49:19Z</time>
      </trkpt>
      <trkpt lat="45.79475" lon="4.66618">
        <ele>442.795471</ele>
        <time>2016-10-02T06:49:21Z</time>
      </trkpt>
      <trkpt lat="45.7948" lon="4.66604">
        <ele>442.453369</ele>
        <time>2016-10-02T06:49:23Z</time>
      </trkpt>
      <trkpt lat="45.79487" lon="4.66591">
        <ele>442.279358</ele>
        <time>2016-10-02T06:49:25Z</time>
      </trkpt>
      <trkpt lat="45.79493" lon="4.66579">
        <ele>441.941589</ele>
        <time>2016-10-02T06:49:27Z</time>
      </trkpt>
      <trkpt lat="45.79499" lon="4.66567">
        <ele>441.766205</ele>
        <time>2016-10-02T06:49:29Z</time>
      </trkpt>
      <trkpt lat="45.79506" lon="4.66554">
        <ele>441.460602</ele>
        <time>2016-10-02T06:49:31Z</time>
      </trkpt>
      <trkpt lat="45.79516" lon="4.66545">
        <ele>441.317688</ele>
        <time>2016-10-02T06:49:33Z</time>
      </trkpt>
      <trkpt lat="45.79528" lon="4.6654">
        <ele>441.083832</ele>
        <time>2016-10-02T06:49:35Z</time>
      </trkpt>
      <trkpt lat="45.79541" lon="4.66537">
        <ele>440.746094</ele>
        <time>2016-10-02T06:49:37Z</time>
      </trkpt>
      <trkpt lat="45.79553" lon="4.66536">
        <ele>440.702789</ele>
        <time>2016-10-02T06:49:39Z</time>
      </trkpt>
      <trkpt lat="45.79564" lon="4.66532">
        <ele>440.222168</ele>
        <time>2016-10-02T06:49:41Z</time>
      </trkpt>
      <trkpt lat="45.79573" lon="4.66525">
        <ele>439.896332</ele>
        <time>2016-10-02T06:49:43Z</time>
      </trkpt>
      <trkpt lat="45.79579" lon="4.66519">
        <ele>439.640869</ele>
        <time>2016-10-02T06:49:45Z</time>
      </trkpt>
      <trkpt lat="45.79579" lon="4.66513">
        <ele>439.314026</ele>
        <time>2016-10-02T06:49:47Z</time>
      </trkpt>
      <trkpt lat="45.79579" lon="4.66511">
        <ele>439.022766</ele>
        <time>2016-10-02T06:49:49Z</time>
      </trkpt>
      <trkpt lat="45.79577" lon="4.66511">
        <ele>438.229645</ele>
        <time>2016-10-02T06:49:55Z</time>
      </trkpt>
      <trkpt lat="45.79574" lon="4.66511">
        <ele>437.579834</ele>
        <time>2016-10-02T06:50:05Z</time>
      </trkpt>
      <trkpt lat="45.79571" lon="4.6651">
        <ele>437.458557</ele>
        <time>2016-10-02T06:50:07Z</time>
      </trkpt>
      <trkpt lat="45.79569" lon="4.66509">
        <ele>437.434753</ele>
        <time>2016-10-02T06:50:09Z</time>
      </trkpt>
      <trkpt lat="45.79566" lon="4.66507">
        <ele>437.450378</ele>
        <time>2016-10-02T06:50:11Z</time>
      </trkpt>
      <trkpt lat="45.79562" lon="4.66506">
        <ele>437.550934</ele>
        <time>2016-10-02T06:50:13Z</time>
      </trkpt>
      <trkpt lat="45.79559" lon="4.66506">
        <ele>437.683014</ele>
        <time>2016-10-02T06:50:15Z</time>
      </trkpt>
      <trkpt lat="45.79556" lon="4.66506">
        <ele>437.776062</ele>
        <time>2016-10-02T06:50:17Z</time>
      </trkpt>
      <trkpt lat="45.79553" lon="4.66505">
        <ele>437.834534</ele>
        <time>2016-10-02T06:50:19Z</time>
      </trkpt>
      <trkpt lat="45.7955" lon="4.66505">
        <ele>438.098633</ele>
        <time>2016-10-02T06:50:21Z</time>
      </trkpt>
      <trkpt lat="45.79547" lon="4.66504">
        <ele>438.484863</ele>
        <time>2016-10-02T06:50:23Z</time>
      </trkpt>
      <trkpt lat="45.79544" lon="4.66503">
        <ele>438.725189</ele>
        <time>2016-10-02T06:50:25Z</time>
      </trkpt>
      <trkpt lat="45.79542" lon="4.66502">
        <ele>439.075989</ele>
        <time>2016-10-02T06:50:27Z</time>
      </trkpt>
      <trkpt lat="45.7954" lon="4.66501">
        <ele>439.56958</ele>
        <time>2016-10-02T06:50:29Z</time>
      </trkpt>
      <trkpt lat="45.79538" lon="4.66499">
        <ele>440.056793</ele>
        <time>2016-10-02T06:50:31Z</time>
      </trkpt>
      <trkpt lat="45.79535" lon="4.66498">
        <ele>440.398285</ele>
        <time>2016-10-02T06:50:33Z</time>
      </trkpt>
      <trkpt lat="45.79533" lon="4.66497">
        <ele>440.874664</ele>
        <time>2016-10-02T06:50:35Z</time>
      </trkpt>
      <trkpt lat="45.7953" lon="4.66495">
        <ele>441.384094</ele>
        <time>2016-10-02T06:50:37Z</time>
      </trkpt>
      <trkpt lat="45.79528" lon="4.66493">
        <ele>441.901672</ele>
        <time>2016-10-02T06:50:39Z</time>
      </trkpt>
      <trkpt lat="45.79527" lon="4.66493">
        <ele>442.451752</ele>
        <time>2016-10-02T06:50:41Z</time>
      </trkpt>
      <trkpt lat="45.79525" lon="4.66491">
        <ele>442.962006</ele>
        <time>2016-10-02T06:50:43Z</time>
      </trkpt>
      <trkpt lat="45.79522" lon="4.66489">
        <ele>443.544678</ele>
        <time>2016-10-02T06:50:45Z</time>
      </trkpt>
      <trkpt lat="45.7952" lon="4.66488">
        <ele>443.845703</ele>
        <time>2016-10-02T06:50:47Z</time>
      </trkpt>
      <trkpt lat="45.79518" lon="4.66485">
        <ele>445.205872</ele>
        <time>2016-10-02T06:50:51Z</time>
      </trkpt>
      <trkpt lat="45.79516" lon="4.66483">
        <ele>445.781921</ele>
        <time>2016-10-02T06:50:53Z</time>
      </trkpt>
      <trkpt lat="45.79513" lon="4.66482">
        <ele>446.229309</ele>
        <time>2016-10-02T06:50:55Z</time>
      </trkpt>
      <trkpt lat="45.79511" lon="4.66481">
        <ele>446.803375</ele>
        <time>2016-10-02T06:50:57Z</time>
      </trkpt>
      <trkpt lat="45.79509" lon="4.6648">
        <ele>447.375305</ele>
        <time>2016-10-02T06:50:59Z</time>
      </trkpt>
      <trkpt lat="45.79507" lon="4.66479">
        <ele>447.871429</ele>
        <time>2016-10-02T06:51:01Z</time>
      </trkpt>
      <trkpt lat="45.79505" lon="4.66479">
        <ele>448.352448</ele>
        <time>2016-10-02T06:51:03Z</time>
      </trkpt>
      <trkpt lat="45.79503" lon="4.66478">
        <ele>448.82486</ele>
        <time>2016-10-02T06:51:05Z</time>
      </trkpt>
      <trkpt lat="45.79502" lon="4.66477">
        <ele>449.230042</ele>
        <time>2016-10-02T06:51:07Z</time>
      </trkpt>
      <trkpt lat="45.795" lon="4.66477">
        <ele>449.737152</ele>
        <time>2016-10-02T06:51:09Z</time>
      </trkpt>
      <trkpt lat="45.79498" lon="4.66477">
        <ele>450.133728</ele>
        <time>2016-10-02T06:51:11Z</time>
      </trkpt>
      <trkpt lat="45.79496" lon="4.66476">
        <ele>450.370911</ele>
        <time>2016-10-02T06:51:13Z</time>
      </trkpt>
      <trkpt lat="45.79495" lon="4.66475">
        <ele>450.982574</ele>
        <time>2016-10-02T06:51:15Z</time>
      </trkpt>
      <trkpt lat="45.79493" lon="4.66475">
        <ele>451.485413</ele>
        <time>2016-10-02T06:51:17Z</time>
      </trkpt>
      <trkpt lat="45.79491" lon="4.66475">
        <ele>451.985535</ele>
        <time>2016-10-02T06:51:19Z</time>
      </trkpt>
      <trkpt lat="45.79489" lon="4.66475">
        <ele>452.4711</ele>
        <time>2016-10-02T06:51:21Z</time>
      </trkpt>
      <trkpt lat="45.79487" lon="4.66475">
        <ele>452.902496</ele>
        <time>2016-10-02T06:51:23Z</time>
      </trkpt>
      <trkpt lat="45.79485" lon="4.66475">
        <ele>453.438721</ele>
        <time>2016-10-02T06:51:25Z</time>
      </trkpt>
      <trkpt lat="45.79484" lon="4.66474">
        <ele>453.814758</ele>
        <time>2016-10-02T06:51:27Z</time>
      </trkpt>
      <trkpt lat="45.79482" lon="4.66474">
        <ele>454.212067</ele>
        <time>2016-10-02T06:51:29Z</time>
      </trkpt>
      <trkpt lat="45.7948" lon="4.66474">
        <ele>454.63266</ele>
        <time>2016-10-02T06:51:31Z</time>
      </trkpt>
      <trkpt lat="45.79478" lon="4.66474">
        <ele>455.042419</ele>
        <time>2016-10-02T06:51:33Z</time>
      </trkpt>
      <trkpt lat="45.79476" lon="4.66474">
        <ele>455.304749</ele>
        <time>2016-10-02T06:51:35Z</time>
      </trkpt>
      <trkpt lat="45.79474" lon="4.66474">
        <ele>455.818604</ele>
        <time>2016-10-02T06:51:37Z</time>
      </trkpt>
      <trkpt lat="45.79472" lon="4.66474">
        <ele>456.172028</ele>
        <time>2016-10-02T06:51:39Z</time>
      </trkpt>
      <trkpt lat="45.7947" lon="4.66475">
        <ele>456.438812</ele>
        <time>2016-10-02T06:51:41Z</time>
      </trkpt>
      <trkpt lat="45.79468" lon="4.66476">
        <ele>456.839783</ele>
        <time>2016-10-02T06:51:43Z</time>
      </trkpt>
      <trkpt lat="45.79466" lon="4.66476">
        <ele>457.264801</ele>
        <time>2016-10-02T06:51:45Z</time>
      </trkpt>
      <trkpt lat="45.79464" lon="4.66477">
        <ele>457.637848</ele>
        <time>2016-10-02T06:51:47Z</time>
      </trkpt>
      <trkpt lat="45.79462" lon="4.66478">
        <ele>458.084534</ele>
        <time>2016-10-02T06:51:49Z</time>
      </trkpt>
      <trkpt lat="45.7946" lon="4.66479">
        <ele>458.431976</ele>
        <time>2016-10-02T06:51:51Z</time>
      </trkpt>
      <trkpt lat="45.79458" lon="4.66479">
        <ele>458.846588</ele>
        <time>2016-10-02T06:51:53Z</time>
      </trkpt>
      <trkpt lat="45.79456" lon="4.6648">
        <ele>459.239685</ele>
        <time>2016-10-02T06:51:55Z</time>
      </trkpt>
      <trkpt lat="45.79453" lon="4.66481">
        <ele>459.617188</ele>
        <time>2016-10-02T06:51:57Z</time>
      </trkpt>
      <trkpt lat="45.79451" lon="4.66481">
        <ele>460.022858</ele>
        <time>2016-10-02T06:51:59Z</time>
      </trkpt>
      <trkpt lat="45.79449" lon="4.66482">
        <ele>460.363464</ele>
        <time>2016-10-02T06:52:01Z</time>
      </trkpt>
      <trkpt lat="45.79447" lon="4.66482">
        <ele>460.840759</ele>
        <time>2016-10-02T06:52:03Z</time>
      </trkpt>
      <trkpt lat="45.79445" lon="4.66483">
        <ele>461.218323</ele>
        <time>2016-10-02T06:52:05Z</time>
      </trkpt>
      <trkpt lat="45.79443" lon="4.66484">
        <ele>461.467834</ele>
        <time>2016-10-02T06:52:07Z</time>
      </trkpt>
      <trkpt lat="45.79441" lon="4.66485">
        <ele>461.932526</ele>
        <time>2016-10-02T06:52:09Z</time>
      </trkpt>
      <trkpt lat="45.79439" lon="4.66485">
        <ele>462.391907</ele>
        <time>2016-10-02T06:52:11Z</time>
      </trkpt>
      <trkpt lat="45.79437" lon="4.66485">
        <ele>462.901855</ele>
        <time>2016-10-02T06:52:13Z</time>
      </trkpt>
      <trkpt lat="45.79435" lon="4.66486">
        <ele>463.264252</ele>
        <time>2016-10-02T06:52:15Z</time>
      </trkpt>
      <trkpt lat="45.79432" lon="4.66487">
        <ele>463.798004</ele>
        <time>2016-10-02T06:52:17Z</time>
      </trkpt>
      <trkpt lat="45.7943" lon="4.66488">
        <ele>464.225403</ele>
        <time>2016-10-02T06:52:19Z</time>
      </trkpt>
      <trkpt lat="45.79428" lon="4.66489">
        <ele>464.687653</ele>
        <time>2016-10-02T06:52:21Z</time>
      </trkpt>
      <trkpt lat="45.79426" lon="4.66489">
        <ele>465.102234</ele>
        <time>2016-10-02T06:52:23Z</time>
      </trkpt>
      <trkpt lat="45.79424" lon="4.66491">
        <ele>465.592773</ele>
        <time>2016-10-02T06:52:25Z</time>
      </trkpt>
      <trkpt lat="45.79422" lon="4.66492">
        <ele>466.03775</ele>
        <time>2016-10-02T06:52:27Z</time>
      </trkpt>
      <trkpt lat="45.79419" lon="4.66494">
        <ele>466.528259</ele>
        <time>2016-10-02T06:52:29Z</time>
      </trkpt>
      <trkpt lat="45.79417" lon="4.66495">
        <ele>467.027527</ele>
        <time>2016-10-02T06:52:31Z</time>
      </trkpt>
      <trkpt lat="45.79414" lon="4.66496">
        <ele>467.445374</ele>
        <time>2016-10-02T06:52:33Z</time>
      </trkpt>
      <trkpt lat="45.79413" lon="4.66496">
        <ele>467.94928</ele>
        <time>2016-10-02T06:52:35Z</time>
      </trkpt>
      <trkpt lat="45.7941" lon="4.66497">
        <ele>468.316162</ele>
        <time>2016-10-02T06:52:37Z</time>
      </trkpt>
      <trkpt lat="45.79408" lon="4.66499">
        <ele>468.550629</ele>
        <time>2016-10-02T06:52:39Z</time>
      </trkpt>
      <trkpt lat="45.79405" lon="4.665">
        <ele>468.931244</ele>
        <time>2016-10-02T06:52:41Z</time>
      </trkpt>
      <trkpt lat="45.79403" lon="4.66501">
        <ele>469.406738</ele>
        <time>2016-10-02T06:52:43Z</time>
      </trkpt>
      <trkpt lat="45.79401" lon="4.66502">
        <ele>469.784576</ele>
        <time>2016-10-02T06:52:45Z</time>
      </trkpt>
      <trkpt lat="45.79399" lon="4.66503">
        <ele>470.155853</ele>
        <time>2016-10-02T06:52:47Z</time>
      </trkpt>
      <trkpt lat="45.79396" lon="4.66504">
        <ele>470.494629</ele>
        <time>2016-10-02T06:52:49Z</time>
      </trkpt>
      <trkpt lat="45.79394" lon="4.66505">
        <ele>470.914551</ele>
        <time>2016-10-02T06:52:51Z</time>
      </trkpt>
      <trkpt lat="45.79393" lon="4.66506">
        <ele>471.285217</ele>
        <time>2016-10-02T06:52:53Z</time>
      </trkpt>
      <trkpt lat="45.79391" lon="4.66506">
        <ele>471.656555</ele>
        <time>2016-10-02T06:52:55Z</time>
      </trkpt>
      <trkpt lat="45.79388" lon="4.66506">
        <ele>472.058289</ele>
        <time>2016-10-02T06:52:57Z</time>
      </trkpt>
      <trkpt lat="45.79385" lon="4.66505">
        <ele>472.544769</ele>
        <time>2016-10-02T06:52:59Z</time>
      </trkpt>
      <trkpt lat="45.79383" lon="4.66504">
        <ele>472.983582</ele>
        <time>2016-10-02T06:53:01Z</time>
      </trkpt>
      <trkpt lat="45.7938" lon="4.66504">
        <ele>473.420166</ele>
        <time>2016-10-02T06:53:03Z</time>
      </trkpt>
      <trkpt lat="45.79378" lon="4.66503">
        <ele>473.835144</ele>
        <time>2016-10-02T06:53:05Z</time>
      </trkpt>
      <trkpt lat="45.79376" lon="4.66503">
        <ele>474.024109</ele>
        <time>2016-10-02T06:53:07Z</time>
      </trkpt>
      <trkpt lat="45.79373" lon="4.66503">
        <ele>474.394928</ele>
        <time>2016-10-02T06:53:09Z</time>
      </trkpt>
      <trkpt lat="45.79371" lon="4.66504">
        <ele>474.79248</ele>
        <time>2016-10-02T06:53:11Z</time>
      </trkpt>
      <trkpt lat="45.79369" lon="4.66505">
        <ele>475.240082</ele>
        <time>2016-10-02T06:53:13Z</time>
      </trkpt>
      <trkpt lat="45.79367" lon="4.66505">
        <ele>475.666504</ele>
        <time>2016-10-02T06:53:15Z</time>
      </trkpt>
      <trkpt lat="45.79364" lon="4.66506">
        <ele>476.027161</ele>
        <time>2016-10-02T06:53:17Z</time>
      </trkpt>
      <trkpt lat="45.79361" lon="4.66506">
        <ele>476.505066</ele>
        <time>2016-10-02T06:53:19Z</time>
      </trkpt>
      <trkpt lat="45.79358" lon="4.66505">
        <ele>476.991119</ele>
        <time>2016-10-02T06:53:21Z</time>
      </trkpt>
      <trkpt lat="45.79355" lon="4.66504">
        <ele>477.451813</ele>
        <time>2016-10-02T06:53:23Z</time>
      </trkpt>
      <trkpt lat="45.79353" lon="4.66504">
        <ele>477.945129</ele>
        <time>2016-10-02T06:53:25Z</time>
      </trkpt>
      <trkpt lat="45.79351" lon="4.66504">
        <ele>478.399323</ele>
        <time>2016-10-02T06:53:27Z</time>
      </trkpt>
      <trkpt lat="45.79349" lon="4.66504">
        <ele>478.90567</ele>
        <time>2016-10-02T06:53:29Z</time>
      </trkpt>
      <trkpt lat="45.79347" lon="4.66504">
        <ele>479.379456</ele>
        <time>2016-10-02T06:53:31Z</time>
      </trkpt>
      <trkpt lat="45.79345" lon="4.66505">
        <ele>479.616364</ele>
        <time>2016-10-02T06:53:33Z</time>
      </trkpt>
      <trkpt lat="45.79343" lon="4.66504">
        <ele>480.136719</ele>
        <time>2016-10-02T06:53:35Z</time>
      </trkpt>
      <trkpt lat="45.7934" lon="4.66504">
        <ele>480.569244</ele>
        <time>2016-10-02T06:53:37Z</time>
      </trkpt>
      <trkpt lat="45.79338" lon="4.66504">
        <ele>481.069153</ele>
        <time>2016-10-02T06:53:39Z</time>
      </trkpt>
      <trkpt lat="45.79335" lon="4.66504">
        <ele>481.414795</ele>
        <time>2016-10-02T06:53:41Z</time>
      </trkpt>
      <trkpt lat="45.79333" lon="4.66505">
        <ele>481.837341</ele>
        <time>2016-10-02T06:53:43Z</time>
      </trkpt>
      <trkpt lat="45.7933" lon="4.66504">
        <ele>482.200287</ele>
        <time>2016-10-02T06:53:45Z</time>
      </trkpt>
      <trkpt lat="45.79327" lon="4.66503">
        <ele>482.576263</ele>
        <time>2016-10-02T06:53:47Z</time>
      </trkpt>
      <trkpt lat="45.79325" lon="4.66502">
        <ele>483.035583</ele>
        <time>2016-10-02T06:53:49Z</time>
      </trkpt>
      <trkpt lat="45.79323" lon="4.66499">
        <ele>483.457367</ele>
        <time>2016-10-02T06:53:51Z</time>
      </trkpt>
      <trkpt lat="45.79321" lon="4.66498">
        <ele>483.907471</ele>
        <time>2016-10-02T06:53:53Z</time>
      </trkpt>
      <trkpt lat="45.79319" lon="4.66496">
        <ele>484.390198</ele>
        <time>2016-10-02T06:53:55Z</time>
      </trkpt>
      <trkpt lat="45.79317" lon="4.66495">
        <ele>484.601135</ele>
        <time>2016-10-02T06:53:57Z</time>
      </trkpt>
      <trkpt lat="45.79315" lon="4.66493">
        <ele>485.069244</ele>
        <time>2016-10-02T06:53:59Z</time>
      </trkpt>
      <trkpt lat="45.79314" lon="4.66491">
        <ele>485.501526</ele>
        <time>2016-10-02T06:54:01Z</time>
      </trkpt>
      <trkpt lat="45.79312" lon="4.66489">
        <ele>485.969086</ele>
        <time>2016-10-02T06:54:03Z</time>
      </trkpt>
      <trkpt lat="45.7931" lon="4.66489">
        <ele>486.373627</ele>
        <time>2016-10-02T06:54:05Z</time>
      </trkpt>
      <trkpt lat="45.79308" lon="4.66488">
        <ele>486.79126</ele>
        <time>2016-10-02T06:54:07Z</time>
      </trkpt>
      <trkpt lat="45.79306" lon="4.66487">
        <ele>487.195801</ele>
        <time>2016-10-02T06:54:09Z</time>
      </trkpt>
      <trkpt lat="45.79304" lon="4.66486">
        <ele>487.612366</ele>
        <time>2016-10-02T06:54:11Z</time>
      </trkpt>
      <trkpt lat="45.79303" lon="4.66484">
        <ele>488.016937</ele>
        <time>2016-10-02T06:54:13Z</time>
      </trkpt>
      <trkpt lat="45.79301" lon="4.66482">
        <ele>488.323639</ele>
        <time>2016-10-02T06:54:15Z</time>
      </trkpt>
      <trkpt lat="45.79299" lon="4.6648">
        <ele>488.812805</ele>
        <time>2016-10-02T06:54:17Z</time>
      </trkpt>
      <trkpt lat="45.79297" lon="4.66479">
        <ele>489.282654</ele>
        <time>2016-10-02T06:54:19Z</time>
      </trkpt>
      <trkpt lat="45.79295" lon="4.66478">
        <ele>489.689514</ele>
        <time>2016-10-02T06:54:21Z</time>
      </trkpt>
      <trkpt lat="45.79293" lon="4.66478">
        <ele>490.08139</ele>
        <time>2016-10-02T06:54:23Z</time>
      </trkpt>
      <trkpt lat="45.79291" lon="4.66477">
        <ele>490.307678</ele>
        <time>2016-10-02T06:54:25Z</time>
      </trkpt>
      <trkpt lat="45.7929" lon="4.66475">
        <ele>490.70401</ele>
        <time>2016-10-02T06:54:27Z</time>
      </trkpt>
      <trkpt lat="45.79288" lon="4.66474">
        <ele>491.167542</ele>
        <time>2016-10-02T06:54:29Z</time>
      </trkpt>
      <trkpt lat="45.79287" lon="4.66472">
        <ele>491.574371</ele>
        <time>2016-10-02T06:54:31Z</time>
      </trkpt>
      <trkpt lat="45.79285" lon="4.66471">
        <ele>492.044342</ele>
        <time>2016-10-02T06:54:33Z</time>
      </trkpt>
      <trkpt lat="45.79284" lon="4.6647">
        <ele>492.34903</ele>
        <time>2016-10-02T06:54:35Z</time>
      </trkpt>
      <trkpt lat="45.79282" lon="4.66468">
        <ele>492.683655</ele>
        <time>2016-10-02T06:54:37Z</time>
      </trkpt>
      <trkpt lat="45.7928" lon="4.66467">
        <ele>493.061615</ele>
        <time>2016-10-02T06:54:39Z</time>
      </trkpt>
      <trkpt lat="45.79278" lon="4.66465">
        <ele>493.506012</ele>
        <time>2016-10-02T06:54:41Z</time>
      </trkpt>
      <trkpt lat="45.79277" lon="4.66464">
        <ele>493.82724</ele>
        <time>2016-10-02T06:54:43Z</time>
      </trkpt>
      <trkpt lat="45.79269" lon="4.66454">
        <ele>498.141663</ele>
        <time>2016-10-02T06:55:11Z</time>
      </trkpt>
      <trkpt lat="45.79268" lon="4.66452">
        <ele>498.389832</ele>
        <time>2016-10-02T06:55:13Z</time>
      </trkpt>
      <trkpt lat="45.79267" lon="4.6645">
        <ele>498.644592</ele>
        <time>2016-10-02T06:55:15Z</time>
      </trkpt>
      <trkpt lat="45.79265" lon="4.66448">
        <ele>498.934631</ele>
        <time>2016-10-02T06:55:17Z</time>
      </trkpt>
      <trkpt lat="45.79261" lon="4.66442">
        <ele>499.0979</ele>
        <time>2016-10-02T06:55:19Z</time>
      </trkpt>
      <trkpt lat="45.7926" lon="4.66441">
        <ele>499.359222</ele>
        <time>2016-10-02T06:55:21Z</time>
      </trkpt>
      <trkpt lat="45.79258" lon="4.66437">
        <ele>500.070251</ele>
        <time>2016-10-02T06:55:27Z</time>
      </trkpt>
      <trkpt lat="45.79258" lon="4.66435">
        <ele>500.281647</ele>
        <time>2016-10-02T06:55:29Z</time>
      </trkpt>
      <trkpt lat="45.79257" lon="4.66432">
        <ele>500.816071</ele>
        <time>2016-10-02T06:55:33Z</time>
      </trkpt>
      <trkpt lat="45.79256" lon="4.66431">
        <ele>501.118835</ele>
        <time>2016-10-02T06:55:35Z</time>
      </trkpt>
      <trkpt lat="45.79255" lon="4.6643">
        <ele>501.372559</ele>
        <time>2016-10-02T06:55:37Z</time>
      </trkpt>
      <trkpt lat="45.79255" lon="4.66427">
        <ele>502.045654</ele>
        <time>2016-10-02T06:55:41Z</time>
      </trkpt>
      <trkpt lat="45.79255" lon="4.66426">
        <ele>502.176331</ele>
        <time>2016-10-02T06:55:43Z</time>
      </trkpt>
      <trkpt lat="45.79254" lon="4.66425">
        <ele>502.503082</ele>
        <time>2016-10-02T06:55:45Z</time>
      </trkpt>
      <trkpt lat="45.79252" lon="4.6642">
        <ele>504.000336</ele>
        <time>2016-10-02T06:55:53Z</time>
      </trkpt>
      <trkpt lat="45.7925" lon="4.6642">
        <ele>506.682037</ele>
        <time>2016-10-02T06:56:11Z</time>
      </trkpt>
      <trkpt lat="45.7925" lon="4.66418">
        <ele>506.785004</ele>
        <time>2016-10-02T06:56:13Z</time>
      </trkpt>
      <trkpt lat="45.7925" lon="4.66415">
        <ele>508.886566</ele>
        <time>2016-10-02T06:56:51Z</time>
      </trkpt>
      <trkpt lat="45.7925" lon="4.66408">
        <ele>509.208557</ele>
        <time>2016-10-02T06:56:55Z</time>
      </trkpt>
      <trkpt lat="45.79248" lon="4.66408">
        <ele>509.352386</ele>
        <time>2016-10-02T06:56:57Z</time>
      </trkpt>
      <trkpt lat="45.79247" lon="4.66407">
        <ele>509.439606</ele>
        <time>2016-10-02T06:56:59Z</time>
      </trkpt>
      <trkpt lat="45.79245" lon="4.66405">
        <ele>510.2099</ele>
        <time>2016-10-02T06:57:09Z</time>
      </trkpt>
      <trkpt lat="45.79244" lon="4.66403">
        <ele>510.388611</ele>
        <time>2016-10-02T06:57:11Z</time>
      </trkpt>
      <trkpt lat="45.79243" lon="4.66402">
        <ele>510.493317</ele>
        <time>2016-10-02T06:57:13Z</time>
      </trkpt>
      <trkpt lat="45.79242" lon="4.66401">
        <ele>510.722229</ele>
        <time>2016-10-02T06:57:15Z</time>
      </trkpt>
      <trkpt lat="45.7924" lon="4.66399">
        <ele>511.190857</ele>
        <time>2016-10-02T06:57:19Z</time>
      </trkpt>
      <trkpt lat="45.79239" lon="4.66399">
        <ele>511.430603</ele>
        <time>2016-10-02T06:57:21Z</time>
      </trkpt>
      <trkpt lat="45.79237" lon="4.66398">
        <ele>511.696625</ele>
        <time>2016-10-02T06:57:23Z</time>
      </trkpt>
      <trkpt lat="45.79236" lon="4.66397">
        <ele>511.99527</ele>
        <time>2016-10-02T06:57:25Z</time>
      </trkpt>
      <trkpt lat="45.79236" lon="4.66396">
        <ele>512.337097</ele>
        <time>2016-10-02T06:57:27Z</time>
      </trkpt>
      <trkpt lat="45.79234" lon="4.66394">
        <ele>513.052246</ele>
        <time>2016-10-02T06:57:31Z</time>
      </trkpt>
      <trkpt lat="45.79232" lon="4.66394">
        <ele>513.370667</ele>
        <time>2016-10-02T06:57:33Z</time>
      </trkpt>
      <trkpt lat="45.79231" lon="4.66394">
        <ele>513.494934</ele>
        <time>2016-10-02T06:57:35Z</time>
      </trkpt>
      <trkpt lat="45.79229" lon="4.66394">
        <ele>513.87439</ele>
        <time>2016-10-02T06:57:37Z</time>
      </trkpt>
      <trkpt lat="45.79228" lon="4.66394">
        <ele>514.138306</ele>
        <time>2016-10-02T06:57:39Z</time>
      </trkpt>
      <trkpt lat="45.79225" lon="4.66393">
        <ele>514.779419</ele>
        <time>2016-10-02T06:57:43Z</time>
      </trkpt>
      <trkpt lat="45.79223" lon="4.66393">
        <ele>515.078247</ele>
        <time>2016-10-02T06:57:45Z</time>
      </trkpt>
      <trkpt lat="45.79223" lon="4.66391">
        <ele>515.367737</ele>
        <time>2016-10-02T06:57:47Z</time>
      </trkpt>
      <trkpt lat="45.79221" lon="4.6639">
        <ele>515.71228</ele>
        <time>2016-10-02T06:57:49Z</time>
      </trkpt>
      <trkpt lat="45.79219" lon="4.66388">
        <ele>516.155396</ele>
        <time>2016-10-02T06:57:51Z</time>
      </trkpt>
      <trkpt lat="45.79217" lon="4.66386">
        <ele>516.848511</ele>
        <time>2016-10-02T06:57:55Z</time>
      </trkpt>
      <trkpt lat="45.79216" lon="4.66385">
        <ele>517.184448</ele>
        <time>2016-10-02T06:57:57Z</time>
      </trkpt>
      <trkpt lat="45.79213" lon="4.66383">
        <ele>517.703674</ele>
        <time>2016-10-02T06:58:01Z</time>
      </trkpt>
      <trkpt lat="45.79212" lon="4.66382">
        <ele>518.026733</ele>
        <time>2016-10-02T06:58:03Z</time>
      </trkpt>
      <trkpt lat="45.79211" lon="4.66381">
        <ele>518.340881</ele>
        <time>2016-10-02T06:58:05Z</time>
      </trkpt>
      <trkpt lat="45.7921" lon="4.6638">
        <ele>518.639771</ele>
        <time>2016-10-02T06:58:07Z</time>
      </trkpt>
      <trkpt lat="45.79208" lon="4.66378">
        <ele>518.945251</ele>
        <time>2016-10-02T06:58:09Z</time>
      </trkpt>
      <trkpt lat="45.79207" lon="4.66377">
        <ele>519.287842</ele>
        <time>2016-10-02T06:58:11Z</time>
      </trkpt>
      <trkpt lat="45.79205" lon="4.66376">
        <ele>519.591125</ele>
        <time>2016-10-02T06:58:13Z</time>
      </trkpt>
      <trkpt lat="45.79204" lon="4.66374">
        <ele>519.868225</ele>
        <time>2016-10-02T06:58:15Z</time>
      </trkpt>
      <trkpt lat="45.79202" lon="4.66373">
        <ele>520.171509</ele>
        <time>2016-10-02T06:58:17Z</time>
      </trkpt>
      <trkpt lat="45.79201" lon="4.66372">
        <ele>520.472595</ele>
        <time>2016-10-02T06:58:19Z</time>
      </trkpt>
      <trkpt lat="45.792" lon="4.66371">
        <ele>520.837036</ele>
        <time>2016-10-02T06:58:21Z</time>
      </trkpt>
      <trkpt lat="45.792" lon="4.66368">
        <ele>521.207214</ele>
        <time>2016-10-02T06:58:23Z</time>
      </trkpt>
      <trkpt lat="45.79197" lon="4.6636">
        <ele>525.034546</ele>
        <time>2016-10-02T06:58:51Z</time>
      </trkpt>
      <trkpt lat="45.79196" lon="4.66359">
        <ele>525.215698</ele>
        <time>2016-10-02T06:58:53Z</time>
      </trkpt>
      <trkpt lat="45.79196" lon="4.66357">
        <ele>525.453674</ele>
        <time>2016-10-02T06:58:55Z</time>
      </trkpt>
      <trkpt lat="45.79189" lon="4.66356">
        <ele>528.518311</ele>
        <time>2016-10-02T06:59:42Z</time>
      </trkpt>
      <trkpt lat="45.79181" lon="4.66356">
        <ele>528.528748</ele>
        <time>2016-10-02T06:59:44Z</time>
      </trkpt>
      <trkpt lat="45.79178" lon="4.66354">
        <ele>528.583862</ele>
        <time>2016-10-02T06:59:46Z</time>
      </trkpt>
      <trkpt lat="45.79174" lon="4.66353">
        <ele>528.749878</ele>
        <time>2016-10-02T06:59:48Z</time>
      </trkpt>
      <trkpt lat="45.79171" lon="4.66351">
        <ele>528.881042</ele>
        <time>2016-10-02T06:59:50Z</time>
      </trkpt>
      <trkpt lat="45.79168" lon="4.66349">
        <ele>528.926941</ele>
        <time>2016-10-02T06:59:52Z</time>
      </trkpt>
      <trkpt lat="45.79165" lon="4.66348">
        <ele>529.020874</ele>
        <time>2016-10-02T06:59:54Z</time>
      </trkpt>
      <trkpt lat="45.79162" lon="4.66346">
        <ele>529.140991</ele>
        <time>2016-10-02T06:59:56Z</time>
      </trkpt>
      <trkpt lat="45.7916" lon="4.66344">
        <ele>529.320923</ele>
        <time>2016-10-02T06:59:58Z</time>
      </trkpt>
      <trkpt lat="45.79158" lon="4.66342">
        <ele>529.537109</ele>
        <time>2016-10-02T07:00:00Z</time>
      </trkpt>
      <trkpt lat="45.79155" lon="4.66339">
        <ele>529.669678</ele>
        <time>2016-10-02T07:00:02Z</time>
      </trkpt>
      <trkpt lat="45.79153" lon="4.66336">
        <ele>529.897095</ele>
        <time>2016-10-02T07:00:04Z</time>
      </trkpt>
      <trkpt lat="45.7915" lon="4.66334">
        <ele>530.150513</ele>
        <time>2016-10-02T07:00:06Z</time>
      </trkpt>
      <trkpt lat="45.79148" lon="4.66331">
        <ele>530.440063</ele>
        <time>2016-10-02T07:00:08Z</time>
      </trkpt>
      <trkpt lat="45.79146" lon="4.66329">
        <ele>530.778564</ele>
        <time>2016-10-02T07:00:10Z</time>
      </trkpt>
      <trkpt lat="45.79144" lon="4.66326">
        <ele>531.123657</ele>
        <time>2016-10-02T07:00:12Z</time>
      </trkpt>
      <trkpt lat="45.79143" lon="4.66323">
        <ele>531.530029</ele>
        <time>2016-10-02T07:00:14Z</time>
      </trkpt>
      <trkpt lat="45.79144" lon="4.66322">
        <ele>531.932007</ele>
        <time>2016-10-02T07:00:16Z</time>
      </trkpt>
      <trkpt lat="45.79146" lon="4.66322">
        <ele>531.958191</ele>
        <time>2016-10-02T07:00:18Z</time>
      </trkpt>
      <trkpt lat="45.79148" lon="4.66322">
        <ele>532.311829</ele>
        <time>2016-10-02T07:00:20Z</time>
      </trkpt>
      <trkpt lat="45.7915" lon="4.66322">
        <ele>532.737671</ele>
        <time>2016-10-02T07:00:22Z</time>
      </trkpt>
      <trkpt lat="45.79152" lon="4.66322">
        <ele>533.056641</ele>
        <time>2016-10-02T07:00:24Z</time>
      </trkpt>
      <trkpt lat="45.79154" lon="4.66322">
        <ele>533.404419</ele>
        <time>2016-10-02T07:00:26Z</time>
      </trkpt>
      <trkpt lat="45.79156" lon="4.6632">
        <ele>533.882935</ele>
        <time>2016-10-02T07:00:28Z</time>
      </trkpt>
      <trkpt lat="45.79158" lon="4.66318">
        <ele>534.121399</ele>
        <time>2016-10-02T07:00:30Z</time>
      </trkpt>
      <trkpt lat="45.7916" lon="4.66317">
        <ele>534.621704</ele>
        <time>2016-10-02T07:00:32Z</time>
      </trkpt>
      <trkpt lat="45.79162" lon="4.66317">
        <ele>535.023804</ele>
        <time>2016-10-02T07:00:34Z</time>
      </trkpt>
      <trkpt lat="45.79164" lon="4.66315">
        <ele>535.423706</ele>
        <time>2016-10-02T07:00:36Z</time>
      </trkpt>
      <trkpt lat="45.79166" lon="4.66314">
        <ele>535.833618</ele>
        <time>2016-10-02T07:00:38Z</time>
      </trkpt>
      <trkpt lat="45.79168" lon="4.66313">
        <ele>536.212097</ele>
        <time>2016-10-02T07:00:40Z</time>
      </trkpt>
      <trkpt lat="45.7917" lon="4.66312">
        <ele>536.55365</ele>
        <time>2016-10-02T07:00:42Z</time>
      </trkpt>
      <trkpt lat="45.79172" lon="4.66311">
        <ele>536.955322</ele>
        <time>2016-10-02T07:00:44Z</time>
      </trkpt>
      <trkpt lat="45.79174" lon="4.6631">
        <ele>537.278809</ele>
        <time>2016-10-02T07:00:46Z</time>
      </trkpt>
      <trkpt lat="45.79176" lon="4.66308">
        <ele>537.482056</ele>
        <time>2016-10-02T07:00:48Z</time>
      </trkpt>
      <trkpt lat="45.79177" lon="4.66306">
        <ele>537.807861</ele>
        <time>2016-10-02T07:00:50Z</time>
      </trkpt>
      <trkpt lat="45.79174" lon="4.66304">
        <ele>539.293579</ele>
        <time>2016-10-02T07:01:00Z</time>
      </trkpt>
      <trkpt lat="45.79173" lon="4.66305">
        <ele>539.547241</ele>
        <time>2016-10-02T07:01:02Z</time>
      </trkpt>
      <trkpt lat="45.79173" lon="4.663">
        <ele>540.932251</ele>
        <time>2016-10-02T07:01:12Z</time>
      </trkpt>
      <trkpt lat="45.79171" lon="4.66298">
        <ele>541.166138</ele>
        <time>2016-10-02T07:01:14Z</time>
      </trkpt>
      <trkpt lat="45.7917" lon="4.66295">
        <ele>541.248108</ele>
        <time>2016-10-02T07:01:16Z</time>
      </trkpt>
      <trkpt lat="45.79169" lon="4.66292">
        <ele>541.385864</ele>
        <time>2016-10-02T07:01:18Z</time>
      </trkpt>
      <trkpt lat="45.79169" lon="4.6629">
        <ele>541.643921</ele>
        <time>2016-10-02T07:01:20Z</time>
      </trkpt>
      <trkpt lat="45.79168" lon="4.66288">
        <ele>541.881836</ele>
        <time>2016-10-02T07:01:22Z</time>
      </trkpt>
      <trkpt lat="45.79167" lon="4.66286">
        <ele>542.203247</ele>
        <time>2016-10-02T07:01:24Z</time>
      </trkpt>
      <trkpt lat="45.79165" lon="4.66283">
        <ele>542.527283</ele>
        <time>2016-10-02T07:01:26Z</time>
      </trkpt>
      <trkpt lat="45.79165" lon="4.66279">
        <ele>542.845459</ele>
        <time>2016-10-02T07:01:28Z</time>
      </trkpt>
      <trkpt lat="45.79165" lon="4.66276">
        <ele>543.150269</ele>
        <time>2016-10-02T07:01:30Z</time>
      </trkpt>
      <trkpt lat="45.79165" lon="4.66273">
        <ele>543.459778</ele>
        <time>2016-10-02T07:01:32Z</time>
      </trkpt>
      <trkpt lat="45.79166" lon="4.6627">
        <ele>543.726624</ele>
        <time>2016-10-02T07:01:34Z</time>
      </trkpt>
      <trkpt lat="45.79166" lon="4.66267">
        <ele>544.266724</ele>
        <time>2016-10-02T07:01:38Z</time>
      </trkpt>
      <trkpt lat="45.79166" lon="4.66264">
        <ele>544.837341</ele>
        <time>2016-10-02T07:01:40Z</time>
      </trkpt>
      <trkpt lat="45.79166" lon="4.66261">
        <ele>545.108582</ele>
        <time>2016-10-02T07:01:42Z</time>
      </trkpt>
      <trkpt lat="45.79166" lon="4.66259">
        <ele>545.280334</ele>
        <time>2016-10-02T07:01:44Z</time>
      </trkpt>
      <trkpt lat="45.79165" lon="4.66256">
        <ele>545.650024</ele>
        <time>2016-10-02T07:01:46Z</time>
      </trkpt>
      <trkpt lat="45.79163" lon="4.66252">
        <ele>546.147583</ele>
        <time>2016-10-02T07:01:50Z</time>
      </trkpt>
      <trkpt lat="45.79162" lon="4.66249">
        <ele>546.729614</ele>
        <time>2016-10-02T07:01:52Z</time>
      </trkpt>
      <trkpt lat="45.79162" lon="4.66246">
        <ele>547.136536</ele>
        <time>2016-10-02T07:01:54Z</time>
      </trkpt>
      <trkpt lat="45.79163" lon="4.66243">
        <ele>547.521606</ele>
        <time>2016-10-02T07:01:56Z</time>
      </trkpt>
      <trkpt lat="45.79164" lon="4.6624">
        <ele>548.018127</ele>
        <time>2016-10-02T07:01:58Z</time>
      </trkpt>
      <trkpt lat="45.79165" lon="4.66238">
        <ele>548.563416</ele>
        <time>2016-10-02T07:02:00Z</time>
      </trkpt>
      <trkpt lat="45.79165" lon="4.66236">
        <ele>549.014221</ele>
        <time>2016-10-02T07:02:02Z</time>
      </trkpt>
      <trkpt lat="45.79164" lon="4.66231">
        <ele>550.317017</ele>
        <time>2016-10-02T07:02:09Z</time>
      </trkpt>
      <trkpt lat="45.79164" lon="4.66227">
        <ele>550.638062</ele>
        <time>2016-10-02T07:02:11Z</time>
      </trkpt>
      <trkpt lat="45.79163" lon="4.66224">
        <ele>551.058167</ele>
        <time>2016-10-02T07:02:13Z</time>
      </trkpt>
      <trkpt lat="45.79163" lon="4.6622">
        <ele>551.515442</ele>
        <time>2016-10-02T07:02:15Z</time>
      </trkpt>
      <trkpt lat="45.79163" lon="4.66217">
        <ele>551.865662</ele>
        <time>2016-10-02T07:02:17Z</time>
      </trkpt>
      <trkpt lat="45.79163" lon="4.66214">
        <ele>552.301147</ele>
        <time>2016-10-02T07:02:19Z</time>
      </trkpt>
      <trkpt lat="45.79163" lon="4.66211">
        <ele>552.669067</ele>
        <time>2016-10-02T07:02:21Z</time>
      </trkpt>
      <trkpt lat="45.79164" lon="4.66209">
        <ele>553.066528</ele>
        <time>2016-10-02T07:02:23Z</time>
      </trkpt>
      <trkpt lat="45.79166" lon="4.66207">
        <ele>553.525085</ele>
        <time>2016-10-02T07:02:25Z</time>
      </trkpt>
      <trkpt lat="45.79168" lon="4.66207">
        <ele>553.890503</ele>
        <time>2016-10-02T07:02:27Z</time>
      </trkpt>
      <trkpt lat="45.7917" lon="4.66206">
        <ele>554.234253</ele>
        <time>2016-10-02T07:02:29Z</time>
      </trkpt>
      <trkpt lat="45.79171" lon="4.66205">
        <ele>554.938782</ele>
        <time>2016-10-02T07:02:31Z</time>
      </trkpt>
      <trkpt lat="45.79173" lon="4.66204">
        <ele>555.173035</ele>
        <time>2016-10-02T07:02:33Z</time>
      </trkpt>
      <trkpt lat="45.79175" lon="4.66201">
        <ele>555.324097</ele>
        <time>2016-10-02T07:02:35Z</time>
      </trkpt>
      <trkpt lat="45.79176" lon="4.66199">
        <ele>555.772949</ele>
        <time>2016-10-02T07:02:37Z</time>
      </trkpt>
      <trkpt lat="45.79177" lon="4.66197">
        <ele>556.122375</ele>
        <time>2016-10-02T07:02:39Z</time>
      </trkpt>
      <trkpt lat="45.79179" lon="4.66196">
        <ele>556.478699</ele>
        <time>2016-10-02T07:02:41Z</time>
      </trkpt>
      <trkpt lat="45.79181" lon="4.66193">
        <ele>556.883789</ele>
        <time>2016-10-02T07:02:43Z</time>
      </trkpt>
      <trkpt lat="45.79182" lon="4.6619">
        <ele>557.328308</ele>
        <time>2016-10-02T07:02:45Z</time>
      </trkpt>
      <trkpt lat="45.79183" lon="4.66187">
        <ele>557.711914</ele>
        <time>2016-10-02T07:02:47Z</time>
      </trkpt>
      <trkpt lat="45.79184" lon="4.66184">
        <ele>558.228699</ele>
        <time>2016-10-02T07:02:49Z</time>
      </trkpt>
      <trkpt lat="45.79186" lon="4.66181">
        <ele>558.623657</ele>
        <time>2016-10-02T07:02:51Z</time>
      </trkpt>
      <trkpt lat="45.79187" lon="4.66178">
        <ele>559.171204</ele>
        <time>2016-10-02T07:02:53Z</time>
      </trkpt>
      <trkpt lat="45.79189" lon="4.66177">
        <ele>559.561035</ele>
        <time>2016-10-02T07:02:55Z</time>
      </trkpt>
      <trkpt lat="45.7919" lon="4.66174">
        <ele>559.915894</ele>
        <time>2016-10-02T07:02:57Z</time>
      </trkpt>
      <trkpt lat="45.79192" lon="4.66172">
        <ele>560.411011</ele>
        <time>2016-10-02T07:02:59Z</time>
      </trkpt>
      <trkpt lat="45.79194" lon="4.6617">
        <ele>560.840332</ele>
        <time>2016-10-02T07:03:01Z</time>
      </trkpt>
      <trkpt lat="45.79196" lon="4.66168">
        <ele>561.277161</ele>
        <time>2016-10-02T07:03:03Z</time>
      </trkpt>
      <trkpt lat="45.79199" lon="4.66166">
        <ele>561.410767</ele>
        <time>2016-10-02T07:03:05Z</time>
      </trkpt>
      <trkpt lat="45.79201" lon="4.66164">
        <ele>561.77356</ele>
        <time>2016-10-02T07:03:07Z</time>
      </trkpt>
      <trkpt lat="45.79203" lon="4.66162">
        <ele>562.152527</ele>
        <time>2016-10-02T07:03:09Z</time>
      </trkpt>
      <trkpt lat="45.79205" lon="4.66161">
        <ele>562.55127</ele>
        <time>2016-10-02T07:03:11Z</time>
      </trkpt>
      <trkpt lat="45.79208" lon="4.66159">
        <ele>563.009155</ele>
        <time>2016-10-02T07:03:13Z</time>
      </trkpt>
      <trkpt lat="45.79211" lon="4.66158">
        <ele>563.388184</ele>
        <time>2016-10-02T07:03:15Z</time>
      </trkpt>
      <trkpt lat="45.79213" lon="4.66156">
        <ele>563.701477</ele>
        <time>2016-10-02T07:03:17Z</time>
      </trkpt>
      <trkpt lat="45.79215" lon="4.66154">
        <ele>564.019531</ele>
        <time>2016-10-02T07:03:19Z</time>
      </trkpt>
      <trkpt lat="45.79216" lon="4.66153">
        <ele>564.355103</ele>
        <time>2016-10-02T07:03:21Z</time>
      </trkpt>
      <trkpt lat="45.79218" lon="4.66152">
        <ele>564.604858</ele>
        <time>2016-10-02T07:03:23Z</time>
      </trkpt>
      <trkpt lat="45.79221" lon="4.66151">
        <ele>566.115112</ele>
        <time>2016-10-02T07:06:34Z</time>
      </trkpt>
      <trkpt lat="45.79226" lon="4.6615">
        <ele>566.108521</ele>
        <time>2016-10-02T07:06:36Z</time>
      </trkpt>
      <trkpt lat="45.7923" lon="4.66144">
        <ele>566.075623</ele>
        <time>2016-10-02T07:06:38Z</time>
      </trkpt>
      <trkpt lat="45.79233" lon="4.66138">
        <ele>566.046692</ele>
        <time>2016-10-02T07:06:40Z</time>
      </trkpt>
      <trkpt lat="45.79237" lon="4.66132">
        <ele>565.766235</ele>
        <time>2016-10-02T07:06:42Z</time>
      </trkpt>
      <trkpt lat="45.79237" lon="4.66125">
        <ele>565.715881</ele>
        <time>2016-10-02T07:06:44Z</time>
      </trkpt>
      <trkpt lat="45.79235" lon="4.66118">
        <ele>565.766235</ele>
        <time>2016-10-02T07:06:46Z</time>
      </trkpt>
      <trkpt lat="45.79234" lon="4.66109">
        <ele>565.853149</ele>
        <time>2016-10-02T07:06:48Z</time>
      </trkpt>
      <trkpt lat="45.79233" lon="4.66099">
        <ele>565.912354</ele>
        <time>2016-10-02T07:06:50Z</time>
      </trkpt>
      <trkpt lat="45.79233" lon="4.66087">
        <ele>565.886353</ele>
        <time>2016-10-02T07:06:52Z</time>
      </trkpt>
      <trkpt lat="45.79236" lon="4.66077">
        <ele>565.701172</ele>
        <time>2016-10-02T07:06:54Z</time>
      </trkpt>
      <trkpt lat="45.79242" lon="4.66073">
        <ele>565.407532</ele>
        <time>2016-10-02T07:06:56Z</time>
      </trkpt>
      <trkpt lat="45.7925" lon="4.6607">
        <ele>565.125366</ele>
        <time>2016-10-02T07:06:58Z</time>
      </trkpt>
      <trkpt lat="45.79254" lon="4.66065">
        <ele>564.739685</ele>
        <time>2016-10-02T07:07:00Z</time>
      </trkpt>
      <trkpt lat="45.79254" lon="4.66056">
        <ele>564.111023</ele>
        <time>2016-10-02T07:07:02Z</time>
      </trkpt>
      <trkpt lat="45.79254" lon="4.66048">
        <ele>563.830444</ele>
        <time>2016-10-02T07:07:04Z</time>
      </trkpt>
      <trkpt lat="45.79256" lon="4.66039">
        <ele>563.617432</ele>
        <time>2016-10-02T07:07:06Z</time>
      </trkpt>
      <trkpt lat="45.79261" lon="4.66033">
        <ele>563.082397</ele>
        <time>2016-10-02T07:07:08Z</time>
      </trkpt>
      <trkpt lat="45.79266" lon="4.66032">
        <ele>562.487488</ele>
        <time>2016-10-02T07:07:10Z</time>
      </trkpt>
      <trkpt lat="45.7927" lon="4.66028">
        <ele>561.655273</ele>
        <time>2016-10-02T07:07:12Z</time>
      </trkpt>
      <trkpt lat="45.79274" lon="4.66022">
        <ele>560.606506</ele>
        <time>2016-10-02T07:07:14Z</time>
      </trkpt>
      <trkpt lat="45.79279" lon="4.66018">
        <ele>559.597046</ele>
        <time>2016-10-02T07:07:16Z</time>
      </trkpt>
      <trkpt lat="45.79284" lon="4.66019">
        <ele>558.703735</ele>
        <time>2016-10-02T07:07:18Z</time>
      </trkpt>
      <trkpt lat="45.79288" lon="4.66023">
        <ele>557.554504</ele>
        <time>2016-10-02T07:07:20Z</time>
      </trkpt>
      <trkpt lat="45.79292" lon="4.6603">
        <ele>556.409729</ele>
        <time>2016-10-02T07:07:22Z</time>
      </trkpt>
      <trkpt lat="45.79295" lon="4.66038">
        <ele>555.501282</ele>
        <time>2016-10-02T07:07:24Z</time>
      </trkpt>
      <trkpt lat="45.793" lon="4.66046">
        <ele>554.338928</ele>
        <time>2016-10-02T07:07:26Z</time>
      </trkpt>
      <trkpt lat="45.79303" lon="4.66054">
        <ele>553.760864</ele>
        <time>2016-10-02T07:07:28Z</time>
      </trkpt>
      <trkpt lat="45.79309" lon="4.66063">
        <ele>552.511902</ele>
        <time>2016-10-02T07:07:30Z</time>
      </trkpt>
      <trkpt lat="45.79314" lon="4.6607">
        <ele>551.254578</ele>
        <time>2016-10-02T07:07:32Z</time>
      </trkpt>
      <trkpt lat="45.79318" lon="4.66078">
        <ele>550.015625</ele>
        <time>2016-10-02T07:07:34Z</time>
      </trkpt>
      <trkpt lat="45.7932" lon="4.66083">
        <ele>548.808716</ele>
        <time>2016-10-02T07:07:36Z</time>
      </trkpt>
      <trkpt lat="45.79324" lon="4.66086">
        <ele>547.743042</ele>
        <time>2016-10-02T07:07:38Z</time>
      </trkpt>
      <trkpt lat="45.79326" lon="4.66085">
        <ele>545.71936</ele>
        <time>2016-10-02T07:07:42Z</time>
      </trkpt>
      <trkpt lat="45.79328" lon="4.66087">
        <ele>544.83783</ele>
        <time>2016-10-02T07:07:44Z</time>
      </trkpt>
      <trkpt lat="45.79329" lon="4.66089">
        <ele>543.684753</ele>
        <time>2016-10-02T07:07:46Z</time>
      </trkpt>
      <trkpt lat="45.79331" lon="4.66091">
        <ele>542.576172</ele>
        <time>2016-10-02T07:07:48Z</time>
      </trkpt>
      <trkpt lat="45.79334" lon="4.6609">
        <ele>541.477417</ele>
        <time>2016-10-02T07:07:50Z</time>
      </trkpt>
      <trkpt lat="45.79337" lon="4.66088">
        <ele>540.631287</ele>
        <time>2016-10-02T07:07:52Z</time>
      </trkpt>
      <trkpt lat="45.7934" lon="4.66086">
        <ele>539.919312</ele>
        <time>2016-10-02T07:07:54Z</time>
      </trkpt>
      <trkpt lat="45.79344" lon="4.66085">
        <ele>538.907593</ele>
        <time>2016-10-02T07:07:56Z</time>
      </trkpt>
      <trkpt lat="45.79349" lon="4.66083">
        <ele>538.369995</ele>
        <time>2016-10-02T07:07:58Z</time>
      </trkpt>
      <trkpt lat="45.79353" lon="4.66079">
        <ele>537.148315</ele>
        <time>2016-10-02T07:08:00Z</time>
      </trkpt>
      <trkpt lat="45.79359" lon="4.66076">
        <ele>536.278381</ele>
        <time>2016-10-02T07:08:02Z</time>
      </trkpt>
      <trkpt lat="45.79361" lon="4.66074">
        <ele>535.216858</ele>
        <time>2016-10-02T07:08:04Z</time>
      </trkpt>
      <trkpt lat="45.7936" lon="4.66069">
        <ele>534.135986</ele>
        <time>2016-10-02T07:08:06Z</time>
      </trkpt>
      <trkpt lat="45.79359" lon="4.66064">
        <ele>533.0177</ele>
        <time>2016-10-02T07:08:08Z</time>
      </trkpt>
      <trkpt lat="45.79357" lon="4.66058">
        <ele>531.860596</ele>
        <time>2016-10-02T07:08:10Z</time>
      </trkpt>
      <trkpt lat="45.79355" lon="4.66054">
        <ele>530.890015</ele>
        <time>2016-10-02T07:08:12Z</time>
      </trkpt>
      <trkpt lat="45.79353" lon="4.66049">
        <ele>529.902588</ele>
        <time>2016-10-02T07:08:14Z</time>
      </trkpt>
      <trkpt lat="45.79351" lon="4.66043">
        <ele>529.072632</ele>
        <time>2016-10-02T07:08:16Z</time>
      </trkpt>
      <trkpt lat="45.79349" lon="4.66035">
        <ele>528.122681</ele>
        <time>2016-10-02T07:08:18Z</time>
      </trkpt>
      <trkpt lat="45.79347" lon="4.66028">
        <ele>527.20752</ele>
        <time>2016-10-02T07:08:20Z</time>
      </trkpt>
      <trkpt lat="45.79346" lon="4.66022">
        <ele>526.416809</ele>
        <time>2016-10-02T07:08:22Z</time>
      </trkpt>
      <trkpt lat="45.79343" lon="4.66015">
        <ele>525.697937</ele>
        <time>2016-10-02T07:08:24Z</time>
      </trkpt>
      <trkpt lat="45.79342" lon="4.66011">
        <ele>525.020874</ele>
        <time>2016-10-02T07:08:26Z</time>
      </trkpt>
      <trkpt lat="45.7934" lon="4.66007">
        <ele>524.452881</ele>
        <time>2016-10-02T07:08:28Z</time>
      </trkpt>
      <trkpt lat="45.79338" lon="4.66003">
        <ele>524.120972</ele>
        <time>2016-10-02T07:08:30Z</time>
      </trkpt>
      <trkpt lat="45.79336" lon="4.65998">
        <ele>523.731323</ele>
        <time>2016-10-02T07:08:32Z</time>
      </trkpt>
      <trkpt lat="45.79333" lon="4.65992">
        <ele>523.388489</ele>
        <time>2016-10-02T07:08:34Z</time>
      </trkpt>
      <trkpt lat="45.7933" lon="4.65985">
        <ele>522.973511</ele>
        <time>2016-10-02T07:08:36Z</time>
      </trkpt>
      <trkpt lat="45.79325" lon="4.65979">
        <ele>523.014648</ele>
        <time>2016-10-02T07:08:38Z</time>
      </trkpt>
      <trkpt lat="45.79322" lon="4.65974">
        <ele>523.040833</ele>
        <time>2016-10-02T07:08:40Z</time>
      </trkpt>
      <trkpt lat="45.79318" lon="4.65969">
        <ele>523.446899</ele>
        <time>2016-10-02T07:08:42Z</time>
      </trkpt>
      <trkpt lat="45.79313" lon="4.65964">
        <ele>523.604492</ele>
        <time>2016-10-02T07:08:44Z</time>
      </trkpt>
      <trkpt lat="45.79308" lon="4.6596">
        <ele>523.839722</ele>
        <time>2016-10-02T07:08:46Z</time>
      </trkpt>
      <trkpt lat="45.79303" lon="4.65956">
        <ele>524.343628</ele>
        <time>2016-10-02T07:08:48Z</time>
      </trkpt>
      <trkpt lat="45.79298" lon="4.65952">
        <ele>524.812927</ele>
        <time>2016-10-02T07:08:50Z</time>
      </trkpt>
      <trkpt lat="45.79293" lon="4.65949">
        <ele>525.216858</ele>
        <time>2016-10-02T07:08:52Z</time>
      </trkpt>
      <trkpt lat="45.79288" lon="4.65944">
        <ele>525.462036</ele>
        <time>2016-10-02T07:08:54Z</time>
      </trkpt>
      <trkpt lat="45.79282" lon="4.65938">
        <ele>525.800903</ele>
        <time>2016-10-02T07:08:56Z</time>
      </trkpt>
      <trkpt lat="45.79276" lon="4.65933">
        <ele>526.195984</ele>
        <time>2016-10-02T07:08:58Z</time>
      </trkpt>
      <trkpt lat="45.79269" lon="4.65929">
        <ele>526.575806</ele>
        <time>2016-10-02T07:09:00Z</time>
      </trkpt>
      <trkpt lat="45.79262" lon="4.65925">
        <ele>526.811523</ele>
        <time>2016-10-02T07:09:02Z</time>
      </trkpt>
      <trkpt lat="45.79255" lon="4.65922">
        <ele>527.215088</ele>
        <time>2016-10-02T07:09:04Z</time>
      </trkpt>
      <trkpt lat="45.79249" lon="4.65917">
        <ele>527.453064</ele>
        <time>2016-10-02T07:09:06Z</time>
      </trkpt>
      <trkpt lat="45.79241" lon="4.65913">
        <ele>527.68689</ele>
        <time>2016-10-02T07:09:08Z</time>
      </trkpt>
      <trkpt lat="45.79231" lon="4.65907">
        <ele>527.751282</ele>
        <time>2016-10-02T07:09:10Z</time>
      </trkpt>
      <trkpt lat="45.7922" lon="4.65902">
        <ele>528.033813</ele>
        <time>2016-10-02T07:09:12Z</time>
      </trkpt>
      <trkpt lat="45.79211" lon="4.65897">
        <ele>527.53186</ele>
        <time>2016-10-02T07:09:14Z</time>
      </trkpt>
      <trkpt lat="45.79202" lon="4.65894">
        <ele>527.251953</ele>
        <time>2016-10-02T07:09:16Z</time>
      </trkpt>
      <trkpt lat="45.79193" lon="4.65895">
        <ele>526.982788</ele>
        <time>2016-10-02T07:09:18Z</time>
      </trkpt>
      <trkpt lat="45.79183" lon="4.65894">
        <ele>526.754028</ele>
        <time>2016-10-02T07:09:20Z</time>
      </trkpt>
      <trkpt lat="45.79174" lon="4.6589">
        <ele>526.236816</ele>
        <time>2016-10-02T07:09:22Z</time>
      </trkpt>
      <trkpt lat="45.79162" lon="4.65886">
        <ele>525.582153</ele>
        <time>2016-10-02T07:09:24Z</time>
      </trkpt>
      <trkpt lat="45.79149" lon="4.65883">
        <ele>524.883911</ele>
        <time>2016-10-02T07:09:26Z</time>
      </trkpt>
      <trkpt lat="45.79136" lon="4.65878">
        <ele>524.365234</ele>
        <time>2016-10-02T07:09:28Z</time>
      </trkpt>
      <trkpt lat="45.79123" lon="4.65875">
        <ele>523.810059</ele>
        <time>2016-10-02T07:09:30Z</time>
      </trkpt>
      <trkpt lat="45.7911" lon="4.65871">
        <ele>523.054688</ele>
        <time>2016-10-02T07:09:32Z</time>
      </trkpt>
      <trkpt lat="45.791" lon="4.65865">
        <ele>522.079224</ele>
        <time>2016-10-02T07:09:34Z</time>
      </trkpt>
      <trkpt lat="45.79093" lon="4.6586">
        <ele>521.166687</ele>
        <time>2016-10-02T07:09:36Z</time>
      </trkpt>
      <trkpt lat="45.79091" lon="4.65852">
        <ele>520.102051</ele>
        <time>2016-10-02T07:09:38Z</time>
      </trkpt>
      <trkpt lat="45.79091" lon="4.6584">
        <ele>519.166199</ele>
        <time>2016-10-02T07:09:40Z</time>
      </trkpt>
      <trkpt lat="45.7909" lon="4.65826">
        <ele>518.019287</ele>
        <time>2016-10-02T07:09:42Z</time>
      </trkpt>
      <trkpt lat="45.79089" lon="4.65808">
        <ele>516.895691</ele>
        <time>2016-10-02T07:09:44Z</time>
      </trkpt>
      <trkpt lat="45.79088" lon="4.65788">
        <ele>515.746582</ele>
        <time>2016-10-02T07:09:46Z</time>
      </trkpt>
      <trkpt lat="45.79087" lon="4.65768">
        <ele>515.211121</ele>
        <time>2016-10-02T07:09:48Z</time>
      </trkpt>
      <trkpt lat="45.79088" lon="4.65752">
        <ele>513.8974</ele>
        <time>2016-10-02T07:09:50Z</time>
      </trkpt>
      <trkpt lat="45.79094" lon="4.65742">
        <ele>512.776672</ele>
        <time>2016-10-02T07:09:52Z</time>
      </trkpt>
      <trkpt lat="45.79099" lon="4.65733">
        <ele>511.287292</ele>
        <time>2016-10-02T07:09:54Z</time>
      </trkpt>
      <trkpt lat="45.79099" lon="4.65723">
        <ele>510.509186</ele>
        <time>2016-10-02T07:09:56Z</time>
      </trkpt>
      <trkpt lat="45.79094" lon="4.65716">
        <ele>509.376404</ele>
        <time>2016-10-02T07:09:58Z</time>
      </trkpt>
      <trkpt lat="45.79088" lon="4.6571">
        <ele>508.480469</ele>
        <time>2016-10-02T07:10:00Z</time>
      </trkpt>
      <trkpt lat="45.79081" lon="4.65703">
        <ele>507.680573</ele>
        <time>2016-10-02T07:10:02Z</time>
      </trkpt>
      <trkpt lat="45.79073" lon="4.65696">
        <ele>507.198914</ele>
        <time>2016-10-02T07:10:04Z</time>
      </trkpt>
      <trkpt lat="45.79067" lon="4.65689">
        <ele>506.403229</ele>
        <time>2016-10-02T07:10:06Z</time>
      </trkpt>
      <trkpt lat="45.7906" lon="4.65682">
        <ele>505.932526</ele>
        <time>2016-10-02T07:10:08Z</time>
      </trkpt>
      <trkpt lat="45.79053" lon="4.65676">
        <ele>505.528473</ele>
        <time>2016-10-02T07:10:10Z</time>
      </trkpt>
      <trkpt lat="45.79047" lon="4.65669">
        <ele>504.735168</ele>
        <time>2016-10-02T07:10:12Z</time>
      </trkpt>
      <trkpt lat="45.79041" lon="4.65661">
        <ele>504.260162</ele>
        <time>2016-10-02T07:10:14Z</time>
      </trkpt>
      <trkpt lat="45.79036" lon="4.65654">
        <ele>503.928802</ele>
        <time>2016-10-02T07:10:16Z</time>
      </trkpt>
      <trkpt lat="45.79032" lon="4.65647">
        <ele>503.510406</ele>
        <time>2016-10-02T07:10:18Z</time>
      </trkpt>
      <trkpt lat="45.79027" lon="4.6564">
        <ele>503.344818</ele>
        <time>2016-10-02T07:10:20Z</time>
      </trkpt>
      <trkpt lat="45.79023" lon="4.65634">
        <ele>503.211823</ele>
        <time>2016-10-02T07:10:22Z</time>
      </trkpt>
      <trkpt lat="45.7902" lon="4.65628">
        <ele>503.170746</ele>
        <time>2016-10-02T07:10:24Z</time>
      </trkpt>
      <trkpt lat="45.79017" lon="4.65622">
        <ele>503.249207</ele>
        <time>2016-10-02T07:10:26Z</time>
      </trkpt>
      <trkpt lat="45.79015" lon="4.65616">
        <ele>503.351624</ele>
        <time>2016-10-02T07:10:28Z</time>
      </trkpt>
      <trkpt lat="45.79012" lon="4.6561">
        <ele>503.392426</ele>
        <time>2016-10-02T07:10:30Z</time>
      </trkpt>
      <trkpt lat="45.7901" lon="4.65603">
        <ele>503.865143</ele>
        <time>2016-10-02T07:10:32Z</time>
      </trkpt>
      <trkpt lat="45.79009" lon="4.65597">
        <ele>504.238617</ele>
        <time>2016-10-02T07:10:34Z</time>
      </trkpt>
      <trkpt lat="45.79008" lon="4.6559">
        <ele>504.659027</ele>
        <time>2016-10-02T07:10:36Z</time>
      </trkpt>
      <trkpt lat="45.79007" lon="4.65583">
        <ele>504.824615</ele>
        <time>2016-10-02T07:10:38Z</time>
      </trkpt>
      <trkpt lat="45.79006" lon="4.65577">
        <ele>505.36264</ele>
        <time>2016-10-02T07:10:40Z</time>
      </trkpt>
      <trkpt lat="45.79005" lon="4.6557">
        <ele>505.859863</ele>
        <time>2016-10-02T07:10:42Z</time>
      </trkpt>
      <trkpt lat="45.79005" lon="4.65564">
        <ele>506.416901</ele>
        <time>2016-10-02T07:10:44Z</time>
      </trkpt>
      <trkpt lat="45.79003" lon="4.65557">
        <ele>506.73291</ele>
        <time>2016-10-02T07:10:46Z</time>
      </trkpt>
      <trkpt lat="45.79001" lon="4.6555">
        <ele>507.175049</ele>
        <time>2016-10-02T07:10:48Z</time>
      </trkpt>
      <trkpt lat="45.78999" lon="4.65543">
        <ele>507.770081</ele>
        <time>2016-10-02T07:10:50Z</time>
      </trkpt>
      <trkpt lat="45.78997" lon="4.65535">
        <ele>508.193787</ele>
        <time>2016-10-02T07:10:52Z</time>
      </trkpt>
      <trkpt lat="45.78995" lon="4.65529">
        <ele>508.747498</ele>
        <time>2016-10-02T07:10:54Z</time>
      </trkpt>
      <trkpt lat="45.78993" lon="4.65522">
        <ele>509.08316</ele>
        <time>2016-10-02T07:10:56Z</time>
      </trkpt>
      <trkpt lat="45.78991" lon="4.65517">
        <ele>509.560455</ele>
        <time>2016-10-02T07:10:58Z</time>
      </trkpt>
      <trkpt lat="45.7899" lon="4.65511">
        <ele>509.939697</ele>
        <time>2016-10-02T07:11:00Z</time>
      </trkpt>
      <trkpt lat="45.78989" lon="4.65505">
        <ele>510.179443</ele>
        <time>2016-10-02T07:11:02Z</time>
      </trkpt>
      <trkpt lat="45.78988" lon="4.65499">
        <ele>510.770264</ele>
        <time>2016-10-02T07:11:04Z</time>
      </trkpt>
      <trkpt lat="45.78988" lon="4.65493">
        <ele>511.211609</ele>
        <time>2016-10-02T07:11:06Z</time>
      </trkpt>
      <trkpt lat="45.78987" lon="4.65488">
        <ele>511.355469</ele>
        <time>2016-10-02T07:11:08Z</time>
      </trkpt>
      <trkpt lat="45.78986" lon="4.65483">
        <ele>511.63446</ele>
        <time>2016-10-02T07:11:10Z</time>
      </trkpt>
      <trkpt lat="45.78985" lon="4.6548">
        <ele>511.939697</ele>
        <time>2016-10-02T07:11:12Z</time>
      </trkpt>
      <trkpt lat="45.78984" lon="4.65476">
        <ele>512.277039</ele>
        <time>2016-10-02T07:11:14Z</time>
      </trkpt>
      <trkpt lat="45.78984" lon="4.65472">
        <ele>512.625793</ele>
        <time>2016-10-02T07:11:16Z</time>
      </trkpt>
      <trkpt lat="45.78983" lon="4.65468">
        <ele>513.059692</ele>
        <time>2016-10-02T07:11:18Z</time>
      </trkpt>
      <trkpt lat="45.78982" lon="4.65463">
        <ele>513.34314</ele>
        <time>2016-10-02T07:11:20Z</time>
      </trkpt>
      <trkpt lat="45.78982" lon="4.65459">
        <ele>513.674561</ele>
        <time>2016-10-02T07:11:22Z</time>
      </trkpt>
      <trkpt lat="45.78982" lon="4.65454">
        <ele>514.071838</ele>
        <time>2016-10-02T07:11:24Z</time>
      </trkpt>
      <trkpt lat="45.78982" lon="4.65449">
        <ele>514.40979</ele>
        <time>2016-10-02T07:11:26Z</time>
      </trkpt>
      <trkpt lat="45.78983" lon="4.65444">
        <ele>514.499268</ele>
        <time>2016-10-02T07:11:28Z</time>
      </trkpt>
      <trkpt lat="45.78983" lon="4.65439">
        <ele>514.863647</ele>
        <time>2016-10-02T07:11:30Z</time>
      </trkpt>
      <trkpt lat="45.78983" lon="4.65434">
        <ele>515.10144</ele>
        <time>2016-10-02T07:11:32Z</time>
      </trkpt>
      <trkpt lat="45.78983" lon="4.65429">
        <ele>515.406311</ele>
        <time>2016-10-02T07:11:34Z</time>
      </trkpt>
      <trkpt lat="45.78983" lon="4.65423">
        <ele>515.674683</ele>
        <time>2016-10-02T07:11:36Z</time>
      </trkpt>
      <trkpt lat="45.78983" lon="4.65418">
        <ele>516.067261</ele>
        <time>2016-10-02T07:11:38Z</time>
      </trkpt>
      <trkpt lat="45.78981" lon="4.65413">
        <ele>516.394409</ele>
        <time>2016-10-02T07:11:40Z</time>
      </trkpt>
      <trkpt lat="45.78979" lon="4.65408">
        <ele>516.815369</ele>
        <time>2016-10-02T07:11:42Z</time>
      </trkpt>
      <trkpt lat="45.78977" lon="4.65404">
        <ele>516.745544</ele>
        <time>2016-10-02T07:11:44Z</time>
      </trkpt>
      <trkpt lat="45.78976" lon="4.65399">
        <ele>517.092896</ele>
        <time>2016-10-02T07:11:46Z</time>
      </trkpt>
      <trkpt lat="45.78974" lon="4.65393">
        <ele>517.46814</ele>
        <time>2016-10-02T07:11:48Z</time>
      </trkpt>
      <trkpt lat="45.78973" lon="4.65389">
        <ele>517.96106</ele>
        <time>2016-10-02T07:11:50Z</time>
      </trkpt>
      <trkpt lat="45.78972" lon="4.65384">
        <ele>518.172607</ele>
        <time>2016-10-02T07:11:52Z</time>
      </trkpt>
      <trkpt lat="45.7897" lon="4.65379">
        <ele>518.48645</ele>
        <time>2016-10-02T07:11:54Z</time>
      </trkpt>
      <trkpt lat="45.78968" lon="4.65374">
        <ele>518.818054</ele>
        <time>2016-10-02T07:11:56Z</time>
      </trkpt>
      <trkpt lat="45.78968" lon="4.65369">
        <ele>519.084595</ele>
        <time>2016-10-02T07:11:58Z</time>
      </trkpt>
      <trkpt lat="45.78966" lon="4.65365">
        <ele>519.381409</ele>
        <time>2016-10-02T07:12:00Z</time>
      </trkpt>
      <trkpt lat="45.78964" lon="4.65359">
        <ele>519.795898</ele>
        <time>2016-10-02T07:12:02Z</time>
      </trkpt>
      <trkpt lat="45.78963" lon="4.65353">
        <ele>520.203979</ele>
        <time>2016-10-02T07:12:04Z</time>
      </trkpt>
      <trkpt lat="45.78961" lon="4.65347">
        <ele>520.393799</ele>
        <time>2016-10-02T07:12:06Z</time>
      </trkpt>
      <trkpt lat="45.78958" lon="4.65343">
        <ele>520.710205</ele>
        <time>2016-10-02T07:12:08Z</time>
      </trkpt>
      <trkpt lat="45.78956" lon="4.65337">
        <ele>520.980835</ele>
        <time>2016-10-02T07:12:10Z</time>
      </trkpt>
      <trkpt lat="45.78953" lon="4.65333">
        <ele>521.194702</ele>
        <time>2016-10-02T07:12:12Z</time>
      </trkpt>
      <trkpt lat="45.78951" lon="4.65328">
        <ele>521.485352</ele>
        <time>2016-10-02T07:12:14Z</time>
      </trkpt>
      <trkpt lat="45.78949" lon="4.65324">
        <ele>521.707886</ele>
        <time>2016-10-02T07:12:16Z</time>
      </trkpt>
      <trkpt lat="45.78948" lon="4.65319">
        <ele>521.862366</ele>
        <time>2016-10-02T07:12:18Z</time>
      </trkpt>
      <trkpt lat="45.78946" lon="4.65314">
        <ele>522.170105</ele>
        <time>2016-10-02T07:12:20Z</time>
      </trkpt>
      <trkpt lat="45.78945" lon="4.65309">
        <ele>522.490173</ele>
        <time>2016-10-02T07:12:22Z</time>
      </trkpt>
      <trkpt lat="45.78943" lon="4.65305">
        <ele>522.743347</ele>
        <time>2016-10-02T07:12:24Z</time>
      </trkpt>
      <trkpt lat="45.78941" lon="4.65298">
        <ele>523.258301</ele>
        <time>2016-10-02T07:12:26Z</time>
      </trkpt>
      <trkpt lat="45.78938" lon="4.65292">
        <ele>523.38269</ele>
        <time>2016-10-02T07:12:28Z</time>
      </trkpt>
      <trkpt lat="45.78936" lon="4.65286">
        <ele>523.603149</ele>
        <time>2016-10-02T07:12:30Z</time>
      </trkpt>
      <trkpt lat="45.78932" lon="4.65281">
        <ele>523.843201</ele>
        <time>2016-10-02T07:12:32Z</time>
      </trkpt>
      <trkpt lat="45.7893" lon="4.65275">
        <ele>524.166565</ele>
        <time>2016-10-02T07:12:34Z</time>
      </trkpt>
      <trkpt lat="45.78927" lon="4.65269">
        <ele>524.536133</ele>
        <time>2016-10-02T07:12:36Z</time>
      </trkpt>
      <trkpt lat="45.78925" lon="4.65263">
        <ele>524.630005</ele>
        <time>2016-10-02T07:12:38Z</time>
      </trkpt>
      <trkpt lat="45.78923" lon="4.65257">
        <ele>524.93103</ele>
        <time>2016-10-02T07:12:40Z</time>
      </trkpt>
      <trkpt lat="45.78921" lon="4.65252">
        <ele>525.15155</ele>
        <time>2016-10-02T07:12:42Z</time>
      </trkpt>
      <trkpt lat="45.78918" lon="4.65247">
        <ele>525.500854</ele>
        <time>2016-10-02T07:12:44Z</time>
      </trkpt>
      <trkpt lat="45.78915" lon="4.65241">
        <ele>525.664612</ele>
        <time>2016-10-02T07:12:46Z</time>
      </trkpt>
      <trkpt lat="45.78912" lon="4.65236">
        <ele>526.070679</ele>
        <time>2016-10-02T07:12:48Z</time>
      </trkpt>
      <trkpt lat="45.7891" lon="4.6523">
        <ele>526.325195</ele>
        <time>2016-10-02T07:12:50Z</time>
      </trkpt>
      <trkpt lat="45.78907" lon="4.65226">
        <ele>526.654907</ele>
        <time>2016-10-02T07:12:52Z</time>
      </trkpt>
      <trkpt lat="45.78906" lon="4.65222">
        <ele>526.984497</ele>
        <time>2016-10-02T07:12:54Z</time>
      </trkpt>
      <trkpt lat="45.78904" lon="4.65219">
        <ele>527.268433</ele>
        <time>2016-10-02T07:12:56Z</time>
      </trkpt>
      <trkpt lat="45.78902" lon="4.65215">
        <ele>527.676697</ele>
        <time>2016-10-02T07:12:58Z</time>
      </trkpt>
      <trkpt lat="45.78902" lon="4.6521">
        <ele>528.015625</ele>
        <time>2016-10-02T07:13:00Z</time>
      </trkpt>
      <trkpt lat="45.789" lon="4.65208">
        <ele>528.190308</ele>
        <time>2016-10-02T07:13:02Z</time>
      </trkpt>
      <trkpt lat="45.78898" lon="4.65205">
        <ele>528.522766</ele>
        <time>2016-10-02T07:13:04Z</time>
      </trkpt>
      <trkpt lat="45.78896" lon="4.65202">
        <ele>528.887451</ele>
        <time>2016-10-02T07:13:06Z</time>
      </trkpt>
      <trkpt lat="45.78894" lon="4.652">
        <ele>529.218201</ele>
        <time>2016-10-02T07:13:08Z</time>
      </trkpt>
      <trkpt lat="45.78891" lon="4.65199">
        <ele>529.665894</ele>
        <time>2016-10-02T07:13:10Z</time>
      </trkpt>
      <trkpt lat="45.7889" lon="4.65198">
        <ele>530.076477</ele>
        <time>2016-10-02T07:13:12Z</time>
      </trkpt>
      <trkpt lat="45.78888" lon="4.65196">
        <ele>530.398193</ele>
        <time>2016-10-02T07:13:14Z</time>
      </trkpt>
      <trkpt lat="45.78886" lon="4.65193">
        <ele>530.703979</ele>
        <time>2016-10-02T07:13:16Z</time>
      </trkpt>
      <trkpt lat="45.78885" lon="4.65191">
        <ele>531.066528</ele>
        <time>2016-10-02T07:13:18Z</time>
      </trkpt>
      <trkpt lat="45.78882" lon="4.6519">
        <ele>531.400696</ele>
        <time>2016-10-02T07:13:20Z</time>
      </trkpt>
      <trkpt lat="45.7888" lon="4.65188">
        <ele>531.586365</ele>
        <time>2016-10-02T07:13:22Z</time>
      </trkpt>
      <trkpt lat="45.78878" lon="4.65187">
        <ele>531.991394</ele>
        <time>2016-10-02T07:13:24Z</time>
      </trkpt>
      <trkpt lat="45.78875" lon="4.65186">
        <ele>532.334595</ele>
        <time>2016-10-02T07:13:26Z</time>
      </trkpt>
      <trkpt lat="45.78873" lon="4.65183">
        <ele>532.719116</ele>
        <time>2016-10-02T07:13:28Z</time>
      </trkpt>
      <trkpt lat="45.78872" lon="4.65181">
        <ele>533.066528</ele>
        <time>2016-10-02T07:13:30Z</time>
      </trkpt>
      <trkpt lat="45.7887" lon="4.65179">
        <ele>533.459351</ele>
        <time>2016-10-02T07:13:32Z</time>
      </trkpt>
      <trkpt lat="45.78867" lon="4.65178">
        <ele>533.843872</ele>
        <time>2016-10-02T07:13:34Z</time>
      </trkpt>
      <trkpt lat="45.78864" lon="4.65177">
        <ele>534.265564</ele>
        <time>2016-10-02T07:13:36Z</time>
      </trkpt>
      <trkpt lat="45.78862" lon="4.65176">
        <ele>534.663269</ele>
        <time>2016-10-02T07:13:38Z</time>
      </trkpt>
      <trkpt lat="45.78861" lon="4.65174">
        <ele>535.034729</ele>
        <time>2016-10-02T07:13:40Z</time>
      </trkpt>
      <trkpt lat="45.78858" lon="4.65173">
        <ele>535.434631</ele>
        <time>2016-10-02T07:13:42Z</time>
      </trkpt>
      <trkpt lat="45.78856" lon="4.65172">
        <ele>535.872009</ele>
        <time>2016-10-02T07:13:44Z</time>
      </trkpt>
      <trkpt lat="45.78854" lon="4.6517">
        <ele>535.995667</ele>
        <time>2016-10-02T07:13:46Z</time>
      </trkpt>
      <trkpt lat="45.78851" lon="4.65168">
        <ele>536.417419</ele>
        <time>2016-10-02T07:13:48Z</time>
      </trkpt>
      <trkpt lat="45.78849" lon="4.65166">
        <ele>536.936584</ele>
        <time>2016-10-02T07:13:50Z</time>
      </trkpt>
      <trkpt lat="45.78848" lon="4.65164">
        <ele>537.305969</ele>
        <time>2016-10-02T07:13:52Z</time>
      </trkpt>
      <trkpt lat="45.78846" lon="4.65162">
        <ele>537.688416</ele>
        <time>2016-10-02T07:13:54Z</time>
      </trkpt>
      <trkpt lat="45.78837" lon="4.65158">
        <ele>541.53064</ele>
        <time>2016-10-02T07:14:16Z</time>
      </trkpt>
      <trkpt lat="45.78835" lon="4.65156">
        <ele>541.779602</ele>
        <time>2016-10-02T07:14:18Z</time>
      </trkpt>
      <trkpt lat="45.78834" lon="4.65154">
        <ele>542.114136</ele>
        <time>2016-10-02T07:14:20Z</time>
      </trkpt>
      <trkpt lat="45.78833" lon="4.65153">
        <ele>542.754517</ele>
        <time>2016-10-02T07:14:24Z</time>
      </trkpt>
      <trkpt lat="45.7883" lon="4.65152">
        <ele>542.96875</ele>
        <time>2016-10-02T07:14:26Z</time>
      </trkpt>
      <trkpt lat="45.78827" lon="4.6515">
        <ele>543.229919</ele>
        <time>2016-10-02T07:14:28Z</time>
      </trkpt>
      <trkpt lat="45.78825" lon="4.65148">
        <ele>543.426758</ele>
        <time>2016-10-02T07:14:30Z</time>
      </trkpt>
      <trkpt lat="45.78823" lon="4.65147">
        <ele>543.62323</ele>
        <time>2016-10-02T07:14:32Z</time>
      </trkpt>
      <trkpt lat="45.78822" lon="4.65144">
        <ele>543.835327</ele>
        <time>2016-10-02T07:14:34Z</time>
      </trkpt>
      <trkpt lat="45.7882" lon="4.65141">
        <ele>544.014709</ele>
        <time>2016-10-02T07:14:36Z</time>
      </trkpt>
      <trkpt lat="45.78818" lon="4.65139">
        <ele>544.15387</ele>
        <time>2016-10-02T07:14:38Z</time>
      </trkpt>
      <trkpt lat="45.78816" lon="4.65136">
        <ele>544.379456</ele>
        <time>2016-10-02T07:14:40Z</time>
      </trkpt>
      <trkpt lat="45.78814" lon="4.65133">
        <ele>544.650696</ele>
        <time>2016-10-02T07:14:42Z</time>
      </trkpt>
      <trkpt lat="45.78813" lon="4.6513">
        <ele>544.94165</ele>
        <time>2016-10-02T07:14:44Z</time>
      </trkpt>
      <trkpt lat="45.78812" lon="4.65127">
        <ele>545.256348</ele>
        <time>2016-10-02T07:14:46Z</time>
      </trkpt>
      <trkpt lat="45.78811" lon="4.65124">
        <ele>545.597595</ele>
        <time>2016-10-02T07:14:48Z</time>
      </trkpt>
      <trkpt lat="45.78809" lon="4.65122">
        <ele>545.861023</ele>
        <time>2016-10-02T07:14:50Z</time>
      </trkpt>
      <trkpt lat="45.78808" lon="4.6512">
        <ele>546.062317</ele>
        <time>2016-10-02T07:14:52Z</time>
      </trkpt>
      <trkpt lat="45.78807" lon="4.65117">
        <ele>546.42981</ele>
        <time>2016-10-02T07:14:54Z</time>
      </trkpt>
      <trkpt lat="45.78806" lon="4.65115">
        <ele>546.878235</ele>
        <time>2016-10-02T07:14:56Z</time>
      </trkpt>
      <trkpt lat="45.78804" lon="4.65113">
        <ele>547.318237</ele>
        <time>2016-10-02T07:14:58Z</time>
      </trkpt>
      <trkpt lat="45.78803" lon="4.65111">
        <ele>547.556641</ele>
        <time>2016-10-02T07:15:00Z</time>
      </trkpt>
      <trkpt lat="45.78801" lon="4.65109">
        <ele>547.927856</ele>
        <time>2016-10-02T07:15:02Z</time>
      </trkpt>
      <trkpt lat="45.788" lon="4.65104">
        <ele>548.622925</ele>
        <time>2016-10-02T07:15:06Z</time>
      </trkpt>
      <trkpt lat="45.78799" lon="4.65101">
        <ele>549.067505</ele>
        <time>2016-10-02T07:15:08Z</time>
      </trkpt>
      <trkpt lat="45.78799" lon="4.65098">
        <ele>549.554199</ele>
        <time>2016-10-02T07:15:10Z</time>
      </trkpt>
      <trkpt lat="45.78798" lon="4.65095">
        <ele>550.053101</ele>
        <time>2016-10-02T07:15:12Z</time>
      </trkpt>
      <trkpt lat="45.78795" lon="4.65092">
        <ele>550.6203</ele>
        <time>2016-10-02T07:15:14Z</time>
      </trkpt>
      <trkpt lat="45.78793" lon="4.6509">
        <ele>551.148438</ele>
        <time>2016-10-02T07:15:16Z</time>
      </trkpt>
      <trkpt lat="45.78792" lon="4.65087">
        <ele>551.68689</ele>
        <time>2016-10-02T07:15:18Z</time>
      </trkpt>
      <trkpt lat="45.7879" lon="4.65085">
        <ele>551.890381</ele>
        <time>2016-10-02T07:15:20Z</time>
      </trkpt>
      <trkpt lat="45.78788" lon="4.65082">
        <ele>552.374878</ele>
        <time>2016-10-02T07:15:22Z</time>
      </trkpt>
      <trkpt lat="45.78787" lon="4.6508">
        <ele>552.895874</ele>
        <time>2016-10-02T07:15:24Z</time>
      </trkpt>
      <trkpt lat="45.78785" lon="4.65078">
        <ele>553.410278</ele>
        <time>2016-10-02T07:15:26Z</time>
      </trkpt>
      <trkpt lat="45.78785" lon="4.65075">
        <ele>553.997192</ele>
        <time>2016-10-02T07:15:28Z</time>
      </trkpt>
      <trkpt lat="45.78783" lon="4.65073">
        <ele>554.444824</ele>
        <time>2016-10-02T07:15:30Z</time>
      </trkpt>
      <trkpt lat="45.78781" lon="4.6507">
        <ele>555.009644</ele>
        <time>2016-10-02T07:15:32Z</time>
      </trkpt>
      <trkpt lat="45.7878" lon="4.65068">
        <ele>555.581055</ele>
        <time>2016-10-02T07:15:34Z</time>
      </trkpt>
      <trkpt lat="45.78778" lon="4.65065">
        <ele>556.154724</ele>
        <time>2016-10-02T07:15:36Z</time>
      </trkpt>
      <trkpt lat="45.78776" lon="4.65062">
        <ele>556.618958</ele>
        <time>2016-10-02T07:15:38Z</time>
      </trkpt>
      <trkpt lat="45.78774" lon="4.6506">
        <ele>557.076599</ele>
        <time>2016-10-02T07:15:40Z</time>
      </trkpt>
      <trkpt lat="45.78773" lon="4.65057">
        <ele>557.335022</ele>
        <time>2016-10-02T07:15:42Z</time>
      </trkpt>
      <trkpt lat="45.78771" lon="4.65055">
        <ele>557.769287</ele>
        <time>2016-10-02T07:15:44Z</time>
      </trkpt>
      <trkpt lat="45.78769" lon="4.65053">
        <ele>558.213684</ele>
        <time>2016-10-02T07:15:46Z</time>
      </trkpt>
      <trkpt lat="45.78767" lon="4.65052">
        <ele>558.667847</ele>
        <time>2016-10-02T07:15:48Z</time>
      </trkpt>
      <trkpt lat="45.78762" lon="4.65052">
        <ele>559.063782</ele>
        <time>2016-10-02T07:15:50Z</time>
      </trkpt>
      <trkpt lat="45.78758" lon="4.65049">
        <ele>559.196472</ele>
        <time>2016-10-02T07:15:52Z</time>
      </trkpt>
      <trkpt lat="45.78754" lon="4.65046">
        <ele>559.349854</ele>
        <time>2016-10-02T07:15:55Z</time>
      </trkpt>
      <trkpt lat="45.78753" lon="4.65045">
        <ele>559.671387</ele>
        <time>2016-10-02T07:15:57Z</time>
      </trkpt>
      <trkpt lat="45.78751" lon="4.65043">
        <ele>559.956665</ele>
        <time>2016-10-02T07:15:59Z</time>
      </trkpt>
      <trkpt lat="45.78748" lon="4.65041">
        <ele>560.28064</ele>
        <time>2016-10-02T07:16:01Z</time>
      </trkpt>
      <trkpt lat="45.78746" lon="4.65039">
        <ele>560.566956</ele>
        <time>2016-10-02T07:16:03Z</time>
      </trkpt>
      <trkpt lat="45.78745" lon="4.65036">
        <ele>560.954224</ele>
        <time>2016-10-02T07:16:05Z</time>
      </trkpt>
      <trkpt lat="45.78743" lon="4.65034">
        <ele>561.493164</ele>
        <time>2016-10-02T07:16:09Z</time>
      </trkpt>
      <trkpt lat="45.78741" lon="4.65032">
        <ele>561.848022</ele>
        <time>2016-10-02T07:16:11Z</time>
      </trkpt>
      <trkpt lat="45.7874" lon="4.65032">
        <ele>562.115356</ele>
        <time>2016-10-02T07:16:13Z</time>
      </trkpt>
      <trkpt lat="45.78738" lon="4.65031">
        <ele>562.484497</ele>
        <time>2016-10-02T07:16:15Z</time>
      </trkpt>
      <trkpt lat="45.78736" lon="4.65029">
        <ele>562.618164</ele>
        <time>2016-10-02T07:16:17Z</time>
      </trkpt>
      <trkpt lat="45.78734" lon="4.65029">
        <ele>562.892761</ele>
        <time>2016-10-02T07:16:19Z</time>
      </trkpt>
      <trkpt lat="45.78733" lon="4.65028">
        <ele>563.133789</ele>
        <time>2016-10-02T07:16:21Z</time>
      </trkpt>
      <trkpt lat="45.7873" lon="4.65027">
        <ele>563.385803</ele>
        <time>2016-10-02T07:16:23Z</time>
      </trkpt>
      <trkpt lat="45.78729" lon="4.65026">
        <ele>563.613647</ele>
        <time>2016-10-02T07:16:25Z</time>
      </trkpt>
      <trkpt lat="45.78727" lon="4.65025">
        <ele>563.805725</ele>
        <time>2016-10-02T07:16:27Z</time>
      </trkpt>
      <trkpt lat="45.78726" lon="4.65023">
        <ele>564.101563</ele>
        <time>2016-10-02T07:16:29Z</time>
      </trkpt>
      <trkpt lat="45.78724" lon="4.65022">
        <ele>564.627747</ele>
        <time>2016-10-02T07:16:31Z</time>
      </trkpt>
      <trkpt lat="45.78722" lon="4.65022">
        <ele>564.969849</ele>
        <time>2016-10-02T07:16:33Z</time>
      </trkpt>
      <trkpt lat="45.78721" lon="4.65024">
        <ele>565.368591</ele>
        <time>2016-10-02T07:16:35Z</time>
      </trkpt>
      <trkpt lat="45.78719" lon="4.65024">
        <ele>565.800842</ele>
        <time>2016-10-02T07:16:37Z</time>
      </trkpt>
      <trkpt lat="45.78717" lon="4.65024">
        <ele>566.184509</ele>
        <time>2016-10-02T07:16:39Z</time>
      </trkpt>
      <trkpt lat="45.78714" lon="4.65025">
        <ele>567.096313</ele>
        <time>2016-10-02T07:16:45Z</time>
      </trkpt>
      <trkpt lat="45.78712" lon="4.65026">
        <ele>567.392212</ele>
        <time>2016-10-02T07:16:47Z</time>
      </trkpt>
      <trkpt lat="45.78709" lon="4.65027">
        <ele>567.695129</ele>
        <time>2016-10-02T07:16:49Z</time>
      </trkpt>
      <trkpt lat="45.78706" lon="4.65028">
        <ele>567.828796</ele>
        <time>2016-10-02T07:16:51Z</time>
      </trkpt>
      <trkpt lat="45.78703" lon="4.65029">
        <ele>568.008545</ele>
        <time>2016-10-02T07:16:53Z</time>
      </trkpt>
      <trkpt lat="45.78698" lon="4.6503">
        <ele>568.271606</ele>
        <time>2016-10-02T07:16:55Z</time>
      </trkpt>
      <trkpt lat="45.78692" lon="4.65029">
        <ele>568.365845</ele>
        <time>2016-10-02T07:16:57Z</time>
      </trkpt>
      <trkpt lat="45.78685" lon="4.65028">
        <ele>568.531677</ele>
        <time>2016-10-02T07:16:59Z</time>
      </trkpt>
      <trkpt lat="45.78679" lon="4.65027">
        <ele>568.764099</ele>
        <time>2016-10-02T07:17:01Z</time>
      </trkpt>
      <trkpt lat="45.78673" lon="4.65027">
        <ele>568.950439</ele>
        <time>2016-10-02T07:17:03Z</time>
      </trkpt>
      <trkpt lat="45.78666" lon="4.65026">
        <ele>569.139038</ele>
        <time>2016-10-02T07:17:05Z</time>
      </trkpt>
      <trkpt lat="45.7866" lon="4.65026">
        <ele>569.393188</ele>
        <time>2016-10-02T07:17:07Z</time>
      </trkpt>
      <trkpt lat="45.78654" lon="4.65027">
        <ele>569.595825</ele>
        <time>2016-10-02T07:17:09Z</time>
      </trkpt>
      <trkpt lat="45.78647" lon="4.65027">
        <ele>569.50592</ele>
        <time>2016-10-02T07:17:11Z</time>
      </trkpt>
      <trkpt lat="45.7864" lon="4.65027">
        <ele>569.591431</ele>
        <time>2016-10-02T07:17:13Z</time>
      </trkpt>
      <trkpt lat="45.78634" lon="4.65026">
        <ele>569.655029</ele>
        <time>2016-10-02T07:17:15Z</time>
      </trkpt>
      <trkpt lat="45.78628" lon="4.65024">
        <ele>569.799744</ele>
        <time>2016-10-02T07:17:17Z</time>
      </trkpt>
      <trkpt lat="45.78623" lon="4.65021">
        <ele>569.810669</ele>
        <time>2016-10-02T07:17:19Z</time>
      </trkpt>
      <trkpt lat="45.78618" lon="4.65018">
        <ele>569.896912</ele>
        <time>2016-10-02T07:17:21Z</time>
      </trkpt>
      <trkpt lat="45.78613" lon="4.65014">
        <ele>569.949585</ele>
        <time>2016-10-02T07:17:23Z</time>
      </trkpt>
      <trkpt lat="45.7861" lon="4.65011">
        <ele>570.02417</ele>
        <time>2016-10-02T07:17:25Z</time>
      </trkpt>
      <trkpt lat="45.78606" lon="4.65009">
        <ele>570.120056</ele>
        <time>2016-10-02T07:17:27Z</time>
      </trkpt>
      <trkpt lat="45.78603" lon="4.65006">
        <ele>569.891846</ele>
        <time>2016-10-02T07:17:29Z</time>
      </trkpt>
      <trkpt lat="45.78601" lon="4.65003">
        <ele>570.139587</ele>
        <time>2016-10-02T07:17:31Z</time>
      </trkpt>
      <trkpt lat="45.78598" lon="4.65001">
        <ele>570.38739</ele>
        <time>2016-10-02T07:17:33Z</time>
      </trkpt>
      <trkpt lat="45.78597" lon="4.64999">
        <ele>570.48999</ele>
        <time>2016-10-02T07:17:35Z</time>
      </trkpt>
      <trkpt lat="45.78594" lon="4.64997">
        <ele>570.688843</ele>
        <time>2016-10-02T07:17:37Z</time>
      </trkpt>
      <trkpt lat="45.78592" lon="4.64996">
        <ele>571.028687</ele>
        <time>2016-10-02T07:17:39Z</time>
      </trkpt>
      <trkpt lat="45.7859" lon="4.64993">
        <ele>571.329163</ele>
        <time>2016-10-02T07:17:41Z</time>
      </trkpt>
      <trkpt lat="45.78587" lon="4.64991">
        <ele>571.605469</ele>
        <time>2016-10-02T07:17:43Z</time>
      </trkpt>
      <trkpt lat="45.78585" lon="4.64989">
        <ele>571.892761</ele>
        <time>2016-10-02T07:17:45Z</time>
      </trkpt>
      <trkpt lat="45.78582" lon="4.64987">
        <ele>572.137146</ele>
        <time>2016-10-02T07:17:47Z</time>
      </trkpt>
      <trkpt lat="45.7858" lon="4.64986">
        <ele>572.538574</ele>
        <time>2016-10-02T07:17:49Z</time>
      </trkpt>
      <trkpt lat="45.78578" lon="4.64984">
        <ele>572.828064</ele>
        <time>2016-10-02T07:17:51Z</time>
      </trkpt>
      <trkpt lat="45.78575" lon="4.64982">
        <ele>573.18988</ele>
        <time>2016-10-02T07:17:53Z</time>
      </trkpt>
      <trkpt lat="45.78572" lon="4.64981">
        <ele>573.424622</ele>
        <time>2016-10-02T07:17:55Z</time>
      </trkpt>
      <trkpt lat="45.78569" lon="4.64981">
        <ele>573.742676</ele>
        <time>2016-10-02T07:17:57Z</time>
      </trkpt>
      <trkpt lat="45.78566" lon="4.64979">
        <ele>573.992737</ele>
        <time>2016-10-02T07:17:59Z</time>
      </trkpt>
      <trkpt lat="45.78564" lon="4.64978">
        <ele>574.302002</ele>
        <time>2016-10-02T07:18:01Z</time>
      </trkpt>
      <trkpt lat="45.78561" lon="4.64977">
        <ele>574.623108</ele>
        <time>2016-10-02T07:18:03Z</time>
      </trkpt>
      <trkpt lat="45.78559" lon="4.64976">
        <ele>575.066223</ele>
        <time>2016-10-02T07:18:05Z</time>
      </trkpt>
      <trkpt lat="45.78557" lon="4.64976">
        <ele>575.465393</ele>
        <time>2016-10-02T07:18:07Z</time>
      </trkpt>
      <trkpt lat="45.78554" lon="4.64977">
        <ele>575.774658</ele>
        <time>2016-10-02T07:18:09Z</time>
      </trkpt>
      <trkpt lat="45.7855" lon="4.64977">
        <ele>576.554321</ele>
        <time>2016-10-02T07:18:11Z</time>
      </trkpt>
      <trkpt lat="45.78546" lon="4.64978">
        <ele>576.966858</ele>
        <time>2016-10-02T07:18:13Z</time>
      </trkpt>
      <trkpt lat="45.78542" lon="4.64981">
        <ele>577.304688</ele>
        <time>2016-10-02T07:18:15Z</time>
      </trkpt>
      <trkpt lat="45.78538" lon="4.64984">
        <ele>577.672302</ele>
        <time>2016-10-02T07:18:17Z</time>
      </trkpt>
      <trkpt lat="45.78534" lon="4.64986">
        <ele>577.814941</ele>
        <time>2016-10-02T07:18:19Z</time>
      </trkpt>
      <trkpt lat="45.78531" lon="4.64987">
        <ele>578.005798</ele>
        <time>2016-10-02T07:18:21Z</time>
      </trkpt>
      <trkpt lat="45.78526" lon="4.64989">
        <ele>578.310669</ele>
        <time>2016-10-02T07:18:23Z</time>
      </trkpt>
      <trkpt lat="45.78522" lon="4.6499">
        <ele>578.457642</ele>
        <time>2016-10-02T07:18:25Z</time>
      </trkpt>
      <trkpt lat="45.78517" lon="4.64992">
        <ele>578.689941</ele>
        <time>2016-10-02T07:18:27Z</time>
      </trkpt>
      <trkpt lat="45.78511" lon="4.64993">
        <ele>579.011597</ele>
        <time>2016-10-02T07:18:29Z</time>
      </trkpt>
      <trkpt lat="45.78505" lon="4.64994">
        <ele>579.162476</ele>
        <time>2016-10-02T07:18:31Z</time>
      </trkpt>
      <trkpt lat="45.785" lon="4.64996">
        <ele>579.51355</ele>
        <time>2016-10-02T07:18:33Z</time>
      </trkpt>
      <trkpt lat="45.78495" lon="4.64996">
        <ele>579.816467</ele>
        <time>2016-10-02T07:18:35Z</time>
      </trkpt>
      <trkpt lat="45.78491" lon="4.64994">
        <ele>579.98761</ele>
        <time>2016-10-02T07:18:37Z</time>
      </trkpt>
      <trkpt lat="45.78489" lon="4.64994">
        <ele>580.235596</ele>
        <time>2016-10-02T07:18:39Z</time>
      </trkpt>
      <trkpt lat="45.78484" lon="4.64993">
        <ele>580.419983</ele>
        <time>2016-10-02T07:18:41Z</time>
      </trkpt>
      <trkpt lat="45.78479" lon="4.64994">
        <ele>580.746948</ele>
        <time>2016-10-02T07:18:43Z</time>
      </trkpt>
      <trkpt lat="45.78476" lon="4.64995">
        <ele>580.990601</ele>
        <time>2016-10-02T07:18:45Z</time>
      </trkpt>
      <trkpt lat="45.78472" lon="4.64996">
        <ele>581.166199</ele>
        <time>2016-10-02T07:18:47Z</time>
      </trkpt>
      <trkpt lat="45.78469" lon="4.64995">
        <ele>581.493286</ele>
        <time>2016-10-02T07:18:49Z</time>
      </trkpt>
      <trkpt lat="45.78466" lon="4.64995">
        <ele>581.873047</ele>
        <time>2016-10-02T07:18:51Z</time>
      </trkpt>
      <trkpt lat="45.78461" lon="4.64995">
        <ele>582.119751</ele>
        <time>2016-10-02T07:18:53Z</time>
      </trkpt>
      <trkpt lat="45.78457" lon="4.64994">
        <ele>582.205444</ele>
        <time>2016-10-02T07:18:55Z</time>
      </trkpt>
      <trkpt lat="45.78452" lon="4.64994">
        <ele>582.538574</ele>
        <time>2016-10-02T07:18:57Z</time>
      </trkpt>
      <trkpt lat="45.78449" lon="4.64994">
        <ele>582.679077</ele>
        <time>2016-10-02T07:18:59Z</time>
      </trkpt>
      <trkpt lat="45.78444" lon="4.64994">
        <ele>583.024719</ele>
        <time>2016-10-02T07:19:01Z</time>
      </trkpt>
      <trkpt lat="45.7844" lon="4.64993">
        <ele>583.369568</ele>
        <time>2016-10-02T07:19:03Z</time>
      </trkpt>
      <trkpt lat="45.78437" lon="4.64991">
        <ele>583.703247</ele>
        <time>2016-10-02T07:19:05Z</time>
      </trkpt>
      <trkpt lat="45.78433" lon="4.6499">
        <ele>584.177551</ele>
        <time>2016-10-02T07:19:07Z</time>
      </trkpt>
      <trkpt lat="45.7843" lon="4.6499">
        <ele>584.568726</ele>
        <time>2016-10-02T07:19:09Z</time>
      </trkpt>
      <trkpt lat="45.78428" lon="4.64989">
        <ele>584.995239</ele>
        <time>2016-10-02T07:19:11Z</time>
      </trkpt>
      <trkpt lat="45.78424" lon="4.64988">
        <ele>585.225769</ele>
        <time>2016-10-02T07:19:13Z</time>
      </trkpt>
      <trkpt lat="45.7842" lon="4.64988">
        <ele>585.476318</ele>
        <time>2016-10-02T07:19:15Z</time>
      </trkpt>
      <trkpt lat="45.78418" lon="4.64988">
        <ele>585.802856</ele>
        <time>2016-10-02T07:19:17Z</time>
      </trkpt>
      <trkpt lat="45.78415" lon="4.64988">
        <ele>586.176086</ele>
        <time>2016-10-02T07:19:19Z</time>
      </trkpt>
      <trkpt lat="45.78407" lon="4.6499">
        <ele>589.121033</ele>
        <time>2016-10-02T07:21:13Z</time>
      </trkpt>
      <trkpt lat="45.78402" lon="4.64989">
        <ele>589.135193</ele>
        <time>2016-10-02T07:21:15Z</time>
      </trkpt>
      <trkpt lat="45.78386" lon="4.64989">
        <ele>589.163818</ele>
        <time>2016-10-02T07:21:17Z</time>
      </trkpt>
      <trkpt lat="45.78384" lon="4.64989">
        <ele>589.180115</ele>
        <time>2016-10-02T07:21:19Z</time>
      </trkpt>
      <trkpt lat="45.78381" lon="4.64989">
        <ele>589.268005</ele>
        <time>2016-10-02T07:21:21Z</time>
      </trkpt>
      <trkpt lat="45.78379" lon="4.64989">
        <ele>589.283325</ele>
        <time>2016-10-02T07:21:23Z</time>
      </trkpt>
      <trkpt lat="45.78376" lon="4.64989">
        <ele>589.323364</ele>
        <time>2016-10-02T07:21:25Z</time>
      </trkpt>
      <trkpt lat="45.78373" lon="4.6499">
        <ele>589.323181</ele>
        <time>2016-10-02T07:21:27Z</time>
      </trkpt>
      <trkpt lat="45.78369" lon="4.64991">
        <ele>589.378052</ele>
        <time>2016-10-02T07:21:29Z</time>
      </trkpt>
      <trkpt lat="45.78366" lon="4.64994">
        <ele>589.478271</ele>
        <time>2016-10-02T07:21:31Z</time>
      </trkpt>
      <trkpt lat="45.78363" lon="4.64998">
        <ele>589.554565</ele>
        <time>2016-10-02T07:21:33Z</time>
      </trkpt>
      <trkpt lat="45.78359" lon="4.65002">
        <ele>589.582886</ele>
        <time>2016-10-02T07:21:35Z</time>
      </trkpt>
      <trkpt lat="45.78355" lon="4.65008">
        <ele>589.699341</ele>
        <time>2016-10-02T07:21:37Z</time>
      </trkpt>
      <trkpt lat="45.78351" lon="4.65013">
        <ele>589.850952</ele>
        <time>2016-10-02T07:21:39Z</time>
      </trkpt>
      <trkpt lat="45.78346" lon="4.65017">
        <ele>589.874146</ele>
        <time>2016-10-02T07:21:41Z</time>
      </trkpt>
      <trkpt lat="45.78341" lon="4.65022">
        <ele>589.975769</ele>
        <time>2016-10-02T07:21:43Z</time>
      </trkpt>
      <trkpt lat="45.78336" lon="4.65025">
        <ele>589.98645</ele>
        <time>2016-10-02T07:21:45Z</time>
      </trkpt>
      <trkpt lat="45.78332" lon="4.65028">
        <ele>589.874329</ele>
        <time>2016-10-02T07:21:47Z</time>
      </trkpt>
      <trkpt lat="45.78326" lon="4.65032">
        <ele>590.069641</ele>
        <time>2016-10-02T07:21:49Z</time>
      </trkpt>
      <trkpt lat="45.7832" lon="4.6504">
        <ele>590.036682</ele>
        <time>2016-10-02T07:21:51Z</time>
      </trkpt>
      <trkpt lat="45.78312" lon="4.65048">
        <ele>589.997192</ele>
        <time>2016-10-02T07:21:53Z</time>
      </trkpt>
      <trkpt lat="45.78306" lon="4.65057">
        <ele>590.208862</ele>
        <time>2016-10-02T07:21:55Z</time>
      </trkpt>
      <trkpt lat="45.783" lon="4.65065">
        <ele>590.185242</ele>
        <time>2016-10-02T07:21:57Z</time>
      </trkpt>
      <trkpt lat="45.78294" lon="4.65072">
        <ele>589.975708</ele>
        <time>2016-10-02T07:21:59Z</time>
      </trkpt>
      <trkpt lat="45.78286" lon="4.65077">
        <ele>590.039978</ele>
        <time>2016-10-02T07:22:01Z</time>
      </trkpt>
      <trkpt lat="45.7828" lon="4.65082">
        <ele>589.842346</ele>
        <time>2016-10-02T07:22:03Z</time>
      </trkpt>
      <trkpt lat="45.78275" lon="4.6509">
        <ele>589.622742</ele>
        <time>2016-10-02T07:22:05Z</time>
      </trkpt>
      <trkpt lat="45.7827" lon="4.65099">
        <ele>589.682068</ele>
        <time>2016-10-02T07:22:07Z</time>
      </trkpt>
      <trkpt lat="45.78266" lon="4.65108">
        <ele>589.502563</ele>
        <time>2016-10-02T07:22:09Z</time>
      </trkpt>
      <trkpt lat="45.78261" lon="4.65116">
        <ele>589.40802</ele>
        <time>2016-10-02T07:22:11Z</time>
      </trkpt>
      <trkpt lat="45.78255" lon="4.65126">
        <ele>588.93811</ele>
        <time>2016-10-02T07:22:13Z</time>
      </trkpt>
      <trkpt lat="45.78248" lon="4.65133">
        <ele>588.711853</ele>
        <time>2016-10-02T07:22:15Z</time>
      </trkpt>
      <trkpt lat="45.78241" lon="4.65136">
        <ele>588.400391</ele>
        <time>2016-10-02T07:22:17Z</time>
      </trkpt>
      <trkpt lat="45.78232" lon="4.65131">
        <ele>587.914185</ele>
        <time>2016-10-02T07:22:19Z</time>
      </trkpt>
      <trkpt lat="45.78225" lon="4.65127">
        <ele>587.141296</ele>
        <time>2016-10-02T07:22:21Z</time>
      </trkpt>
      <trkpt lat="45.78217" lon="4.6513">
        <ele>586.243774</ele>
        <time>2016-10-02T07:22:23Z</time>
      </trkpt>
      <trkpt lat="45.78209" lon="4.65133">
        <ele>585.15979</ele>
        <time>2016-10-02T07:22:25Z</time>
      </trkpt>
      <trkpt lat="45.78203" lon="4.65134">
        <ele>584.4245</ele>
        <time>2016-10-02T07:22:27Z</time>
      </trkpt>
      <trkpt lat="45.78198" lon="4.65135">
        <ele>584.123901</ele>
        <time>2016-10-02T07:22:29Z</time>
      </trkpt>
      <trkpt lat="45.78193" lon="4.65137">
        <ele>583.09491</ele>
        <time>2016-10-02T07:22:31Z</time>
      </trkpt>
      <trkpt lat="45.78189" lon="4.65138">
        <ele>581.520508</ele>
        <time>2016-10-02T07:22:33Z</time>
      </trkpt>
      <trkpt lat="45.78184" lon="4.65136">
        <ele>580.528931</ele>
        <time>2016-10-02T07:22:35Z</time>
      </trkpt>
      <trkpt lat="45.78179" lon="4.65135">
        <ele>579.17395</ele>
        <time>2016-10-02T07:22:37Z</time>
      </trkpt>
      <trkpt lat="45.78173" lon="4.65134">
        <ele>577.856079</ele>
        <time>2016-10-02T07:22:39Z</time>
      </trkpt>
      <trkpt lat="45.78169" lon="4.65131">
        <ele>576.264648</ele>
        <time>2016-10-02T07:22:41Z</time>
      </trkpt>
      <trkpt lat="45.78162" lon="4.65131">
        <ele>574.994507</ele>
        <time>2016-10-02T07:22:43Z</time>
      </trkpt>
      <trkpt lat="45.78156" lon="4.65133">
        <ele>573.678711</ele>
        <time>2016-10-02T07:22:45Z</time>
      </trkpt>
      <trkpt lat="45.78148" lon="4.65137">
        <ele>572.56012</ele>
        <time>2016-10-02T07:22:47Z</time>
      </trkpt>
      <trkpt lat="45.7814" lon="4.65141">
        <ele>571.102905</ele>
        <time>2016-10-02T07:22:49Z</time>
      </trkpt>
      <trkpt lat="45.78131" lon="4.65146">
        <ele>570.109314</ele>
        <time>2016-10-02T07:22:51Z</time>
      </trkpt>
      <trkpt lat="45.78121" lon="4.65152">
        <ele>568.778076</ele>
        <time>2016-10-02T07:22:53Z</time>
      </trkpt>
      <trkpt lat="45.78113" lon="4.65158">
        <ele>567.82428</ele>
        <time>2016-10-02T07:22:55Z</time>
      </trkpt>
      <trkpt lat="45.78105" lon="4.65164">
        <ele>567.148621</ele>
        <time>2016-10-02T07:22:57Z</time>
      </trkpt>
      <trkpt lat="45.78099" lon="4.65169">
        <ele>565.882202</ele>
        <time>2016-10-02T07:22:59Z</time>
      </trkpt>
      <trkpt lat="45.78095" lon="4.65173">
        <ele>564.755981</ele>
        <time>2016-10-02T07:23:01Z</time>
      </trkpt>
      <trkpt lat="45.78087" lon="4.65179">
        <ele>559.418335</ele>
        <time>2016-10-02T07:23:21Z</time>
      </trkpt>
      <trkpt lat="45.78083" lon="4.65183">
        <ele>559.171509</ele>
        <time>2016-10-02T07:23:27Z</time>
      </trkpt>
      <trkpt lat="45.78071" lon="4.65193">
        <ele>558.893921</ele>
        <time>2016-10-02T07:23:29Z</time>
      </trkpt>
      <trkpt lat="45.78067" lon="4.65197">
        <ele>558.454468</ele>
        <time>2016-10-02T07:23:31Z</time>
      </trkpt>
      <trkpt lat="45.78062" lon="4.65201">
        <ele>557.521851</ele>
        <time>2016-10-02T07:23:33Z</time>
      </trkpt>
      <trkpt lat="45.78057" lon="4.65206">
        <ele>557.425537</ele>
        <time>2016-10-02T07:23:35Z</time>
      </trkpt>
      <trkpt lat="45.78052" lon="4.65211">
        <ele>556.895813</ele>
        <time>2016-10-02T07:23:37Z</time>
      </trkpt>
      <trkpt lat="45.78046" lon="4.65217">
        <ele>556.964661</ele>
        <time>2016-10-02T07:23:39Z</time>
      </trkpt>
      <trkpt lat="45.78042" lon="4.65225">
        <ele>556.684448</ele>
        <time>2016-10-02T07:23:41Z</time>
      </trkpt>
      <trkpt lat="45.78036" lon="4.65233">
        <ele>556.875061</ele>
        <time>2016-10-02T07:23:43Z</time>
      </trkpt>
      <trkpt lat="45.7803" lon="4.65243">
        <ele>556.761169</ele>
        <time>2016-10-02T07:23:45Z</time>
      </trkpt>
      <trkpt lat="45.78024" lon="4.65254">
        <ele>556.517029</ele>
        <time>2016-10-02T07:23:47Z</time>
      </trkpt>
      <trkpt lat="45.7802" lon="4.65266">
        <ele>555.867432</ele>
        <time>2016-10-02T07:23:49Z</time>
      </trkpt>
      <trkpt lat="45.78016" lon="4.65275">
        <ele>555.300476</ele>
        <time>2016-10-02T07:23:51Z</time>
      </trkpt>
      <trkpt lat="45.78012" lon="4.65284">
        <ele>554.902039</ele>
        <time>2016-10-02T07:23:53Z</time>
      </trkpt>
      <trkpt lat="45.78007" lon="4.65294">
        <ele>554.304565</ele>
        <time>2016-10-02T07:23:55Z</time>
      </trkpt>
      <trkpt lat="45.78001" lon="4.65304">
        <ele>553.180542</ele>
        <time>2016-10-02T07:23:57Z</time>
      </trkpt>
      <trkpt lat="45.77995" lon="4.65313">
        <ele>552.448242</ele>
        <time>2016-10-02T07:23:59Z</time>
      </trkpt>
      <trkpt lat="45.77991" lon="4.65319">
        <ele>551.63855</ele>
        <time>2016-10-02T07:24:01Z</time>
      </trkpt>
      <trkpt lat="45.77988" lon="4.65325">
        <ele>551.161011</ele>
        <time>2016-10-02T07:24:03Z</time>
      </trkpt>
      <trkpt lat="45.77983" lon="4.65331">
        <ele>550.115356</ele>
        <time>2016-10-02T07:24:05Z</time>
      </trkpt>
      <trkpt lat="45.77978" lon="4.65335">
        <ele>549.266479</ele>
        <time>2016-10-02T07:24:07Z</time>
      </trkpt>
      <trkpt lat="45.77974" lon="4.65335">
        <ele>548.489075</ele>
        <time>2016-10-02T07:24:09Z</time>
      </trkpt>
      <trkpt lat="45.77971" lon="4.65337">
        <ele>547.567383</ele>
        <time>2016-10-02T07:24:11Z</time>
      </trkpt>
      <trkpt lat="45.77966" lon="4.6534">
        <ele>547.374878</ele>
        <time>2016-10-02T07:24:13Z</time>
      </trkpt>
      <trkpt lat="45.77962" lon="4.65343">
        <ele>547.129883</ele>
        <time>2016-10-02T07:24:15Z</time>
      </trkpt>
      <trkpt lat="45.77957" lon="4.65348">
        <ele>546.132202</ele>
        <time>2016-10-02T07:24:17Z</time>
      </trkpt>
      <trkpt lat="45.77953" lon="4.65354">
        <ele>545.486938</ele>
        <time>2016-10-02T07:24:19Z</time>
      </trkpt>
      <trkpt lat="45.7795" lon="4.6536">
        <ele>544.276733</ele>
        <time>2016-10-02T07:24:21Z</time>
      </trkpt>
      <trkpt lat="45.77948" lon="4.65364">
        <ele>543.515625</ele>
        <time>2016-10-02T07:24:23Z</time>
      </trkpt>
      <trkpt lat="45.77945" lon="4.65369">
        <ele>542.18927</ele>
        <time>2016-10-02T07:24:25Z</time>
      </trkpt>
      <trkpt lat="45.77943" lon="4.65377">
        <ele>540.986694</ele>
        <time>2016-10-02T07:24:27Z</time>
      </trkpt>
      <trkpt lat="45.7794" lon="4.65389">
        <ele>540.15387</ele>
        <time>2016-10-02T07:24:29Z</time>
      </trkpt>
      <trkpt lat="45.77937" lon="4.654">
        <ele>539.417236</ele>
        <time>2016-10-02T07:24:31Z</time>
      </trkpt>
      <trkpt lat="45.77935" lon="4.65414">
        <ele>538.492798</ele>
        <time>2016-10-02T07:24:33Z</time>
      </trkpt>
      <trkpt lat="45.77937" lon="4.6543">
        <ele>537.445923</ele>
        <time>2016-10-02T07:24:35Z</time>
      </trkpt>
      <trkpt lat="45.77937" lon="4.65446">
        <ele>536.794617</ele>
        <time>2016-10-02T07:24:37Z</time>
      </trkpt>
      <trkpt lat="45.77939" lon="4.65461">
        <ele>536.511597</ele>
        <time>2016-10-02T07:24:39Z</time>
      </trkpt>
      <trkpt lat="45.77941" lon="4.65478">
        <ele>535.890381</ele>
        <time>2016-10-02T07:24:41Z</time>
      </trkpt>
      <trkpt lat="45.77942" lon="4.65496">
        <ele>535.324402</ele>
        <time>2016-10-02T07:24:43Z</time>
      </trkpt>
      <trkpt lat="45.77941" lon="4.65513">
        <ele>534.116333</ele>
        <time>2016-10-02T07:24:45Z</time>
      </trkpt>
      <trkpt lat="45.7794" lon="4.65525">
        <ele>533.380188</ele>
        <time>2016-10-02T07:24:47Z</time>
      </trkpt>
      <trkpt lat="45.77938" lon="4.6554">
        <ele>532.779419</ele>
        <time>2016-10-02T07:24:49Z</time>
      </trkpt>
      <trkpt lat="45.77934" lon="4.65553">
        <ele>531.630615</ele>
        <time>2016-10-02T07:24:51Z</time>
      </trkpt>
      <trkpt lat="45.7793" lon="4.65568">
        <ele>530.471191</ele>
        <time>2016-10-02T07:24:53Z</time>
      </trkpt>
      <trkpt lat="45.77924" lon="4.65585">
        <ele>529.727173</ele>
        <time>2016-10-02T07:24:55Z</time>
      </trkpt>
      <trkpt lat="45.77919" lon="4.656">
        <ele>528.724854</ele>
        <time>2016-10-02T07:24:57Z</time>
      </trkpt>
      <trkpt lat="45.77914" lon="4.65615">
        <ele>527.622131</ele>
        <time>2016-10-02T07:24:59Z</time>
      </trkpt>
      <trkpt lat="45.7791" lon="4.65629">
        <ele>526.709412</ele>
        <time>2016-10-02T07:25:01Z</time>
      </trkpt>
      <trkpt lat="45.77905" lon="4.65642">
        <ele>525.864746</ele>
        <time>2016-10-02T07:25:03Z</time>
      </trkpt>
      <trkpt lat="45.77899" lon="4.65656">
        <ele>525.304138</ele>
        <time>2016-10-02T07:25:05Z</time>
      </trkpt>
      <trkpt lat="45.7789" lon="4.65669">
        <ele>524.542419</ele>
        <time>2016-10-02T07:25:07Z</time>
      </trkpt>
      <trkpt lat="45.77881" lon="4.65683">
        <ele>523.960327</ele>
        <time>2016-10-02T07:25:09Z</time>
      </trkpt>
      <trkpt lat="45.77873" lon="4.65697">
        <ele>523.144104</ele>
        <time>2016-10-02T07:25:11Z</time>
      </trkpt>
      <trkpt lat="45.77871" lon="4.65715">
        <ele>522.410583</ele>
        <time>2016-10-02T07:25:13Z</time>
      </trkpt>
      <trkpt lat="45.77873" lon="4.65734">
        <ele>521.478882</ele>
        <time>2016-10-02T07:25:15Z</time>
      </trkpt>
      <trkpt lat="45.77878" lon="4.6575">
        <ele>521.059875</ele>
        <time>2016-10-02T07:25:17Z</time>
      </trkpt>
      <trkpt lat="45.77885" lon="4.65765">
        <ele>520.422729</ele>
        <time>2016-10-02T07:25:19Z</time>
      </trkpt>
      <trkpt lat="45.7789" lon="4.65783">
        <ele>519.477905</ele>
        <time>2016-10-02T07:25:21Z</time>
      </trkpt>
      <trkpt lat="45.77894" lon="4.65802">
        <ele>518.219299</ele>
        <time>2016-10-02T07:25:23Z</time>
      </trkpt>
      <trkpt lat="45.77894" lon="4.65823">
        <ele>517.586487</ele>
        <time>2016-10-02T07:25:25Z</time>
      </trkpt>
      <trkpt lat="45.77893" lon="4.65843">
        <ele>516.880737</ele>
        <time>2016-10-02T07:25:27Z</time>
      </trkpt>
      <trkpt lat="45.7789" lon="4.65858">
        <ele>516.250366</ele>
        <time>2016-10-02T07:25:29Z</time>
      </trkpt>
      <trkpt lat="45.77886" lon="4.65875">
        <ele>515.392944</ele>
        <time>2016-10-02T07:25:31Z</time>
      </trkpt>
      <trkpt lat="45.77882" lon="4.6589">
        <ele>514.686829</ele>
        <time>2016-10-02T07:25:33Z</time>
      </trkpt>
      <trkpt lat="45.77879" lon="4.65905">
        <ele>514.19635</ele>
        <time>2016-10-02T07:25:35Z</time>
      </trkpt>
      <trkpt lat="45.77877" lon="4.6591">
        <ele>513.1875</ele>
        <time>2016-10-02T07:25:37Z</time>
      </trkpt>
      <trkpt lat="45.77875" lon="4.65911">
        <ele>512.55072</ele>
        <time>2016-10-02T07:25:39Z</time>
      </trkpt>
      <trkpt lat="45.77874" lon="4.6591">
        <ele>511.972992</ele>
        <time>2016-10-02T07:25:41Z</time>
      </trkpt>
      <trkpt lat="45.77873" lon="4.65908">
        <ele>511.364563</ele>
        <time>2016-10-02T07:25:43Z</time>
      </trkpt>
      <trkpt lat="45.77873" lon="4.65907">
        <ele>511.021332</ele>
        <time>2016-10-02T07:25:45Z</time>
      </trkpt>
      <trkpt lat="45.77873" lon="4.65905">
        <ele>510.434631</ele>
        <time>2016-10-02T07:25:47Z</time>
      </trkpt>
      <trkpt lat="45.77873" lon="4.65903">
        <ele>509.778412</ele>
        <time>2016-10-02T07:25:49Z</time>
      </trkpt>
      <trkpt lat="45.77872" lon="4.65901">
        <ele>509.132263</ele>
        <time>2016-10-02T07:25:51Z</time>
      </trkpt>
      <trkpt lat="45.77871" lon="4.65899">
        <ele>508.6745</ele>
        <time>2016-10-02T07:25:53Z</time>
      </trkpt>
      <trkpt lat="45.77871" lon="4.65897">
        <ele>508.096771</ele>
        <time>2016-10-02T07:25:55Z</time>
      </trkpt>
      <trkpt lat="45.77871" lon="4.65895">
        <ele>507.906891</ele>
        <time>2016-10-02T07:25:57Z</time>
      </trkpt>
      <trkpt lat="45.77869" lon="4.65893">
        <ele>507.372406</ele>
        <time>2016-10-02T07:25:59Z</time>
      </trkpt>
      <trkpt lat="45.77869" lon="4.6589">
        <ele>507.153076</ele>
        <time>2016-10-02T07:26:01Z</time>
      </trkpt>
      <trkpt lat="45.77869" lon="4.65886">
        <ele>507.163971</ele>
        <time>2016-10-02T07:26:03Z</time>
      </trkpt>
      <trkpt lat="45.7787" lon="4.65883">
        <ele>507.22226</ele>
        <time>2016-10-02T07:26:05Z</time>
      </trkpt>
      <trkpt lat="45.7787" lon="4.65879">
        <ele>507.368317</ele>
        <time>2016-10-02T07:26:07Z</time>
      </trkpt>
      <trkpt lat="45.77869" lon="4.65876">
        <ele>507.291016</ele>
        <time>2016-10-02T07:26:09Z</time>
      </trkpt>
      <trkpt lat="45.77868" lon="4.65873">
        <ele>507.231537</ele>
        <time>2016-10-02T07:26:11Z</time>
      </trkpt>
      <trkpt lat="45.77868" lon="4.6587">
        <ele>507.195892</ele>
        <time>2016-10-02T07:26:13Z</time>
      </trkpt>
      <trkpt lat="45.77868" lon="4.65867">
        <ele>507.472473</ele>
        <time>2016-10-02T07:26:15Z</time>
      </trkpt>
      <trkpt lat="45.77868" lon="4.65864">
        <ele>507.659851</ele>
        <time>2016-10-02T07:26:17Z</time>
      </trkpt>
      <trkpt lat="45.77868" lon="4.65861">
        <ele>507.91925</ele>
        <time>2016-10-02T07:26:19Z</time>
      </trkpt>
      <trkpt lat="45.77866" lon="4.65858">
        <ele>508.237488</ele>
        <time>2016-10-02T07:26:21Z</time>
      </trkpt>
      <trkpt lat="45.77864" lon="4.65855">
        <ele>508.387695</ele>
        <time>2016-10-02T07:26:23Z</time>
      </trkpt>
      <trkpt lat="45.77864" lon="4.65853">
        <ele>508.708099</ele>
        <time>2016-10-02T07:26:25Z</time>
      </trkpt>
      <trkpt lat="45.77863" lon="4.65849">
        <ele>508.967529</ele>
        <time>2016-10-02T07:26:27Z</time>
      </trkpt>
      <trkpt lat="45.77862" lon="4.65846">
        <ele>509.316071</ele>
        <time>2016-10-02T07:26:29Z</time>
      </trkpt>
      <trkpt lat="45.77862" lon="4.65842">
        <ele>509.568939</ele>
        <time>2016-10-02T07:26:31Z</time>
      </trkpt>
      <trkpt lat="45.77861" lon="4.65838">
        <ele>509.752838</ele>
        <time>2016-10-02T07:26:33Z</time>
      </trkpt>
      <trkpt lat="45.7786" lon="4.65835">
        <ele>510.200928</ele>
        <time>2016-10-02T07:26:35Z</time>
      </trkpt>
      <trkpt lat="45.77859" lon="4.6583">
        <ele>510.730621</ele>
        <time>2016-10-02T07:26:37Z</time>
      </trkpt>
      <trkpt lat="45.77858" lon="4.65827">
        <ele>511.201477</ele>
        <time>2016-10-02T07:26:39Z</time>
      </trkpt>
      <trkpt lat="45.77857" lon="4.65824">
        <ele>511.698578</ele>
        <time>2016-10-02T07:26:41Z</time>
      </trkpt>
      <trkpt lat="45.77855" lon="4.65821">
        <ele>512.161072</ele>
        <time>2016-10-02T07:26:43Z</time>
      </trkpt>
      <trkpt lat="45.77854" lon="4.65818">
        <ele>512.501221</ele>
        <time>2016-10-02T07:26:45Z</time>
      </trkpt>
      <trkpt lat="45.77853" lon="4.65816">
        <ele>512.881042</ele>
        <time>2016-10-02T07:26:47Z</time>
      </trkpt>
      <trkpt lat="45.77852" lon="4.65814">
        <ele>513.280151</ele>
        <time>2016-10-02T07:26:49Z</time>
      </trkpt>
      <trkpt lat="45.7785" lon="4.65811">
        <ele>513.688171</ele>
        <time>2016-10-02T07:26:51Z</time>
      </trkpt>
      <trkpt lat="45.77848" lon="4.65808">
        <ele>514.236145</ele>
        <time>2016-10-02T07:26:53Z</time>
      </trkpt>
      <trkpt lat="45.77846" lon="4.65805">
        <ele>514.509521</ele>
        <time>2016-10-02T07:26:55Z</time>
      </trkpt>
      <trkpt lat="45.77844" lon="4.65802">
        <ele>515.004517</ele>
        <time>2016-10-02T07:26:57Z</time>
      </trkpt>
      <trkpt lat="45.77841" lon="4.658">
        <ele>515.442749</ele>
        <time>2016-10-02T07:26:59Z</time>
      </trkpt>
      <trkpt lat="45.77839" lon="4.65799">
        <ele>515.981506</ele>
        <time>2016-10-02T07:27:01Z</time>
      </trkpt>
      <trkpt lat="45.77837" lon="4.65799">
        <ele>516.489685</ele>
        <time>2016-10-02T07:27:03Z</time>
      </trkpt>
      <trkpt lat="45.77835" lon="4.65799">
        <ele>517.046143</ele>
        <time>2016-10-02T07:27:05Z</time>
      </trkpt>
      <trkpt lat="45.77832" lon="4.65798">
        <ele>517.521667</ele>
        <time>2016-10-02T07:27:07Z</time>
      </trkpt>
      <trkpt lat="45.7783" lon="4.65798">
        <ele>518.097595</ele>
        <time>2016-10-02T07:27:09Z</time>
      </trkpt>
      <trkpt lat="45.77828" lon="4.65799">
        <ele>518.662842</ele>
        <time>2016-10-02T07:27:11Z</time>
      </trkpt>
      <trkpt lat="45.77826" lon="4.65799">
        <ele>519.293213</ele>
        <time>2016-10-02T07:27:13Z</time>
      </trkpt>
      <trkpt lat="45.77824" lon="4.658">
        <ele>519.823547</ele>
        <time>2016-10-02T07:27:15Z</time>
      </trkpt>
      <trkpt lat="45.77821" lon="4.65799">
        <ele>520.078857</ele>
        <time>2016-10-02T07:27:17Z</time>
      </trkpt>
      <trkpt lat="45.77819" lon="4.65799">
        <ele>520.545837</ele>
        <time>2016-10-02T07:27:19Z</time>
      </trkpt>
      <trkpt lat="45.77818" lon="4.65798">
        <ele>521.025757</ele>
        <time>2016-10-02T07:27:21Z</time>
      </trkpt>
      <trkpt lat="45.77816" lon="4.65796">
        <ele>521.604187</ele>
        <time>2016-10-02T07:27:23Z</time>
      </trkpt>
      <trkpt lat="45.77814" lon="4.65794">
        <ele>522.064636</ele>
        <time>2016-10-02T07:27:25Z</time>
      </trkpt>
      <trkpt lat="45.77813" lon="4.65793">
        <ele>522.590637</ele>
        <time>2016-10-02T07:27:27Z</time>
      </trkpt>
      <trkpt lat="45.77812" lon="4.65791">
        <ele>523.125305</ele>
        <time>2016-10-02T07:27:29Z</time>
      </trkpt>
      <trkpt lat="45.77811" lon="4.65789">
        <ele>523.58429</ele>
        <time>2016-10-02T07:27:31Z</time>
      </trkpt>
      <trkpt lat="45.77811" lon="4.65787">
        <ele>524.107971</ele>
        <time>2016-10-02T07:27:33Z</time>
      </trkpt>
      <trkpt lat="45.77811" lon="4.65784">
        <ele>524.531372</ele>
        <time>2016-10-02T07:27:35Z</time>
      </trkpt>
      <trkpt lat="45.7781" lon="4.65782">
        <ele>524.99646</ele>
        <time>2016-10-02T07:27:37Z</time>
      </trkpt>
      <trkpt lat="45.77809" lon="4.6578">
        <ele>525.50531</ele>
        <time>2016-10-02T07:27:39Z</time>
      </trkpt>
      <trkpt lat="45.77808" lon="4.65778">
        <ele>525.941956</ele>
        <time>2016-10-02T07:27:41Z</time>
      </trkpt>
      <trkpt lat="45.77807" lon="4.65776">
        <ele>526.21698</ele>
        <time>2016-10-02T07:27:43Z</time>
      </trkpt>
      <trkpt lat="45.77806" lon="4.65773">
        <ele>526.629639</ele>
        <time>2016-10-02T07:27:45Z</time>
      </trkpt>
      <trkpt lat="45.77805" lon="4.65772">
        <ele>527.083252</ele>
        <time>2016-10-02T07:27:47Z</time>
      </trkpt>
      <trkpt lat="45.77803" lon="4.65769">
        <ele>527.550476</ele>
        <time>2016-10-02T07:27:49Z</time>
      </trkpt>
      <trkpt lat="45.77803" lon="4.65766">
        <ele>527.89325</ele>
        <time>2016-10-02T07:27:51Z</time>
      </trkpt>
      <trkpt lat="45.77803" lon="4.65763">
        <ele>528.301636</ele>
        <time>2016-10-02T07:27:53Z</time>
      </trkpt>
      <trkpt lat="45.77802" lon="4.6576">
        <ele>528.672241</ele>
        <time>2016-10-02T07:27:55Z</time>
      </trkpt>
      <trkpt lat="45.77801" lon="4.65757">
        <ele>528.921143</ele>
        <time>2016-10-02T07:27:57Z</time>
      </trkpt>
      <trkpt lat="45.778" lon="4.65754">
        <ele>529.307434</ele>
        <time>2016-10-02T07:27:59Z</time>
      </trkpt>
      <trkpt lat="45.778" lon="4.65751">
        <ele>529.669922</ele>
        <time>2016-10-02T07:28:01Z</time>
      </trkpt>
      <trkpt lat="45.77799" lon="4.65748">
        <ele>530.111206</ele>
        <time>2016-10-02T07:28:03Z</time>
      </trkpt>
      <trkpt lat="45.77798" lon="4.65746">
        <ele>530.447632</ele>
        <time>2016-10-02T07:28:05Z</time>
      </trkpt>
      <trkpt lat="45.77797" lon="4.65743">
        <ele>530.928162</ele>
        <time>2016-10-02T07:28:07Z</time>
      </trkpt>
      <trkpt lat="45.77796" lon="4.6574">
        <ele>531.290771</ele>
        <time>2016-10-02T07:28:09Z</time>
      </trkpt>
      <trkpt lat="45.77794" lon="4.65739">
        <ele>531.638062</ele>
        <time>2016-10-02T07:28:11Z</time>
      </trkpt>
      <trkpt lat="45.77793" lon="4.65737">
        <ele>532.058777</ele>
        <time>2016-10-02T07:28:13Z</time>
      </trkpt>
      <trkpt lat="45.7779" lon="4.65733">
        <ele>532.987</ele>
        <time>2016-10-02T07:28:17Z</time>
      </trkpt>
      <trkpt lat="45.77789" lon="4.65731">
        <ele>533.432739</ele>
        <time>2016-10-02T07:28:19Z</time>
      </trkpt>
      <trkpt lat="45.77789" lon="4.65728">
        <ele>533.755798</ele>
        <time>2016-10-02T07:28:21Z</time>
      </trkpt>
      <trkpt lat="45.77788" lon="4.65725">
        <ele>533.91095</ele>
        <time>2016-10-02T07:28:23Z</time>
      </trkpt>
      <trkpt lat="45.77787" lon="4.65722">
        <ele>534.255981</ele>
        <time>2016-10-02T07:28:25Z</time>
      </trkpt>
      <trkpt lat="45.77786" lon="4.6572">
        <ele>534.627441</ele>
        <time>2016-10-02T07:28:27Z</time>
      </trkpt>
      <trkpt lat="45.77784" lon="4.65718">
        <ele>534.925171</ele>
        <time>2016-10-02T07:28:29Z</time>
      </trkpt>
      <trkpt lat="45.77783" lon="4.65716">
        <ele>535.340332</ele>
        <time>2016-10-02T07:28:31Z</time>
      </trkpt>
      <trkpt lat="45.77782" lon="4.65715">
        <ele>535.783936</ele>
        <time>2016-10-02T07:28:33Z</time>
      </trkpt>
      <trkpt lat="45.77779" lon="4.65708">
        <ele>536.876099</ele>
        <time>2016-10-02T07:28:39Z</time>
      </trkpt>
      <trkpt lat="45.77778" lon="4.65705">
        <ele>537.241089</ele>
        <time>2016-10-02T07:28:41Z</time>
      </trkpt>
      <trkpt lat="45.77777" lon="4.65703">
        <ele>537.477173</ele>
        <time>2016-10-02T07:28:43Z</time>
      </trkpt>
      <trkpt lat="45.77776" lon="4.65701">
        <ele>537.824646</ele>
        <time>2016-10-02T07:28:45Z</time>
      </trkpt>
      <trkpt lat="45.77775" lon="4.65699">
        <ele>538.078247</ele>
        <time>2016-10-02T07:28:47Z</time>
      </trkpt>
      <trkpt lat="45.77774" lon="4.65697">
        <ele>538.244324</ele>
        <time>2016-10-02T07:28:49Z</time>
      </trkpt>
      <trkpt lat="45.77773" lon="4.65694">
        <ele>538.521301</ele>
        <time>2016-10-02T07:28:51Z</time>
      </trkpt>
      <trkpt lat="45.77773" lon="4.65691">
        <ele>538.951904</ele>
        <time>2016-10-02T07:28:53Z</time>
      </trkpt>
      <trkpt lat="45.77772" lon="4.65688">
        <ele>539.268921</ele>
        <time>2016-10-02T07:28:55Z</time>
      </trkpt>
      <trkpt lat="45.77771" lon="4.65686">
        <ele>539.555298</ele>
        <time>2016-10-02T07:28:57Z</time>
      </trkpt>
      <trkpt lat="45.77771" lon="4.65683">
        <ele>539.80835</ele>
        <time>2016-10-02T07:28:59Z</time>
      </trkpt>
      <trkpt lat="45.7777" lon="4.6568">
        <ele>540.072876</ele>
        <time>2016-10-02T07:29:01Z</time>
      </trkpt>
      <trkpt lat="45.77768" lon="4.65676">
        <ele>540.412537</ele>
        <time>2016-10-02T07:29:03Z</time>
      </trkpt>
      <trkpt lat="45.77766" lon="4.65673">
        <ele>540.795288</ele>
        <time>2016-10-02T07:29:05Z</time>
      </trkpt>
      <trkpt lat="45.77765" lon="4.65671">
        <ele>540.939575</ele>
        <time>2016-10-02T07:29:07Z</time>
      </trkpt>
      <trkpt lat="45.77763" lon="4.65669">
        <ele>541.256348</ele>
        <time>2016-10-02T07:29:09Z</time>
      </trkpt>
      <trkpt lat="45.77762" lon="4.65667">
        <ele>541.575562</ele>
        <time>2016-10-02T07:29:11Z</time>
      </trkpt>
      <trkpt lat="45.77761" lon="4.65666">
        <ele>541.848938</ele>
        <time>2016-10-02T07:29:13Z</time>
      </trkpt>
      <trkpt lat="45.7776" lon="4.65663">
        <ele>542.067627</ele>
        <time>2016-10-02T07:29:15Z</time>
      </trkpt>
      <trkpt lat="45.77759" lon="4.6566">
        <ele>542.30481</ele>
        <time>2016-10-02T07:29:17Z</time>
      </trkpt>
      <trkpt lat="45.7776" lon="4.65657">
        <ele>542.54541</ele>
        <time>2016-10-02T07:29:19Z</time>
      </trkpt>
      <trkpt lat="45.7776" lon="4.65654">
        <ele>542.881226</ele>
        <time>2016-10-02T07:29:21Z</time>
      </trkpt>
      <trkpt lat="45.7776" lon="4.65652">
        <ele>543.17865</ele>
        <time>2016-10-02T07:29:23Z</time>
      </trkpt>
      <trkpt lat="45.7776" lon="4.65649">
        <ele>543.598511</ele>
        <time>2016-10-02T07:29:25Z</time>
      </trkpt>
      <trkpt lat="45.77759" lon="4.65647">
        <ele>543.965942</ele>
        <time>2016-10-02T07:29:27Z</time>
      </trkpt>
      <trkpt lat="45.77756" lon="4.65639">
        <ele>545.600525</ele>
        <time>2016-10-02T07:29:39Z</time>
      </trkpt>
      <trkpt lat="45.77757" lon="4.65635">
        <ele>545.979492</ele>
        <time>2016-10-02T07:29:41Z</time>
      </trkpt>
      <trkpt lat="45.77757" lon="4.6563">
        <ele>546.307617</ele>
        <time>2016-10-02T07:29:43Z</time>
      </trkpt>
      <trkpt lat="45.77757" lon="4.65625">
        <ele>546.586853</ele>
        <time>2016-10-02T07:29:45Z</time>
      </trkpt>
      <trkpt lat="45.77756" lon="4.65621">
        <ele>546.734619</ele>
        <time>2016-10-02T07:29:47Z</time>
      </trkpt>
      <trkpt lat="45.77755" lon="4.65619">
        <ele>547.13739</ele>
        <time>2016-10-02T07:29:49Z</time>
      </trkpt>
      <trkpt lat="45.77755" lon="4.65616">
        <ele>547.430542</ele>
        <time>2016-10-02T07:29:51Z</time>
      </trkpt>
      <trkpt lat="45.77754" lon="4.65613">
        <ele>547.763184</ele>
        <time>2016-10-02T07:29:53Z</time>
      </trkpt>
      <trkpt lat="45.77754" lon="4.6561">
        <ele>548.03009</ele>
        <time>2016-10-02T07:29:55Z</time>
      </trkpt>
      <trkpt lat="45.77755" lon="4.656">
        <ele>548.214417</ele>
        <time>2016-10-02T07:29:59Z</time>
      </trkpt>
      <trkpt lat="45.77755" lon="4.65596">
        <ele>548.367554</ele>
        <time>2016-10-02T07:30:01Z</time>
      </trkpt>
      <trkpt lat="45.77754" lon="4.65592">
        <ele>548.690796</ele>
        <time>2016-10-02T07:30:03Z</time>
      </trkpt>
      <trkpt lat="45.77753" lon="4.65587">
        <ele>549.082397</ele>
        <time>2016-10-02T07:30:05Z</time>
      </trkpt>
      <trkpt lat="45.77753" lon="4.65582">
        <ele>549.391357</ele>
        <time>2016-10-02T07:30:07Z</time>
      </trkpt>
      <trkpt lat="45.77752" lon="4.65576">
        <ele>549.710876</ele>
        <time>2016-10-02T07:30:09Z</time>
      </trkpt>
      <trkpt lat="45.77751" lon="4.6557">
        <ele>549.952026</ele>
        <time>2016-10-02T07:30:11Z</time>
      </trkpt>
      <trkpt lat="45.7775" lon="4.65565">
        <ele>550.23938</ele>
        <time>2016-10-02T07:30:13Z</time>
      </trkpt>
      <trkpt lat="45.77749" lon="4.65559">
        <ele>550.502869</ele>
        <time>2016-10-02T07:30:15Z</time>
      </trkpt>
      <trkpt lat="45.77749" lon="4.65552">
        <ele>550.816467</ele>
        <time>2016-10-02T07:30:17Z</time>
      </trkpt>
      <trkpt lat="45.77749" lon="4.65547">
        <ele>551.199463</ele>
        <time>2016-10-02T07:30:19Z</time>
      </trkpt>
      <trkpt lat="45.77749" lon="4.65542">
        <ele>551.516846</ele>
        <time>2016-10-02T07:30:21Z</time>
      </trkpt>
      <trkpt lat="45.77749" lon="4.65535">
        <ele>551.846619</ele>
        <time>2016-10-02T07:30:23Z</time>
      </trkpt>
      <trkpt lat="45.7775" lon="4.65529">
        <ele>551.918823</ele>
        <time>2016-10-02T07:30:25Z</time>
      </trkpt>
      <trkpt lat="45.77753" lon="4.65523">
        <ele>552.159546</ele>
        <time>2016-10-02T07:30:27Z</time>
      </trkpt>
      <trkpt lat="45.77756" lon="4.65518">
        <ele>552.505249</ele>
        <time>2016-10-02T07:30:29Z</time>
      </trkpt>
      <trkpt lat="45.7776" lon="4.65514">
        <ele>552.809509</ele>
        <time>2016-10-02T07:30:31Z</time>
      </trkpt>
      <trkpt lat="45.77764" lon="4.6551">
        <ele>553.114319</ele>
        <time>2016-10-02T07:30:33Z</time>
      </trkpt>
      <trkpt lat="45.77767" lon="4.65505">
        <ele>553.352905</ele>
        <time>2016-10-02T07:30:35Z</time>
      </trkpt>
      <trkpt lat="45.77771" lon="4.655">
        <ele>553.613403</ele>
        <time>2016-10-02T07:30:37Z</time>
      </trkpt>
      <trkpt lat="45.77774" lon="4.65495">
        <ele>553.906982</ele>
        <time>2016-10-02T07:30:39Z</time>
      </trkpt>
      <trkpt lat="45.77776" lon="4.65489">
        <ele>554.280762</ele>
        <time>2016-10-02T07:30:41Z</time>
      </trkpt>
      <trkpt lat="45.77778" lon="4.65482">
        <ele>554.430481</ele>
        <time>2016-10-02T07:30:43Z</time>
      </trkpt>
      <trkpt lat="45.7778" lon="4.65475">
        <ele>554.728699</ele>
        <time>2016-10-02T07:30:45Z</time>
      </trkpt>
      <trkpt lat="45.77782" lon="4.65469">
        <ele>555.035217</ele>
        <time>2016-10-02T07:30:47Z</time>
      </trkpt>
      <trkpt lat="45.77783" lon="4.65462">
        <ele>555.360962</ele>
        <time>2016-10-02T07:30:49Z</time>
      </trkpt>
      <trkpt lat="45.77785" lon="4.65456">
        <ele>555.665405</ele>
        <time>2016-10-02T07:30:51Z</time>
      </trkpt>
      <trkpt lat="45.77787" lon="4.65449">
        <ele>556.0802</ele>
        <time>2016-10-02T07:30:53Z</time>
      </trkpt>
      <trkpt lat="45.7779" lon="4.65442">
        <ele>556.534973</ele>
        <time>2016-10-02T07:30:55Z</time>
      </trkpt>
      <trkpt lat="45.77794" lon="4.65436">
        <ele>556.88385</ele>
        <time>2016-10-02T07:30:57Z</time>
      </trkpt>
      <trkpt lat="45.77796" lon="4.65429">
        <ele>557.248901</ele>
        <time>2016-10-02T07:30:59Z</time>
      </trkpt>
      <trkpt lat="45.77799" lon="4.65423">
        <ele>557.209534</ele>
        <time>2016-10-02T07:31:01Z</time>
      </trkpt>
      <trkpt lat="45.77801" lon="4.65417">
        <ele>557.467896</ele>
        <time>2016-10-02T07:31:03Z</time>
      </trkpt>
      <trkpt lat="45.77804" lon="4.6541">
        <ele>557.80365</ele>
        <time>2016-10-02T07:31:05Z</time>
      </trkpt>
      <trkpt lat="45.77806" lon="4.65405">
        <ele>558.29187</ele>
        <time>2016-10-02T07:31:07Z</time>
      </trkpt>
      <trkpt lat="45.77808" lon="4.65399">
        <ele>558.651062</ele>
        <time>2016-10-02T07:31:09Z</time>
      </trkpt>
      <trkpt lat="45.77811" lon="4.65393">
        <ele>558.850403</ele>
        <time>2016-10-02T07:31:11Z</time>
      </trkpt>
      <trkpt lat="45.77812" lon="4.65388">
        <ele>559.075806</ele>
        <time>2016-10-02T07:31:13Z</time>
      </trkpt>
      <trkpt lat="45.77814" lon="4.65382">
        <ele>559.445129</ele>
        <time>2016-10-02T07:31:15Z</time>
      </trkpt>
      <trkpt lat="45.77815" lon="4.65376">
        <ele>559.624817</ele>
        <time>2016-10-02T07:31:17Z</time>
      </trkpt>
      <trkpt lat="45.77818" lon="4.65369">
        <ele>559.920532</ele>
        <time>2016-10-02T07:31:19Z</time>
      </trkpt>
      <trkpt lat="45.77819" lon="4.65365">
        <ele>560.223999</ele>
        <time>2016-10-02T07:31:21Z</time>
      </trkpt>
      <trkpt lat="45.77821" lon="4.65362">
        <ele>560.809326</ele>
        <time>2016-10-02T07:31:25Z</time>
      </trkpt>
      <trkpt lat="45.77823" lon="4.65359">
        <ele>561.096313</ele>
        <time>2016-10-02T07:31:27Z</time>
      </trkpt>
      <trkpt lat="45.77824" lon="4.65355">
        <ele>561.409607</ele>
        <time>2016-10-02T07:31:29Z</time>
      </trkpt>
      <trkpt lat="45.77827" lon="4.65349">
        <ele>561.76886</ele>
        <time>2016-10-02T07:31:33Z</time>
      </trkpt>
      <trkpt lat="45.77829" lon="4.65345">
        <ele>562.046021</ele>
        <time>2016-10-02T07:31:37Z</time>
      </trkpt>
      <trkpt lat="45.77831" lon="4.6534">
        <ele>562.2854</ele>
        <time>2016-10-02T07:31:39Z</time>
      </trkpt>
      <trkpt lat="45.77831" lon="4.65334">
        <ele>562.506958</ele>
        <time>2016-10-02T07:31:41Z</time>
      </trkpt>
      <trkpt lat="45.77832" lon="4.6533">
        <ele>563.05896</ele>
        <time>2016-10-02T07:31:43Z</time>
      </trkpt>
      <trkpt lat="45.77832" lon="4.65325">
        <ele>563.391968</ele>
        <time>2016-10-02T07:31:45Z</time>
      </trkpt>
      <trkpt lat="45.77833" lon="4.65322">
        <ele>563.619202</ele>
        <time>2016-10-02T07:31:47Z</time>
      </trkpt>
      <trkpt lat="45.77832" lon="4.65318">
        <ele>563.904053</ele>
        <time>2016-10-02T07:31:49Z</time>
      </trkpt>
      <trkpt lat="45.77832" lon="4.65314">
        <ele>564.208618</ele>
        <time>2016-10-02T07:31:51Z</time>
      </trkpt>
      <trkpt lat="45.77832" lon="4.65311">
        <ele>564.526611</ele>
        <time>2016-10-02T07:31:53Z</time>
      </trkpt>
      <trkpt lat="45.77831" lon="4.65308">
        <ele>564.773315</ele>
        <time>2016-10-02T07:31:55Z</time>
      </trkpt>
      <trkpt lat="45.7783" lon="4.65304">
        <ele>564.830261</ele>
        <time>2016-10-02T07:31:57Z</time>
      </trkpt>
      <trkpt lat="45.77829" lon="4.65301">
        <ele>565.256958</ele>
        <time>2016-10-02T07:31:59Z</time>
      </trkpt>
      <trkpt lat="45.77828" lon="4.65297">
        <ele>565.570374</ele>
        <time>2016-10-02T07:32:01Z</time>
      </trkpt>
      <trkpt lat="45.77827" lon="4.65292">
        <ele>565.937134</ele>
        <time>2016-10-02T07:32:03Z</time>
      </trkpt>
      <trkpt lat="45.77825" lon="4.65288">
        <ele>566.233032</ele>
        <time>2016-10-02T07:32:05Z</time>
      </trkpt>
      <trkpt lat="45.77824" lon="4.65285">
        <ele>566.653809</ele>
        <time>2016-10-02T07:32:07Z</time>
      </trkpt>
      <trkpt lat="45.77823" lon="4.65281">
        <ele>566.997437</ele>
        <time>2016-10-02T07:32:09Z</time>
      </trkpt>
      <trkpt lat="45.77822" lon="4.65278">
        <ele>567.229736</ele>
        <time>2016-10-02T07:32:11Z</time>
      </trkpt>
      <trkpt lat="45.77821" lon="4.65274">
        <ele>567.50592</ele>
        <time>2016-10-02T07:32:13Z</time>
      </trkpt>
      <trkpt lat="45.77821" lon="4.65269">
        <ele>567.955017</ele>
        <time>2016-10-02T07:32:15Z</time>
      </trkpt>
      <trkpt lat="45.77821" lon="4.65265">
        <ele>568.426392</ele>
        <time>2016-10-02T07:32:17Z</time>
      </trkpt>
      <trkpt lat="45.77819" lon="4.65262">
        <ele>568.770569</ele>
        <time>2016-10-02T07:32:19Z</time>
      </trkpt>
      <trkpt lat="45.77817" lon="4.65259">
        <ele>569.040283</ele>
        <time>2016-10-02T07:32:21Z</time>
      </trkpt>
      <trkpt lat="45.77816" lon="4.65254">
        <ele>569.419067</ele>
        <time>2016-10-02T07:32:23Z</time>
      </trkpt>
      <trkpt lat="45.77816" lon="4.6525">
        <ele>569.82251</ele>
        <time>2016-10-02T07:32:25Z</time>
      </trkpt>
      <trkpt lat="45.77816" lon="4.65246">
        <ele>570.208435</ele>
        <time>2016-10-02T07:32:27Z</time>
      </trkpt>
      <trkpt lat="45.77814" lon="4.65243">
        <ele>570.54303</ele>
        <time>2016-10-02T07:32:29Z</time>
      </trkpt>
      <trkpt lat="45.77812" lon="4.65239">
        <ele>570.889404</ele>
        <time>2016-10-02T07:32:31Z</time>
      </trkpt>
      <trkpt lat="45.77809" lon="4.65235">
        <ele>571.189819</ele>
        <time>2016-10-02T07:32:33Z</time>
      </trkpt>
      <trkpt lat="45.77806" lon="4.65231">
        <ele>571.488037</ele>
        <time>2016-10-02T07:32:35Z</time>
      </trkpt>
      <trkpt lat="45.77804" lon="4.65227">
        <ele>571.873108</ele>
        <time>2016-10-02T07:32:37Z</time>
      </trkpt>
      <trkpt lat="45.77805" lon="4.65222">
        <ele>572.193787</ele>
        <time>2016-10-02T07:32:39Z</time>
      </trkpt>
      <trkpt lat="45.77806" lon="4.65218">
        <ele>572.327515</ele>
        <time>2016-10-02T07:32:41Z</time>
      </trkpt>
      <trkpt lat="45.77807" lon="4.65215">
        <ele>572.53363</ele>
        <time>2016-10-02T07:32:43Z</time>
      </trkpt>
      <trkpt lat="45.77809" lon="4.65212">
        <ele>572.845093</ele>
        <time>2016-10-02T07:32:45Z</time>
      </trkpt>
      <trkpt lat="45.77811" lon="4.6521">
        <ele>573.171936</ele>
        <time>2016-10-02T07:32:47Z</time>
      </trkpt>
      <trkpt lat="45.77812" lon="4.65204">
        <ele>573.816772</ele>
        <time>2016-10-02T07:32:53Z</time>
      </trkpt>
      <trkpt lat="45.77811" lon="4.65201">
        <ele>574.082153</ele>
        <time>2016-10-02T07:32:55Z</time>
      </trkpt>
      <trkpt lat="45.77811" lon="4.65199">
        <ele>574.224731</ele>
        <time>2016-10-02T07:32:57Z</time>
      </trkpt>
      <trkpt lat="45.7781" lon="4.65195">
        <ele>574.398193</ele>
        <time>2016-10-02T07:32:59Z</time>
      </trkpt>
      <trkpt lat="45.7781" lon="4.65191">
        <ele>574.626343</ele>
        <time>2016-10-02T07:33:01Z</time>
      </trkpt>
      <trkpt lat="45.7781" lon="4.65187">
        <ele>574.727417</ele>
        <time>2016-10-02T07:33:03Z</time>
      </trkpt>
      <trkpt lat="45.7781" lon="4.65182">
        <ele>574.821716</ele>
        <time>2016-10-02T07:33:05Z</time>
      </trkpt>
      <trkpt lat="45.77809" lon="4.65177">
        <ele>574.941895</ele>
        <time>2016-10-02T07:33:07Z</time>
      </trkpt>
      <trkpt lat="45.77809" lon="4.65171">
        <ele>575.209595</ele>
        <time>2016-10-02T07:33:09Z</time>
      </trkpt>
      <trkpt lat="45.77808" lon="4.65166">
        <ele>575.450256</ele>
        <time>2016-10-02T07:33:11Z</time>
      </trkpt>
      <trkpt lat="45.77808" lon="4.65161">
        <ele>575.63562</ele>
        <time>2016-10-02T07:33:13Z</time>
      </trkpt>
      <trkpt lat="45.77808" lon="4.65157">
        <ele>575.852417</ele>
        <time>2016-10-02T07:33:15Z</time>
      </trkpt>
      <trkpt lat="45.77807" lon="4.65152">
        <ele>576.058716</ele>
        <time>2016-10-02T07:33:17Z</time>
      </trkpt>
      <trkpt lat="45.77806" lon="4.65147">
        <ele>576.322754</ele>
        <time>2016-10-02T07:33:19Z</time>
      </trkpt>
      <trkpt lat="45.77805" lon="4.65142">
        <ele>576.636475</ele>
        <time>2016-10-02T07:33:21Z</time>
      </trkpt>
      <trkpt lat="45.77804" lon="4.65136">
        <ele>576.985291</ele>
        <time>2016-10-02T07:33:23Z</time>
      </trkpt>
      <trkpt lat="45.77803" lon="4.6513">
        <ele>577.343018</ele>
        <time>2016-10-02T07:33:25Z</time>
      </trkpt>
      <trkpt lat="45.77802" lon="4.65125">
        <ele>577.389038</ele>
        <time>2016-10-02T07:33:27Z</time>
      </trkpt>
      <trkpt lat="45.778" lon="4.65119">
        <ele>577.496582</ele>
        <time>2016-10-02T07:33:29Z</time>
      </trkpt>
      <trkpt lat="45.77797" lon="4.65113">
        <ele>577.849854</ele>
        <time>2016-10-02T07:33:31Z</time>
      </trkpt>
      <trkpt lat="45.77794" lon="4.65105">
        <ele>578.136658</ele>
        <time>2016-10-02T07:33:33Z</time>
      </trkpt>
      <trkpt lat="45.7779" lon="4.65094">
        <ele>578.206665</ele>
        <time>2016-10-02T07:33:35Z</time>
      </trkpt>
      <trkpt lat="45.77784" lon="4.65081">
        <ele>578.287842</ele>
        <time>2016-10-02T07:33:37Z</time>
      </trkpt>
      <trkpt lat="45.77782" lon="4.65068">
        <ele>578.332886</ele>
        <time>2016-10-02T07:33:39Z</time>
      </trkpt>
      <trkpt lat="45.77783" lon="4.65055">
        <ele>578.416077</ele>
        <time>2016-10-02T07:33:41Z</time>
      </trkpt>
      <trkpt lat="45.77784" lon="4.65044">
        <ele>578.68158</ele>
        <time>2016-10-02T07:33:43Z</time>
      </trkpt>
      <trkpt lat="45.77786" lon="4.65031">
        <ele>578.826416</ele>
        <time>2016-10-02T07:33:45Z</time>
      </trkpt>
      <trkpt lat="45.77786" lon="4.65019">
        <ele>579.022217</ele>
        <time>2016-10-02T07:33:47Z</time>
      </trkpt>
      <trkpt lat="45.77786" lon="4.65007">
        <ele>579.15387</ele>
        <time>2016-10-02T07:33:49Z</time>
      </trkpt>
      <trkpt lat="45.77786" lon="4.64996">
        <ele>579.197754</ele>
        <time>2016-10-02T07:33:51Z</time>
      </trkpt>
      <trkpt lat="45.77786" lon="4.64983">
        <ele>579.274597</ele>
        <time>2016-10-02T07:33:53Z</time>
      </trkpt>
      <trkpt lat="45.77787" lon="4.64972">
        <ele>579.345947</ele>
        <time>2016-10-02T07:33:55Z</time>
      </trkpt>
      <trkpt lat="45.77788" lon="4.64961">
        <ele>579.359497</ele>
        <time>2016-10-02T07:33:57Z</time>
      </trkpt>
      <trkpt lat="45.77789" lon="4.6495">
        <ele>579.409912</ele>
        <time>2016-10-02T07:33:59Z</time>
      </trkpt>
      <trkpt lat="45.7779" lon="4.64941">
        <ele>579.499878</ele>
        <time>2016-10-02T07:34:01Z</time>
      </trkpt>
      <trkpt lat="45.7779" lon="4.64934">
        <ele>579.574585</ele>
        <time>2016-10-02T07:34:03Z</time>
      </trkpt>
      <trkpt lat="45.77788" lon="4.64928">
        <ele>579.610352</ele>
        <time>2016-10-02T07:34:05Z</time>
      </trkpt>
      <trkpt lat="45.77788" lon="4.64922">
        <ele>579.657227</ele>
        <time>2016-10-02T07:34:07Z</time>
      </trkpt>
      <trkpt lat="45.77788" lon="4.64918">
        <ele>580.001831</ele>
        <time>2016-10-02T07:34:09Z</time>
      </trkpt>
      <trkpt lat="45.77788" lon="4.64914">
        <ele>580.252075</ele>
        <time>2016-10-02T07:34:11Z</time>
      </trkpt>
      <trkpt lat="45.77788" lon="4.6491">
        <ele>580.477173</ele>
        <time>2016-10-02T07:34:13Z</time>
      </trkpt>
      <trkpt lat="45.77788" lon="4.64905">
        <ele>580.648987</ele>
        <time>2016-10-02T07:34:15Z</time>
      </trkpt>
      <trkpt lat="45.77789" lon="4.649">
        <ele>581.252563</ele>
        <time>2016-10-02T07:34:17Z</time>
      </trkpt>
      <trkpt lat="45.77789" lon="4.64895">
        <ele>581.849609</ele>
        <time>2016-10-02T07:34:19Z</time>
      </trkpt>
      <trkpt lat="45.7779" lon="4.6489">
        <ele>582.204102</ele>
        <time>2016-10-02T07:34:21Z</time>
      </trkpt>
      <trkpt lat="45.77791" lon="4.64884">
        <ele>582.489441</ele>
        <time>2016-10-02T07:34:23Z</time>
      </trkpt>
      <trkpt lat="45.77791" lon="4.64879">
        <ele>582.634399</ele>
        <time>2016-10-02T07:34:25Z</time>
      </trkpt>
      <trkpt lat="45.77792" lon="4.64874">
        <ele>583.019653</ele>
        <time>2016-10-02T07:34:27Z</time>
      </trkpt>
      <trkpt lat="45.77792" lon="4.6487">
        <ele>583.311646</ele>
        <time>2016-10-02T07:34:29Z</time>
      </trkpt>
      <trkpt lat="45.77792" lon="4.64863">
        <ele>583.620789</ele>
        <time>2016-10-02T07:34:31Z</time>
      </trkpt>
      <trkpt lat="45.77794" lon="4.64858">
        <ele>584.059082</ele>
        <time>2016-10-02T07:34:33Z</time>
      </trkpt>
      <trkpt lat="45.77794" lon="4.64851">
        <ele>584.487122</ele>
        <time>2016-10-02T07:34:35Z</time>
      </trkpt>
      <trkpt lat="45.77795" lon="4.64844">
        <ele>584.897644</ele>
        <time>2016-10-02T07:34:37Z</time>
      </trkpt>
      <trkpt lat="45.77796" lon="4.64838">
        <ele>585.378906</ele>
        <time>2016-10-02T07:34:39Z</time>
      </trkpt>
      <trkpt lat="45.77798" lon="4.64832">
        <ele>585.736816</ele>
        <time>2016-10-02T07:34:41Z</time>
      </trkpt>
      <trkpt lat="45.77799" lon="4.64827">
        <ele>586.10907</ele>
        <time>2016-10-02T07:34:43Z</time>
      </trkpt>
      <trkpt lat="45.77801" lon="4.64822">
        <ele>586.4422</ele>
        <time>2016-10-02T07:34:45Z</time>
      </trkpt>
      <trkpt lat="45.77803" lon="4.64816">
        <ele>586.912109</ele>
        <time>2016-10-02T07:34:47Z</time>
      </trkpt>
      <trkpt lat="45.77804" lon="4.64812">
        <ele>587.190308</ele>
        <time>2016-10-02T07:34:49Z</time>
      </trkpt>
      <trkpt lat="45.77805" lon="4.64807">
        <ele>587.377808</ele>
        <time>2016-10-02T07:34:51Z</time>
      </trkpt>
      <trkpt lat="45.77805" lon="4.64803">
        <ele>587.705078</ele>
        <time>2016-10-02T07:34:53Z</time>
      </trkpt>
      <trkpt lat="45.77806" lon="4.64799">
        <ele>588.045532</ele>
        <time>2016-10-02T07:34:55Z</time>
      </trkpt>
      <trkpt lat="45.77807" lon="4.64795">
        <ele>588.382141</ele>
        <time>2016-10-02T07:34:57Z</time>
      </trkpt>
      <trkpt lat="45.77807" lon="4.6479">
        <ele>588.694031</ele>
        <time>2016-10-02T07:34:59Z</time>
      </trkpt>
      <trkpt lat="45.77808" lon="4.64787">
        <ele>588.990601</ele>
        <time>2016-10-02T07:35:01Z</time>
      </trkpt>
      <trkpt lat="45.77809" lon="4.64784">
        <ele>589.335815</ele>
        <time>2016-10-02T07:35:03Z</time>
      </trkpt>
      <trkpt lat="45.7781" lon="4.64778">
        <ele>590.235291</ele>
        <time>2016-10-02T07:35:09Z</time>
      </trkpt>
      <trkpt lat="45.77811" lon="4.64775">
        <ele>590.55896</ele>
        <time>2016-10-02T07:35:11Z</time>
      </trkpt>
      <trkpt lat="45.77813" lon="4.64771">
        <ele>590.842834</ele>
        <time>2016-10-02T07:35:13Z</time>
      </trkpt>
      <trkpt lat="45.77815" lon="4.64766">
        <ele>591.053406</ele>
        <time>2016-10-02T07:35:15Z</time>
      </trkpt>
      <trkpt lat="45.77816" lon="4.6476">
        <ele>591.332275</ele>
        <time>2016-10-02T07:35:17Z</time>
      </trkpt>
      <trkpt lat="45.77818" lon="4.64755">
        <ele>591.674988</ele>
        <time>2016-10-02T07:35:19Z</time>
      </trkpt>
      <trkpt lat="45.77819" lon="4.6475">
        <ele>591.982788</ele>
        <time>2016-10-02T07:35:21Z</time>
      </trkpt>
      <trkpt lat="45.7782" lon="4.64745">
        <ele>592.389282</ele>
        <time>2016-10-02T07:35:23Z</time>
      </trkpt>
      <trkpt lat="45.77821" lon="4.6474">
        <ele>592.735229</ele>
        <time>2016-10-02T07:35:25Z</time>
      </trkpt>
      <trkpt lat="45.77822" lon="4.64735">
        <ele>593.126343</ele>
        <time>2016-10-02T07:35:27Z</time>
      </trkpt>
      <trkpt lat="45.77823" lon="4.6473">
        <ele>593.401062</ele>
        <time>2016-10-02T07:35:29Z</time>
      </trkpt>
      <trkpt lat="45.77824" lon="4.64725">
        <ele>593.600281</ele>
        <time>2016-10-02T07:35:31Z</time>
      </trkpt>
      <trkpt lat="45.77824" lon="4.64719">
        <ele>593.736511</ele>
        <time>2016-10-02T07:35:33Z</time>
      </trkpt>
      <trkpt lat="45.77825" lon="4.64713">
        <ele>594.002319</ele>
        <time>2016-10-02T07:35:35Z</time>
      </trkpt>
      <trkpt lat="45.77826" lon="4.64707">
        <ele>594.195679</ele>
        <time>2016-10-02T07:35:37Z</time>
      </trkpt>
      <trkpt lat="45.77828" lon="4.64703">
        <ele>594.485962</ele>
        <time>2016-10-02T07:35:39Z</time>
      </trkpt>
      <trkpt lat="45.77827" lon="4.64696">
        <ele>594.60022</ele>
        <time>2016-10-02T07:35:41Z</time>
      </trkpt>
      <trkpt lat="45.77826" lon="4.64688">
        <ele>594.747925</ele>
        <time>2016-10-02T07:35:43Z</time>
      </trkpt>
      <trkpt lat="45.77827" lon="4.64681">
        <ele>594.948792</ele>
        <time>2016-10-02T07:35:45Z</time>
      </trkpt>
      <trkpt lat="45.77827" lon="4.64677">
        <ele>595.106995</ele>
        <time>2016-10-02T07:35:47Z</time>
      </trkpt>
      <trkpt lat="45.77829" lon="4.64665">
        <ele>596.61731</ele>
        <time>2016-10-02T07:37:31Z</time>
      </trkpt>
      <trkpt lat="45.77829" lon="4.64655">
        <ele>596.660645</ele>
        <time>2016-10-02T07:37:33Z</time>
      </trkpt>
      <trkpt lat="45.77831" lon="4.64643">
        <ele>596.738342</ele>
        <time>2016-10-02T07:37:35Z</time>
      </trkpt>
      <trkpt lat="45.77833" lon="4.64634">
        <ele>596.656982</ele>
        <time>2016-10-02T07:37:37Z</time>
      </trkpt>
      <trkpt lat="45.77834" lon="4.64625">
        <ele>596.628418</ele>
        <time>2016-10-02T07:37:39Z</time>
      </trkpt>
      <trkpt lat="45.77836" lon="4.64615">
        <ele>596.645996</ele>
        <time>2016-10-02T07:37:41Z</time>
      </trkpt>
      <trkpt lat="45.77836" lon="4.64604">
        <ele>596.736145</ele>
        <time>2016-10-02T07:37:43Z</time>
      </trkpt>
      <trkpt lat="45.77836" lon="4.64593">
        <ele>596.637512</ele>
        <time>2016-10-02T07:37:45Z</time>
      </trkpt>
      <trkpt lat="45.77836" lon="4.64584">
        <ele>596.78479</ele>
        <time>2016-10-02T07:37:47Z</time>
      </trkpt>
      <trkpt lat="45.77836" lon="4.64575">
        <ele>596.856323</ele>
        <time>2016-10-02T07:37:49Z</time>
      </trkpt>
      <trkpt lat="45.77834" lon="4.64568">
        <ele>596.917664</ele>
        <time>2016-10-02T07:37:51Z</time>
      </trkpt>
      <trkpt lat="45.77833" lon="4.64559">
        <ele>597.06543</ele>
        <time>2016-10-02T07:37:53Z</time>
      </trkpt>
      <trkpt lat="45.77832" lon="4.64551">
        <ele>597.221558</ele>
        <time>2016-10-02T07:37:55Z</time>
      </trkpt>
      <trkpt lat="45.77831" lon="4.64543">
        <ele>597.439148</ele>
        <time>2016-10-02T07:37:57Z</time>
      </trkpt>
      <trkpt lat="45.77829" lon="4.64534">
        <ele>597.711853</ele>
        <time>2016-10-02T07:37:59Z</time>
      </trkpt>
      <trkpt lat="45.77828" lon="4.64526">
        <ele>597.71405</ele>
        <time>2016-10-02T07:38:01Z</time>
      </trkpt>
      <trkpt lat="45.77827" lon="4.64517">
        <ele>597.897278</ele>
        <time>2016-10-02T07:38:03Z</time>
      </trkpt>
      <trkpt lat="45.77825" lon="4.64509">
        <ele>598.231567</ele>
        <time>2016-10-02T07:38:05Z</time>
      </trkpt>
      <trkpt lat="45.77825" lon="4.64499">
        <ele>598.576599</ele>
        <time>2016-10-02T07:38:07Z</time>
      </trkpt>
      <trkpt lat="45.77824" lon="4.64491">
        <ele>599.012024</ele>
        <time>2016-10-02T07:38:09Z</time>
      </trkpt>
      <trkpt lat="45.77824" lon="4.64484">
        <ele>599.388062</ele>
        <time>2016-10-02T07:38:11Z</time>
      </trkpt>
      <trkpt lat="45.77824" lon="4.64477">
        <ele>599.82135</ele>
        <time>2016-10-02T07:38:13Z</time>
      </trkpt>
      <trkpt lat="45.77824" lon="4.64469">
        <ele>599.610596</ele>
        <time>2016-10-02T07:38:15Z</time>
      </trkpt>
      <trkpt lat="45.77824" lon="4.6446">
        <ele>600.061462</ele>
        <time>2016-10-02T07:38:17Z</time>
      </trkpt>
      <trkpt lat="45.77824" lon="4.64449">
        <ele>600.259399</ele>
        <time>2016-10-02T07:38:19Z</time>
      </trkpt>
      <trkpt lat="45.77825" lon="4.64436">
        <ele>600.857178</ele>
        <time>2016-10-02T07:38:21Z</time>
      </trkpt>
      <trkpt lat="45.77826" lon="4.64423">
        <ele>601.074829</ele>
        <time>2016-10-02T07:38:23Z</time>
      </trkpt>
      <trkpt lat="45.77826" lon="4.64408">
        <ele>601.387878</ele>
        <time>2016-10-02T07:38:25Z</time>
      </trkpt>
      <trkpt lat="45.77827" lon="4.64392">
        <ele>601.748413</ele>
        <time>2016-10-02T07:38:27Z</time>
      </trkpt>
      <trkpt lat="45.77828" lon="4.64376">
        <ele>601.969727</ele>
        <time>2016-10-02T07:38:29Z</time>
      </trkpt>
      <trkpt lat="45.77831" lon="4.64362">
        <ele>602.262451</ele>
        <time>2016-10-02T07:38:31Z</time>
      </trkpt>
      <trkpt lat="45.77833" lon="4.64347">
        <ele>601.805664</ele>
        <time>2016-10-02T07:38:33Z</time>
      </trkpt>
      <trkpt lat="45.77834" lon="4.64329">
        <ele>601.64093</ele>
        <time>2016-10-02T07:38:35Z</time>
      </trkpt>
      <trkpt lat="45.77837" lon="4.64313">
        <ele>601.918091</ele>
        <time>2016-10-02T07:38:37Z</time>
      </trkpt>
      <trkpt lat="45.7784" lon="4.64296">
        <ele>602.105103</ele>
        <time>2016-10-02T07:38:39Z</time>
      </trkpt>
      <trkpt lat="45.77845" lon="4.64281">
        <ele>601.625854</ele>
        <time>2016-10-02T07:38:41Z</time>
      </trkpt>
      <trkpt lat="45.77846" lon="4.64266">
        <ele>600.895752</ele>
        <time>2016-10-02T07:38:43Z</time>
      </trkpt>
      <trkpt lat="45.77844" lon="4.64251">
        <ele>601.13562</ele>
        <time>2016-10-02T07:38:45Z</time>
      </trkpt>
      <trkpt lat="45.77839" lon="4.64238">
        <ele>600.786804</ele>
        <time>2016-10-02T07:38:47Z</time>
      </trkpt>
      <trkpt lat="45.77835" lon="4.64223">
        <ele>600.424438</ele>
        <time>2016-10-02T07:38:49Z</time>
      </trkpt>
      <trkpt lat="45.77831" lon="4.64207">
        <ele>600.323303</ele>
        <time>2016-10-02T07:38:51Z</time>
      </trkpt>
      <trkpt lat="45.77828" lon="4.64191">
        <ele>599.962585</ele>
        <time>2016-10-02T07:38:53Z</time>
      </trkpt>
      <trkpt lat="45.77827" lon="4.64175">
        <ele>599.522827</ele>
        <time>2016-10-02T07:38:55Z</time>
      </trkpt>
      <trkpt lat="45.77824" lon="4.6416">
        <ele>599.696167</ele>
        <time>2016-10-02T07:38:57Z</time>
      </trkpt>
      <trkpt lat="45.77822" lon="4.64144">
        <ele>599.137817</ele>
        <time>2016-10-02T07:38:59Z</time>
      </trkpt>
      <trkpt lat="45.7782" lon="4.64128">
        <ele>598.784058</ele>
        <time>2016-10-02T07:39:01Z</time>
      </trkpt>
      <trkpt lat="45.77817" lon="4.64111">
        <ele>598.471802</ele>
        <time>2016-10-02T07:39:03Z</time>
      </trkpt>
      <trkpt lat="45.77815" lon="4.64095">
        <ele>597.887085</ele>
        <time>2016-10-02T07:39:05Z</time>
      </trkpt>
      <trkpt lat="45.77813" lon="4.64079">
        <ele>597.93988</ele>
        <time>2016-10-02T07:39:07Z</time>
      </trkpt>
      <trkpt lat="45.77812" lon="4.64067">
        <ele>597.774231</ele>
        <time>2016-10-02T07:39:09Z</time>
      </trkpt>
      <trkpt lat="45.77811" lon="4.64056">
        <ele>597.495789</ele>
        <time>2016-10-02T07:39:11Z</time>
      </trkpt>
      <trkpt lat="45.7781" lon="4.64046">
        <ele>597.228333</ele>
        <time>2016-10-02T07:39:13Z</time>
      </trkpt>
      <trkpt lat="45.77808" lon="4.64035">
        <ele>597.946838</ele>
        <time>2016-10-02T07:39:15Z</time>
      </trkpt>
      <trkpt lat="45.77807" lon="4.64025">
        <ele>598.245728</ele>
        <time>2016-10-02T07:39:17Z</time>
      </trkpt>
      <trkpt lat="45.77806" lon="4.64019">
        <ele>598.037292</ele>
        <time>2016-10-02T07:39:19Z</time>
      </trkpt>
      <trkpt lat="45.77804" lon="4.64015">
        <ele>597.774719</ele>
        <time>2016-10-02T07:39:21Z</time>
      </trkpt>
      <trkpt lat="45.77802" lon="4.64011">
        <ele>597.970337</ele>
        <time>2016-10-02T07:39:23Z</time>
      </trkpt>
      <trkpt lat="45.778" lon="4.64008">
        <ele>598.362793</ele>
        <time>2016-10-02T07:39:25Z</time>
      </trkpt>
      <trkpt lat="45.77795" lon="4.64005">
        <ele>600.557922</ele>
        <time>2016-10-02T07:41:32Z</time>
      </trkpt>
      <trkpt lat="45.77791" lon="4.64006">
        <ele>600.544495</ele>
        <time>2016-10-02T07:41:34Z</time>
      </trkpt>
      <trkpt lat="45.77789" lon="4.64007">
        <ele>600.544495</ele>
        <time>2016-10-02T07:41:36Z</time>
      </trkpt>
      <trkpt lat="45.77788" lon="4.64009">
        <ele>600.55603</ele>
        <time>2016-10-02T07:41:38Z</time>
      </trkpt>
      <trkpt lat="45.77785" lon="4.6401">
        <ele>600.219971</ele>
        <time>2016-10-02T07:48:34Z</time>
      </trkpt>
      <trkpt lat="45.77779" lon="4.64008">
        <ele>600.260681</ele>
        <time>2016-10-02T07:48:36Z</time>
      </trkpt>
      <trkpt lat="45.77778" lon="4.64003">
        <ele>600.29895</ele>
        <time>2016-10-02T07:48:38Z</time>
      </trkpt>
      <trkpt lat="45.77778" lon="4.64">
        <ele>600.353577</ele>
        <time>2016-10-02T07:48:40Z</time>
      </trkpt>
      <trkpt lat="45.77775" lon="4.63997">
        <ele>600.42395</ele>
        <time>2016-10-02T07:48:42Z</time>
      </trkpt>
      <trkpt lat="45.77769" lon="4.63997">
        <ele>600.450317</ele>
        <time>2016-10-02T07:48:44Z</time>
      </trkpt>
      <trkpt lat="45.77762" lon="4.63997">
        <ele>600.357788</ele>
        <time>2016-10-02T07:48:46Z</time>
      </trkpt>
      <trkpt lat="45.77756" lon="4.63997">
        <ele>600.357788</ele>
        <time>2016-10-02T07:48:48Z</time>
      </trkpt>
      <trkpt lat="45.77753" lon="4.63999">
        <ele>600.184082</ele>
        <time>2016-10-02T07:48:50Z</time>
      </trkpt>
      <trkpt lat="45.77753" lon="4.64005">
        <ele>600.166504</ele>
        <time>2016-10-02T07:48:52Z</time>
      </trkpt>
      <trkpt lat="45.7775" lon="4.64015">
        <ele>599.969116</ele>
        <time>2016-10-02T07:48:54Z</time>
      </trkpt>
      <trkpt lat="45.77747" lon="4.64025">
        <ele>599.39563</ele>
        <time>2016-10-02T07:48:56Z</time>
      </trkpt>
      <trkpt lat="45.77742" lon="4.64026">
        <ele>599.097168</ele>
        <time>2016-10-02T07:48:58Z</time>
      </trkpt>
      <trkpt lat="45.77736" lon="4.64023">
        <ele>598.967651</ele>
        <time>2016-10-02T07:49:00Z</time>
      </trkpt>
      <trkpt lat="45.7773" lon="4.64027">
        <ele>598.33252</ele>
        <time>2016-10-02T07:49:02Z</time>
      </trkpt>
      <trkpt lat="45.77724" lon="4.64028">
        <ele>597.515198</ele>
        <time>2016-10-02T07:49:04Z</time>
      </trkpt>
      <trkpt lat="45.7772" lon="4.64031">
        <ele>597.178894</ele>
        <time>2016-10-02T07:49:06Z</time>
      </trkpt>
      <trkpt lat="45.77715" lon="4.64035">
        <ele>596.472046</ele>
        <time>2016-10-02T07:49:08Z</time>
      </trkpt>
      <trkpt lat="45.77709" lon="4.64039">
        <ele>595.702026</ele>
        <time>2016-10-02T07:49:10Z</time>
      </trkpt>
      <trkpt lat="45.777" lon="4.64042">
        <ele>594.525391</ele>
        <time>2016-10-02T07:49:12Z</time>
      </trkpt>
      <trkpt lat="45.77691" lon="4.64048">
        <ele>593.157104</ele>
        <time>2016-10-02T07:49:14Z</time>
      </trkpt>
      <trkpt lat="45.7768" lon="4.64049">
        <ele>591.556274</ele>
        <time>2016-10-02T07:49:16Z</time>
      </trkpt>
      <trkpt lat="45.7767" lon="4.64052">
        <ele>590.283508</ele>
        <time>2016-10-02T07:49:18Z</time>
      </trkpt>
      <trkpt lat="45.77662" lon="4.64057">
        <ele>588.971558</ele>
        <time>2016-10-02T07:49:20Z</time>
      </trkpt>
      <trkpt lat="45.77651" lon="4.6406">
        <ele>587.59491</ele>
        <time>2016-10-02T07:49:22Z</time>
      </trkpt>
      <trkpt lat="45.77639" lon="4.6406">
        <ele>586.022644</ele>
        <time>2016-10-02T07:49:24Z</time>
      </trkpt>
      <trkpt lat="45.77626" lon="4.64056">
        <ele>585.348511</ele>
        <time>2016-10-02T07:49:26Z</time>
      </trkpt>
      <trkpt lat="45.77614" lon="4.64049">
        <ele>583.971558</ele>
        <time>2016-10-02T07:49:28Z</time>
      </trkpt>
      <trkpt lat="45.77603" lon="4.64039">
        <ele>582.307495</ele>
        <time>2016-10-02T07:49:30Z</time>
      </trkpt>
      <trkpt lat="45.77592" lon="4.64036">
        <ele>580.516785</ele>
        <time>2016-10-02T07:49:32Z</time>
      </trkpt>
      <trkpt lat="45.77581" lon="4.64037">
        <ele>578.521912</ele>
        <time>2016-10-02T07:49:34Z</time>
      </trkpt>
      <trkpt lat="45.77571" lon="4.6404">
        <ele>576.866699</ele>
        <time>2016-10-02T07:49:36Z</time>
      </trkpt>
      <trkpt lat="45.77559" lon="4.64047">
        <ele>575.734497</ele>
        <time>2016-10-02T07:49:38Z</time>
      </trkpt>
      <trkpt lat="45.77546" lon="4.64056">
        <ele>574.280151</ele>
        <time>2016-10-02T07:49:40Z</time>
      </trkpt>
      <trkpt lat="45.77533" lon="4.64067">
        <ele>572.375854</ele>
        <time>2016-10-02T07:49:42Z</time>
      </trkpt>
      <trkpt lat="45.77522" lon="4.64081">
        <ele>570.639282</ele>
        <time>2016-10-02T07:49:44Z</time>
      </trkpt>
      <trkpt lat="45.77511" lon="4.64094">
        <ele>569.900513</ele>
        <time>2016-10-02T07:49:46Z</time>
      </trkpt>
      <trkpt lat="45.77503" lon="4.6411">
        <ele>568.633118</ele>
        <time>2016-10-02T07:49:48Z</time>
      </trkpt>
      <trkpt lat="45.77501" lon="4.64125">
        <ele>567.557739</ele>
        <time>2016-10-02T07:49:50Z</time>
      </trkpt>
      <trkpt lat="45.77502" lon="4.64137">
        <ele>566.188782</ele>
        <time>2016-10-02T07:49:52Z</time>
      </trkpt>
      <trkpt lat="45.77504" lon="4.64147">
        <ele>565.087769</ele>
        <time>2016-10-02T07:49:54Z</time>
      </trkpt>
      <trkpt lat="45.77504" lon="4.64155">
        <ele>564.169861</ele>
        <time>2016-10-02T07:49:56Z</time>
      </trkpt>
      <trkpt lat="45.77504" lon="4.64163">
        <ele>562.943726</ele>
        <time>2016-10-02T07:49:58Z</time>
      </trkpt>
      <trkpt lat="45.77506" lon="4.64175">
        <ele>561.546021</ele>
        <time>2016-10-02T07:50:00Z</time>
      </trkpt>
      <trkpt lat="45.77503" lon="4.64187">
        <ele>560.262268</ele>
        <time>2016-10-02T07:50:02Z</time>
      </trkpt>
      <trkpt lat="45.775" lon="4.64197">
        <ele>559.618286</ele>
        <time>2016-10-02T07:50:04Z</time>
      </trkpt>
      <trkpt lat="45.77498" lon="4.64205">
        <ele>558.467346</ele>
        <time>2016-10-02T07:50:06Z</time>
      </trkpt>
      <trkpt lat="45.77497" lon="4.64214">
        <ele>556.987122</ele>
        <time>2016-10-02T07:50:08Z</time>
      </trkpt>
      <trkpt lat="45.77495" lon="4.64223">
        <ele>555.636597</ele>
        <time>2016-10-02T07:50:10Z</time>
      </trkpt>
      <trkpt lat="45.77494" lon="4.6423">
        <ele>554.516846</ele>
        <time>2016-10-02T07:50:12Z</time>
      </trkpt>
      <trkpt lat="45.77494" lon="4.64235">
        <ele>553.494751</ele>
        <time>2016-10-02T07:50:14Z</time>
      </trkpt>
      <trkpt lat="45.77493" lon="4.64241">
        <ele>552.635681</ele>
        <time>2016-10-02T07:50:16Z</time>
      </trkpt>
      <trkpt lat="45.77493" lon="4.64247">
        <ele>551.587219</ele>
        <time>2016-10-02T07:50:18Z</time>
      </trkpt>
      <trkpt lat="45.7749" lon="4.64255">
        <ele>550.308777</ele>
        <time>2016-10-02T07:50:20Z</time>
      </trkpt>
      <trkpt lat="45.77486" lon="4.64262">
        <ele>549.655334</ele>
        <time>2016-10-02T07:50:22Z</time>
      </trkpt>
      <trkpt lat="45.77483" lon="4.64269">
        <ele>548.307495</ele>
        <time>2016-10-02T07:50:24Z</time>
      </trkpt>
      <trkpt lat="45.77481" lon="4.64279">
        <ele>547.504822</ele>
        <time>2016-10-02T07:50:26Z</time>
      </trkpt>
      <trkpt lat="45.77479" lon="4.6429">
        <ele>546.68689</ele>
        <time>2016-10-02T07:50:28Z</time>
      </trkpt>
      <trkpt lat="45.77475" lon="4.64298">
        <ele>545.171021</ele>
        <time>2016-10-02T07:50:30Z</time>
      </trkpt>
      <trkpt lat="45.77471" lon="4.64306">
        <ele>543.521118</ele>
        <time>2016-10-02T07:50:32Z</time>
      </trkpt>
      <trkpt lat="45.77465" lon="4.64316">
        <ele>542.266968</ele>
        <time>2016-10-02T07:50:34Z</time>
      </trkpt>
      <trkpt lat="45.77461" lon="4.64331">
        <ele>540.917847</ele>
        <time>2016-10-02T07:50:36Z</time>
      </trkpt>
      <trkpt lat="45.77457" lon="4.64345">
        <ele>539.677673</ele>
        <time>2016-10-02T07:50:38Z</time>
      </trkpt>
      <trkpt lat="45.77453" lon="4.64359">
        <ele>539.008728</ele>
        <time>2016-10-02T07:50:40Z</time>
      </trkpt>
      <trkpt lat="45.77447" lon="4.64375">
        <ele>538.234863</ele>
        <time>2016-10-02T07:50:42Z</time>
      </trkpt>
      <trkpt lat="45.77441" lon="4.6439">
        <ele>537.509033</ele>
        <time>2016-10-02T07:50:44Z</time>
      </trkpt>
      <trkpt lat="45.77436" lon="4.64408">
        <ele>536.347107</ele>
        <time>2016-10-02T07:50:46Z</time>
      </trkpt>
      <trkpt lat="45.77429" lon="4.64425">
        <ele>535.722351</ele>
        <time>2016-10-02T07:50:48Z</time>
      </trkpt>
      <trkpt lat="45.7742" lon="4.64438">
        <ele>534.939758</ele>
        <time>2016-10-02T07:50:50Z</time>
      </trkpt>
      <trkpt lat="45.77411" lon="4.6445">
        <ele>533.7995</ele>
        <time>2016-10-02T07:50:52Z</time>
      </trkpt>
      <trkpt lat="45.77403" lon="4.64461">
        <ele>532.54895</ele>
        <time>2016-10-02T07:50:54Z</time>
      </trkpt>
      <trkpt lat="45.77398" lon="4.6447">
        <ele>531.518005</ele>
        <time>2016-10-02T07:50:56Z</time>
      </trkpt>
      <trkpt lat="45.77395" lon="4.64479">
        <ele>530.428589</ele>
        <time>2016-10-02T07:50:58Z</time>
      </trkpt>
      <trkpt lat="45.77392" lon="4.64487">
        <ele>529.236877</ele>
        <time>2016-10-02T07:51:00Z</time>
      </trkpt>
      <trkpt lat="45.7739" lon="4.64496">
        <ele>527.813416</ele>
        <time>2016-10-02T07:51:02Z</time>
      </trkpt>
      <trkpt lat="45.77385" lon="4.64502">
        <ele>526.463318</ele>
        <time>2016-10-02T07:51:04Z</time>
      </trkpt>
      <trkpt lat="45.77379" lon="4.64508">
        <ele>524.978943</ele>
        <time>2016-10-02T07:51:06Z</time>
      </trkpt>
      <trkpt lat="45.7737" lon="4.64514">
        <ele>523.229126</ele>
        <time>2016-10-02T07:51:08Z</time>
      </trkpt>
      <trkpt lat="45.77361" lon="4.6452">
        <ele>521.719116</ele>
        <time>2016-10-02T07:51:10Z</time>
      </trkpt>
      <trkpt lat="45.77351" lon="4.64525">
        <ele>520.748413</ele>
        <time>2016-10-02T07:51:12Z</time>
      </trkpt>
      <trkpt lat="45.77339" lon="4.64528">
        <ele>520.168091</ele>
        <time>2016-10-02T07:51:14Z</time>
      </trkpt>
      <trkpt lat="45.77327" lon="4.64531">
        <ele>518.960205</ele>
        <time>2016-10-02T07:51:16Z</time>
      </trkpt>
      <trkpt lat="45.77317" lon="4.64532">
        <ele>517.847717</ele>
        <time>2016-10-02T07:51:18Z</time>
      </trkpt>
      <trkpt lat="45.7731" lon="4.64533">
        <ele>516.81781</ele>
        <time>2016-10-02T07:51:20Z</time>
      </trkpt>
      <trkpt lat="45.77306" lon="4.64533">
        <ele>515.506592</ele>
        <time>2016-10-02T07:51:22Z</time>
      </trkpt>
      <trkpt lat="45.773" lon="4.64531">
        <ele>514.341858</ele>
        <time>2016-10-02T07:51:24Z</time>
      </trkpt>
      <trkpt lat="45.77293" lon="4.64528">
        <ele>512.988892</ele>
        <time>2016-10-02T07:51:26Z</time>
      </trkpt>
      <trkpt lat="45.77287" lon="4.64524">
        <ele>512.199158</ele>
        <time>2016-10-02T07:51:28Z</time>
      </trkpt>
      <trkpt lat="45.77281" lon="4.6452">
        <ele>511.291168</ele>
        <time>2016-10-02T07:51:30Z</time>
      </trkpt>
      <trkpt lat="45.77276" lon="4.64522">
        <ele>510.506409</ele>
        <time>2016-10-02T07:51:32Z</time>
      </trkpt>
      <trkpt lat="45.77272" lon="4.64526">
        <ele>509.777985</ele>
        <time>2016-10-02T07:51:34Z</time>
      </trkpt>
      <trkpt lat="45.77271" lon="4.64533">
        <ele>509.150146</ele>
        <time>2016-10-02T07:51:36Z</time>
      </trkpt>
      <trkpt lat="45.77271" lon="4.64543">
        <ele>508.535217</ele>
        <time>2016-10-02T07:51:38Z</time>
      </trkpt>
      <trkpt lat="45.77272" lon="4.64554">
        <ele>508.106201</ele>
        <time>2016-10-02T07:51:40Z</time>
      </trkpt>
      <trkpt lat="45.77273" lon="4.64564">
        <ele>507.428558</ele>
        <time>2016-10-02T07:51:42Z</time>
      </trkpt>
      <trkpt lat="45.77275" lon="4.64575">
        <ele>507.097961</ele>
        <time>2016-10-02T07:51:44Z</time>
      </trkpt>
      <trkpt lat="45.77278" lon="4.64586">
        <ele>506.631531</ele>
        <time>2016-10-02T07:51:46Z</time>
      </trkpt>
      <trkpt lat="45.77278" lon="4.64602">
        <ele>506.577728</ele>
        <time>2016-10-02T07:51:48Z</time>
      </trkpt>
      <trkpt lat="45.77276" lon="4.64618">
        <ele>506.828613</ele>
        <time>2016-10-02T07:51:50Z</time>
      </trkpt>
      <trkpt lat="45.77271" lon="4.64632">
        <ele>506.689117</ele>
        <time>2016-10-02T07:51:52Z</time>
      </trkpt>
      <trkpt lat="45.77268" lon="4.64646">
        <ele>506.599701</ele>
        <time>2016-10-02T07:51:54Z</time>
      </trkpt>
      <trkpt lat="45.77263" lon="4.6466">
        <ele>506.604065</ele>
        <time>2016-10-02T07:51:56Z</time>
      </trkpt>
      <trkpt lat="45.77258" lon="4.64673">
        <ele>506.446838</ele>
        <time>2016-10-02T07:51:58Z</time>
      </trkpt>
      <trkpt lat="45.77252" lon="4.64687">
        <ele>506.409912</ele>
        <time>2016-10-02T07:52:00Z</time>
      </trkpt>
      <trkpt lat="45.77245" lon="4.64702">
        <ele>506.329285</ele>
        <time>2016-10-02T07:52:02Z</time>
      </trkpt>
      <trkpt lat="45.77237" lon="4.64715">
        <ele>506.437805</ele>
        <time>2016-10-02T07:52:04Z</time>
      </trkpt>
      <trkpt lat="45.77229" lon="4.64726">
        <ele>506.062317</ele>
        <time>2016-10-02T07:52:06Z</time>
      </trkpt>
      <trkpt lat="45.7722" lon="4.64736">
        <ele>505.938629</ele>
        <time>2016-10-02T07:52:08Z</time>
      </trkpt>
      <trkpt lat="45.77211" lon="4.64746">
        <ele>505.786041</ele>
        <time>2016-10-02T07:52:10Z</time>
      </trkpt>
      <trkpt lat="45.77199" lon="4.64753">
        <ele>505.538666</ele>
        <time>2016-10-02T07:52:12Z</time>
      </trkpt>
      <trkpt lat="45.77187" lon="4.64753">
        <ele>505.309998</ele>
        <time>2016-10-02T07:52:14Z</time>
      </trkpt>
      <trkpt lat="45.77176" lon="4.64752">
        <ele>504.80249</ele>
        <time>2016-10-02T07:52:16Z</time>
      </trkpt>
      <trkpt lat="45.77164" lon="4.64745">
        <ele>504.349457</ele>
        <time>2016-10-02T07:52:18Z</time>
      </trkpt>
      <trkpt lat="45.77153" lon="4.64739">
        <ele>504.103333</ele>
        <time>2016-10-02T07:52:20Z</time>
      </trkpt>
      <trkpt lat="45.77142" lon="4.64733">
        <ele>503.836121</ele>
        <time>2016-10-02T07:52:22Z</time>
      </trkpt>
      <trkpt lat="45.77132" lon="4.64731">
        <ele>503.229584</ele>
        <time>2016-10-02T07:52:24Z</time>
      </trkpt>
      <trkpt lat="45.77122" lon="4.64735">
        <ele>502.884766</ele>
        <time>2016-10-02T07:52:26Z</time>
      </trkpt>
      <trkpt lat="45.77116" lon="4.64744">
        <ele>502.438385</ele>
        <time>2016-10-02T07:52:28Z</time>
      </trkpt>
      <trkpt lat="45.77111" lon="4.64753">
        <ele>502.003235</ele>
        <time>2016-10-02T07:52:30Z</time>
      </trkpt>
      <trkpt lat="45.77108" lon="4.64761">
        <ele>501.641205</ele>
        <time>2016-10-02T07:52:32Z</time>
      </trkpt>
      <trkpt lat="45.77104" lon="4.64768">
        <ele>501.425598</ele>
        <time>2016-10-02T07:52:34Z</time>
      </trkpt>
      <trkpt lat="45.77102" lon="4.64773">
        <ele>501.246979</ele>
        <time>2016-10-02T07:52:36Z</time>
      </trkpt>
      <trkpt lat="45.77099" lon="4.64779">
        <ele>501.07193</ele>
        <time>2016-10-02T07:52:38Z</time>
      </trkpt>
      <trkpt lat="45.77095" lon="4.64785">
        <ele>501.069733</ele>
        <time>2016-10-02T07:52:40Z</time>
      </trkpt>
      <trkpt lat="45.77092" lon="4.64792">
        <ele>500.930664</ele>
        <time>2016-10-02T07:52:42Z</time>
      </trkpt>
      <trkpt lat="45.7709" lon="4.648">
        <ele>500.592529</ele>
        <time>2016-10-02T07:52:44Z</time>
      </trkpt>
      <trkpt lat="45.77087" lon="4.64807">
        <ele>500.442688</ele>
        <time>2016-10-02T07:52:46Z</time>
      </trkpt>
      <trkpt lat="45.77085" lon="4.64815">
        <ele>500.636902</ele>
        <time>2016-10-02T07:52:48Z</time>
      </trkpt>
      <trkpt lat="45.77082" lon="4.64824">
        <ele>500.697418</ele>
        <time>2016-10-02T07:52:50Z</time>
      </trkpt>
      <trkpt lat="45.77079" lon="4.64834">
        <ele>500.479553</ele>
        <time>2016-10-02T07:52:52Z</time>
      </trkpt>
      <trkpt lat="45.77076" lon="4.64844">
        <ele>500.671234</ele>
        <time>2016-10-02T07:52:54Z</time>
      </trkpt>
      <trkpt lat="45.77072" lon="4.64855">
        <ele>500.955994</ele>
        <time>2016-10-02T07:52:56Z</time>
      </trkpt>
      <trkpt lat="45.77068" lon="4.64867">
        <ele>501.348053</ele>
        <time>2016-10-02T07:52:58Z</time>
      </trkpt>
      <trkpt lat="45.77066" lon="4.64881">
        <ele>501.465668</ele>
        <time>2016-10-02T07:53:00Z</time>
      </trkpt>
      <trkpt lat="45.77064" lon="4.64896">
        <ele>501.900452</ele>
        <time>2016-10-02T07:53:02Z</time>
      </trkpt>
      <trkpt lat="45.7706" lon="4.64911">
        <ele>501.973785</ele>
        <time>2016-10-02T07:53:04Z</time>
      </trkpt>
      <trkpt lat="45.77054" lon="4.64925">
        <ele>502.76651</ele>
        <time>2016-10-02T07:53:06Z</time>
      </trkpt>
      <trkpt lat="45.77049" lon="4.64939">
        <ele>503.19986</ele>
        <time>2016-10-02T07:53:08Z</time>
      </trkpt>
      <trkpt lat="45.77041" lon="4.64952">
        <ele>503.607361</ele>
        <time>2016-10-02T07:53:10Z</time>
      </trkpt>
      <trkpt lat="45.77033" lon="4.64965">
        <ele>503.963684</ele>
        <time>2016-10-02T07:53:12Z</time>
      </trkpt>
      <trkpt lat="45.77025" lon="4.64974">
        <ele>504.291565</ele>
        <time>2016-10-02T07:53:14Z</time>
      </trkpt>
      <trkpt lat="45.77017" lon="4.64977">
        <ele>504.448334</ele>
        <time>2016-10-02T07:53:16Z</time>
      </trkpt>
      <trkpt lat="45.7701" lon="4.6498">
        <ele>504.57251</ele>
        <time>2016-10-02T07:53:18Z</time>
      </trkpt>
      <trkpt lat="45.77002" lon="4.64985">
        <ele>504.711975</ele>
        <time>2016-10-02T07:53:20Z</time>
      </trkpt>
      <trkpt lat="45.76993" lon="4.64989">
        <ele>504.466949</ele>
        <time>2016-10-02T07:53:22Z</time>
      </trkpt>
      <trkpt lat="45.76984" lon="4.64992">
        <ele>504.133301</ele>
        <time>2016-10-02T07:53:24Z</time>
      </trkpt>
      <trkpt lat="45.76972" lon="4.64991">
        <ele>504.251312</ele>
        <time>2016-10-02T07:53:26Z</time>
      </trkpt>
      <trkpt lat="45.7696" lon="4.64985">
        <ele>503.996674</ele>
        <time>2016-10-02T07:53:28Z</time>
      </trkpt>
      <trkpt lat="45.76951" lon="4.64977">
        <ele>503.885742</ele>
        <time>2016-10-02T07:53:30Z</time>
      </trkpt>
      <trkpt lat="45.7694" lon="4.64972">
        <ele>503.278503</ele>
        <time>2016-10-02T07:53:32Z</time>
      </trkpt>
      <trkpt lat="45.76928" lon="4.64968">
        <ele>502.725189</ele>
        <time>2016-10-02T07:53:34Z</time>
      </trkpt>
      <trkpt lat="45.76916" lon="4.64965">
        <ele>502.376709</ele>
        <time>2016-10-02T07:53:36Z</time>
      </trkpt>
      <trkpt lat="45.76906" lon="4.64968">
        <ele>501.826324</ele>
        <time>2016-10-02T07:53:38Z</time>
      </trkpt>
      <trkpt lat="45.76897" lon="4.64972">
        <ele>501.292908</ele>
        <time>2016-10-02T07:53:40Z</time>
      </trkpt>
      <trkpt lat="45.7689" lon="4.64979">
        <ele>500.414368</ele>
        <time>2016-10-02T07:53:42Z</time>
      </trkpt>
      <trkpt lat="45.76883" lon="4.64989">
        <ele>499.889587</ele>
        <time>2016-10-02T07:53:44Z</time>
      </trkpt>
      <trkpt lat="45.76875" lon="4.64999">
        <ele>498.392883</ele>
        <time>2016-10-02T07:53:46Z</time>
      </trkpt>
      <trkpt lat="45.76867" lon="4.65011">
        <ele>497.641937</ele>
        <time>2016-10-02T07:53:48Z</time>
      </trkpt>
      <trkpt lat="45.76857" lon="4.65021">
        <ele>496.59726</ele>
        <time>2016-10-02T07:53:50Z</time>
      </trkpt>
      <trkpt lat="45.76846" lon="4.65032">
        <ele>495.217712</ele>
        <time>2016-10-02T07:53:52Z</time>
      </trkpt>
      <trkpt lat="45.76836" lon="4.65041">
        <ele>494.112366</ele>
        <time>2016-10-02T07:53:54Z</time>
      </trkpt>
      <trkpt lat="45.76824" lon="4.65047">
        <ele>492.60553</ele>
        <time>2016-10-02T07:53:56Z</time>
      </trkpt>
      <trkpt lat="45.76811" lon="4.65049">
        <ele>491.304596</ele>
        <time>2016-10-02T07:53:58Z</time>
      </trkpt>
      <trkpt lat="45.76797" lon="4.65047">
        <ele>489.894836</ele>
        <time>2016-10-02T07:54:00Z</time>
      </trkpt>
      <trkpt lat="45.76783" lon="4.65042">
        <ele>487.588531</ele>
        <time>2016-10-02T07:54:02Z</time>
      </trkpt>
      <trkpt lat="45.7677" lon="4.6504">
        <ele>486.65976</ele>
        <time>2016-10-02T07:54:04Z</time>
      </trkpt>
      <trkpt lat="45.76755" lon="4.65036">
        <ele>486.166168</ele>
        <time>2016-10-02T07:54:06Z</time>
      </trkpt>
      <trkpt lat="45.76741" lon="4.65035">
        <ele>484.957764</ele>
        <time>2016-10-02T07:54:08Z</time>
      </trkpt>
      <trkpt lat="45.76732" lon="4.65046">
        <ele>483.812408</ele>
        <time>2016-10-02T07:54:10Z</time>
      </trkpt>
      <trkpt lat="45.76727" lon="4.6506">
        <ele>482.661316</ele>
        <time>2016-10-02T07:54:12Z</time>
      </trkpt>
      <trkpt lat="45.76725" lon="4.65074">
        <ele>482.624359</ele>
        <time>2016-10-02T07:54:14Z</time>
      </trkpt>
      <trkpt lat="45.76722" lon="4.65086">
        <ele>481.816986</ele>
        <time>2016-10-02T07:54:16Z</time>
      </trkpt>
      <trkpt lat="45.76717" lon="4.65097">
        <ele>480.814026</ele>
        <time>2016-10-02T07:54:18Z</time>
      </trkpt>
      <trkpt lat="45.76713" lon="4.65107">
        <ele>479.875244</ele>
        <time>2016-10-02T07:54:20Z</time>
      </trkpt>
      <trkpt lat="45.76707" lon="4.65117">
        <ele>479.007233</ele>
        <time>2016-10-02T07:54:22Z</time>
      </trkpt>
      <trkpt lat="45.767" lon="4.65128">
        <ele>478.831055</ele>
        <time>2016-10-02T07:54:24Z</time>
      </trkpt>
      <trkpt lat="45.76694" lon="4.65142">
        <ele>477.954773</ele>
        <time>2016-10-02T07:54:26Z</time>
      </trkpt>
      <trkpt lat="45.76687" lon="4.65151">
        <ele>477.582336</ele>
        <time>2016-10-02T07:54:28Z</time>
      </trkpt>
      <trkpt lat="45.76679" lon="4.65147">
        <ele>477.892975</ele>
        <time>2016-10-02T07:54:30Z</time>
      </trkpt>
      <trkpt lat="45.76676" lon="4.65138">
        <ele>477.692963</ele>
        <time>2016-10-02T07:54:32Z</time>
      </trkpt>
      <trkpt lat="45.76675" lon="4.65129">
        <ele>477.823303</ele>
        <time>2016-10-02T07:54:34Z</time>
      </trkpt>
      <trkpt lat="45.76674" lon="4.65121">
        <ele>477.71402</ele>
        <time>2016-10-02T07:54:36Z</time>
      </trkpt>
      <trkpt lat="45.76671" lon="4.65113">
        <ele>477.829163</ele>
        <time>2016-10-02T07:54:38Z</time>
      </trkpt>
      <trkpt lat="45.7667" lon="4.65106">
        <ele>477.946472</ele>
        <time>2016-10-02T07:54:40Z</time>
      </trkpt>
      <trkpt lat="45.76669" lon="4.65098">
        <ele>478.016602</ele>
        <time>2016-10-02T07:54:42Z</time>
      </trkpt>
      <trkpt lat="45.76667" lon="4.65091">
        <ele>479.43335</ele>
        <time>2016-10-02T07:54:44Z</time>
      </trkpt>
      <trkpt lat="45.76667" lon="4.65085">
        <ele>479.485504</ele>
        <time>2016-10-02T07:54:46Z</time>
      </trkpt>
      <trkpt lat="45.76666" lon="4.65079">
        <ele>479.733582</ele>
        <time>2016-10-02T07:54:48Z</time>
      </trkpt>
      <trkpt lat="45.76665" lon="4.65074">
        <ele>479.806061</ele>
        <time>2016-10-02T07:54:50Z</time>
      </trkpt>
      <trkpt lat="45.76665" lon="4.65068">
        <ele>480.126556</ele>
        <time>2016-10-02T07:54:52Z</time>
      </trkpt>
      <trkpt lat="45.76664" lon="4.65062">
        <ele>480.274323</ele>
        <time>2016-10-02T07:54:54Z</time>
      </trkpt>
      <trkpt lat="45.76664" lon="4.65057">
        <ele>480.306946</ele>
        <time>2016-10-02T07:54:56Z</time>
      </trkpt>
      <trkpt lat="45.76663" lon="4.65051">
        <ele>480.643158</ele>
        <time>2016-10-02T07:54:58Z</time>
      </trkpt>
      <trkpt lat="45.76662" lon="4.65046">
        <ele>480.816071</ele>
        <time>2016-10-02T07:55:00Z</time>
      </trkpt>
      <trkpt lat="45.76661" lon="4.6504">
        <ele>481.189148</ele>
        <time>2016-10-02T07:55:02Z</time>
      </trkpt>
      <trkpt lat="45.7666" lon="4.65034">
        <ele>481.510925</ele>
        <time>2016-10-02T07:55:04Z</time>
      </trkpt>
      <trkpt lat="45.76659" lon="4.65029">
        <ele>481.717468</ele>
        <time>2016-10-02T07:55:06Z</time>
      </trkpt>
      <trkpt lat="45.76658" lon="4.65024">
        <ele>482.086731</ele>
        <time>2016-10-02T07:55:08Z</time>
      </trkpt>
      <trkpt lat="45.76658" lon="4.65018">
        <ele>482.480865</ele>
        <time>2016-10-02T07:55:10Z</time>
      </trkpt>
      <trkpt lat="45.76657" lon="4.65014">
        <ele>482.84613</ele>
        <time>2016-10-02T07:55:12Z</time>
      </trkpt>
      <trkpt lat="45.76656" lon="4.65008">
        <ele>483.119934</ele>
        <time>2016-10-02T07:55:14Z</time>
      </trkpt>
      <trkpt lat="45.76655" lon="4.65003">
        <ele>483.632996</ele>
        <time>2016-10-02T07:55:16Z</time>
      </trkpt>
      <trkpt lat="45.76655" lon="4.64998">
        <ele>483.893951</ele>
        <time>2016-10-02T07:55:18Z</time>
      </trkpt>
      <trkpt lat="45.76655" lon="4.64993">
        <ele>484.148285</ele>
        <time>2016-10-02T07:55:20Z</time>
      </trkpt>
      <trkpt lat="45.76654" lon="4.64988">
        <ele>484.544373</ele>
        <time>2016-10-02T07:55:22Z</time>
      </trkpt>
      <trkpt lat="45.76654" lon="4.64983">
        <ele>484.928772</ele>
        <time>2016-10-02T07:55:24Z</time>
      </trkpt>
      <trkpt lat="45.76654" lon="4.64978">
        <ele>485.283051</ele>
        <time>2016-10-02T07:55:26Z</time>
      </trkpt>
      <trkpt lat="45.76654" lon="4.64974">
        <ele>485.648438</ele>
        <time>2016-10-02T07:55:28Z</time>
      </trkpt>
      <trkpt lat="45.76654" lon="4.6497">
        <ele>486.023193</ele>
        <time>2016-10-02T07:55:30Z</time>
      </trkpt>
      <trkpt lat="45.76654" lon="4.64965">
        <ele>486.419128</ele>
        <time>2016-10-02T07:55:32Z</time>
      </trkpt>
      <trkpt lat="45.76654" lon="4.64961">
        <ele>486.833344</ele>
        <time>2016-10-02T07:55:34Z</time>
      </trkpt>
      <trkpt lat="45.76653" lon="4.64957">
        <ele>487.242249</ele>
        <time>2016-10-02T07:55:36Z</time>
      </trkpt>
      <trkpt lat="45.76653" lon="4.64953">
        <ele>487.62262</ele>
        <time>2016-10-02T07:55:38Z</time>
      </trkpt>
      <trkpt lat="45.76653" lon="4.64949">
        <ele>488.098328</ele>
        <time>2016-10-02T07:55:40Z</time>
      </trkpt>
      <trkpt lat="45.76652" lon="4.64945">
        <ele>488.31366</ele>
        <time>2016-10-02T07:55:42Z</time>
      </trkpt>
      <trkpt lat="45.76652" lon="4.64941">
        <ele>488.726471</ele>
        <time>2016-10-02T07:55:44Z</time>
      </trkpt>
      <trkpt lat="45.76651" lon="4.64937">
        <ele>489.131165</ele>
        <time>2016-10-02T07:55:46Z</time>
      </trkpt>
      <trkpt lat="45.76651" lon="4.64933">
        <ele>489.614014</ele>
        <time>2016-10-02T07:55:48Z</time>
      </trkpt>
      <trkpt lat="45.76651" lon="4.64929">
        <ele>490.020325</ele>
        <time>2016-10-02T07:55:50Z</time>
      </trkpt>
      <trkpt lat="45.7665" lon="4.64925">
        <ele>490.503326</ele>
        <time>2016-10-02T07:55:52Z</time>
      </trkpt>
      <trkpt lat="45.76649" lon="4.64921">
        <ele>490.884094</ele>
        <time>2016-10-02T07:55:54Z</time>
      </trkpt>
      <trkpt lat="45.76648" lon="4.64917">
        <ele>491.328033</ele>
        <time>2016-10-02T07:55:56Z</time>
      </trkpt>
      <trkpt lat="45.76648" lon="4.64913">
        <ele>491.70224</ele>
        <time>2016-10-02T07:55:58Z</time>
      </trkpt>
      <trkpt lat="45.76647" lon="4.6491">
        <ele>492.157043</ele>
        <time>2016-10-02T07:56:00Z</time>
      </trkpt>
      <trkpt lat="45.76647" lon="4.64906">
        <ele>492.633209</ele>
        <time>2016-10-02T07:56:02Z</time>
      </trkpt>
      <trkpt lat="45.76647" lon="4.64902">
        <ele>492.863953</ele>
        <time>2016-10-02T07:56:04Z</time>
      </trkpt>
      <trkpt lat="45.76646" lon="4.64898">
        <ele>493.198547</ele>
        <time>2016-10-02T07:56:06Z</time>
      </trkpt>
      <trkpt lat="45.76646" lon="4.64895">
        <ele>493.63681</ele>
        <time>2016-10-02T07:56:08Z</time>
      </trkpt>
      <trkpt lat="45.76646" lon="4.64891">
        <ele>494.058502</ele>
        <time>2016-10-02T07:56:10Z</time>
      </trkpt>
      <trkpt lat="45.76646" lon="4.64887">
        <ele>494.475769</ele>
        <time>2016-10-02T07:56:12Z</time>
      </trkpt>
      <trkpt lat="45.76645" lon="4.64883">
        <ele>494.943451</ele>
        <time>2016-10-02T07:56:14Z</time>
      </trkpt>
      <trkpt lat="45.76645" lon="4.6488">
        <ele>495.307922</ele>
        <time>2016-10-02T07:56:16Z</time>
      </trkpt>
      <trkpt lat="45.76645" lon="4.64876">
        <ele>495.808502</ele>
        <time>2016-10-02T07:56:18Z</time>
      </trkpt>
      <trkpt lat="45.76645" lon="4.64873">
        <ele>496.22226</ele>
        <time>2016-10-02T07:56:20Z</time>
      </trkpt>
      <trkpt lat="45.76645" lon="4.64869">
        <ele>496.566223</ele>
        <time>2016-10-02T07:56:22Z</time>
      </trkpt>
      <trkpt lat="45.76645" lon="4.64865">
        <ele>497.084869</ele>
        <time>2016-10-02T07:56:24Z</time>
      </trkpt>
      <trkpt lat="45.76645" lon="4.64862">
        <ele>497.350494</ele>
        <time>2016-10-02T07:56:26Z</time>
      </trkpt>
      <trkpt lat="45.76645" lon="4.64858">
        <ele>497.662903</ele>
        <time>2016-10-02T07:56:28Z</time>
      </trkpt>
      <trkpt lat="45.76644" lon="4.64855">
        <ele>498.094055</ele>
        <time>2016-10-02T07:56:30Z</time>
      </trkpt>
      <trkpt lat="45.76644" lon="4.64852">
        <ele>498.545593</ele>
        <time>2016-10-02T07:56:32Z</time>
      </trkpt>
      <trkpt lat="45.76644" lon="4.64849">
        <ele>498.959381</ele>
        <time>2016-10-02T07:56:34Z</time>
      </trkpt>
      <trkpt lat="45.76643" lon="4.64845">
        <ele>499.403625</ele>
        <time>2016-10-02T07:56:36Z</time>
      </trkpt>
      <trkpt lat="45.76643" lon="4.64842">
        <ele>499.789063</ele>
        <time>2016-10-02T07:56:38Z</time>
      </trkpt>
      <trkpt lat="45.76643" lon="4.64839">
        <ele>500.252991</ele>
        <time>2016-10-02T07:56:40Z</time>
      </trkpt>
      <trkpt lat="45.76643" lon="4.64835">
        <ele>500.726898</ele>
        <time>2016-10-02T07:56:42Z</time>
      </trkpt>
      <trkpt lat="45.76643" lon="4.64832">
        <ele>501.136322</ele>
        <time>2016-10-02T07:56:44Z</time>
      </trkpt>
      <trkpt lat="45.76643" lon="4.64828">
        <ele>501.367249</ele>
        <time>2016-10-02T07:56:46Z</time>
      </trkpt>
      <trkpt lat="45.76642" lon="4.64825">
        <ele>501.896912</ele>
        <time>2016-10-02T07:56:48Z</time>
      </trkpt>
      <trkpt lat="45.76642" lon="4.64821">
        <ele>502.414551</ele>
        <time>2016-10-02T07:56:50Z</time>
      </trkpt>
      <trkpt lat="45.76642" lon="4.64818">
        <ele>502.868103</ele>
        <time>2016-10-02T07:56:52Z</time>
      </trkpt>
      <trkpt lat="45.76642" lon="4.64814">
        <ele>503.357269</ele>
        <time>2016-10-02T07:56:54Z</time>
      </trkpt>
      <trkpt lat="45.76642" lon="4.64811">
        <ele>503.840881</ele>
        <time>2016-10-02T07:56:56Z</time>
      </trkpt>
      <trkpt lat="45.76641" lon="4.64807">
        <ele>504.333496</ele>
        <time>2016-10-02T07:56:58Z</time>
      </trkpt>
      <trkpt lat="45.76641" lon="4.64804">
        <ele>504.710388</ele>
        <time>2016-10-02T07:57:00Z</time>
      </trkpt>
      <trkpt lat="45.7664" lon="4.648">
        <ele>505.197205</ele>
        <time>2016-10-02T07:57:02Z</time>
      </trkpt>
      <trkpt lat="45.7664" lon="4.64796">
        <ele>505.674377</ele>
        <time>2016-10-02T07:57:04Z</time>
      </trkpt>
      <trkpt lat="45.7664" lon="4.64792">
        <ele>505.883545</ele>
        <time>2016-10-02T07:57:06Z</time>
      </trkpt>
      <trkpt lat="45.76639" lon="4.64789">
        <ele>506.196594</ele>
        <time>2016-10-02T07:57:08Z</time>
      </trkpt>
      <trkpt lat="45.76638" lon="4.64785">
        <ele>506.642242</ele>
        <time>2016-10-02T07:57:10Z</time>
      </trkpt>
      <trkpt lat="45.76637" lon="4.64781">
        <ele>507.034424</ele>
        <time>2016-10-02T07:57:12Z</time>
      </trkpt>
      <trkpt lat="45.76637" lon="4.64777">
        <ele>507.487701</ele>
        <time>2016-10-02T07:57:14Z</time>
      </trkpt>
      <trkpt lat="45.76635" lon="4.64774">
        <ele>507.812408</ele>
        <time>2016-10-02T07:57:16Z</time>
      </trkpt>
      <trkpt lat="45.76635" lon="4.6477">
        <ele>508.211243</ele>
        <time>2016-10-02T07:57:18Z</time>
      </trkpt>
      <trkpt lat="45.76634" lon="4.64766">
        <ele>508.572998</ele>
        <time>2016-10-02T07:57:20Z</time>
      </trkpt>
      <trkpt lat="45.76634" lon="4.64761">
        <ele>508.941345</ele>
        <time>2016-10-02T07:57:22Z</time>
      </trkpt>
      <trkpt lat="45.76633" lon="4.64757">
        <ele>509.325775</ele>
        <time>2016-10-02T07:57:24Z</time>
      </trkpt>
      <trkpt lat="45.76632" lon="4.64752">
        <ele>509.683258</ele>
        <time>2016-10-02T07:57:26Z</time>
      </trkpt>
      <trkpt lat="45.76631" lon="4.64748">
        <ele>509.848938</ele>
        <time>2016-10-02T07:57:28Z</time>
      </trkpt>
      <trkpt lat="45.7663" lon="4.64744">
        <ele>510.202087</ele>
        <time>2016-10-02T07:57:30Z</time>
      </trkpt>
      <trkpt lat="45.76629" lon="4.6474">
        <ele>510.457581</ele>
        <time>2016-10-02T07:57:32Z</time>
      </trkpt>
      <trkpt lat="45.76627" lon="4.64736">
        <ele>510.793274</ele>
        <time>2016-10-02T07:57:34Z</time>
      </trkpt>
      <trkpt lat="45.76626" lon="4.64732">
        <ele>511.173004</ele>
        <time>2016-10-02T07:57:36Z</time>
      </trkpt>
      <trkpt lat="45.76625" lon="4.64729">
        <ele>511.475983</ele>
        <time>2016-10-02T07:57:38Z</time>
      </trkpt>
      <trkpt lat="45.76624" lon="4.64725">
        <ele>511.641693</ele>
        <time>2016-10-02T07:57:40Z</time>
      </trkpt>
      <trkpt lat="45.76624" lon="4.64721">
        <ele>511.861572</ele>
        <time>2016-10-02T07:57:42Z</time>
      </trkpt>
      <trkpt lat="45.76623" lon="4.64717">
        <ele>512.162415</ele>
        <time>2016-10-02T07:57:44Z</time>
      </trkpt>
      <trkpt lat="45.76622" lon="4.64713">
        <ele>512.432739</ele>
        <time>2016-10-02T07:57:46Z</time>
      </trkpt>
      <trkpt lat="45.76622" lon="4.64708">
        <ele>512.692505</ele>
        <time>2016-10-02T07:57:48Z</time>
      </trkpt>
      <trkpt lat="45.76621" lon="4.64704">
        <ele>512.996277</ele>
        <time>2016-10-02T07:57:50Z</time>
      </trkpt>
      <trkpt lat="45.7662" lon="4.647">
        <ele>513.438965</ele>
        <time>2016-10-02T07:57:52Z</time>
      </trkpt>
      <trkpt lat="45.76619" lon="4.64696">
        <ele>513.776978</ele>
        <time>2016-10-02T07:57:54Z</time>
      </trkpt>
      <trkpt lat="45.76618" lon="4.64693">
        <ele>514.115112</ele>
        <time>2016-10-02T07:57:56Z</time>
      </trkpt>
      <trkpt lat="45.76617" lon="4.64689">
        <ele>514.518555</ele>
        <time>2016-10-02T07:57:58Z</time>
      </trkpt>
      <trkpt lat="45.76617" lon="4.64686">
        <ele>514.895874</ele>
        <time>2016-10-02T07:58:00Z</time>
      </trkpt>
      <trkpt lat="45.76616" lon="4.64681">
        <ele>515.25592</ele>
        <time>2016-10-02T07:58:02Z</time>
      </trkpt>
      <trkpt lat="45.76616" lon="4.64678">
        <ele>515.467468</ele>
        <time>2016-10-02T07:58:04Z</time>
      </trkpt>
      <trkpt lat="45.76615" lon="4.64674">
        <ele>515.85437</ele>
        <time>2016-10-02T07:58:06Z</time>
      </trkpt>
      <trkpt lat="45.76614" lon="4.64671">
        <ele>516.185913</ele>
        <time>2016-10-02T07:58:08Z</time>
      </trkpt>
      <trkpt lat="45.76613" lon="4.64667">
        <ele>516.663574</ele>
        <time>2016-10-02T07:58:10Z</time>
      </trkpt>
      <trkpt lat="45.76613" lon="4.64663">
        <ele>516.997314</ele>
        <time>2016-10-02T07:58:12Z</time>
      </trkpt>
      <trkpt lat="45.76612" lon="4.6466">
        <ele>517.415833</ele>
        <time>2016-10-02T07:58:14Z</time>
      </trkpt>
      <trkpt lat="45.7661" lon="4.64657">
        <ele>517.930664</ele>
        <time>2016-10-02T07:58:16Z</time>
      </trkpt>
      <trkpt lat="45.76609" lon="4.64653">
        <ele>518.316833</ele>
        <time>2016-10-02T07:58:18Z</time>
      </trkpt>
      <trkpt lat="45.76607" lon="4.6465">
        <ele>518.757568</ele>
        <time>2016-10-02T07:58:20Z</time>
      </trkpt>
      <trkpt lat="45.76606" lon="4.64647">
        <ele>519.235657</ele>
        <time>2016-10-02T07:58:22Z</time>
      </trkpt>
      <trkpt lat="45.76605" lon="4.64643">
        <ele>519.781128</ele>
        <time>2016-10-02T07:58:24Z</time>
      </trkpt>
      <trkpt lat="45.76604" lon="4.64639">
        <ele>520.232666</ele>
        <time>2016-10-02T07:58:26Z</time>
      </trkpt>
      <trkpt lat="45.76603" lon="4.64634">
        <ele>520.457397</ele>
        <time>2016-10-02T07:58:28Z</time>
      </trkpt>
      <trkpt lat="45.76602" lon="4.64631">
        <ele>520.967407</ele>
        <time>2016-10-02T07:58:30Z</time>
      </trkpt>
      <trkpt lat="45.76601" lon="4.64627">
        <ele>521.443909</ele>
        <time>2016-10-02T07:58:32Z</time>
      </trkpt>
      <trkpt lat="45.76599" lon="4.64622">
        <ele>521.740662</ele>
        <time>2016-10-02T07:58:34Z</time>
      </trkpt>
      <trkpt lat="45.76597" lon="4.64617">
        <ele>522.142212</ele>
        <time>2016-10-02T07:58:36Z</time>
      </trkpt>
      <trkpt lat="45.76596" lon="4.64613">
        <ele>522.446777</ele>
        <time>2016-10-02T07:58:38Z</time>
      </trkpt>
      <trkpt lat="45.76594" lon="4.64609">
        <ele>522.805115</ele>
        <time>2016-10-02T07:58:40Z</time>
      </trkpt>
      <trkpt lat="45.76593" lon="4.64604">
        <ele>523.082275</ele>
        <time>2016-10-02T07:58:42Z</time>
      </trkpt>
      <trkpt lat="45.76592" lon="4.64599">
        <ele>523.435669</ele>
        <time>2016-10-02T07:58:44Z</time>
      </trkpt>
      <trkpt lat="45.7659" lon="4.64595">
        <ele>523.610229</ele>
        <time>2016-10-02T07:58:46Z</time>
      </trkpt>
      <trkpt lat="45.7659" lon="4.64591">
        <ele>523.986938</ele>
        <time>2016-10-02T07:58:48Z</time>
      </trkpt>
      <trkpt lat="45.76589" lon="4.64587">
        <ele>524.454041</ele>
        <time>2016-10-02T07:58:50Z</time>
      </trkpt>
      <trkpt lat="45.76588" lon="4.64581">
        <ele>524.453247</ele>
        <time>2016-10-02T07:58:52Z</time>
      </trkpt>
      <trkpt lat="45.76586" lon="4.64577">
        <ele>524.828735</ele>
        <time>2016-10-02T07:58:54Z</time>
      </trkpt>
      <trkpt lat="45.76584" lon="4.64573">
        <ele>525.160339</ele>
        <time>2016-10-02T07:58:56Z</time>
      </trkpt>
      <trkpt lat="45.76583" lon="4.64569">
        <ele>525.397339</ele>
        <time>2016-10-02T07:58:58Z</time>
      </trkpt>
      <trkpt lat="45.76581" lon="4.64565">
        <ele>525.761963</ele>
        <time>2016-10-02T07:59:00Z</time>
      </trkpt>
      <trkpt lat="45.7658" lon="4.6456">
        <ele>526.040161</ele>
        <time>2016-10-02T07:59:02Z</time>
      </trkpt>
      <trkpt lat="45.76578" lon="4.64556">
        <ele>526.291199</ele>
        <time>2016-10-02T07:59:04Z</time>
      </trkpt>
      <trkpt lat="45.76576" lon="4.64552">
        <ele>526.581604</ele>
        <time>2016-10-02T07:59:06Z</time>
      </trkpt>
      <trkpt lat="45.76575" lon="4.64548">
        <ele>526.834839</ele>
        <time>2016-10-02T07:59:08Z</time>
      </trkpt>
      <trkpt lat="45.76573" lon="4.64543">
        <ele>527.184875</ele>
        <time>2016-10-02T07:59:10Z</time>
      </trkpt>
      <trkpt lat="45.76572" lon="4.64538">
        <ele>527.508362</ele>
        <time>2016-10-02T07:59:12Z</time>
      </trkpt>
      <trkpt lat="45.76571" lon="4.64532">
        <ele>527.708374</ele>
        <time>2016-10-02T07:59:14Z</time>
      </trkpt>
      <trkpt lat="45.7657" lon="4.64528">
        <ele>528.085327</ele>
        <time>2016-10-02T07:59:16Z</time>
      </trkpt>
      <trkpt lat="45.76569" lon="4.64524">
        <ele>528.447876</ele>
        <time>2016-10-02T07:59:18Z</time>
      </trkpt>
      <trkpt lat="45.76568" lon="4.64519">
        <ele>528.809875</ele>
        <time>2016-10-02T07:59:20Z</time>
      </trkpt>
      <trkpt lat="45.76568" lon="4.64515">
        <ele>529.15686</ele>
        <time>2016-10-02T07:59:22Z</time>
      </trkpt>
      <trkpt lat="45.76566" lon="4.6451">
        <ele>529.591492</ele>
        <time>2016-10-02T07:59:24Z</time>
      </trkpt>
      <trkpt lat="45.76565" lon="4.64504">
        <ele>529.962769</ele>
        <time>2016-10-02T07:59:26Z</time>
      </trkpt>
      <trkpt lat="45.76564" lon="4.64499">
        <ele>530.115662</ele>
        <time>2016-10-02T07:59:28Z</time>
      </trkpt>
      <trkpt lat="45.76563" lon="4.64494">
        <ele>530.447205</ele>
        <time>2016-10-02T07:59:30Z</time>
      </trkpt>
      <trkpt lat="45.76562" lon="4.64489">
        <ele>530.727905</ele>
        <time>2016-10-02T07:59:32Z</time>
      </trkpt>
      <trkpt lat="45.76561" lon="4.64485">
        <ele>531.394653</ele>
        <time>2016-10-02T07:59:34Z</time>
      </trkpt>
      <trkpt lat="45.7656" lon="4.6448">
        <ele>531.759399</ele>
        <time>2016-10-02T07:59:36Z</time>
      </trkpt>
      <trkpt lat="45.76558" lon="4.64476">
        <ele>532.091431</ele>
        <time>2016-10-02T07:59:38Z</time>
      </trkpt>
      <trkpt lat="45.76556" lon="4.64471">
        <ele>532.380737</ele>
        <time>2016-10-02T07:59:40Z</time>
      </trkpt>
      <trkpt lat="45.76556" lon="4.64467">
        <ele>532.740051</ele>
        <time>2016-10-02T07:59:42Z</time>
      </trkpt>
      <trkpt lat="45.76555" lon="4.64463">
        <ele>533.134521</ele>
        <time>2016-10-02T07:59:44Z</time>
      </trkpt>
      <trkpt lat="45.76554" lon="4.6446">
        <ele>533.531128</ele>
        <time>2016-10-02T07:59:46Z</time>
      </trkpt>
      <trkpt lat="45.76554" lon="4.64456">
        <ele>533.943237</ele>
        <time>2016-10-02T07:59:48Z</time>
      </trkpt>
      <trkpt lat="45.76553" lon="4.64451">
        <ele>534.327271</ele>
        <time>2016-10-02T07:59:50Z</time>
      </trkpt>
      <trkpt lat="45.76553" lon="4.64447">
        <ele>534.681274</ele>
        <time>2016-10-02T07:59:52Z</time>
      </trkpt>
      <trkpt lat="45.76553" lon="4.64444">
        <ele>535.282166</ele>
        <time>2016-10-02T07:59:54Z</time>
      </trkpt>
      <trkpt lat="45.76553" lon="4.64441">
        <ele>535.669006</ele>
        <time>2016-10-02T07:59:56Z</time>
      </trkpt>
      <trkpt lat="45.76551" lon="4.64437">
        <ele>535.881775</ele>
        <time>2016-10-02T07:59:58Z</time>
      </trkpt>
      <trkpt lat="45.76551" lon="4.64434">
        <ele>536.264404</ele>
        <time>2016-10-02T08:00:00Z</time>
      </trkpt>
      <trkpt lat="45.76549" lon="4.6443">
        <ele>536.814392</ele>
        <time>2016-10-02T08:00:02Z</time>
      </trkpt>
      <trkpt lat="45.76548" lon="4.64427">
        <ele>537.284119</ele>
        <time>2016-10-02T08:00:04Z</time>
      </trkpt>
      <trkpt lat="45.76547" lon="4.64424">
        <ele>537.676697</ele>
        <time>2016-10-02T08:00:06Z</time>
      </trkpt>
      <trkpt lat="45.76545" lon="4.6442">
        <ele>538.18158</ele>
        <time>2016-10-02T08:00:08Z</time>
      </trkpt>
      <trkpt lat="45.76544" lon="4.64418">
        <ele>538.55603</ele>
        <time>2016-10-02T08:00:10Z</time>
      </trkpt>
      <trkpt lat="45.76543" lon="4.64415">
        <ele>538.972534</ele>
        <time>2016-10-02T08:00:12Z</time>
      </trkpt>
      <trkpt lat="45.76541" lon="4.64413">
        <ele>539.405396</ele>
        <time>2016-10-02T08:00:14Z</time>
      </trkpt>
      <trkpt lat="45.76539" lon="4.64411">
        <ele>539.877563</ele>
        <time>2016-10-02T08:00:16Z</time>
      </trkpt>
      <trkpt lat="45.76539" lon="4.64408">
        <ele>540.115967</ele>
        <time>2016-10-02T08:00:18Z</time>
      </trkpt>
      <trkpt lat="45.76537" lon="4.64406">
        <ele>540.693604</ele>
        <time>2016-10-02T08:00:20Z</time>
      </trkpt>
      <trkpt lat="45.76537" lon="4.64403">
        <ele>541.251526</ele>
        <time>2016-10-02T08:00:22Z</time>
      </trkpt>
      <trkpt lat="45.76538" lon="4.644">
        <ele>541.764282</ele>
        <time>2016-10-02T08:00:24Z</time>
      </trkpt>
      <trkpt lat="45.76539" lon="4.64396">
        <ele>542.221252</ele>
        <time>2016-10-02T08:00:26Z</time>
      </trkpt>
      <trkpt lat="45.76539" lon="4.64394">
        <ele>542.706604</ele>
        <time>2016-10-02T08:00:28Z</time>
      </trkpt>
      <trkpt lat="45.76539" lon="4.64391">
        <ele>543.203735</ele>
        <time>2016-10-02T08:00:30Z</time>
      </trkpt>
      <trkpt lat="45.76538" lon="4.64387">
        <ele>543.610474</ele>
        <time>2016-10-02T08:00:32Z</time>
      </trkpt>
      <trkpt lat="45.76537" lon="4.64384">
        <ele>544.086487</ele>
        <time>2016-10-02T08:00:34Z</time>
      </trkpt>
      <trkpt lat="45.76535" lon="4.64383">
        <ele>544.46283</ele>
        <time>2016-10-02T08:00:36Z</time>
      </trkpt>
      <trkpt lat="45.76533" lon="4.64382">
        <ele>545.016235</ele>
        <time>2016-10-02T08:00:38Z</time>
      </trkpt>
      <trkpt lat="45.76532" lon="4.64381">
        <ele>545.24115</ele>
        <time>2016-10-02T08:00:40Z</time>
      </trkpt>
      <trkpt lat="45.7653" lon="4.64379">
        <ele>545.819214</ele>
        <time>2016-10-02T08:00:42Z</time>
      </trkpt>
      <trkpt lat="45.76528" lon="4.64376">
        <ele>546.650269</ele>
        <time>2016-10-02T08:00:46Z</time>
      </trkpt>
      <trkpt lat="45.76526" lon="4.64375">
        <ele>547.167419</ele>
        <time>2016-10-02T08:00:48Z</time>
      </trkpt>
      <trkpt lat="45.76524" lon="4.64373">
        <ele>547.688171</ele>
        <time>2016-10-02T08:00:50Z</time>
      </trkpt>
      <trkpt lat="45.76523" lon="4.6437">
        <ele>548.26355</ele>
        <time>2016-10-02T08:00:52Z</time>
      </trkpt>
      <trkpt lat="45.76521" lon="4.64368">
        <ele>548.852173</ele>
        <time>2016-10-02T08:00:54Z</time>
      </trkpt>
      <trkpt lat="45.76521" lon="4.64366">
        <ele>549.458313</ele>
        <time>2016-10-02T08:00:56Z</time>
      </trkpt>
      <trkpt lat="45.76519" lon="4.64364">
        <ele>549.727417</ele>
        <time>2016-10-02T08:00:58Z</time>
      </trkpt>
      <trkpt lat="45.76517" lon="4.64363">
        <ele>550.23938</ele>
        <time>2016-10-02T08:01:00Z</time>
      </trkpt>
      <trkpt lat="45.76515" lon="4.64362">
        <ele>550.781677</ele>
        <time>2016-10-02T08:01:02Z</time>
      </trkpt>
      <trkpt lat="45.76514" lon="4.64361">
        <ele>551.347107</ele>
        <time>2016-10-02T08:01:04Z</time>
      </trkpt>
      <trkpt lat="45.7651" lon="4.64359">
        <ele>552.474365</ele>
        <time>2016-10-02T08:01:08Z</time>
      </trkpt>
      <trkpt lat="45.76508" lon="4.64358">
        <ele>553.059937</ele>
        <time>2016-10-02T08:01:10Z</time>
      </trkpt>
      <trkpt lat="45.76506" lon="4.64356">
        <ele>553.55896</ele>
        <time>2016-10-02T08:01:12Z</time>
      </trkpt>
      <trkpt lat="45.76505" lon="4.64355">
        <ele>554.123718</ele>
        <time>2016-10-02T08:01:14Z</time>
      </trkpt>
      <trkpt lat="45.76503" lon="4.64354">
        <ele>554.450745</ele>
        <time>2016-10-02T08:01:16Z</time>
      </trkpt>
      <trkpt lat="45.76501" lon="4.64353">
        <ele>554.975952</ele>
        <time>2016-10-02T08:01:18Z</time>
      </trkpt>
      <trkpt lat="45.76499" lon="4.64352">
        <ele>555.397827</ele>
        <time>2016-10-02T08:01:20Z</time>
      </trkpt>
      <trkpt lat="45.76496" lon="4.64351">
        <ele>556.362915</ele>
        <time>2016-10-02T08:01:24Z</time>
      </trkpt>
      <trkpt lat="45.76494" lon="4.6435">
        <ele>556.822876</ele>
        <time>2016-10-02T08:01:26Z</time>
      </trkpt>
      <trkpt lat="45.76492" lon="4.64349">
        <ele>557.287109</ele>
        <time>2016-10-02T08:01:28Z</time>
      </trkpt>
      <trkpt lat="45.7649" lon="4.64348">
        <ele>557.719116</ele>
        <time>2016-10-02T08:01:30Z</time>
      </trkpt>
      <trkpt lat="45.76487" lon="4.64346">
        <ele>558.119812</ele>
        <time>2016-10-02T08:01:32Z</time>
      </trkpt>
      <trkpt lat="45.76485" lon="4.64345">
        <ele>558.562195</ele>
        <time>2016-10-02T08:01:34Z</time>
      </trkpt>
      <trkpt lat="45.76483" lon="4.64344">
        <ele>558.890686</ele>
        <time>2016-10-02T08:01:36Z</time>
      </trkpt>
      <trkpt lat="45.76481" lon="4.64342">
        <ele>559.022095</ele>
        <time>2016-10-02T08:01:38Z</time>
      </trkpt>
      <trkpt lat="45.76479" lon="4.64341">
        <ele>559.473328</ele>
        <time>2016-10-02T08:01:40Z</time>
      </trkpt>
      <trkpt lat="45.76477" lon="4.64339">
        <ele>559.904968</ele>
        <time>2016-10-02T08:01:42Z</time>
      </trkpt>
      <trkpt lat="45.76472" lon="4.64334">
        <ele>560.318909</ele>
        <time>2016-10-02T08:01:44Z</time>
      </trkpt>
      <trkpt lat="45.7647" lon="4.64333">
        <ele>560.605713</ele>
        <time>2016-10-02T08:01:46Z</time>
      </trkpt>
      <trkpt lat="45.76464" lon="4.64325">
        <ele>563.119507</ele>
        <time>2016-10-02T08:02:02Z</time>
      </trkpt>
      <trkpt lat="45.76463" lon="4.64323">
        <ele>563.345825</ele>
        <time>2016-10-02T08:02:04Z</time>
      </trkpt>
      <trkpt lat="45.7646" lon="4.6432">
        <ele>563.96936</ele>
        <time>2016-10-02T08:02:08Z</time>
      </trkpt>
      <trkpt lat="45.76458" lon="4.64319">
        <ele>564.289246</ele>
        <time>2016-10-02T08:02:10Z</time>
      </trkpt>
      <trkpt lat="45.76454" lon="4.64316">
        <ele>564.553833</ele>
        <time>2016-10-02T08:02:12Z</time>
      </trkpt>
      <trkpt lat="45.76452" lon="4.64314">
        <ele>564.869385</ele>
        <time>2016-10-02T08:02:14Z</time>
      </trkpt>
      <trkpt lat="45.76451" lon="4.64312">
        <ele>565.255066</ele>
        <time>2016-10-02T08:02:16Z</time>
      </trkpt>
      <trkpt lat="45.76447" lon="4.64311">
        <ele>566.25885</ele>
        <time>2016-10-02T08:02:24Z</time>
      </trkpt>
      <trkpt lat="45.76445" lon="4.6431">
        <ele>566.478149</ele>
        <time>2016-10-02T08:02:26Z</time>
      </trkpt>
      <trkpt lat="45.76443" lon="4.64309">
        <ele>566.775085</ele>
        <time>2016-10-02T08:02:28Z</time>
      </trkpt>
      <trkpt lat="45.76441" lon="4.64308">
        <ele>567.045349</ele>
        <time>2016-10-02T08:02:30Z</time>
      </trkpt>
      <trkpt lat="45.76439" lon="4.64306">
        <ele>567.244873</ele>
        <time>2016-10-02T08:02:32Z</time>
      </trkpt>
      <trkpt lat="45.76438" lon="4.64304">
        <ele>567.549622</ele>
        <time>2016-10-02T08:02:34Z</time>
      </trkpt>
      <trkpt lat="45.76436" lon="4.64303">
        <ele>567.826843</ele>
        <time>2016-10-02T08:02:36Z</time>
      </trkpt>
      <trkpt lat="45.76434" lon="4.64302">
        <ele>568.032959</ele>
        <time>2016-10-02T08:02:38Z</time>
      </trkpt>
      <trkpt lat="45.76432" lon="4.643">
        <ele>568.311523</ele>
        <time>2016-10-02T08:02:40Z</time>
      </trkpt>
      <trkpt lat="45.76429" lon="4.64299">
        <ele>568.684265</ele>
        <time>2016-10-02T08:02:42Z</time>
      </trkpt>
      <trkpt lat="45.76426" lon="4.64298">
        <ele>569.161682</ele>
        <time>2016-10-02T08:02:44Z</time>
      </trkpt>
      <trkpt lat="45.76424" lon="4.64297">
        <ele>569.398438</ele>
        <time>2016-10-02T08:02:46Z</time>
      </trkpt>
      <trkpt lat="45.76421" lon="4.64296">
        <ele>569.756958</ele>
        <time>2016-10-02T08:02:48Z</time>
      </trkpt>
      <trkpt lat="45.76418" lon="4.64293">
        <ele>570.61969</ele>
        <time>2016-10-02T08:02:52Z</time>
      </trkpt>
      <trkpt lat="45.76416" lon="4.64291">
        <ele>570.94635</ele>
        <time>2016-10-02T08:02:54Z</time>
      </trkpt>
      <trkpt lat="45.76414" lon="4.6429">
        <ele>571.32135</ele>
        <time>2016-10-02T08:02:56Z</time>
      </trkpt>
      <trkpt lat="45.76412" lon="4.64288">
        <ele>571.702087</ele>
        <time>2016-10-02T08:02:58Z</time>
      </trkpt>
      <trkpt lat="45.7641" lon="4.64287">
        <ele>572.079041</ele>
        <time>2016-10-02T08:03:00Z</time>
      </trkpt>
      <trkpt lat="45.76408" lon="4.64286">
        <ele>572.552795</ele>
        <time>2016-10-02T08:03:02Z</time>
      </trkpt>
      <trkpt lat="45.76405" lon="4.64284">
        <ele>573.833862</ele>
        <time>2016-10-02T08:03:08Z</time>
      </trkpt>
      <trkpt lat="45.764" lon="4.64278">
        <ele>578.480469</ele>
        <time>2016-10-02T08:04:05Z</time>
      </trkpt>
      <trkpt lat="45.76391" lon="4.64267">
        <ele>578.54187</ele>
        <time>2016-10-02T08:04:07Z</time>
      </trkpt>
      <trkpt lat="45.76391" lon="4.64265">
        <ele>578.6604</ele>
        <time>2016-10-02T08:04:09Z</time>
      </trkpt>
      <trkpt lat="45.76391" lon="4.64262">
        <ele>578.770264</ele>
        <time>2016-10-02T08:04:11Z</time>
      </trkpt>
      <trkpt lat="45.76391" lon="4.64259">
        <ele>578.906555</ele>
        <time>2016-10-02T08:04:13Z</time>
      </trkpt>
      <trkpt lat="45.76392" lon="4.64254">
        <ele>579.110718</ele>
        <time>2016-10-02T08:04:16Z</time>
      </trkpt>
      <trkpt lat="45.76393" lon="4.64251">
        <ele>579.237305</ele>
        <time>2016-10-02T08:04:18Z</time>
      </trkpt>
      <trkpt lat="45.76392" lon="4.64248">
        <ele>579.373413</ele>
        <time>2016-10-02T08:04:20Z</time>
      </trkpt>
      <trkpt lat="45.76391" lon="4.64245">
        <ele>579.623901</ele>
        <time>2016-10-02T08:04:22Z</time>
      </trkpt>
      <trkpt lat="45.7639" lon="4.64243">
        <ele>580.00592</ele>
        <time>2016-10-02T08:04:24Z</time>
      </trkpt>
      <trkpt lat="45.76388" lon="4.6424">
        <ele>580.423889</ele>
        <time>2016-10-02T08:04:26Z</time>
      </trkpt>
      <trkpt lat="45.76386" lon="4.64238">
        <ele>580.904663</ele>
        <time>2016-10-02T08:04:28Z</time>
      </trkpt>
      <trkpt lat="45.76386" lon="4.64236">
        <ele>581.348145</ele>
        <time>2016-10-02T08:04:30Z</time>
      </trkpt>
      <trkpt lat="45.76384" lon="4.64234">
        <ele>581.787231</ele>
        <time>2016-10-02T08:04:32Z</time>
      </trkpt>
      <trkpt lat="45.76383" lon="4.64231">
        <ele>582.314087</ele>
        <time>2016-10-02T08:04:34Z</time>
      </trkpt>
      <trkpt lat="45.76382" lon="4.64229">
        <ele>582.568726</ele>
        <time>2016-10-02T08:04:36Z</time>
      </trkpt>
      <trkpt lat="45.76381" lon="4.64228">
        <ele>583.008911</ele>
        <time>2016-10-02T08:04:38Z</time>
      </trkpt>
      <trkpt lat="45.76379" lon="4.64225">
        <ele>583.452332</ele>
        <time>2016-10-02T08:04:40Z</time>
      </trkpt>
      <trkpt lat="45.76378" lon="4.64223">
        <ele>583.968079</ele>
        <time>2016-10-02T08:04:42Z</time>
      </trkpt>
      <trkpt lat="45.76376" lon="4.6422">
        <ele>584.602478</ele>
        <time>2016-10-02T08:04:44Z</time>
      </trkpt>
      <trkpt lat="45.76375" lon="4.64218">
        <ele>585.122803</ele>
        <time>2016-10-02T08:04:46Z</time>
      </trkpt>
      <trkpt lat="45.76374" lon="4.64215">
        <ele>585.524597</ele>
        <time>2016-10-02T08:04:48Z</time>
      </trkpt>
      <trkpt lat="45.76373" lon="4.64213">
        <ele>586.130676</ele>
        <time>2016-10-02T08:04:50Z</time>
      </trkpt>
      <trkpt lat="45.76373" lon="4.64211">
        <ele>586.673096</ele>
        <time>2016-10-02T08:04:52Z</time>
      </trkpt>
      <trkpt lat="45.76371" lon="4.64208">
        <ele>587.223938</ele>
        <time>2016-10-02T08:04:54Z</time>
      </trkpt>
      <trkpt lat="45.7637" lon="4.64206">
        <ele>587.62146</ele>
        <time>2016-10-02T08:04:56Z</time>
      </trkpt>
      <trkpt lat="45.76368" lon="4.64203">
        <ele>588.194519</ele>
        <time>2016-10-02T08:04:58Z</time>
      </trkpt>
      <trkpt lat="45.76367" lon="4.64199">
        <ele>588.820435</ele>
        <time>2016-10-02T08:05:00Z</time>
      </trkpt>
      <trkpt lat="45.76366" lon="4.64196">
        <ele>588.974121</ele>
        <time>2016-10-02T08:05:02Z</time>
      </trkpt>
      <trkpt lat="45.76364" lon="4.64193">
        <ele>589.393433</ele>
        <time>2016-10-02T08:05:04Z</time>
      </trkpt>
      <trkpt lat="45.76362" lon="4.64189">
        <ele>589.673401</ele>
        <time>2016-10-02T08:05:06Z</time>
      </trkpt>
      <trkpt lat="45.76361" lon="4.64186">
        <ele>589.985107</ele>
        <time>2016-10-02T08:05:08Z</time>
      </trkpt>
      <trkpt lat="45.7636" lon="4.64182">
        <ele>590.247498</ele>
        <time>2016-10-02T08:05:10Z</time>
      </trkpt>
      <trkpt lat="45.76358" lon="4.64176">
        <ele>590.49939</ele>
        <time>2016-10-02T08:05:13Z</time>
      </trkpt>
      <trkpt lat="45.76355" lon="4.6417">
        <ele>590.909119</ele>
        <time>2016-10-02T08:05:17Z</time>
      </trkpt>
      <trkpt lat="45.76353" lon="4.64166">
        <ele>591.259827</ele>
        <time>2016-10-02T08:05:19Z</time>
      </trkpt>
      <trkpt lat="45.76351" lon="4.64162">
        <ele>591.597046</ele>
        <time>2016-10-02T08:05:21Z</time>
      </trkpt>
      <trkpt lat="45.7635" lon="4.64158">
        <ele>591.847107</ele>
        <time>2016-10-02T08:05:23Z</time>
      </trkpt>
      <trkpt lat="45.76347" lon="4.64149">
        <ele>594.891968</ele>
        <time>2016-10-02T08:06:36Z</time>
      </trkpt>
      <trkpt lat="45.76348" lon="4.64146">
        <ele>595.078735</ele>
        <time>2016-10-02T08:06:38Z</time>
      </trkpt>
      <trkpt lat="45.76349" lon="4.64136">
        <ele>595.294189</ele>
        <time>2016-10-02T08:06:40Z</time>
      </trkpt>
      <trkpt lat="45.7635" lon="4.64134">
        <ele>595.390869</ele>
        <time>2016-10-02T08:06:42Z</time>
      </trkpt>
      <trkpt lat="45.7635" lon="4.64132">
        <ele>595.544739</ele>
        <time>2016-10-02T08:06:44Z</time>
      </trkpt>
      <trkpt lat="45.76349" lon="4.64128">
        <ele>595.851685</ele>
        <time>2016-10-02T08:06:48Z</time>
      </trkpt>
      <trkpt lat="45.7635" lon="4.64126">
        <ele>596.019836</ele>
        <time>2016-10-02T08:06:50Z</time>
      </trkpt>
      <trkpt lat="45.7635" lon="4.64119">
        <ele>599.134766</ele>
        <time>2016-10-02T08:07:19Z</time>
      </trkpt>
      <trkpt lat="45.76349" lon="4.64111">
        <ele>599.272827</ele>
        <time>2016-10-02T08:07:21Z</time>
      </trkpt>
      <trkpt lat="45.76348" lon="4.64108">
        <ele>599.431213</ele>
        <time>2016-10-02T08:07:23Z</time>
      </trkpt>
      <trkpt lat="45.76347" lon="4.64104">
        <ele>599.739075</ele>
        <time>2016-10-02T08:07:25Z</time>
      </trkpt>
      <trkpt lat="45.76347" lon="4.641">
        <ele>599.901794</ele>
        <time>2016-10-02T08:07:27Z</time>
      </trkpt>
      <trkpt lat="45.76346" lon="4.64097">
        <ele>600.073364</ele>
        <time>2016-10-02T08:07:29Z</time>
      </trkpt>
      <trkpt lat="45.76345" lon="4.64094">
        <ele>600.276733</ele>
        <time>2016-10-02T08:07:31Z</time>
      </trkpt>
      <trkpt lat="45.76345" lon="4.6409">
        <ele>600.523071</ele>
        <time>2016-10-02T08:07:33Z</time>
      </trkpt>
      <trkpt lat="45.76345" lon="4.64086">
        <ele>600.716675</ele>
        <time>2016-10-02T08:07:35Z</time>
      </trkpt>
      <trkpt lat="45.76344" lon="4.64083">
        <ele>600.95813</ele>
        <time>2016-10-02T08:07:37Z</time>
      </trkpt>
      <trkpt lat="45.76344" lon="4.6408">
        <ele>601.114319</ele>
        <time>2016-10-02T08:07:39Z</time>
      </trkpt>
      <trkpt lat="45.76343" lon="4.64076">
        <ele>601.349182</ele>
        <time>2016-10-02T08:07:41Z</time>
      </trkpt>
      <trkpt lat="45.76342" lon="4.64073">
        <ele>601.529541</ele>
        <time>2016-10-02T08:07:43Z</time>
      </trkpt>
      <trkpt lat="45.76342" lon="4.6407">
        <ele>601.790405</ele>
        <time>2016-10-02T08:07:45Z</time>
      </trkpt>
      <trkpt lat="45.76341" lon="4.64066">
        <ele>602.045593</ele>
        <time>2016-10-02T08:07:47Z</time>
      </trkpt>
      <trkpt lat="45.76339" lon="4.64063">
        <ele>602.428345</ele>
        <time>2016-10-02T08:07:49Z</time>
      </trkpt>
      <trkpt lat="45.76338" lon="4.64059">
        <ele>602.811157</ele>
        <time>2016-10-02T08:07:51Z</time>
      </trkpt>
      <trkpt lat="45.76337" lon="4.64056">
        <ele>603.178101</ele>
        <time>2016-10-02T08:07:53Z</time>
      </trkpt>
      <trkpt lat="45.76337" lon="4.64052">
        <ele>603.622437</ele>
        <time>2016-10-02T08:07:55Z</time>
      </trkpt>
      <trkpt lat="45.76337" lon="4.64049">
        <ele>604.09314</ele>
        <time>2016-10-02T08:07:57Z</time>
      </trkpt>
      <trkpt lat="45.76336" lon="4.64046">
        <ele>604.524353</ele>
        <time>2016-10-02T08:07:59Z</time>
      </trkpt>
      <trkpt lat="45.76335" lon="4.64042">
        <ele>605.024414</ele>
        <time>2016-10-02T08:08:01Z</time>
      </trkpt>
      <trkpt lat="45.76334" lon="4.64038">
        <ele>605.506226</ele>
        <time>2016-10-02T08:08:03Z</time>
      </trkpt>
      <trkpt lat="45.76333" lon="4.64033">
        <ele>605.726257</ele>
        <time>2016-10-02T08:08:05Z</time>
      </trkpt>
      <trkpt lat="45.76332" lon="4.6403">
        <ele>605.99054</ele>
        <time>2016-10-02T08:08:07Z</time>
      </trkpt>
      <trkpt lat="45.76332" lon="4.64027">
        <ele>606.487793</ele>
        <time>2016-10-02T08:08:09Z</time>
      </trkpt>
      <trkpt lat="45.76331" lon="4.64023">
        <ele>606.881653</ele>
        <time>2016-10-02T08:08:11Z</time>
      </trkpt>
      <trkpt lat="45.7633" lon="4.64019">
        <ele>607.392151</ele>
        <time>2016-10-02T08:08:13Z</time>
      </trkpt>
      <trkpt lat="45.76329" lon="4.64016">
        <ele>607.752991</ele>
        <time>2016-10-02T08:08:15Z</time>
      </trkpt>
      <trkpt lat="45.76328" lon="4.64013">
        <ele>608.199646</ele>
        <time>2016-10-02T08:08:17Z</time>
      </trkpt>
      <trkpt lat="45.76327" lon="4.6401">
        <ele>608.481323</ele>
        <time>2016-10-02T08:08:19Z</time>
      </trkpt>
      <trkpt lat="45.76326" lon="4.64007">
        <ele>608.852722</ele>
        <time>2016-10-02T08:08:21Z</time>
      </trkpt>
      <trkpt lat="45.76325" lon="4.64005">
        <ele>609.438171</ele>
        <time>2016-10-02T08:08:23Z</time>
      </trkpt>
      <trkpt lat="45.76325" lon="4.64002">
        <ele>609.921509</ele>
        <time>2016-10-02T08:08:25Z</time>
      </trkpt>
      <trkpt lat="45.76324" lon="4.63999">
        <ele>610.482788</ele>
        <time>2016-10-02T08:08:27Z</time>
      </trkpt>
      <trkpt lat="45.76323" lon="4.63997">
        <ele>610.724976</ele>
        <time>2016-10-02T08:08:29Z</time>
      </trkpt>
      <trkpt lat="45.76323" lon="4.63992">
        <ele>611.201355</ele>
        <time>2016-10-02T08:08:31Z</time>
      </trkpt>
      <trkpt lat="45.76322" lon="4.6399">
        <ele>611.670288</ele>
        <time>2016-10-02T08:08:33Z</time>
      </trkpt>
      <trkpt lat="45.76322" lon="4.63986">
        <ele>612.238708</ele>
        <time>2016-10-02T08:08:35Z</time>
      </trkpt>
      <trkpt lat="45.76322" lon="4.63983">
        <ele>612.762756</ele>
        <time>2016-10-02T08:08:37Z</time>
      </trkpt>
      <trkpt lat="45.76322" lon="4.63981">
        <ele>613.261902</ele>
        <time>2016-10-02T08:08:39Z</time>
      </trkpt>
      <trkpt lat="45.76321" lon="4.63978">
        <ele>613.742737</ele>
        <time>2016-10-02T08:08:41Z</time>
      </trkpt>
      <trkpt lat="45.76321" lon="4.63975">
        <ele>614.174316</ele>
        <time>2016-10-02T08:08:43Z</time>
      </trkpt>
      <trkpt lat="45.76321" lon="4.63972">
        <ele>614.674194</ele>
        <time>2016-10-02T08:08:45Z</time>
      </trkpt>
      <trkpt lat="45.7632" lon="4.63969">
        <ele>615.22229</ele>
        <time>2016-10-02T08:08:47Z</time>
      </trkpt>
      <trkpt lat="45.7632" lon="4.63966">
        <ele>615.788269</ele>
        <time>2016-10-02T08:08:49Z</time>
      </trkpt>
      <trkpt lat="45.7632" lon="4.63964">
        <ele>616.308105</ele>
        <time>2016-10-02T08:08:51Z</time>
      </trkpt>
      <trkpt lat="45.7632" lon="4.63961">
        <ele>616.916077</ele>
        <time>2016-10-02T08:08:53Z</time>
      </trkpt>
      <trkpt lat="45.76319" lon="4.63959">
        <ele>617.167175</ele>
        <time>2016-10-02T08:08:55Z</time>
      </trkpt>
      <trkpt lat="45.76319" lon="4.63956">
        <ele>617.763855</ele>
        <time>2016-10-02T08:08:57Z</time>
      </trkpt>
      <trkpt lat="45.76319" lon="4.63953">
        <ele>618.312378</ele>
        <time>2016-10-02T08:08:59Z</time>
      </trkpt>
      <trkpt lat="45.76319" lon="4.63949">
        <ele>618.973083</ele>
        <time>2016-10-02T08:09:01Z</time>
      </trkpt>
      <trkpt lat="45.76319" lon="4.63946">
        <ele>619.553406</ele>
        <time>2016-10-02T08:09:03Z</time>
      </trkpt>
      <trkpt lat="45.76319" lon="4.63944">
        <ele>620.03595</ele>
        <time>2016-10-02T08:09:05Z</time>
      </trkpt>
      <trkpt lat="45.76319" lon="4.63941">
        <ele>620.565552</ele>
        <time>2016-10-02T08:09:07Z</time>
      </trkpt>
      <trkpt lat="45.76318" lon="4.63938">
        <ele>621.085571</ele>
        <time>2016-10-02T08:09:09Z</time>
      </trkpt>
      <trkpt lat="45.76318" lon="4.63935">
        <ele>621.686218</ele>
        <time>2016-10-02T08:09:11Z</time>
      </trkpt>
      <trkpt lat="45.76318" lon="4.63933">
        <ele>622.10498</ele>
        <time>2016-10-02T08:09:13Z</time>
      </trkpt>
      <trkpt lat="45.76318" lon="4.6393">
        <ele>622.638245</ele>
        <time>2016-10-02T08:09:15Z</time>
      </trkpt>
      <trkpt lat="45.76318" lon="4.63928">
        <ele>622.885071</ele>
        <time>2016-10-02T08:09:17Z</time>
      </trkpt>
      <trkpt lat="45.76318" lon="4.63925">
        <ele>623.287537</ele>
        <time>2016-10-02T08:09:19Z</time>
      </trkpt>
      <trkpt lat="45.76318" lon="4.63923">
        <ele>623.723755</ele>
        <time>2016-10-02T08:09:21Z</time>
      </trkpt>
      <trkpt lat="45.76317" lon="4.63918">
        <ele>624.678894</ele>
        <time>2016-10-02T08:09:25Z</time>
      </trkpt>
      <trkpt lat="45.76317" lon="4.63915">
        <ele>625.083984</ele>
        <time>2016-10-02T08:09:27Z</time>
      </trkpt>
      <trkpt lat="45.76317" lon="4.63913">
        <ele>625.515991</ele>
        <time>2016-10-02T08:09:29Z</time>
      </trkpt>
      <trkpt lat="45.76317" lon="4.6391">
        <ele>625.924438</ele>
        <time>2016-10-02T08:09:31Z</time>
      </trkpt>
      <trkpt lat="45.76316" lon="4.63906">
        <ele>626.702576</ele>
        <time>2016-10-02T08:09:35Z</time>
      </trkpt>
      <trkpt lat="45.76315" lon="4.63903">
        <ele>627.183472</ele>
        <time>2016-10-02T08:09:37Z</time>
      </trkpt>
      <trkpt lat="45.76315" lon="4.639">
        <ele>627.538452</ele>
        <time>2016-10-02T08:09:39Z</time>
      </trkpt>
      <trkpt lat="45.76314" lon="4.63898">
        <ele>627.873535</ele>
        <time>2016-10-02T08:09:41Z</time>
      </trkpt>
      <trkpt lat="45.76313" lon="4.63895">
        <ele>628.116089</ele>
        <time>2016-10-02T08:09:43Z</time>
      </trkpt>
      <trkpt lat="45.76313" lon="4.63892">
        <ele>628.506714</ele>
        <time>2016-10-02T08:09:45Z</time>
      </trkpt>
      <trkpt lat="45.76312" lon="4.63889">
        <ele>628.894775</ele>
        <time>2016-10-02T08:09:47Z</time>
      </trkpt>
      <trkpt lat="45.76311" lon="4.63886">
        <ele>629.267517</ele>
        <time>2016-10-02T08:09:49Z</time>
      </trkpt>
      <trkpt lat="45.76309" lon="4.63883">
        <ele>629.642456</ele>
        <time>2016-10-02T08:09:51Z</time>
      </trkpt>
      <trkpt lat="45.76308" lon="4.63881">
        <ele>630.001038</ele>
        <time>2016-10-02T08:09:53Z</time>
      </trkpt>
      <trkpt lat="45.76307" lon="4.63879">
        <ele>630.373779</ele>
        <time>2016-10-02T08:09:55Z</time>
      </trkpt>
      <trkpt lat="45.76305" lon="4.63875">
        <ele>631.122925</ele>
        <time>2016-10-02T08:09:59Z</time>
      </trkpt>
      <trkpt lat="45.76298" lon="4.63861">
        <ele>631.604553</ele>
        <time>2016-10-02T08:10:01Z</time>
      </trkpt>
      <trkpt lat="45.76296" lon="4.6386">
        <ele>632.041382</ele>
        <time>2016-10-02T08:10:03Z</time>
      </trkpt>
      <trkpt lat="45.76294" lon="4.63857">
        <ele>632.235413</ele>
        <time>2016-10-02T08:10:05Z</time>
      </trkpt>
      <trkpt lat="45.76293" lon="4.63855">
        <ele>632.638062</ele>
        <time>2016-10-02T08:10:07Z</time>
      </trkpt>
      <trkpt lat="45.76292" lon="4.63853">
        <ele>633.106323</ele>
        <time>2016-10-02T08:10:09Z</time>
      </trkpt>
      <trkpt lat="45.76291" lon="4.63851">
        <ele>633.598267</ele>
        <time>2016-10-02T08:10:11Z</time>
      </trkpt>
      <trkpt lat="45.76289" lon="4.63848">
        <ele>634.080933</ele>
        <time>2016-10-02T08:10:13Z</time>
      </trkpt>
      <trkpt lat="45.76288" lon="4.63845">
        <ele>634.506714</ele>
        <time>2016-10-02T08:10:15Z</time>
      </trkpt>
      <trkpt lat="45.76286" lon="4.63843">
        <ele>634.97229</ele>
        <time>2016-10-02T08:10:17Z</time>
      </trkpt>
      <trkpt lat="45.76284" lon="4.63841">
        <ele>635.35144</ele>
        <time>2016-10-02T08:10:19Z</time>
      </trkpt>
      <trkpt lat="45.76283" lon="4.63839">
        <ele>635.863403</ele>
        <time>2016-10-02T08:10:21Z</time>
      </trkpt>
      <trkpt lat="45.76281" lon="4.63837">
        <ele>636.348877</ele>
        <time>2016-10-02T08:10:23Z</time>
      </trkpt>
      <trkpt lat="45.76279" lon="4.63834">
        <ele>636.837524</ele>
        <time>2016-10-02T08:10:25Z</time>
      </trkpt>
      <trkpt lat="45.76278" lon="4.63831">
        <ele>637.230286</ele>
        <time>2016-10-02T08:10:27Z</time>
      </trkpt>
      <trkpt lat="45.76277" lon="4.63828">
        <ele>637.9198</ele>
        <time>2016-10-02T08:10:31Z</time>
      </trkpt>
      <trkpt lat="45.76275" lon="4.63826">
        <ele>638.344604</ele>
        <time>2016-10-02T08:10:33Z</time>
      </trkpt>
      <trkpt lat="45.76274" lon="4.63823">
        <ele>639.182007</ele>
        <time>2016-10-02T08:10:37Z</time>
      </trkpt>
      <trkpt lat="45.76271" lon="4.6382">
        <ele>640.007141</ele>
        <time>2016-10-02T08:10:41Z</time>
      </trkpt>
      <trkpt lat="45.7627" lon="4.63818">
        <ele>640.34259</ele>
        <time>2016-10-02T08:10:43Z</time>
      </trkpt>
      <trkpt lat="45.76268" lon="4.63816">
        <ele>640.696106</ele>
        <time>2016-10-02T08:10:45Z</time>
      </trkpt>
      <trkpt lat="45.76266" lon="4.63813">
        <ele>641.514465</ele>
        <time>2016-10-02T08:10:49Z</time>
      </trkpt>
      <trkpt lat="45.76265" lon="4.6381">
        <ele>641.808105</ele>
        <time>2016-10-02T08:10:51Z</time>
      </trkpt>
      <trkpt lat="45.76265" lon="4.63808">
        <ele>641.998047</ele>
        <time>2016-10-02T08:10:53Z</time>
      </trkpt>
      <trkpt lat="45.76263" lon="4.63805">
        <ele>642.71582</ele>
        <time>2016-10-02T08:10:57Z</time>
      </trkpt>
      <trkpt lat="45.76262" lon="4.63802">
        <ele>643.075806</ele>
        <time>2016-10-02T08:10:59Z</time>
      </trkpt>
      <trkpt lat="45.76259" lon="4.63798">
        <ele>643.460449</ele>
        <time>2016-10-02T08:11:01Z</time>
      </trkpt>
      <trkpt lat="45.76255" lon="4.63791">
        <ele>643.792786</ele>
        <time>2016-10-02T08:11:03Z</time>
      </trkpt>
      <trkpt lat="45.76254" lon="4.63788">
        <ele>644.236694</ele>
        <time>2016-10-02T08:11:05Z</time>
      </trkpt>
      <trkpt lat="45.76253" lon="4.63785">
        <ele>644.550293</ele>
        <time>2016-10-02T08:11:07Z</time>
      </trkpt>
      <trkpt lat="45.76252" lon="4.63781">
        <ele>644.967712</ele>
        <time>2016-10-02T08:11:09Z</time>
      </trkpt>
      <trkpt lat="45.76252" lon="4.63778">
        <ele>645.362793</ele>
        <time>2016-10-02T08:11:11Z</time>
      </trkpt>
      <trkpt lat="45.76251" lon="4.63775">
        <ele>645.708496</ele>
        <time>2016-10-02T08:11:13Z</time>
      </trkpt>
      <trkpt lat="45.76251" lon="4.63773">
        <ele>646.07074</ele>
        <time>2016-10-02T08:11:15Z</time>
      </trkpt>
      <trkpt lat="45.7625" lon="4.63769">
        <ele>646.486023</ele>
        <time>2016-10-02T08:11:17Z</time>
      </trkpt>
      <trkpt lat="45.76248" lon="4.63765">
        <ele>646.764343</ele>
        <time>2016-10-02T08:11:19Z</time>
      </trkpt>
      <trkpt lat="45.76247" lon="4.63762">
        <ele>646.941223</ele>
        <time>2016-10-02T08:11:21Z</time>
      </trkpt>
      <trkpt lat="45.76247" lon="4.63759">
        <ele>647.313354</ele>
        <time>2016-10-02T08:11:23Z</time>
      </trkpt>
      <trkpt lat="45.76248" lon="4.63756">
        <ele>647.673462</ele>
        <time>2016-10-02T08:11:25Z</time>
      </trkpt>
      <trkpt lat="45.76247" lon="4.63753">
        <ele>648.00238</ele>
        <time>2016-10-02T08:11:27Z</time>
      </trkpt>
      <trkpt lat="45.76247" lon="4.6375">
        <ele>648.365906</ele>
        <time>2016-10-02T08:11:29Z</time>
      </trkpt>
      <trkpt lat="45.76246" lon="4.63746">
        <ele>648.681824</ele>
        <time>2016-10-02T08:11:31Z</time>
      </trkpt>
      <trkpt lat="45.76246" lon="4.63743">
        <ele>649.004395</ele>
        <time>2016-10-02T08:11:33Z</time>
      </trkpt>
      <trkpt lat="45.76246" lon="4.6374">
        <ele>649.302368</ele>
        <time>2016-10-02T08:11:35Z</time>
      </trkpt>
      <trkpt lat="45.76245" lon="4.63735">
        <ele>649.870239</ele>
        <time>2016-10-02T08:11:39Z</time>
      </trkpt>
      <trkpt lat="45.76244" lon="4.63731">
        <ele>650.179565</ele>
        <time>2016-10-02T08:11:41Z</time>
      </trkpt>
      <trkpt lat="45.76244" lon="4.63728">
        <ele>650.36969</ele>
        <time>2016-10-02T08:11:43Z</time>
      </trkpt>
      <trkpt lat="45.76243" lon="4.63724">
        <ele>650.656128</ele>
        <time>2016-10-02T08:11:45Z</time>
      </trkpt>
      <trkpt lat="45.76242" lon="4.63721">
        <ele>650.846313</ele>
        <time>2016-10-02T08:11:47Z</time>
      </trkpt>
      <trkpt lat="45.76242" lon="4.63717">
        <ele>651.239746</ele>
        <time>2016-10-02T08:11:49Z</time>
      </trkpt>
      <trkpt lat="45.76242" lon="4.63713">
        <ele>651.560181</ele>
        <time>2016-10-02T08:11:51Z</time>
      </trkpt>
      <trkpt lat="45.76241" lon="4.6371">
        <ele>651.841858</ele>
        <time>2016-10-02T08:11:53Z</time>
      </trkpt>
      <trkpt lat="45.76241" lon="4.63707">
        <ele>652.182251</ele>
        <time>2016-10-02T08:11:55Z</time>
      </trkpt>
      <trkpt lat="45.76241" lon="4.63704">
        <ele>652.524841</ele>
        <time>2016-10-02T08:11:57Z</time>
      </trkpt>
      <trkpt lat="45.7624" lon="4.63701">
        <ele>652.849792</ele>
        <time>2016-10-02T08:11:59Z</time>
      </trkpt>
      <trkpt lat="45.7624" lon="4.63697">
        <ele>653.28302</ele>
        <time>2016-10-02T08:12:01Z</time>
      </trkpt>
      <trkpt lat="45.7624" lon="4.63694">
        <ele>653.690552</ele>
        <time>2016-10-02T08:12:03Z</time>
      </trkpt>
      <trkpt lat="45.7624" lon="4.63691">
        <ele>654.172485</ele>
        <time>2016-10-02T08:12:05Z</time>
      </trkpt>
      <trkpt lat="45.76239" lon="4.63689">
        <ele>654.384766</ele>
        <time>2016-10-02T08:12:07Z</time>
      </trkpt>
      <trkpt lat="45.76239" lon="4.63685">
        <ele>654.810974</ele>
        <time>2016-10-02T08:12:09Z</time>
      </trkpt>
      <trkpt lat="45.76239" lon="4.63681">
        <ele>655.180908</ele>
        <time>2016-10-02T08:12:11Z</time>
      </trkpt>
      <trkpt lat="45.76239" lon="4.63677">
        <ele>655.662903</ele>
        <time>2016-10-02T08:12:13Z</time>
      </trkpt>
      <trkpt lat="45.76239" lon="4.63675">
        <ele>656.18689</ele>
        <time>2016-10-02T08:12:15Z</time>
      </trkpt>
      <trkpt lat="45.76238" lon="4.63671">
        <ele>656.710938</ele>
        <time>2016-10-02T08:12:17Z</time>
      </trkpt>
      <trkpt lat="45.76237" lon="4.63668">
        <ele>657.193359</ele>
        <time>2016-10-02T08:12:19Z</time>
      </trkpt>
      <trkpt lat="45.76237" lon="4.63665">
        <ele>657.721863</ele>
        <time>2016-10-02T08:12:21Z</time>
      </trkpt>
      <trkpt lat="45.76236" lon="4.63662">
        <ele>658.208008</ele>
        <time>2016-10-02T08:12:23Z</time>
      </trkpt>
      <trkpt lat="45.76235" lon="4.63657">
        <ele>658.692017</ele>
        <time>2016-10-02T08:12:25Z</time>
      </trkpt>
      <trkpt lat="45.76235" lon="4.63654">
        <ele>659.20105</ele>
        <time>2016-10-02T08:12:27Z</time>
      </trkpt>
      <trkpt lat="45.76234" lon="4.63651">
        <ele>659.705261</ele>
        <time>2016-10-02T08:12:29Z</time>
      </trkpt>
      <trkpt lat="45.76234" lon="4.63647">
        <ele>660.189636</ele>
        <time>2016-10-02T08:12:31Z</time>
      </trkpt>
      <trkpt lat="45.76234" lon="4.63644">
        <ele>660.410828</ele>
        <time>2016-10-02T08:12:33Z</time>
      </trkpt>
      <trkpt lat="45.76233" lon="4.63634">
        <ele>660.903198</ele>
        <time>2016-10-02T08:12:35Z</time>
      </trkpt>
      <trkpt lat="45.76233" lon="4.63631">
        <ele>661.431396</ele>
        <time>2016-10-02T08:12:37Z</time>
      </trkpt>
      <trkpt lat="45.76232" lon="4.63628">
        <ele>661.905212</ele>
        <time>2016-10-02T08:12:39Z</time>
      </trkpt>
      <trkpt lat="45.76232" lon="4.63625">
        <ele>662.414063</ele>
        <time>2016-10-02T08:12:41Z</time>
      </trkpt>
      <trkpt lat="45.76233" lon="4.63621">
        <ele>662.902466</ele>
        <time>2016-10-02T08:12:43Z</time>
      </trkpt>
      <trkpt lat="45.76233" lon="4.63618">
        <ele>663.347168</ele>
        <time>2016-10-02T08:12:45Z</time>
      </trkpt>
      <trkpt lat="45.76233" lon="4.63615">
        <ele>663.758728</ele>
        <time>2016-10-02T08:12:47Z</time>
      </trkpt>
      <trkpt lat="45.76233" lon="4.63611">
        <ele>664.323425</ele>
        <time>2016-10-02T08:12:49Z</time>
      </trkpt>
      <trkpt lat="45.76233" lon="4.63607">
        <ele>664.82605</ele>
        <time>2016-10-02T08:12:51Z</time>
      </trkpt>
      <trkpt lat="45.76232" lon="4.63604">
        <ele>665.253906</ele>
        <time>2016-10-02T08:12:53Z</time>
      </trkpt>
      <trkpt lat="45.76233" lon="4.636">
        <ele>665.537231</ele>
        <time>2016-10-02T08:12:55Z</time>
      </trkpt>
      <trkpt lat="45.76233" lon="4.63597">
        <ele>665.976135</ele>
        <time>2016-10-02T08:12:57Z</time>
      </trkpt>
      <trkpt lat="45.76233" lon="4.63593">
        <ele>666.420715</ele>
        <time>2016-10-02T08:12:59Z</time>
      </trkpt>
      <trkpt lat="45.76233" lon="4.6359">
        <ele>666.879089</ele>
        <time>2016-10-02T08:13:01Z</time>
      </trkpt>
      <trkpt lat="45.76233" lon="4.63587">
        <ele>667.352844</ele>
        <time>2016-10-02T08:13:03Z</time>
      </trkpt>
      <trkpt lat="45.76231" lon="4.63584">
        <ele>667.83728</ele>
        <time>2016-10-02T08:13:05Z</time>
      </trkpt>
      <trkpt lat="45.76231" lon="4.6358">
        <ele>668.348572</ele>
        <time>2016-10-02T08:13:07Z</time>
      </trkpt>
      <trkpt lat="45.7623" lon="4.63577">
        <ele>668.848328</ele>
        <time>2016-10-02T08:13:09Z</time>
      </trkpt>
      <trkpt lat="45.7623" lon="4.63572">
        <ele>669.308777</ele>
        <time>2016-10-02T08:13:11Z</time>
      </trkpt>
      <trkpt lat="45.76229" lon="4.63566">
        <ele>670.173645</ele>
        <time>2016-10-02T08:13:15Z</time>
      </trkpt>
      <trkpt lat="45.76228" lon="4.63562">
        <ele>670.681152</ele>
        <time>2016-10-02T08:13:17Z</time>
      </trkpt>
      <trkpt lat="45.76227" lon="4.63558">
        <ele>671.019897</ele>
        <time>2016-10-02T08:13:19Z</time>
      </trkpt>
      <trkpt lat="45.76226" lon="4.63554">
        <ele>671.187744</ele>
        <time>2016-10-02T08:13:21Z</time>
      </trkpt>
      <trkpt lat="45.76226" lon="4.6355">
        <ele>671.481873</ele>
        <time>2016-10-02T08:13:23Z</time>
      </trkpt>
      <trkpt lat="45.76226" lon="4.63546">
        <ele>671.821899</ele>
        <time>2016-10-02T08:13:25Z</time>
      </trkpt>
      <trkpt lat="45.76225" lon="4.63542">
        <ele>672.207153</ele>
        <time>2016-10-02T08:13:27Z</time>
      </trkpt>
      <trkpt lat="45.76225" lon="4.63538">
        <ele>672.539307</ele>
        <time>2016-10-02T08:13:29Z</time>
      </trkpt>
      <trkpt lat="45.76223" lon="4.63535">
        <ele>672.825012</ele>
        <time>2016-10-02T08:13:31Z</time>
      </trkpt>
      <trkpt lat="45.76222" lon="4.63532">
        <ele>673.085266</ele>
        <time>2016-10-02T08:13:33Z</time>
      </trkpt>
      <trkpt lat="45.76222" lon="4.63528">
        <ele>673.427368</ele>
        <time>2016-10-02T08:13:35Z</time>
      </trkpt>
      <trkpt lat="45.76221" lon="4.63525">
        <ele>673.696899</ele>
        <time>2016-10-02T08:13:37Z</time>
      </trkpt>
      <trkpt lat="45.7622" lon="4.63522">
        <ele>673.860962</ele>
        <time>2016-10-02T08:13:39Z</time>
      </trkpt>
      <trkpt lat="45.76219" lon="4.63519">
        <ele>674.009399</ele>
        <time>2016-10-02T08:13:41Z</time>
      </trkpt>
      <trkpt lat="45.76219" lon="4.63516">
        <ele>674.205933</ele>
        <time>2016-10-02T08:13:43Z</time>
      </trkpt>
      <trkpt lat="45.76219" lon="4.63512">
        <ele>674.286743</ele>
        <time>2016-10-02T08:13:45Z</time>
      </trkpt>
      <trkpt lat="45.76219" lon="4.63508">
        <ele>674.482056</ele>
        <time>2016-10-02T08:13:47Z</time>
      </trkpt>
      <trkpt lat="45.76219" lon="4.63504">
        <ele>674.621643</ele>
        <time>2016-10-02T08:13:49Z</time>
      </trkpt>
      <trkpt lat="45.76219" lon="4.635">
        <ele>674.690308</ele>
        <time>2016-10-02T08:13:51Z</time>
      </trkpt>
      <trkpt lat="45.76219" lon="4.63497">
        <ele>674.801147</ele>
        <time>2016-10-02T08:13:53Z</time>
      </trkpt>
      <trkpt lat="45.76218" lon="4.63492">
        <ele>674.940735</ele>
        <time>2016-10-02T08:13:55Z</time>
      </trkpt>
      <trkpt lat="45.76218" lon="4.63488">
        <ele>675.097534</ele>
        <time>2016-10-02T08:13:57Z</time>
      </trkpt>
      <trkpt lat="45.76218" lon="4.63483">
        <ele>675.250366</ele>
        <time>2016-10-02T08:13:59Z</time>
      </trkpt>
      <trkpt lat="45.76218" lon="4.63479">
        <ele>675.401001</ele>
        <time>2016-10-02T08:14:01Z</time>
      </trkpt>
      <trkpt lat="45.76218" lon="4.63474">
        <ele>675.498474</ele>
        <time>2016-10-02T08:14:03Z</time>
      </trkpt>
      <trkpt lat="45.76217" lon="4.6347">
        <ele>675.669434</ele>
        <time>2016-10-02T08:14:05Z</time>
      </trkpt>
      <trkpt lat="45.76217" lon="4.63466">
        <ele>675.823792</ele>
        <time>2016-10-02T08:14:07Z</time>
      </trkpt>
      <trkpt lat="45.76217" lon="4.63461">
        <ele>676.022522</ele>
        <time>2016-10-02T08:14:09Z</time>
      </trkpt>
      <trkpt lat="45.76218" lon="4.63457">
        <ele>676.255127</ele>
        <time>2016-10-02T08:14:11Z</time>
      </trkpt>
      <trkpt lat="45.76218" lon="4.63453">
        <ele>676.40802</ele>
        <time>2016-10-02T08:14:13Z</time>
      </trkpt>
      <trkpt lat="45.76218" lon="4.63448">
        <ele>676.668274</ele>
        <time>2016-10-02T08:14:15Z</time>
      </trkpt>
      <trkpt lat="45.76218" lon="4.63444">
        <ele>676.907837</ele>
        <time>2016-10-02T08:14:17Z</time>
      </trkpt>
      <trkpt lat="45.76218" lon="4.63439">
        <ele>677.036316</ele>
        <time>2016-10-02T08:14:19Z</time>
      </trkpt>
      <trkpt lat="45.76219" lon="4.63434">
        <ele>677.401917</ele>
        <time>2016-10-02T08:14:21Z</time>
      </trkpt>
      <trkpt lat="45.76219" lon="4.6343">
        <ele>677.60791</ele>
        <time>2016-10-02T08:14:23Z</time>
      </trkpt>
      <trkpt lat="45.76219" lon="4.63425">
        <ele>677.799255</ele>
        <time>2016-10-02T08:14:25Z</time>
      </trkpt>
      <trkpt lat="45.76219" lon="4.63421">
        <ele>677.9599</ele>
        <time>2016-10-02T08:14:27Z</time>
      </trkpt>
      <trkpt lat="45.76219" lon="4.63417">
        <ele>678.19043</ele>
        <time>2016-10-02T08:14:29Z</time>
      </trkpt>
      <trkpt lat="45.7622" lon="4.63412">
        <ele>678.509521</ele>
        <time>2016-10-02T08:14:31Z</time>
      </trkpt>
      <trkpt lat="45.76221" lon="4.63408">
        <ele>678.844116</ele>
        <time>2016-10-02T08:14:33Z</time>
      </trkpt>
      <trkpt lat="45.76222" lon="4.63404">
        <ele>679.180847</ele>
        <time>2016-10-02T08:14:35Z</time>
      </trkpt>
      <trkpt lat="45.76223" lon="4.63399">
        <ele>679.59082</ele>
        <time>2016-10-02T08:14:37Z</time>
      </trkpt>
      <trkpt lat="45.76223" lon="4.63395">
        <ele>680.024902</ele>
        <time>2016-10-02T08:14:39Z</time>
      </trkpt>
      <trkpt lat="45.76223" lon="4.63391">
        <ele>680.417358</ele>
        <time>2016-10-02T08:14:41Z</time>
      </trkpt>
      <trkpt lat="45.76223" lon="4.63386">
        <ele>680.846863</ele>
        <time>2016-10-02T08:14:43Z</time>
      </trkpt>
      <trkpt lat="45.76224" lon="4.63382">
        <ele>681.290161</ele>
        <time>2016-10-02T08:14:45Z</time>
      </trkpt>
      <trkpt lat="45.76223" lon="4.63378">
        <ele>681.735657</ele>
        <time>2016-10-02T08:14:47Z</time>
      </trkpt>
      <trkpt lat="45.76224" lon="4.63374">
        <ele>682.275024</ele>
        <time>2016-10-02T08:14:49Z</time>
      </trkpt>
      <trkpt lat="45.76224" lon="4.6337">
        <ele>682.807129</ele>
        <time>2016-10-02T08:14:51Z</time>
      </trkpt>
      <trkpt lat="45.76224" lon="4.63366">
        <ele>683.190613</ele>
        <time>2016-10-02T08:14:53Z</time>
      </trkpt>
      <trkpt lat="45.76224" lon="4.63362">
        <ele>683.614075</ele>
        <time>2016-10-02T08:14:55Z</time>
      </trkpt>
      <trkpt lat="45.76225" lon="4.63357">
        <ele>683.818054</ele>
        <time>2016-10-02T08:14:57Z</time>
      </trkpt>
      <trkpt lat="45.76225" lon="4.63354">
        <ele>684.237915</ele>
        <time>2016-10-02T08:14:59Z</time>
      </trkpt>
      <trkpt lat="45.76225" lon="4.6335">
        <ele>684.794312</ele>
        <time>2016-10-02T08:15:01Z</time>
      </trkpt>
      <trkpt lat="45.76225" lon="4.63346">
        <ele>685.304382</ele>
        <time>2016-10-02T08:15:03Z</time>
      </trkpt>
      <trkpt lat="45.76225" lon="4.63342">
        <ele>685.869751</ele>
        <time>2016-10-02T08:15:05Z</time>
      </trkpt>
      <trkpt lat="45.76225" lon="4.63339">
        <ele>686.466492</ele>
        <time>2016-10-02T08:15:07Z</time>
      </trkpt>
      <trkpt lat="45.76225" lon="4.63335">
        <ele>686.938477</ele>
        <time>2016-10-02T08:15:09Z</time>
      </trkpt>
      <trkpt lat="45.76225" lon="4.6333">
        <ele>687.434753</ele>
        <time>2016-10-02T08:15:11Z</time>
      </trkpt>
      <trkpt lat="45.76225" lon="4.63327">
        <ele>687.951477</ele>
        <time>2016-10-02T08:15:13Z</time>
      </trkpt>
      <trkpt lat="45.76225" lon="4.63324">
        <ele>688.465942</ele>
        <time>2016-10-02T08:15:15Z</time>
      </trkpt>
      <trkpt lat="45.76226" lon="4.63321">
        <ele>688.993774</ele>
        <time>2016-10-02T08:15:17Z</time>
      </trkpt>
      <trkpt lat="45.76227" lon="4.63318">
        <ele>689.40863</ele>
        <time>2016-10-02T08:15:19Z</time>
      </trkpt>
      <trkpt lat="45.76228" lon="4.63316">
        <ele>689.868591</ele>
        <time>2016-10-02T08:15:21Z</time>
      </trkpt>
      <trkpt lat="45.7623" lon="4.63313">
        <ele>690.343689</ele>
        <time>2016-10-02T08:15:23Z</time>
      </trkpt>
      <trkpt lat="45.76231" lon="4.6331">
        <ele>690.541138</ele>
        <time>2016-10-02T08:15:25Z</time>
      </trkpt>
      <trkpt lat="45.76233" lon="4.63306">
        <ele>690.984436</ele>
        <time>2016-10-02T08:15:27Z</time>
      </trkpt>
      <trkpt lat="45.76234" lon="4.63302">
        <ele>691.379333</ele>
        <time>2016-10-02T08:15:29Z</time>
      </trkpt>
      <trkpt lat="45.76236" lon="4.63297">
        <ele>691.693787</ele>
        <time>2016-10-02T08:15:31Z</time>
      </trkpt>
      <trkpt lat="45.76237" lon="4.63293">
        <ele>691.951111</ele>
        <time>2016-10-02T08:15:33Z</time>
      </trkpt>
      <trkpt lat="45.76237" lon="4.63289">
        <ele>692.275024</ele>
        <time>2016-10-02T08:15:35Z</time>
      </trkpt>
      <trkpt lat="45.76236" lon="4.63284">
        <ele>692.612366</ele>
        <time>2016-10-02T08:15:37Z</time>
      </trkpt>
      <trkpt lat="45.76236" lon="4.6328">
        <ele>692.975342</ele>
        <time>2016-10-02T08:15:39Z</time>
      </trkpt>
      <trkpt lat="45.76236" lon="4.63276">
        <ele>693.228271</ele>
        <time>2016-10-02T08:15:41Z</time>
      </trkpt>
      <trkpt lat="45.76236" lon="4.63271">
        <ele>693.472046</ele>
        <time>2016-10-02T08:15:43Z</time>
      </trkpt>
      <trkpt lat="45.76234" lon="4.63267">
        <ele>693.653931</ele>
        <time>2016-10-02T08:15:45Z</time>
      </trkpt>
      <trkpt lat="45.76233" lon="4.63262">
        <ele>693.882507</ele>
        <time>2016-10-02T08:15:47Z</time>
      </trkpt>
      <trkpt lat="45.76232" lon="4.63257">
        <ele>694.105469</ele>
        <time>2016-10-02T08:15:49Z</time>
      </trkpt>
      <trkpt lat="45.76232" lon="4.63252">
        <ele>694.201355</ele>
        <time>2016-10-02T08:15:51Z</time>
      </trkpt>
      <trkpt lat="45.76231" lon="4.63248">
        <ele>694.398315</ele>
        <time>2016-10-02T08:15:53Z</time>
      </trkpt>
      <trkpt lat="45.7623" lon="4.63244">
        <ele>694.606934</ele>
        <time>2016-10-02T08:15:55Z</time>
      </trkpt>
      <trkpt lat="45.7623" lon="4.63239">
        <ele>694.795532</ele>
        <time>2016-10-02T08:15:57Z</time>
      </trkpt>
      <trkpt lat="45.7623" lon="4.63233">
        <ele>694.944214</ele>
        <time>2016-10-02T08:15:59Z</time>
      </trkpt>
      <trkpt lat="45.7623" lon="4.63228">
        <ele>695.095032</ele>
        <time>2016-10-02T08:16:01Z</time>
      </trkpt>
      <trkpt lat="45.7623" lon="4.63221">
        <ele>695.18103</ele>
        <time>2016-10-02T08:16:03Z</time>
      </trkpt>
      <trkpt lat="45.7623" lon="4.63216">
        <ele>695.369751</ele>
        <time>2016-10-02T08:16:05Z</time>
      </trkpt>
      <trkpt lat="45.76229" lon="4.63209">
        <ele>695.501099</ele>
        <time>2016-10-02T08:16:07Z</time>
      </trkpt>
      <trkpt lat="45.76229" lon="4.63203">
        <ele>695.676392</ele>
        <time>2016-10-02T08:16:09Z</time>
      </trkpt>
      <trkpt lat="45.76229" lon="4.63196">
        <ele>695.859009</ele>
        <time>2016-10-02T08:16:11Z</time>
      </trkpt>
      <trkpt lat="45.76229" lon="4.6319">
        <ele>696.107605</ele>
        <time>2016-10-02T08:16:13Z</time>
      </trkpt>
      <trkpt lat="45.7623" lon="4.63184">
        <ele>696.165344</ele>
        <time>2016-10-02T08:16:15Z</time>
      </trkpt>
      <trkpt lat="45.7623" lon="4.63177">
        <ele>696.387207</ele>
        <time>2016-10-02T08:16:17Z</time>
      </trkpt>
      <trkpt lat="45.7623" lon="4.63171">
        <ele>696.646851</ele>
        <time>2016-10-02T08:16:19Z</time>
      </trkpt>
      <trkpt lat="45.76231" lon="4.63164">
        <ele>696.868835</ele>
        <time>2016-10-02T08:16:21Z</time>
      </trkpt>
      <trkpt lat="45.76231" lon="4.63157">
        <ele>697.099731</ele>
        <time>2016-10-02T08:16:23Z</time>
      </trkpt>
      <trkpt lat="45.76231" lon="4.63151">
        <ele>697.421997</ele>
        <time>2016-10-02T08:16:25Z</time>
      </trkpt>
      <trkpt lat="45.76232" lon="4.63144">
        <ele>697.706177</ele>
        <time>2016-10-02T08:16:27Z</time>
      </trkpt>
      <trkpt lat="45.76233" lon="4.63137">
        <ele>697.970886</ele>
        <time>2016-10-02T08:16:29Z</time>
      </trkpt>
      <trkpt lat="45.76234" lon="4.63131">
        <ele>698.283203</ele>
        <time>2016-10-02T08:16:31Z</time>
      </trkpt>
      <trkpt lat="45.76235" lon="4.63124">
        <ele>698.62854</ele>
        <time>2016-10-02T08:16:33Z</time>
      </trkpt>
      <trkpt lat="45.76236" lon="4.63118">
        <ele>698.91272</ele>
        <time>2016-10-02T08:16:35Z</time>
      </trkpt>
      <trkpt lat="45.76238" lon="4.63112">
        <ele>699.148071</ele>
        <time>2016-10-02T08:16:37Z</time>
      </trkpt>
      <trkpt lat="45.76239" lon="4.63106">
        <ele>699.252441</ele>
        <time>2016-10-02T08:16:39Z</time>
      </trkpt>
      <trkpt lat="45.76241" lon="4.63099">
        <ele>699.514465</ele>
        <time>2016-10-02T08:16:41Z</time>
      </trkpt>
      <trkpt lat="45.76242" lon="4.63093">
        <ele>699.777954</ele>
        <time>2016-10-02T08:16:43Z</time>
      </trkpt>
      <trkpt lat="45.76244" lon="4.63086">
        <ele>700.169312</ele>
        <time>2016-10-02T08:16:45Z</time>
      </trkpt>
      <trkpt lat="45.76245" lon="4.63079">
        <ele>700.407593</ele>
        <time>2016-10-02T08:16:47Z</time>
      </trkpt>
      <trkpt lat="45.76246" lon="4.63073">
        <ele>700.685181</ele>
        <time>2016-10-02T08:16:49Z</time>
      </trkpt>
      <trkpt lat="45.76247" lon="4.63066">
        <ele>700.95575</ele>
        <time>2016-10-02T08:16:51Z</time>
      </trkpt>
      <trkpt lat="45.76249" lon="4.63059">
        <ele>701.241272</ele>
        <time>2016-10-02T08:16:53Z</time>
      </trkpt>
      <trkpt lat="45.7625" lon="4.63052">
        <ele>701.509583</ele>
        <time>2016-10-02T08:16:55Z</time>
      </trkpt>
      <trkpt lat="45.76252" lon="4.63046">
        <ele>701.738403</ele>
        <time>2016-10-02T08:16:57Z</time>
      </trkpt>
      <trkpt lat="45.76252" lon="4.63039">
        <ele>702.024841</ele>
        <time>2016-10-02T08:16:59Z</time>
      </trkpt>
      <trkpt lat="45.76254" lon="4.63033">
        <ele>702.369141</ele>
        <time>2016-10-02T08:17:01Z</time>
      </trkpt>
      <trkpt lat="45.76255" lon="4.63026">
        <ele>702.542419</ele>
        <time>2016-10-02T08:17:03Z</time>
      </trkpt>
      <trkpt lat="45.76256" lon="4.63019">
        <ele>702.797668</ele>
        <time>2016-10-02T08:17:05Z</time>
      </trkpt>
      <trkpt lat="45.76257" lon="4.63013">
        <ele>702.959351</ele>
        <time>2016-10-02T08:17:07Z</time>
      </trkpt>
      <trkpt lat="45.76259" lon="4.63006">
        <ele>703.223694</ele>
        <time>2016-10-02T08:17:09Z</time>
      </trkpt>
      <trkpt lat="45.7626" lon="4.63">
        <ele>703.480835</ele>
        <time>2016-10-02T08:17:11Z</time>
      </trkpt>
      <trkpt lat="45.76261" lon="4.62993">
        <ele>703.728088</ele>
        <time>2016-10-02T08:17:13Z</time>
      </trkpt>
      <trkpt lat="45.76262" lon="4.62985">
        <ele>703.956848</ele>
        <time>2016-10-02T08:17:15Z</time>
      </trkpt>
      <trkpt lat="45.76263" lon="4.62979">
        <ele>704.140991</ele>
        <time>2016-10-02T08:17:17Z</time>
      </trkpt>
      <trkpt lat="45.76265" lon="4.62972">
        <ele>704.380615</ele>
        <time>2016-10-02T08:17:19Z</time>
      </trkpt>
      <trkpt lat="45.76267" lon="4.62966">
        <ele>704.780457</ele>
        <time>2016-10-02T08:17:21Z</time>
      </trkpt>
      <trkpt lat="45.76268" lon="4.6296">
        <ele>705.034546</ele>
        <time>2016-10-02T08:17:23Z</time>
      </trkpt>
      <trkpt lat="45.7627" lon="4.62953">
        <ele>705.31012</ele>
        <time>2016-10-02T08:17:25Z</time>
      </trkpt>
      <trkpt lat="45.76271" lon="4.62946">
        <ele>705.505676</ele>
        <time>2016-10-02T08:17:27Z</time>
      </trkpt>
      <trkpt lat="45.76273" lon="4.6294">
        <ele>705.838623</ele>
        <time>2016-10-02T08:17:29Z</time>
      </trkpt>
      <trkpt lat="45.76275" lon="4.62934">
        <ele>706.111755</ele>
        <time>2016-10-02T08:17:31Z</time>
      </trkpt>
      <trkpt lat="45.76277" lon="4.62928">
        <ele>706.465942</ele>
        <time>2016-10-02T08:17:33Z</time>
      </trkpt>
      <trkpt lat="45.76279" lon="4.62923">
        <ele>706.729126</ele>
        <time>2016-10-02T08:17:35Z</time>
      </trkpt>
      <trkpt lat="45.76281" lon="4.62917">
        <ele>707.01825</ele>
        <time>2016-10-02T08:17:37Z</time>
      </trkpt>
      <trkpt lat="45.76283" lon="4.62913">
        <ele>707.340454</ele>
        <time>2016-10-02T08:17:39Z</time>
      </trkpt>
      <trkpt lat="45.76284" lon="4.62911">
        <ele>707.569275</ele>
        <time>2016-10-02T08:17:41Z</time>
      </trkpt>
      <trkpt lat="45.76286" lon="4.62909">
        <ele>707.740356</ele>
        <time>2016-10-02T08:17:43Z</time>
      </trkpt>
      <trkpt lat="45.76288" lon="4.6291">
        <ele>707.947205</ele>
        <time>2016-10-02T08:17:45Z</time>
      </trkpt>
      <trkpt lat="45.76289" lon="4.62911">
        <ele>708.272095</ele>
        <time>2016-10-02T08:17:47Z</time>
      </trkpt>
      <trkpt lat="45.76291" lon="4.62914">
        <ele>708.427612</ele>
        <time>2016-10-02T08:17:49Z</time>
      </trkpt>
      <trkpt lat="45.76292" lon="4.62917">
        <ele>708.650024</ele>
        <time>2016-10-02T08:17:51Z</time>
      </trkpt>
      <trkpt lat="45.76293" lon="4.6292">
        <ele>708.825623</ele>
        <time>2016-10-02T08:17:53Z</time>
      </trkpt>
      <trkpt lat="45.76294" lon="4.62924">
        <ele>709.130127</ele>
        <time>2016-10-02T08:17:55Z</time>
      </trkpt>
      <trkpt lat="45.76295" lon="4.62927">
        <ele>709.365845</ele>
        <time>2016-10-02T08:17:57Z</time>
      </trkpt>
      <trkpt lat="45.76297" lon="4.6293">
        <ele>709.619446</ele>
        <time>2016-10-02T08:17:59Z</time>
      </trkpt>
      <trkpt lat="45.76298" lon="4.62933">
        <ele>709.954468</ele>
        <time>2016-10-02T08:18:01Z</time>
      </trkpt>
      <trkpt lat="45.763" lon="4.62934">
        <ele>710.20343</ele>
        <time>2016-10-02T08:18:03Z</time>
      </trkpt>
      <trkpt lat="45.76304" lon="4.62935">
        <ele>710.525757</ele>
        <time>2016-10-02T08:18:05Z</time>
      </trkpt>
      <trkpt lat="45.76307" lon="4.62937">
        <ele>710.821411</ele>
        <time>2016-10-02T08:18:07Z</time>
      </trkpt>
      <trkpt lat="45.76311" lon="4.6294">
        <ele>710.801392</ele>
        <time>2016-10-02T08:18:09Z</time>
      </trkpt>
      <trkpt lat="45.76314" lon="4.62943">
        <ele>711.067017</ele>
        <time>2016-10-02T08:18:11Z</time>
      </trkpt>
      <trkpt lat="45.76317" lon="4.62946">
        <ele>711.229309</ele>
        <time>2016-10-02T08:18:13Z</time>
      </trkpt>
      <trkpt lat="45.76319" lon="4.62949">
        <ele>711.239868</ele>
        <time>2016-10-02T08:18:15Z</time>
      </trkpt>
      <trkpt lat="45.76321" lon="4.62952">
        <ele>711.520081</ele>
        <time>2016-10-02T08:18:17Z</time>
      </trkpt>
      <trkpt lat="45.76324" lon="4.62954">
        <ele>711.744751</ele>
        <time>2016-10-02T08:18:19Z</time>
      </trkpt>
      <trkpt lat="45.76327" lon="4.62957">
        <ele>712.016296</ele>
        <time>2016-10-02T08:18:21Z</time>
      </trkpt>
      <trkpt lat="45.76329" lon="4.6296">
        <ele>712.289734</ele>
        <time>2016-10-02T08:18:23Z</time>
      </trkpt>
      <trkpt lat="45.76333" lon="4.62962">
        <ele>712.601013</ele>
        <time>2016-10-02T08:18:25Z</time>
      </trkpt>
      <trkpt lat="45.76336" lon="4.62963">
        <ele>712.796692</ele>
        <time>2016-10-02T08:18:27Z</time>
      </trkpt>
      <trkpt lat="45.7634" lon="4.62966">
        <ele>713.028992</ele>
        <time>2016-10-02T08:18:29Z</time>
      </trkpt>
      <trkpt lat="45.76344" lon="4.62968">
        <ele>713.427002</ele>
        <time>2016-10-02T08:18:31Z</time>
      </trkpt>
      <trkpt lat="45.76348" lon="4.62972">
        <ele>713.769287</ele>
        <time>2016-10-02T08:18:33Z</time>
      </trkpt>
      <trkpt lat="45.76352" lon="4.62975">
        <ele>714.149963</ele>
        <time>2016-10-02T08:18:35Z</time>
      </trkpt>
      <trkpt lat="45.76355" lon="4.62978">
        <ele>714.39679</ele>
        <time>2016-10-02T08:18:37Z</time>
      </trkpt>
      <trkpt lat="45.76359" lon="4.62981">
        <ele>714.736633</ele>
        <time>2016-10-02T08:18:39Z</time>
      </trkpt>
      <trkpt lat="45.76362" lon="4.62985">
        <ele>715.081604</ele>
        <time>2016-10-02T08:18:41Z</time>
      </trkpt>
      <trkpt lat="45.76365" lon="4.62988">
        <ele>715.435974</ele>
        <time>2016-10-02T08:18:43Z</time>
      </trkpt>
      <trkpt lat="45.7637" lon="4.62992">
        <ele>715.709534</ele>
        <time>2016-10-02T08:18:45Z</time>
      </trkpt>
      <trkpt lat="45.76374" lon="4.62995">
        <ele>715.816284</ele>
        <time>2016-10-02T08:18:47Z</time>
      </trkpt>
      <trkpt lat="45.76377" lon="4.62998">
        <ele>716.126282</ele>
        <time>2016-10-02T08:18:49Z</time>
      </trkpt>
      <trkpt lat="45.76381" lon="4.63001">
        <ele>716.5578</ele>
        <time>2016-10-02T08:18:51Z</time>
      </trkpt>
      <trkpt lat="45.76385" lon="4.63005">
        <ele>716.820923</ele>
        <time>2016-10-02T08:18:53Z</time>
      </trkpt>
      <trkpt lat="45.76388" lon="4.63009">
        <ele>717.243469</ele>
        <time>2016-10-02T08:18:55Z</time>
      </trkpt>
      <trkpt lat="45.76392" lon="4.63013">
        <ele>717.832825</ele>
        <time>2016-10-02T08:18:57Z</time>
      </trkpt>
      <trkpt lat="45.76395" lon="4.63016">
        <ele>718.077393</ele>
        <time>2016-10-02T08:18:59Z</time>
      </trkpt>
      <trkpt lat="45.76398" lon="4.63019">
        <ele>718.350952</ele>
        <time>2016-10-02T08:19:01Z</time>
      </trkpt>
      <trkpt lat="45.76401" lon="4.63021">
        <ele>718.704224</ele>
        <time>2016-10-02T08:19:03Z</time>
      </trkpt>
      <trkpt lat="45.76405" lon="4.63023">
        <ele>719.05127</ele>
        <time>2016-10-02T08:19:05Z</time>
      </trkpt>
      <trkpt lat="45.76409" lon="4.63027">
        <ele>719.178101</ele>
        <time>2016-10-02T08:19:07Z</time>
      </trkpt>
      <trkpt lat="45.76414" lon="4.63033">
        <ele>719.583557</ele>
        <time>2016-10-02T08:19:09Z</time>
      </trkpt>
      <trkpt lat="45.76419" lon="4.63038">
        <ele>719.80719</ele>
        <time>2016-10-02T08:19:11Z</time>
      </trkpt>
      <trkpt lat="45.76423" lon="4.63041">
        <ele>720.091919</ele>
        <time>2016-10-02T08:19:13Z</time>
      </trkpt>
      <trkpt lat="45.76426" lon="4.63046">
        <ele>720.307739</ele>
        <time>2016-10-02T08:19:15Z</time>
      </trkpt>
      <trkpt lat="45.7643" lon="4.6305">
        <ele>720.490417</ele>
        <time>2016-10-02T08:19:17Z</time>
      </trkpt>
      <trkpt lat="45.76434" lon="4.63052">
        <ele>720.687195</ele>
        <time>2016-10-02T08:19:19Z</time>
      </trkpt>
      <trkpt lat="45.76438" lon="4.63054">
        <ele>720.802368</ele>
        <time>2016-10-02T08:19:21Z</time>
      </trkpt>
      <trkpt lat="45.76444" lon="4.63055">
        <ele>720.9823</ele>
        <time>2016-10-02T08:19:23Z</time>
      </trkpt>
      <trkpt lat="45.7645" lon="4.63056">
        <ele>721.164734</ele>
        <time>2016-10-02T08:19:25Z</time>
      </trkpt>
      <trkpt lat="45.76458" lon="4.63057">
        <ele>721.36499</ele>
        <time>2016-10-02T08:19:27Z</time>
      </trkpt>
      <trkpt lat="45.76468" lon="4.63057">
        <ele>721.275269</ele>
        <time>2016-10-02T08:19:29Z</time>
      </trkpt>
      <trkpt lat="45.76478" lon="4.63059">
        <ele>721.206238</ele>
        <time>2016-10-02T08:19:31Z</time>
      </trkpt>
      <trkpt lat="45.7649" lon="4.6306">
        <ele>720.957092</ele>
        <time>2016-10-02T08:19:33Z</time>
      </trkpt>
      <trkpt lat="45.76502" lon="4.6306">
        <ele>720.96521</ele>
        <time>2016-10-02T08:19:35Z</time>
      </trkpt>
      <trkpt lat="45.76514" lon="4.63059">
        <ele>720.720581</ele>
        <time>2016-10-02T08:19:37Z</time>
      </trkpt>
      <trkpt lat="45.76526" lon="4.63058">
        <ele>720.467896</ele>
        <time>2016-10-02T08:19:39Z</time>
      </trkpt>
      <trkpt lat="45.76537" lon="4.63056">
        <ele>720.389771</ele>
        <time>2016-10-02T08:19:41Z</time>
      </trkpt>
      <trkpt lat="45.76547" lon="4.63055">
        <ele>720.225159</ele>
        <time>2016-10-02T08:19:43Z</time>
      </trkpt>
      <trkpt lat="45.76555" lon="4.63054">
        <ele>720.134888</ele>
        <time>2016-10-02T08:19:45Z</time>
      </trkpt>
      <trkpt lat="45.76563" lon="4.63055">
        <ele>719.8479</ele>
        <time>2016-10-02T08:19:47Z</time>
      </trkpt>
      <trkpt lat="45.7657" lon="4.63052">
        <ele>719.865173</ele>
        <time>2016-10-02T08:19:49Z</time>
      </trkpt>
      <trkpt lat="45.76575" lon="4.63051">
        <ele>719.671509</ele>
        <time>2016-10-02T08:19:51Z</time>
      </trkpt>
      <trkpt lat="45.76579" lon="4.63049">
        <ele>719.707153</ele>
        <time>2016-10-02T08:19:53Z</time>
      </trkpt>
      <trkpt lat="45.76584" lon="4.63047">
        <ele>719.762756</ele>
        <time>2016-10-02T08:19:55Z</time>
      </trkpt>
      <trkpt lat="45.7659" lon="4.63043">
        <ele>719.751892</ele>
        <time>2016-10-02T08:19:57Z</time>
      </trkpt>
      <trkpt lat="45.76597" lon="4.63038">
        <ele>719.724487</ele>
        <time>2016-10-02T08:19:59Z</time>
      </trkpt>
      <trkpt lat="45.76603" lon="4.63034">
        <ele>719.728699</ele>
        <time>2016-10-02T08:20:01Z</time>
      </trkpt>
      <trkpt lat="45.7661" lon="4.63029">
        <ele>719.908936</ele>
        <time>2016-10-02T08:20:03Z</time>
      </trkpt>
      <trkpt lat="45.76616" lon="4.63023">
        <ele>719.975342</ele>
        <time>2016-10-02T08:20:05Z</time>
      </trkpt>
      <trkpt lat="45.76625" lon="4.63018">
        <ele>719.970886</ele>
        <time>2016-10-02T08:20:07Z</time>
      </trkpt>
      <trkpt lat="45.76635" lon="4.63012">
        <ele>719.893066</ele>
        <time>2016-10-02T08:20:09Z</time>
      </trkpt>
      <trkpt lat="45.76645" lon="4.63008">
        <ele>720.162231</ele>
        <time>2016-10-02T08:20:11Z</time>
      </trkpt>
      <trkpt lat="45.76656" lon="4.63007">
        <ele>720.235718</ele>
        <time>2016-10-02T08:20:13Z</time>
      </trkpt>
      <trkpt lat="45.76667" lon="4.63006">
        <ele>720.603577</ele>
        <time>2016-10-02T08:20:15Z</time>
      </trkpt>
      <trkpt lat="45.76675" lon="4.63006">
        <ele>720.781555</ele>
        <time>2016-10-02T08:20:17Z</time>
      </trkpt>
      <trkpt lat="45.76682" lon="4.63012">
        <ele>721.02533</ele>
        <time>2016-10-02T08:20:19Z</time>
      </trkpt>
      <trkpt lat="45.76687" lon="4.63019">
        <ele>721.376831</ele>
        <time>2016-10-02T08:20:21Z</time>
      </trkpt>
      <trkpt lat="45.76691" lon="4.63025">
        <ele>721.72699</ele>
        <time>2016-10-02T08:20:23Z</time>
      </trkpt>
      <trkpt lat="45.76693" lon="4.63029">
        <ele>722.167603</ele>
        <time>2016-10-02T08:20:25Z</time>
      </trkpt>
      <trkpt lat="45.76696" lon="4.63034">
        <ele>722.691895</ele>
        <time>2016-10-02T08:20:27Z</time>
      </trkpt>
      <trkpt lat="45.76699" lon="4.63039">
        <ele>722.985596</ele>
        <time>2016-10-02T08:20:29Z</time>
      </trkpt>
      <trkpt lat="45.76702" lon="4.63043">
        <ele>723.177307</ele>
        <time>2016-10-02T08:20:31Z</time>
      </trkpt>
      <trkpt lat="45.76704" lon="4.63047">
        <ele>723.517822</ele>
        <time>2016-10-02T08:20:33Z</time>
      </trkpt>
      <trkpt lat="45.76707" lon="4.6305">
        <ele>723.692627</ele>
        <time>2016-10-02T08:20:35Z</time>
      </trkpt>
      <trkpt lat="45.76709" lon="4.63053">
        <ele>723.867371</ele>
        <time>2016-10-02T08:20:37Z</time>
      </trkpt>
      <trkpt lat="45.76712" lon="4.63055">
        <ele>724.225159</ele>
        <time>2016-10-02T08:20:39Z</time>
      </trkpt>
      <trkpt lat="45.76715" lon="4.63059">
        <ele>724.57019</ele>
        <time>2016-10-02T08:20:41Z</time>
      </trkpt>
      <trkpt lat="45.76717" lon="4.63063">
        <ele>724.928589</ele>
        <time>2016-10-02T08:20:43Z</time>
      </trkpt>
      <trkpt lat="45.76719" lon="4.63068">
        <ele>725.115845</ele>
        <time>2016-10-02T08:20:45Z</time>
      </trkpt>
      <trkpt lat="45.76721" lon="4.63071">
        <ele>725.445313</ele>
        <time>2016-10-02T08:20:47Z</time>
      </trkpt>
      <trkpt lat="45.76724" lon="4.63074">
        <ele>725.763672</ele>
        <time>2016-10-02T08:20:49Z</time>
      </trkpt>
      <trkpt lat="45.76727" lon="4.63079">
        <ele>726.188782</ele>
        <time>2016-10-02T08:20:51Z</time>
      </trkpt>
      <trkpt lat="45.76732" lon="4.63087">
        <ele>726.384644</ele>
        <time>2016-10-02T08:20:53Z</time>
      </trkpt>
      <trkpt lat="45.76738" lon="4.63094">
        <ele>726.711792</ele>
        <time>2016-10-02T08:20:55Z</time>
      </trkpt>
      <trkpt lat="45.76744" lon="4.63101">
        <ele>726.845398</ele>
        <time>2016-10-02T08:20:57Z</time>
      </trkpt>
      <trkpt lat="45.76751" lon="4.63109">
        <ele>727.197083</ele>
        <time>2016-10-02T08:20:59Z</time>
      </trkpt>
      <trkpt lat="45.76756" lon="4.63117">
        <ele>727.693481</ele>
        <time>2016-10-02T08:21:01Z</time>
      </trkpt>
      <trkpt lat="45.76762" lon="4.63127">
        <ele>728.070007</ele>
        <time>2016-10-02T08:21:03Z</time>
      </trkpt>
      <trkpt lat="45.76768" lon="4.63138">
        <ele>728.151855</ele>
        <time>2016-10-02T08:21:05Z</time>
      </trkpt>
      <trkpt lat="45.76775" lon="4.63146">
        <ele>728.065063</ele>
        <time>2016-10-02T08:21:07Z</time>
      </trkpt>
      <trkpt lat="45.76782" lon="4.63152">
        <ele>728.026184</ele>
        <time>2016-10-02T08:21:09Z</time>
      </trkpt>
      <trkpt lat="45.76791" lon="4.63159">
        <ele>727.547852</ele>
        <time>2016-10-02T08:21:11Z</time>
      </trkpt>
      <trkpt lat="45.76798" lon="4.63169">
        <ele>727.583496</ele>
        <time>2016-10-02T08:21:13Z</time>
      </trkpt>
      <trkpt lat="45.76806" lon="4.63185">
        <ele>727.456665</ele>
        <time>2016-10-02T08:21:15Z</time>
      </trkpt>
      <trkpt lat="45.76816" lon="4.63197">
        <ele>727.447937</ele>
        <time>2016-10-02T08:21:17Z</time>
      </trkpt>
      <trkpt lat="45.7683" lon="4.63203">
        <ele>727.29718</ele>
        <time>2016-10-02T08:21:19Z</time>
      </trkpt>
      <trkpt lat="45.76844" lon="4.63206">
        <ele>727.048157</ele>
        <time>2016-10-02T08:21:21Z</time>
      </trkpt>
      <trkpt lat="45.76864" lon="4.63217">
        <ele>726.667603</ele>
        <time>2016-10-02T08:21:24Z</time>
      </trkpt>
      <trkpt lat="45.76877" lon="4.63227">
        <ele>726.331665</ele>
        <time>2016-10-02T08:21:26Z</time>
      </trkpt>
      <trkpt lat="45.7689" lon="4.63237">
        <ele>726.033386</ele>
        <time>2016-10-02T08:21:28Z</time>
      </trkpt>
      <trkpt lat="45.76903" lon="4.63246">
        <ele>725.819702</ele>
        <time>2016-10-02T08:21:30Z</time>
      </trkpt>
      <trkpt lat="45.76915" lon="4.63249">
        <ele>725.336304</ele>
        <time>2016-10-02T08:21:32Z</time>
      </trkpt>
      <trkpt lat="45.76926" lon="4.63255">
        <ele>724.921021</ele>
        <time>2016-10-02T08:21:34Z</time>
      </trkpt>
      <trkpt lat="45.76936" lon="4.63263">
        <ele>724.28009</ele>
        <time>2016-10-02T08:21:36Z</time>
      </trkpt>
      <trkpt lat="45.76941" lon="4.6327">
        <ele>724.012634</ele>
        <time>2016-10-02T08:21:38Z</time>
      </trkpt>
      <trkpt lat="45.76947" lon="4.63274">
        <ele>723.72998</ele>
        <time>2016-10-02T08:21:40Z</time>
      </trkpt>
      <trkpt lat="45.76949" lon="4.63281">
        <ele>723.440613</ele>
        <time>2016-10-02T08:21:42Z</time>
      </trkpt>
      <trkpt lat="45.76952" lon="4.63288">
        <ele>723.238037</ele>
        <time>2016-10-02T08:21:44Z</time>
      </trkpt>
      <trkpt lat="45.76954" lon="4.63294">
        <ele>722.935181</ele>
        <time>2016-10-02T08:21:46Z</time>
      </trkpt>
      <trkpt lat="45.76957" lon="4.63297">
        <ele>722.819214</ele>
        <time>2016-10-02T08:21:48Z</time>
      </trkpt>
      <trkpt lat="45.76959" lon="4.63301">
        <ele>722.754639</ele>
        <time>2016-10-02T08:21:50Z</time>
      </trkpt>
      <trkpt lat="45.76961" lon="4.63307">
        <ele>722.628601</ele>
        <time>2016-10-02T08:21:52Z</time>
      </trkpt>
      <trkpt lat="45.76963" lon="4.6331">
        <ele>722.653137</ele>
        <time>2016-10-02T08:21:54Z</time>
      </trkpt>
      <trkpt lat="45.76965" lon="4.63312">
        <ele>723.135681</ele>
        <time>2016-10-02T08:21:56Z</time>
      </trkpt>
      <trkpt lat="45.76968" lon="4.63316">
        <ele>723.093384</ele>
        <time>2016-10-02T08:21:58Z</time>
      </trkpt>
      <trkpt lat="45.76971" lon="4.6332">
        <ele>723.156433</ele>
        <time>2016-10-02T08:22:00Z</time>
      </trkpt>
      <trkpt lat="45.76975" lon="4.63324">
        <ele>723.203735</ele>
        <time>2016-10-02T08:22:02Z</time>
      </trkpt>
      <trkpt lat="45.76978" lon="4.63328">
        <ele>723.455322</ele>
        <time>2016-10-02T08:22:04Z</time>
      </trkpt>
      <trkpt lat="45.76981" lon="4.63332">
        <ele>723.775696</ele>
        <time>2016-10-02T08:22:06Z</time>
      </trkpt>
      <trkpt lat="45.76984" lon="4.63337">
        <ele>724.122803</ele>
        <time>2016-10-02T08:22:08Z</time>
      </trkpt>
      <trkpt lat="45.76986" lon="4.63339">
        <ele>724.438843</ele>
        <time>2016-10-02T08:22:10Z</time>
      </trkpt>
      <trkpt lat="45.76988" lon="4.63344">
        <ele>724.806641</ele>
        <time>2016-10-02T08:22:12Z</time>
      </trkpt>
      <trkpt lat="45.76993" lon="4.63349">
        <ele>725.064697</ele>
        <time>2016-10-02T08:22:14Z</time>
      </trkpt>
      <trkpt lat="45.76996" lon="4.63357">
        <ele>725.375793</ele>
        <time>2016-10-02T08:22:16Z</time>
      </trkpt>
      <trkpt lat="45.76997" lon="4.63361">
        <ele>725.954407</ele>
        <time>2016-10-02T08:22:18Z</time>
      </trkpt>
      <trkpt lat="45.76998" lon="4.63364">
        <ele>726.188416</ele>
        <time>2016-10-02T08:22:20Z</time>
      </trkpt>
      <trkpt lat="45.77002" lon="4.63369">
        <ele>726.500122</ele>
        <time>2016-10-02T08:22:22Z</time>
      </trkpt>
      <trkpt lat="45.77006" lon="4.63375">
        <ele>726.845459</ele>
        <time>2016-10-02T08:22:24Z</time>
      </trkpt>
      <trkpt lat="45.7701" lon="4.6338">
        <ele>727.138123</ele>
        <time>2016-10-02T08:22:26Z</time>
      </trkpt>
      <trkpt lat="45.77013" lon="4.63386">
        <ele>727.333862</ele>
        <time>2016-10-02T08:22:28Z</time>
      </trkpt>
      <trkpt lat="45.77015" lon="4.6339">
        <ele>727.732483</ele>
        <time>2016-10-02T08:22:30Z</time>
      </trkpt>
      <trkpt lat="45.77016" lon="4.63395">
        <ele>727.930603</ele>
        <time>2016-10-02T08:22:32Z</time>
      </trkpt>
      <trkpt lat="45.77017" lon="4.63399">
        <ele>728.180054</ele>
        <time>2016-10-02T08:22:34Z</time>
      </trkpt>
      <trkpt lat="45.77018" lon="4.63403">
        <ele>728.556274</ele>
        <time>2016-10-02T08:22:36Z</time>
      </trkpt>
      <trkpt lat="45.7702" lon="4.63408">
        <ele>728.416077</ele>
        <time>2016-10-02T08:22:38Z</time>
      </trkpt>
      <trkpt lat="45.77022" lon="4.63412">
        <ele>728.714417</ele>
        <time>2016-10-02T08:22:40Z</time>
      </trkpt>
      <trkpt lat="45.77025" lon="4.63417">
        <ele>728.872498</ele>
        <time>2016-10-02T08:22:42Z</time>
      </trkpt>
      <trkpt lat="45.7703" lon="4.63425">
        <ele>729.126343</ele>
        <time>2016-10-02T08:22:44Z</time>
      </trkpt>
      <trkpt lat="45.77033" lon="4.63431">
        <ele>729.273315</ele>
        <time>2016-10-02T08:22:46Z</time>
      </trkpt>
      <trkpt lat="45.77036" lon="4.63436">
        <ele>729.599548</ele>
        <time>2016-10-02T08:22:48Z</time>
      </trkpt>
      <trkpt lat="45.77039" lon="4.63438">
        <ele>729.670776</ele>
        <time>2016-10-02T08:22:50Z</time>
      </trkpt>
      <trkpt lat="45.77043" lon="4.63437">
        <ele>729.978149</ele>
        <time>2016-10-02T08:22:52Z</time>
      </trkpt>
      <trkpt lat="45.77049" lon="4.63433">
        <ele>729.987122</ele>
        <time>2016-10-02T08:22:54Z</time>
      </trkpt>
      <trkpt lat="45.77055" lon="4.63428">
        <ele>730.075562</ele>
        <time>2016-10-02T08:22:56Z</time>
      </trkpt>
      <trkpt lat="45.7706" lon="4.63423">
        <ele>729.859558</ele>
        <time>2016-10-02T08:22:58Z</time>
      </trkpt>
      <trkpt lat="45.77065" lon="4.63417">
        <ele>729.358765</ele>
        <time>2016-10-02T08:23:00Z</time>
      </trkpt>
      <trkpt lat="45.7707" lon="4.63414">
        <ele>729.194031</ele>
        <time>2016-10-02T08:23:02Z</time>
      </trkpt>
      <trkpt lat="45.77075" lon="4.63409">
        <ele>728.831238</ele>
        <time>2016-10-02T08:23:04Z</time>
      </trkpt>
      <trkpt lat="45.77077" lon="4.63401">
        <ele>728.418091</ele>
        <time>2016-10-02T08:23:06Z</time>
      </trkpt>
      <trkpt lat="45.77081" lon="4.63394">
        <ele>728.104248</ele>
        <time>2016-10-02T08:23:08Z</time>
      </trkpt>
      <trkpt lat="45.77088" lon="4.63394">
        <ele>727.742798</ele>
        <time>2016-10-02T08:23:10Z</time>
      </trkpt>
      <trkpt lat="45.77099" lon="4.63396">
        <ele>727.052734</ele>
        <time>2016-10-02T08:23:12Z</time>
      </trkpt>
      <trkpt lat="45.77109" lon="4.63396">
        <ele>726.531921</ele>
        <time>2016-10-02T08:23:14Z</time>
      </trkpt>
      <trkpt lat="45.77111" lon="4.63388">
        <ele>725.857544</ele>
        <time>2016-10-02T08:23:16Z</time>
      </trkpt>
      <trkpt lat="45.77107" lon="4.63381">
        <ele>725.249512</ele>
        <time>2016-10-02T08:23:18Z</time>
      </trkpt>
      <trkpt lat="45.77102" lon="4.63374">
        <ele>724.788757</ele>
        <time>2016-10-02T08:23:20Z</time>
      </trkpt>
      <trkpt lat="45.77104" lon="4.63366">
        <ele>724.121094</ele>
        <time>2016-10-02T08:23:22Z</time>
      </trkpt>
      <trkpt lat="45.77108" lon="4.63357">
        <ele>723.270874</ele>
        <time>2016-10-02T08:23:24Z</time>
      </trkpt>
      <trkpt lat="45.77107" lon="4.63349">
        <ele>722.470032</ele>
        <time>2016-10-02T08:23:26Z</time>
      </trkpt>
      <trkpt lat="45.77111" lon="4.63346">
        <ele>721.458618</ele>
        <time>2016-10-02T08:23:28Z</time>
      </trkpt>
      <trkpt lat="45.77119" lon="4.63348">
        <ele>720.590698</ele>
        <time>2016-10-02T08:23:30Z</time>
      </trkpt>
      <trkpt lat="45.77126" lon="4.63346">
        <ele>720.141296</ele>
        <time>2016-10-02T08:23:32Z</time>
      </trkpt>
      <trkpt lat="45.77131" lon="4.63339">
        <ele>719.11731</ele>
        <time>2016-10-02T08:23:34Z</time>
      </trkpt>
      <trkpt lat="45.77138" lon="4.63339">
        <ele>718.400757</ele>
        <time>2016-10-02T08:23:36Z</time>
      </trkpt>
      <trkpt lat="45.77145" lon="4.63338">
        <ele>717.666077</ele>
        <time>2016-10-02T08:23:38Z</time>
      </trkpt>
      <trkpt lat="45.77151" lon="4.63332">
        <ele>717.069702</ele>
        <time>2016-10-02T08:23:40Z</time>
      </trkpt>
      <trkpt lat="45.77159" lon="4.63328">
        <ele>716.765076</ele>
        <time>2016-10-02T08:23:42Z</time>
      </trkpt>
      <trkpt lat="45.77164" lon="4.63322">
        <ele>715.934204</ele>
        <time>2016-10-02T08:23:44Z</time>
      </trkpt>
      <trkpt lat="45.77168" lon="4.63314">
        <ele>715.300537</ele>
        <time>2016-10-02T08:23:46Z</time>
      </trkpt>
      <trkpt lat="45.77168" lon="4.63307">
        <ele>714.697937</ele>
        <time>2016-10-02T08:23:48Z</time>
      </trkpt>
      <trkpt lat="45.77165" lon="4.63301">
        <ele>713.976257</ele>
        <time>2016-10-02T08:23:50Z</time>
      </trkpt>
      <trkpt lat="45.77166" lon="4.63296">
        <ele>713.125122</ele>
        <time>2016-10-02T08:23:52Z</time>
      </trkpt>
      <trkpt lat="45.77171" lon="4.63292">
        <ele>712.27594</ele>
        <time>2016-10-02T08:23:54Z</time>
      </trkpt>
      <trkpt lat="45.77178" lon="4.63284">
        <ele>711.264954</ele>
        <time>2016-10-02T08:23:56Z</time>
      </trkpt>
      <trkpt lat="45.77187" lon="4.63277">
        <ele>711.16272</ele>
        <time>2016-10-02T08:23:58Z</time>
      </trkpt>
      <trkpt lat="45.77194" lon="4.63267">
        <ele>710.121521</ele>
        <time>2016-10-02T08:24:00Z</time>
      </trkpt>
      <trkpt lat="45.77197" lon="4.63255">
        <ele>709.321106</ele>
        <time>2016-10-02T08:24:02Z</time>
      </trkpt>
      <trkpt lat="45.77194" lon="4.63244">
        <ele>708.31897</ele>
        <time>2016-10-02T08:24:04Z</time>
      </trkpt>
      <trkpt lat="45.77194" lon="4.63232">
        <ele>707.567932</ele>
        <time>2016-10-02T08:24:06Z</time>
      </trkpt>
      <trkpt lat="45.77199" lon="4.63226">
        <ele>706.819275</ele>
        <time>2016-10-02T08:24:08Z</time>
      </trkpt>
      <trkpt lat="45.77209" lon="4.63221">
        <ele>706.035095</ele>
        <time>2016-10-02T08:24:10Z</time>
      </trkpt>
      <trkpt lat="45.77218" lon="4.63215">
        <ele>705.193237</ele>
        <time>2016-10-02T08:24:12Z</time>
      </trkpt>
      <trkpt lat="45.77226" lon="4.63211">
        <ele>704.466675</ele>
        <time>2016-10-02T08:24:14Z</time>
      </trkpt>
      <trkpt lat="45.77235" lon="4.63209">
        <ele>703.526855</ele>
        <time>2016-10-02T08:24:16Z</time>
      </trkpt>
      <trkpt lat="45.77243" lon="4.63206">
        <ele>702.481323</ele>
        <time>2016-10-02T08:24:18Z</time>
      </trkpt>
      <trkpt lat="45.77246" lon="4.63203">
        <ele>701.453003</ele>
        <time>2016-10-02T08:24:20Z</time>
      </trkpt>
      <trkpt lat="45.77247" lon="4.63204">
        <ele>698.418762</ele>
        <time>2016-10-02T08:24:26Z</time>
      </trkpt>
      <trkpt lat="45.77249" lon="4.63208">
        <ele>697.957153</ele>
        <time>2016-10-02T08:24:28Z</time>
      </trkpt>
      <trkpt lat="45.7725" lon="4.63211">
        <ele>697.135071</ele>
        <time>2016-10-02T08:24:30Z</time>
      </trkpt>
      <trkpt lat="45.77253" lon="4.6321">
        <ele>696.162598</ele>
        <time>2016-10-02T08:24:32Z</time>
      </trkpt>
      <trkpt lat="45.77257" lon="4.63212">
        <ele>695.765137</ele>
        <time>2016-10-02T08:24:34Z</time>
      </trkpt>
      <trkpt lat="45.77266" lon="4.63219">
        <ele>694.873901</ele>
        <time>2016-10-02T08:24:36Z</time>
      </trkpt>
      <trkpt lat="45.77272" lon="4.63219">
        <ele>694.303589</ele>
        <time>2016-10-02T08:24:38Z</time>
      </trkpt>
      <trkpt lat="45.77279" lon="4.63217">
        <ele>693.137329</ele>
        <time>2016-10-02T08:24:40Z</time>
      </trkpt>
      <trkpt lat="45.77284" lon="4.63215">
        <ele>692.301147</ele>
        <time>2016-10-02T08:24:42Z</time>
      </trkpt>
      <trkpt lat="45.77288" lon="4.63214">
        <ele>691.382813</ele>
        <time>2016-10-02T08:24:44Z</time>
      </trkpt>
      <trkpt lat="45.77298" lon="4.63215">
        <ele>690.313782</ele>
        <time>2016-10-02T08:24:46Z</time>
      </trkpt>
      <trkpt lat="45.77311" lon="4.63215">
        <ele>689.140747</ele>
        <time>2016-10-02T08:24:48Z</time>
      </trkpt>
      <trkpt lat="45.77324" lon="4.63215">
        <ele>688.535461</ele>
        <time>2016-10-02T08:24:50Z</time>
      </trkpt>
      <trkpt lat="45.77336" lon="4.63219">
        <ele>687.479492</ele>
        <time>2016-10-02T08:24:52Z</time>
      </trkpt>
      <trkpt lat="45.77347" lon="4.6322">
        <ele>686.320618</ele>
        <time>2016-10-02T08:24:54Z</time>
      </trkpt>
      <trkpt lat="45.77355" lon="4.63221">
        <ele>684.924622</ele>
        <time>2016-10-02T08:24:56Z</time>
      </trkpt>
      <trkpt lat="45.77362" lon="4.63226">
        <ele>683.569214</ele>
        <time>2016-10-02T08:24:58Z</time>
      </trkpt>
      <trkpt lat="45.77369" lon="4.63231">
        <ele>682.009583</ele>
        <time>2016-10-02T08:25:00Z</time>
      </trkpt>
      <trkpt lat="45.77376" lon="4.63237">
        <ele>680.443359</ele>
        <time>2016-10-02T08:25:02Z</time>
      </trkpt>
      <trkpt lat="45.77381" lon="4.63241">
        <ele>678.959106</ele>
        <time>2016-10-02T08:25:04Z</time>
      </trkpt>
      <trkpt lat="45.77387" lon="4.63243">
        <ele>677.390747</ele>
        <time>2016-10-02T08:25:06Z</time>
      </trkpt>
      <trkpt lat="45.77392" lon="4.63246">
        <ele>675.525879</ele>
        <time>2016-10-02T08:25:08Z</time>
      </trkpt>
      <trkpt lat="45.77396" lon="4.63249">
        <ele>673.646667</ele>
        <time>2016-10-02T08:25:10Z</time>
      </trkpt>
      <trkpt lat="45.77399" lon="4.63251">
        <ele>667.777161</ele>
        <time>2016-10-02T08:25:16Z</time>
      </trkpt>
      <trkpt lat="45.77401" lon="4.63256">
        <ele>660.460083</ele>
        <time>2016-10-02T08:25:26Z</time>
      </trkpt>
      <trkpt lat="45.77401" lon="4.63261">
        <ele>658.101929</ele>
        <time>2016-10-02T08:25:30Z</time>
      </trkpt>
      <trkpt lat="45.774" lon="4.63261">
        <ele>656.910034</ele>
        <time>2016-10-02T08:25:32Z</time>
      </trkpt>
      <trkpt lat="45.774" lon="4.63262">
        <ele>655.926758</ele>
        <time>2016-10-02T08:25:34Z</time>
      </trkpt>
      <trkpt lat="45.77398" lon="4.63264">
        <ele>655.008179</ele>
        <time>2016-10-02T08:25:36Z</time>
      </trkpt>
      <trkpt lat="45.77395" lon="4.63269">
        <ele>653.67395</ele>
        <time>2016-10-02T08:25:42Z</time>
      </trkpt>
      <trkpt lat="45.77393" lon="4.63271">
        <ele>653.380005</ele>
        <time>2016-10-02T08:25:44Z</time>
      </trkpt>
      <trkpt lat="45.77389" lon="4.63272">
        <ele>653.096985</ele>
        <time>2016-10-02T08:25:46Z</time>
      </trkpt>
      <trkpt lat="45.77387" lon="4.63274">
        <ele>653.119507</ele>
        <time>2016-10-02T08:25:48Z</time>
      </trkpt>
      <trkpt lat="45.77383" lon="4.63276">
        <ele>653.18811</ele>
        <time>2016-10-02T08:25:50Z</time>
      </trkpt>
      <trkpt lat="45.77379" lon="4.63278">
        <ele>653.466675</ele>
        <time>2016-10-02T08:25:52Z</time>
      </trkpt>
      <trkpt lat="45.77376" lon="4.63279">
        <ele>653.802856</ele>
        <time>2016-10-02T08:25:54Z</time>
      </trkpt>
      <trkpt lat="45.77372" lon="4.63279">
        <ele>654.167603</ele>
        <time>2016-10-02T08:25:56Z</time>
      </trkpt>
      <trkpt lat="45.77368" lon="4.63279">
        <ele>654.510132</ele>
        <time>2016-10-02T08:25:58Z</time>
      </trkpt>
      <trkpt lat="45.77363" lon="4.63279">
        <ele>654.888123</ele>
        <time>2016-10-02T08:26:00Z</time>
      </trkpt>
      <trkpt lat="45.77359" lon="4.63279">
        <ele>655.067261</ele>
        <time>2016-10-02T08:26:02Z</time>
      </trkpt>
      <trkpt lat="45.77354" lon="4.63281">
        <ele>655.286072</ele>
        <time>2016-10-02T08:26:04Z</time>
      </trkpt>
      <trkpt lat="45.77351" lon="4.63283">
        <ele>655.584534</ele>
        <time>2016-10-02T08:26:06Z</time>
      </trkpt>
      <trkpt lat="45.77349" lon="4.63287">
        <ele>655.878845</ele>
        <time>2016-10-02T08:26:08Z</time>
      </trkpt>
      <trkpt lat="45.77348" lon="4.6329">
        <ele>656.1427</ele>
        <time>2016-10-02T08:26:10Z</time>
      </trkpt>
      <trkpt lat="45.77346" lon="4.63293">
        <ele>656.434021</ele>
        <time>2016-10-02T08:26:12Z</time>
      </trkpt>
      <trkpt lat="45.77345" lon="4.63297">
        <ele>656.738037</ele>
        <time>2016-10-02T08:26:14Z</time>
      </trkpt>
      <trkpt lat="45.77345" lon="4.63301">
        <ele>656.951233</ele>
        <time>2016-10-02T08:26:16Z</time>
      </trkpt>
      <trkpt lat="45.77343" lon="4.63304">
        <ele>657.260559</ele>
        <time>2016-10-02T08:26:18Z</time>
      </trkpt>
      <trkpt lat="45.77342" lon="4.63308">
        <ele>657.556885</ele>
        <time>2016-10-02T08:26:20Z</time>
      </trkpt>
      <trkpt lat="45.77339" lon="4.63312">
        <ele>657.875305</ele>
        <time>2016-10-02T08:26:22Z</time>
      </trkpt>
      <trkpt lat="45.77338" lon="4.63316">
        <ele>658.24585</ele>
        <time>2016-10-02T08:26:24Z</time>
      </trkpt>
      <trkpt lat="45.77337" lon="4.6332">
        <ele>658.577515</ele>
        <time>2016-10-02T08:26:26Z</time>
      </trkpt>
      <trkpt lat="45.77337" lon="4.63326">
        <ele>658.70575</ele>
        <time>2016-10-02T08:26:28Z</time>
      </trkpt>
      <trkpt lat="45.77337" lon="4.63336">
        <ele>658.801392</ele>
        <time>2016-10-02T08:26:30Z</time>
      </trkpt>
      <trkpt lat="45.77339" lon="4.63347">
        <ele>658.40564</ele>
        <time>2016-10-02T08:26:32Z</time>
      </trkpt>
      <trkpt lat="45.7734" lon="4.63358">
        <ele>658.678162</ele>
        <time>2016-10-02T08:26:34Z</time>
      </trkpt>
      <trkpt lat="45.77342" lon="4.63372">
        <ele>658.585083</ele>
        <time>2016-10-02T08:26:36Z</time>
      </trkpt>
      <trkpt lat="45.77348" lon="4.63386">
        <ele>658.629333</ele>
        <time>2016-10-02T08:26:38Z</time>
      </trkpt>
      <trkpt lat="45.77352" lon="4.63403">
        <ele>658.171936</ele>
        <time>2016-10-02T08:26:40Z</time>
      </trkpt>
      <trkpt lat="45.77356" lon="4.63416">
        <ele>657.471375</ele>
        <time>2016-10-02T08:26:42Z</time>
      </trkpt>
      <trkpt lat="45.77361" lon="4.63427">
        <ele>656.194885</ele>
        <time>2016-10-02T08:26:44Z</time>
      </trkpt>
      <trkpt lat="45.77365" lon="4.63439">
        <ele>654.878662</ele>
        <time>2016-10-02T08:26:46Z</time>
      </trkpt>
      <trkpt lat="45.77369" lon="4.63449">
        <ele>653.019897</ele>
        <time>2016-10-02T08:26:48Z</time>
      </trkpt>
      <trkpt lat="45.77375" lon="4.63458">
        <ele>651.749878</ele>
        <time>2016-10-02T08:26:50Z</time>
      </trkpt>
      <trkpt lat="45.77383" lon="4.63471">
        <ele>651.197571</ele>
        <time>2016-10-02T08:26:52Z</time>
      </trkpt>
      <trkpt lat="45.77391" lon="4.63487">
        <ele>649.651611</ele>
        <time>2016-10-02T08:26:54Z</time>
      </trkpt>
      <trkpt lat="45.77401" lon="4.63506">
        <ele>647.705872</ele>
        <time>2016-10-02T08:26:56Z</time>
      </trkpt>
      <trkpt lat="45.77409" lon="4.63526">
        <ele>646.101868</ele>
        <time>2016-10-02T08:26:58Z</time>
      </trkpt>
      <trkpt lat="45.77416" lon="4.63545">
        <ele>644.280334</ele>
        <time>2016-10-02T08:27:00Z</time>
      </trkpt>
      <trkpt lat="45.7742" lon="4.63563">
        <ele>642.619629</ele>
        <time>2016-10-02T08:27:02Z</time>
      </trkpt>
      <trkpt lat="45.77426" lon="4.63583">
        <ele>640.513794</ele>
        <time>2016-10-02T08:27:04Z</time>
      </trkpt>
      <trkpt lat="45.77432" lon="4.63602">
        <ele>638.49231</ele>
        <time>2016-10-02T08:27:06Z</time>
      </trkpt>
      <trkpt lat="45.77438" lon="4.6362">
        <ele>636.564819</ele>
        <time>2016-10-02T08:27:08Z</time>
      </trkpt>
      <trkpt lat="45.77443" lon="4.63633">
        <ele>634.487</ele>
        <time>2016-10-02T08:27:10Z</time>
      </trkpt>
      <trkpt lat="45.7745" lon="4.6364">
        <ele>633.184814</ele>
        <time>2016-10-02T08:27:12Z</time>
      </trkpt>
      <trkpt lat="45.77458" lon="4.63646">
        <ele>631.824158</ele>
        <time>2016-10-02T08:27:14Z</time>
      </trkpt>
      <trkpt lat="45.77467" lon="4.63646">
        <ele>629.4198</ele>
        <time>2016-10-02T08:27:16Z</time>
      </trkpt>
      <trkpt lat="45.77479" lon="4.63652">
        <ele>627.295288</ele>
        <time>2016-10-02T08:27:18Z</time>
      </trkpt>
      <trkpt lat="45.7749" lon="4.63664">
        <ele>625.21582</ele>
        <time>2016-10-02T08:27:20Z</time>
      </trkpt>
      <trkpt lat="45.775" lon="4.63673">
        <ele>623.331177</ele>
        <time>2016-10-02T08:27:22Z</time>
      </trkpt>
      <trkpt lat="45.7751" lon="4.63684">
        <ele>621.336548</ele>
        <time>2016-10-02T08:27:24Z</time>
      </trkpt>
      <trkpt lat="45.77519" lon="4.63699">
        <ele>620.171143</ele>
        <time>2016-10-02T08:27:26Z</time>
      </trkpt>
      <trkpt lat="45.77528" lon="4.63711">
        <ele>618.7901</ele>
        <time>2016-10-02T08:27:28Z</time>
      </trkpt>
      <trkpt lat="45.77538" lon="4.63726">
        <ele>617.841248</ele>
        <time>2016-10-02T08:27:30Z</time>
      </trkpt>
      <trkpt lat="45.77547" lon="4.63743">
        <ele>616.885315</ele>
        <time>2016-10-02T08:27:32Z</time>
      </trkpt>
      <trkpt lat="45.77556" lon="4.6376">
        <ele>615.426392</ele>
        <time>2016-10-02T08:27:34Z</time>
      </trkpt>
      <trkpt lat="45.77564" lon="4.6378">
        <ele>614.572754</ele>
        <time>2016-10-02T08:27:36Z</time>
      </trkpt>
      <trkpt lat="45.7757" lon="4.638">
        <ele>613.63739</ele>
        <time>2016-10-02T08:27:38Z</time>
      </trkpt>
      <trkpt lat="45.77577" lon="4.63818">
        <ele>612.46405</ele>
        <time>2016-10-02T08:27:40Z</time>
      </trkpt>
      <trkpt lat="45.77586" lon="4.63835">
        <ele>611.46582</ele>
        <time>2016-10-02T08:27:42Z</time>
      </trkpt>
      <trkpt lat="45.776" lon="4.63849">
        <ele>609.977417</ele>
        <time>2016-10-02T08:27:44Z</time>
      </trkpt>
      <trkpt lat="45.77613" lon="4.6386">
        <ele>608.795776</ele>
        <time>2016-10-02T08:27:46Z</time>
      </trkpt>
      <trkpt lat="45.77627" lon="4.6387">
        <ele>607.513977</ele>
        <time>2016-10-02T08:27:48Z</time>
      </trkpt>
      <trkpt lat="45.77641" lon="4.63879">
        <ele>606.336243</ele>
        <time>2016-10-02T08:27:50Z</time>
      </trkpt>
      <trkpt lat="45.77653" lon="4.63887">
        <ele>604.722351</ele>
        <time>2016-10-02T08:27:52Z</time>
      </trkpt>
      <trkpt lat="45.77664" lon="4.63893">
        <ele>603.64856</ele>
        <time>2016-10-02T08:27:54Z</time>
      </trkpt>
      <trkpt lat="45.77673" lon="4.63899">
        <ele>603.619934</ele>
        <time>2016-10-02T08:27:56Z</time>
      </trkpt>
      <trkpt lat="45.7768" lon="4.63903">
        <ele>602.904175</ele>
        <time>2016-10-02T08:27:58Z</time>
      </trkpt>
      <trkpt lat="45.77686" lon="4.6391">
        <ele>602.280396</ele>
        <time>2016-10-02T08:28:00Z</time>
      </trkpt>
      <trkpt lat="45.77694" lon="4.63916">
        <ele>601.277405</ele>
        <time>2016-10-02T08:28:02Z</time>
      </trkpt>
      <trkpt lat="45.77703" lon="4.63922">
        <ele>600.684814</ele>
        <time>2016-10-02T08:28:04Z</time>
      </trkpt>
      <trkpt lat="45.77713" lon="4.63925">
        <ele>600.438293</ele>
        <time>2016-10-02T08:28:06Z</time>
      </trkpt>
      <trkpt lat="45.77724" lon="4.63924">
        <ele>599.958618</ele>
        <time>2016-10-02T08:28:08Z</time>
      </trkpt>
      <trkpt lat="45.77734" lon="4.63927">
        <ele>600.011475</ele>
        <time>2016-10-02T08:28:10Z</time>
      </trkpt>
      <trkpt lat="45.77744" lon="4.63934">
        <ele>600.237244</ele>
        <time>2016-10-02T08:28:12Z</time>
      </trkpt>
      <trkpt lat="45.77755" lon="4.63943">
        <ele>599.655212</ele>
        <time>2016-10-02T08:28:14Z</time>
      </trkpt>
      <trkpt lat="45.77765" lon="4.63952">
        <ele>599.718994</ele>
        <time>2016-10-02T08:28:16Z</time>
      </trkpt>
      <trkpt lat="45.77774" lon="4.63959">
        <ele>599.181274</ele>
        <time>2016-10-02T08:28:18Z</time>
      </trkpt>
      <trkpt lat="45.77781" lon="4.63968">
        <ele>598.907898</ele>
        <time>2016-10-02T08:28:20Z</time>
      </trkpt>
      <trkpt lat="45.77786" lon="4.63976">
        <ele>598.553467</ele>
        <time>2016-10-02T08:28:22Z</time>
      </trkpt>
      <trkpt lat="45.7779" lon="4.63979">
        <ele>598.118835</ele>
        <time>2016-10-02T08:28:24Z</time>
      </trkpt>
      <trkpt lat="45.77791" lon="4.63987">
        <ele>598.186829</ele>
        <time>2016-10-02T08:28:30Z</time>
      </trkpt>
      <trkpt lat="45.77788" lon="4.63992">
        <ele>598.10553</ele>
        <time>2016-10-02T08:28:32Z</time>
      </trkpt>
      <trkpt lat="45.77781" lon="4.63996">
        <ele>598.482361</ele>
        <time>2016-10-02T08:28:34Z</time>
      </trkpt>
      <trkpt lat="45.77776" lon="4.64001">
        <ele>598.125488</ele>
        <time>2016-10-02T08:28:36Z</time>
      </trkpt>
      <trkpt lat="45.77774" lon="4.64005">
        <ele>596.132935</ele>
        <time>2016-10-02T08:28:50Z</time>
      </trkpt>
      <trkpt lat="45.77775" lon="4.64007">
        <ele>593.865662</ele>
        <time>2016-10-02T08:31:11Z</time>
      </trkpt>
      <trkpt lat="45.77779" lon="4.64008">
        <ele>593.887817</ele>
        <time>2016-10-02T08:31:13Z</time>
      </trkpt>
      <trkpt lat="45.77784" lon="4.64007">
        <ele>593.907471</ele>
        <time>2016-10-02T08:31:15Z</time>
      </trkpt>
      <trkpt lat="45.77787" lon="4.64006">
        <ele>593.93219</ele>
        <time>2016-10-02T08:31:17Z</time>
      </trkpt>
      <trkpt lat="45.77789" lon="4.64005">
        <ele>594.050842</ele>
        <time>2016-10-02T08:31:19Z</time>
      </trkpt>
      <trkpt lat="45.77791" lon="4.64003">
        <ele>594.158569</ele>
        <time>2016-10-02T08:31:21Z</time>
      </trkpt>
      <trkpt lat="45.77793" lon="4.64002">
        <ele>594.217712</ele>
        <time>2016-10-02T08:31:23Z</time>
      </trkpt>
      <trkpt lat="45.77795" lon="4.64001">
        <ele>594.301392</ele>
        <time>2016-10-02T08:31:25Z</time>
      </trkpt>
      <trkpt lat="45.77797" lon="4.63997">
        <ele>595.140503</ele>
        <time>2016-10-02T08:31:37Z</time>
      </trkpt>
      <trkpt lat="45.77798" lon="4.63994">
        <ele>595.267578</ele>
        <time>2016-10-02T08:31:39Z</time>
      </trkpt>
      <trkpt lat="45.77798" lon="4.63992">
        <ele>595.606079</ele>
        <time>2016-10-02T08:31:43Z</time>
      </trkpt>
      <trkpt lat="45.77799" lon="4.63989">
        <ele>595.658813</ele>
        <time>2016-10-02T08:31:45Z</time>
      </trkpt>
      <trkpt lat="45.778" lon="4.63986">
        <ele>595.825378</ele>
        <time>2016-10-02T08:31:47Z</time>
      </trkpt>
      <trkpt lat="45.77802" lon="4.63983">
        <ele>595.990234</ele>
        <time>2016-10-02T08:31:49Z</time>
      </trkpt>
      <trkpt lat="45.77803" lon="4.6398">
        <ele>596.192383</ele>
        <time>2016-10-02T08:31:51Z</time>
      </trkpt>
      <trkpt lat="45.77805" lon="4.63977">
        <ele>596.282959</ele>
        <time>2016-10-02T08:31:53Z</time>
      </trkpt>
      <trkpt lat="45.77808" lon="4.63974">
        <ele>596.094727</ele>
        <time>2016-10-02T08:31:55Z</time>
      </trkpt>
      <trkpt lat="45.77811" lon="4.63974">
        <ele>596.216797</ele>
        <time>2016-10-02T08:31:57Z</time>
      </trkpt>
      <trkpt lat="45.77814" lon="4.63975">
        <ele>596.343811</ele>
        <time>2016-10-02T08:31:59Z</time>
      </trkpt>
      <trkpt lat="45.77818" lon="4.63974">
        <ele>596.365845</ele>
        <time>2016-10-02T08:32:01Z</time>
      </trkpt>
      <trkpt lat="45.77821" lon="4.63971">
        <ele>596.438354</ele>
        <time>2016-10-02T08:32:03Z</time>
      </trkpt>
      <trkpt lat="45.77825" lon="4.63965">
        <ele>596.638306</ele>
        <time>2016-10-02T08:32:05Z</time>
      </trkpt>
      <trkpt lat="45.77831" lon="4.63962">
        <ele>596.694092</ele>
        <time>2016-10-02T08:32:07Z</time>
      </trkpt>
      <trkpt lat="45.77836" lon="4.63965">
        <ele>596.7547</ele>
        <time>2016-10-02T08:32:09Z</time>
      </trkpt>
      <trkpt lat="45.77841" lon="4.63965">
        <ele>596.868652</ele>
        <time>2016-10-02T08:32:11Z</time>
      </trkpt>
      <trkpt lat="45.77845" lon="4.63965">
        <ele>597.004028</ele>
        <time>2016-10-02T08:32:13Z</time>
      </trkpt>
      <trkpt lat="45.7785" lon="4.63964">
        <ele>597.097168</ele>
        <time>2016-10-02T08:32:15Z</time>
      </trkpt>
      <trkpt lat="45.77853" lon="4.63963">
        <ele>597.130188</ele>
        <time>2016-10-02T08:32:17Z</time>
      </trkpt>
      <trkpt lat="45.77857" lon="4.63964">
        <ele>597.337524</ele>
        <time>2016-10-02T08:32:19Z</time>
      </trkpt>
      <trkpt lat="45.77861" lon="4.63965">
        <ele>597.513428</ele>
        <time>2016-10-02T08:32:21Z</time>
      </trkpt>
      <trkpt lat="45.77865" lon="4.63966">
        <ele>597.610168</ele>
        <time>2016-10-02T08:32:23Z</time>
      </trkpt>
      <trkpt lat="45.77868" lon="4.63968">
        <ele>597.724487</ele>
        <time>2016-10-02T08:32:25Z</time>
      </trkpt>
      <trkpt lat="45.77871" lon="4.63969">
        <ele>597.94519</ele>
        <time>2016-10-02T08:32:27Z</time>
      </trkpt>
      <trkpt lat="45.77875" lon="4.63969">
        <ele>598.181213</ele>
        <time>2016-10-02T08:32:29Z</time>
      </trkpt>
      <trkpt lat="45.77878" lon="4.63969">
        <ele>598.425232</ele>
        <time>2016-10-02T08:32:31Z</time>
      </trkpt>
      <trkpt lat="45.77881" lon="4.6397">
        <ele>598.649536</ele>
        <time>2016-10-02T08:32:33Z</time>
      </trkpt>
      <trkpt lat="45.77883" lon="4.63973">
        <ele>599.051575</ele>
        <time>2016-10-02T08:32:35Z</time>
      </trkpt>
      <trkpt lat="45.77885" lon="4.63975">
        <ele>599.758484</ele>
        <time>2016-10-02T08:32:37Z</time>
      </trkpt>
      <trkpt lat="45.77888" lon="4.63978">
        <ele>600.163147</ele>
        <time>2016-10-02T08:32:39Z</time>
      </trkpt>
      <trkpt lat="45.7789" lon="4.63979">
        <ele>600.554565</ele>
        <time>2016-10-02T08:32:41Z</time>
      </trkpt>
      <trkpt lat="45.77893" lon="4.63981">
        <ele>601.049438</ele>
        <time>2016-10-02T08:32:43Z</time>
      </trkpt>
      <trkpt lat="45.77895" lon="4.63981">
        <ele>601.386963</ele>
        <time>2016-10-02T08:32:45Z</time>
      </trkpt>
      <trkpt lat="45.77898" lon="4.63981">
        <ele>601.778442</ele>
        <time>2016-10-02T08:32:47Z</time>
      </trkpt>
      <trkpt lat="45.77901" lon="4.63981">
        <ele>602.332764</ele>
        <time>2016-10-02T08:32:49Z</time>
      </trkpt>
      <trkpt lat="45.77903" lon="4.63982">
        <ele>602.816772</ele>
        <time>2016-10-02T08:32:51Z</time>
      </trkpt>
      <trkpt lat="45.77906" lon="4.63982">
        <ele>603.078857</ele>
        <time>2016-10-02T08:32:53Z</time>
      </trkpt>
      <trkpt lat="45.77909" lon="4.6398">
        <ele>603.524597</ele>
        <time>2016-10-02T08:32:55Z</time>
      </trkpt>
      <trkpt lat="45.77911" lon="4.63979">
        <ele>604.01062</ele>
        <time>2016-10-02T08:32:57Z</time>
      </trkpt>
      <trkpt lat="45.77915" lon="4.63979">
        <ele>604.545166</ele>
        <time>2016-10-02T08:32:59Z</time>
      </trkpt>
      <trkpt lat="45.77919" lon="4.6398">
        <ele>604.938232</ele>
        <time>2016-10-02T08:33:01Z</time>
      </trkpt>
      <trkpt lat="45.77922" lon="4.63979">
        <ele>605.379944</ele>
        <time>2016-10-02T08:33:03Z</time>
      </trkpt>
      <trkpt lat="45.77925" lon="4.63979">
        <ele>605.793457</ele>
        <time>2016-10-02T08:33:05Z</time>
      </trkpt>
      <trkpt lat="45.77929" lon="4.63977">
        <ele>606.236938</ele>
        <time>2016-10-02T08:33:07Z</time>
      </trkpt>
      <trkpt lat="45.77933" lon="4.63974">
        <ele>606.683411</ele>
        <time>2016-10-02T08:33:09Z</time>
      </trkpt>
      <trkpt lat="45.77938" lon="4.63972">
        <ele>607.110229</ele>
        <time>2016-10-02T08:33:11Z</time>
      </trkpt>
      <trkpt lat="45.77944" lon="4.63969">
        <ele>607.550354</ele>
        <time>2016-10-02T08:33:13Z</time>
      </trkpt>
      <trkpt lat="45.77951" lon="4.63967">
        <ele>607.796753</ele>
        <time>2016-10-02T08:33:15Z</time>
      </trkpt>
      <trkpt lat="45.7796" lon="4.63967">
        <ele>608.029968</ele>
        <time>2016-10-02T08:33:17Z</time>
      </trkpt>
      <trkpt lat="45.77967" lon="4.63967">
        <ele>608.188416</ele>
        <time>2016-10-02T08:33:19Z</time>
      </trkpt>
      <trkpt lat="45.77973" lon="4.63968">
        <ele>608.372681</ele>
        <time>2016-10-02T08:33:21Z</time>
      </trkpt>
      <trkpt lat="45.77979" lon="4.63969">
        <ele>608.53772</ele>
        <time>2016-10-02T08:33:23Z</time>
      </trkpt>
      <trkpt lat="45.77984" lon="4.6397">
        <ele>608.735779</ele>
        <time>2016-10-02T08:33:25Z</time>
      </trkpt>
      <trkpt lat="45.77991" lon="4.63971">
        <ele>609.023315</ele>
        <time>2016-10-02T08:33:27Z</time>
      </trkpt>
      <trkpt lat="45.77996" lon="4.63971">
        <ele>609.160095</ele>
        <time>2016-10-02T08:33:29Z</time>
      </trkpt>
      <trkpt lat="45.78002" lon="4.63973">
        <ele>609.309265</ele>
        <time>2016-10-02T08:33:31Z</time>
      </trkpt>
      <trkpt lat="45.78007" lon="4.63975">
        <ele>609.317993</ele>
        <time>2016-10-02T08:33:33Z</time>
      </trkpt>
      <trkpt lat="45.78013" lon="4.63977">
        <ele>609.411255</ele>
        <time>2016-10-02T08:33:35Z</time>
      </trkpt>
      <trkpt lat="45.78019" lon="4.63978">
        <ele>609.469971</ele>
        <time>2016-10-02T08:33:37Z</time>
      </trkpt>
      <trkpt lat="45.78027" lon="4.6398">
        <ele>609.494202</ele>
        <time>2016-10-02T08:33:39Z</time>
      </trkpt>
      <trkpt lat="45.78034" lon="4.63982">
        <ele>609.723083</ele>
        <time>2016-10-02T08:33:41Z</time>
      </trkpt>
      <trkpt lat="45.78042" lon="4.63984">
        <ele>609.762756</ele>
        <time>2016-10-02T08:33:43Z</time>
      </trkpt>
      <trkpt lat="45.78052" lon="4.63985">
        <ele>609.868896</ele>
        <time>2016-10-02T08:33:45Z</time>
      </trkpt>
      <trkpt lat="45.78062" lon="4.63987">
        <ele>610.132996</ele>
        <time>2016-10-02T08:33:47Z</time>
      </trkpt>
      <trkpt lat="45.78071" lon="4.63989">
        <ele>610.214355</ele>
        <time>2016-10-02T08:33:49Z</time>
      </trkpt>
      <trkpt lat="45.7808" lon="4.63991">
        <ele>610.148315</ele>
        <time>2016-10-02T08:33:51Z</time>
      </trkpt>
      <trkpt lat="45.7809" lon="4.63992">
        <ele>610.302429</ele>
        <time>2016-10-02T08:33:53Z</time>
      </trkpt>
      <trkpt lat="45.78099" lon="4.63994">
        <ele>610.381714</ele>
        <time>2016-10-02T08:33:55Z</time>
      </trkpt>
      <trkpt lat="45.78109" lon="4.63996">
        <ele>610.500061</ele>
        <time>2016-10-02T08:33:57Z</time>
      </trkpt>
      <trkpt lat="45.78119" lon="4.63999">
        <ele>610.539673</ele>
        <time>2016-10-02T08:33:59Z</time>
      </trkpt>
      <trkpt lat="45.78128" lon="4.64002">
        <ele>610.491821</ele>
        <time>2016-10-02T08:34:01Z</time>
      </trkpt>
      <trkpt lat="45.78136" lon="4.64006">
        <ele>610.551208</ele>
        <time>2016-10-02T08:34:03Z</time>
      </trkpt>
      <trkpt lat="45.78143" lon="4.64012">
        <ele>610.551208</ele>
        <time>2016-10-02T08:34:05Z</time>
      </trkpt>
      <trkpt lat="45.78148" lon="4.64018">
        <ele>610.315796</ele>
        <time>2016-10-02T08:34:07Z</time>
      </trkpt>
      <trkpt lat="45.78154" lon="4.64021">
        <ele>610.4646</ele>
        <time>2016-10-02T08:34:09Z</time>
      </trkpt>
      <trkpt lat="45.78159" lon="4.64025">
        <ele>610.72406</ele>
        <time>2016-10-02T08:34:11Z</time>
      </trkpt>
      <trkpt lat="45.78165" lon="4.6403">
        <ele>610.916138</ele>
        <time>2016-10-02T08:34:13Z</time>
      </trkpt>
      <trkpt lat="45.7817" lon="4.64033">
        <ele>611.352112</ele>
        <time>2016-10-02T08:34:15Z</time>
      </trkpt>
      <trkpt lat="45.78176" lon="4.64036">
        <ele>611.625122</ele>
        <time>2016-10-02T08:34:17Z</time>
      </trkpt>
      <trkpt lat="45.78182" lon="4.64038">
        <ele>611.75061</ele>
        <time>2016-10-02T08:34:19Z</time>
      </trkpt>
      <trkpt lat="45.78189" lon="4.6404">
        <ele>612.076477</ele>
        <time>2016-10-02T08:34:21Z</time>
      </trkpt>
      <trkpt lat="45.78197" lon="4.64042">
        <ele>612.208618</ele>
        <time>2016-10-02T08:34:23Z</time>
      </trkpt>
      <trkpt lat="45.78204" lon="4.64044">
        <ele>612.419983</ele>
        <time>2016-10-02T08:34:25Z</time>
      </trkpt>
      <trkpt lat="45.78213" lon="4.64047">
        <ele>612.712708</ele>
        <time>2016-10-02T08:34:27Z</time>
      </trkpt>
      <trkpt lat="45.78221" lon="4.6405">
        <ele>612.883789</ele>
        <time>2016-10-02T08:34:29Z</time>
      </trkpt>
      <trkpt lat="45.78229" lon="4.64053">
        <ele>612.967529</ele>
        <time>2016-10-02T08:34:31Z</time>
      </trkpt>
      <trkpt lat="45.78238" lon="4.64059">
        <ele>613.145874</ele>
        <time>2016-10-02T08:34:33Z</time>
      </trkpt>
      <trkpt lat="45.78247" lon="4.64065">
        <ele>613.244812</ele>
        <time>2016-10-02T08:34:35Z</time>
      </trkpt>
      <trkpt lat="45.78256" lon="4.6407">
        <ele>613.348267</ele>
        <time>2016-10-02T08:34:37Z</time>
      </trkpt>
      <trkpt lat="45.78264" lon="4.64077">
        <ele>613.624023</ele>
        <time>2016-10-02T08:34:39Z</time>
      </trkpt>
      <trkpt lat="45.78271" lon="4.64085">
        <ele>613.878784</ele>
        <time>2016-10-02T08:34:41Z</time>
      </trkpt>
      <trkpt lat="45.78278" lon="4.64094">
        <ele>614.149597</ele>
        <time>2016-10-02T08:34:43Z</time>
      </trkpt>
      <trkpt lat="45.78284" lon="4.64103">
        <ele>614.493103</ele>
        <time>2016-10-02T08:34:45Z</time>
      </trkpt>
      <trkpt lat="45.78291" lon="4.64112">
        <ele>614.825562</ele>
        <time>2016-10-02T08:34:47Z</time>
      </trkpt>
      <trkpt lat="45.783" lon="4.64121">
        <ele>615.144653</ele>
        <time>2016-10-02T08:34:49Z</time>
      </trkpt>
      <trkpt lat="45.78307" lon="4.6413">
        <ele>615.263489</ele>
        <time>2016-10-02T08:34:51Z</time>
      </trkpt>
      <trkpt lat="45.78315" lon="4.64134">
        <ele>615.411011</ele>
        <time>2016-10-02T08:34:53Z</time>
      </trkpt>
      <trkpt lat="45.78322" lon="4.64134">
        <ele>615.325195</ele>
        <time>2016-10-02T08:34:55Z</time>
      </trkpt>
      <trkpt lat="45.78333" lon="4.64136">
        <ele>615.116028</ele>
        <time>2016-10-02T08:34:57Z</time>
      </trkpt>
      <trkpt lat="45.78347" lon="4.64139">
        <ele>615.03125</ele>
        <time>2016-10-02T08:34:59Z</time>
      </trkpt>
      <trkpt lat="45.78363" lon="4.64143">
        <ele>614.705627</ele>
        <time>2016-10-02T08:35:01Z</time>
      </trkpt>
      <trkpt lat="45.78378" lon="4.64146">
        <ele>614.322632</ele>
        <time>2016-10-02T08:35:03Z</time>
      </trkpt>
      <trkpt lat="45.78391" lon="4.64148">
        <ele>614.190491</ele>
        <time>2016-10-02T08:35:05Z</time>
      </trkpt>
      <trkpt lat="45.78405" lon="4.6415">
        <ele>613.521484</ele>
        <time>2016-10-02T08:35:07Z</time>
      </trkpt>
      <trkpt lat="45.78418" lon="4.64154">
        <ele>612.226624</ele>
        <time>2016-10-02T08:35:09Z</time>
      </trkpt>
      <trkpt lat="45.78428" lon="4.64156">
        <ele>611.630249</ele>
        <time>2016-10-02T08:35:11Z</time>
      </trkpt>
      <trkpt lat="45.78437" lon="4.64157">
        <ele>610.668884</ele>
        <time>2016-10-02T08:35:13Z</time>
      </trkpt>
      <trkpt lat="45.78447" lon="4.6416">
        <ele>609.967163</ele>
        <time>2016-10-02T08:35:15Z</time>
      </trkpt>
      <trkpt lat="45.78457" lon="4.6416">
        <ele>609.353516</ele>
        <time>2016-10-02T08:35:17Z</time>
      </trkpt>
      <trkpt lat="45.78468" lon="4.64159">
        <ele>608.485413</ele>
        <time>2016-10-02T08:35:19Z</time>
      </trkpt>
      <trkpt lat="45.78479" lon="4.64157">
        <ele>607.244629</ele>
        <time>2016-10-02T08:35:21Z</time>
      </trkpt>
      <trkpt lat="45.7849" lon="4.64154">
        <ele>605.912537</ele>
        <time>2016-10-02T08:35:23Z</time>
      </trkpt>
      <trkpt lat="45.78499" lon="4.64153">
        <ele>604.790771</ele>
        <time>2016-10-02T08:35:25Z</time>
      </trkpt>
      <trkpt lat="45.78505" lon="4.64151">
        <ele>603.616089</ele>
        <time>2016-10-02T08:35:27Z</time>
      </trkpt>
      <trkpt lat="45.78513" lon="4.6415">
        <ele>602.331543</ele>
        <time>2016-10-02T08:35:29Z</time>
      </trkpt>
      <trkpt lat="45.78521" lon="4.64149">
        <ele>600.643799</ele>
        <time>2016-10-02T08:35:31Z</time>
      </trkpt>
      <trkpt lat="45.78529" lon="4.64148">
        <ele>598.926514</ele>
        <time>2016-10-02T08:35:33Z</time>
      </trkpt>
      <trkpt lat="45.78538" lon="4.64146">
        <ele>597.15448</ele>
        <time>2016-10-02T08:35:35Z</time>
      </trkpt>
      <trkpt lat="45.78547" lon="4.64143">
        <ele>595.697083</ele>
        <time>2016-10-02T08:35:37Z</time>
      </trkpt>
      <trkpt lat="45.78557" lon="4.64139">
        <ele>594.758118</ele>
        <time>2016-10-02T08:35:39Z</time>
      </trkpt>
      <trkpt lat="45.78566" lon="4.64135">
        <ele>593.150452</ele>
        <time>2016-10-02T08:35:41Z</time>
      </trkpt>
      <trkpt lat="45.78574" lon="4.64127">
        <ele>591.281006</ele>
        <time>2016-10-02T08:35:43Z</time>
      </trkpt>
      <trkpt lat="45.78579" lon="4.64116">
        <ele>589.837219</ele>
        <time>2016-10-02T08:35:45Z</time>
      </trkpt>
      <trkpt lat="45.78582" lon="4.64106">
        <ele>588.087769</ele>
        <time>2016-10-02T08:35:47Z</time>
      </trkpt>
      <trkpt lat="45.78587" lon="4.64099">
        <ele>586.44281</ele>
        <time>2016-10-02T08:35:49Z</time>
      </trkpt>
      <trkpt lat="45.78591" lon="4.64096">
        <ele>585.531616</ele>
        <time>2016-10-02T08:35:51Z</time>
      </trkpt>
      <trkpt lat="45.78595" lon="4.64088">
        <ele>584.150757</ele>
        <time>2016-10-02T08:35:53Z</time>
      </trkpt>
      <trkpt lat="45.78599" lon="4.6408">
        <ele>583.053101</ele>
        <time>2016-10-02T08:35:55Z</time>
      </trkpt>
      <trkpt lat="45.78602" lon="4.6407">
        <ele>581.989502</ele>
        <time>2016-10-02T08:35:57Z</time>
      </trkpt>
      <trkpt lat="45.78604" lon="4.64063">
        <ele>580.702209</ele>
        <time>2016-10-02T08:35:59Z</time>
      </trkpt>
      <trkpt lat="45.78607" lon="4.64055">
        <ele>579.444458</ele>
        <time>2016-10-02T08:36:01Z</time>
      </trkpt>
      <trkpt lat="45.78608" lon="4.64044">
        <ele>578.29657</ele>
        <time>2016-10-02T08:36:03Z</time>
      </trkpt>
      <trkpt lat="45.78611" lon="4.64033">
        <ele>577.465942</ele>
        <time>2016-10-02T08:36:05Z</time>
      </trkpt>
      <trkpt lat="45.78613" lon="4.64024">
        <ele>576.257019</ele>
        <time>2016-10-02T08:36:07Z</time>
      </trkpt>
      <trkpt lat="45.78618" lon="4.64019">
        <ele>574.986877</ele>
        <time>2016-10-02T08:36:09Z</time>
      </trkpt>
      <trkpt lat="45.78626" lon="4.64018">
        <ele>573.628845</ele>
        <time>2016-10-02T08:36:11Z</time>
      </trkpt>
      <trkpt lat="45.78635" lon="4.64021">
        <ele>572.613586</ele>
        <time>2016-10-02T08:36:13Z</time>
      </trkpt>
      <trkpt lat="45.7864" lon="4.64024">
        <ele>571.528076</ele>
        <time>2016-10-02T08:36:15Z</time>
      </trkpt>
      <trkpt lat="45.78646" lon="4.64032">
        <ele>570.613892</ele>
        <time>2016-10-02T08:36:17Z</time>
      </trkpt>
      <trkpt lat="45.78653" lon="4.64041">
        <ele>569.557007</ele>
        <time>2016-10-02T08:36:19Z</time>
      </trkpt>
      <trkpt lat="45.78662" lon="4.6405">
        <ele>568.734009</ele>
        <time>2016-10-02T08:36:21Z</time>
      </trkpt>
      <trkpt lat="45.78673" lon="4.64056">
        <ele>567.332092</ele>
        <time>2016-10-02T08:36:23Z</time>
      </trkpt>
      <trkpt lat="45.78687" lon="4.64062">
        <ele>566.982971</ele>
        <time>2016-10-02T08:36:25Z</time>
      </trkpt>
      <trkpt lat="45.78701" lon="4.64069">
        <ele>566.518433</ele>
        <time>2016-10-02T08:36:27Z</time>
      </trkpt>
      <trkpt lat="45.78714" lon="4.64074">
        <ele>565.482666</ele>
        <time>2016-10-02T08:36:29Z</time>
      </trkpt>
      <trkpt lat="45.78727" lon="4.64084">
        <ele>564.306519</ele>
        <time>2016-10-02T08:36:31Z</time>
      </trkpt>
      <trkpt lat="45.78739" lon="4.64099">
        <ele>563.033813</ele>
        <time>2016-10-02T08:36:33Z</time>
      </trkpt>
      <trkpt lat="45.78748" lon="4.64111">
        <ele>561.338745</ele>
        <time>2016-10-02T08:36:35Z</time>
      </trkpt>
      <trkpt lat="45.78757" lon="4.64121">
        <ele>559.902222</ele>
        <time>2016-10-02T08:36:37Z</time>
      </trkpt>
      <trkpt lat="45.78763" lon="4.64129">
        <ele>558.165771</ele>
        <time>2016-10-02T08:36:39Z</time>
      </trkpt>
      <trkpt lat="45.78771" lon="4.64136">
        <ele>557.088257</ele>
        <time>2016-10-02T08:36:41Z</time>
      </trkpt>
      <trkpt lat="45.7878" lon="4.64146">
        <ele>555.260986</ele>
        <time>2016-10-02T08:36:43Z</time>
      </trkpt>
      <trkpt lat="45.78791" lon="4.64152">
        <ele>554.578125</ele>
        <time>2016-10-02T08:36:45Z</time>
      </trkpt>
      <trkpt lat="45.78806" lon="4.64152">
        <ele>553.638123</ele>
        <time>2016-10-02T08:36:47Z</time>
      </trkpt>
      <trkpt lat="45.78822" lon="4.64144">
        <ele>551.917358</ele>
        <time>2016-10-02T08:36:49Z</time>
      </trkpt>
      <trkpt lat="45.78839" lon="4.64141">
        <ele>549.945435</ele>
        <time>2016-10-02T08:36:51Z</time>
      </trkpt>
      <trkpt lat="45.78855" lon="4.64142">
        <ele>548.335327</ele>
        <time>2016-10-02T08:36:53Z</time>
      </trkpt>
      <trkpt lat="45.7887" lon="4.64143">
        <ele>546.631653</ele>
        <time>2016-10-02T08:36:55Z</time>
      </trkpt>
      <trkpt lat="45.78877" lon="4.64145">
        <ele>545.205383</ele>
        <time>2016-10-02T08:36:57Z</time>
      </trkpt>
      <trkpt lat="45.78878" lon="4.6415">
        <ele>543.682556</ele>
        <time>2016-10-02T08:36:59Z</time>
      </trkpt>
      <trkpt lat="45.78875" lon="4.64157">
        <ele>542.044067</ele>
        <time>2016-10-02T08:37:01Z</time>
      </trkpt>
      <trkpt lat="45.78872" lon="4.64167">
        <ele>540.040405</ele>
        <time>2016-10-02T08:37:03Z</time>
      </trkpt>
      <trkpt lat="45.78864" lon="4.6418">
        <ele>538.766052</ele>
        <time>2016-10-02T08:37:05Z</time>
      </trkpt>
      <trkpt lat="45.78855" lon="4.64192">
        <ele>536.876587</ele>
        <time>2016-10-02T08:37:07Z</time>
      </trkpt>
      <trkpt lat="45.78845" lon="4.64204">
        <ele>536.09845</ele>
        <time>2016-10-02T08:37:09Z</time>
      </trkpt>
      <trkpt lat="45.78833" lon="4.64211">
        <ele>534.433838</ele>
        <time>2016-10-02T08:37:11Z</time>
      </trkpt>
      <trkpt lat="45.7882" lon="4.64215">
        <ele>533.335083</ele>
        <time>2016-10-02T08:37:13Z</time>
      </trkpt>
      <trkpt lat="45.78806" lon="4.64217">
        <ele>532.175049</ele>
        <time>2016-10-02T08:37:15Z</time>
      </trkpt>
      <trkpt lat="45.78794" lon="4.64224">
        <ele>531.420654</ele>
        <time>2016-10-02T08:37:17Z</time>
      </trkpt>
      <trkpt lat="45.78787" lon="4.64236">
        <ele>530.697144</ele>
        <time>2016-10-02T08:37:19Z</time>
      </trkpt>
      <trkpt lat="45.78784" lon="4.64248">
        <ele>529.770874</ele>
        <time>2016-10-02T08:37:21Z</time>
      </trkpt>
      <trkpt lat="45.78783" lon="4.64259">
        <ele>528.339905</ele>
        <time>2016-10-02T08:37:23Z</time>
      </trkpt>
      <trkpt lat="45.78781" lon="4.64271">
        <ele>527.873901</ele>
        <time>2016-10-02T08:37:25Z</time>
      </trkpt>
      <trkpt lat="45.78782" lon="4.64282">
        <ele>526.734375</ele>
        <time>2016-10-02T08:37:27Z</time>
      </trkpt>
      <trkpt lat="45.78786" lon="4.64292">
        <ele>526.221069</ele>
        <time>2016-10-02T08:37:29Z</time>
      </trkpt>
      <trkpt lat="45.78791" lon="4.64301">
        <ele>525.700073</ele>
        <time>2016-10-02T08:37:31Z</time>
      </trkpt>
      <trkpt lat="45.788" lon="4.64319">
        <ele>525.397949</ele>
        <time>2016-10-02T08:37:34Z</time>
      </trkpt>
      <trkpt lat="45.78805" lon="4.6433">
        <ele>524.983521</ele>
        <time>2016-10-02T08:37:36Z</time>
      </trkpt>
      <trkpt lat="45.78812" lon="4.64343">
        <ele>524.866577</ele>
        <time>2016-10-02T08:37:38Z</time>
      </trkpt>
      <trkpt lat="45.78819" lon="4.64358">
        <ele>524.739868</ele>
        <time>2016-10-02T08:37:40Z</time>
      </trkpt>
      <trkpt lat="45.78826" lon="4.64374">
        <ele>524.0578</ele>
        <time>2016-10-02T08:37:42Z</time>
      </trkpt>
      <trkpt lat="45.78831" lon="4.64392">
        <ele>523.67395</ele>
        <time>2016-10-02T08:37:44Z</time>
      </trkpt>
      <trkpt lat="45.78837" lon="4.64412">
        <ele>523.325073</ele>
        <time>2016-10-02T08:37:46Z</time>
      </trkpt>
      <trkpt lat="45.78841" lon="4.64433">
        <ele>522.875244</ele>
        <time>2016-10-02T08:37:48Z</time>
      </trkpt>
      <trkpt lat="45.78845" lon="4.64453">
        <ele>522.641724</ele>
        <time>2016-10-02T08:37:50Z</time>
      </trkpt>
      <trkpt lat="45.78847" lon="4.64474">
        <ele>522.274963</ele>
        <time>2016-10-02T08:37:52Z</time>
      </trkpt>
      <trkpt lat="45.78851" lon="4.64495">
        <ele>522.091736</ele>
        <time>2016-10-02T08:37:54Z</time>
      </trkpt>
      <trkpt lat="45.78854" lon="4.64514">
        <ele>521.624268</ele>
        <time>2016-10-02T08:37:56Z</time>
      </trkpt>
      <trkpt lat="45.78855" lon="4.64536">
        <ele>521.244324</ele>
        <time>2016-10-02T08:37:58Z</time>
      </trkpt>
      <trkpt lat="45.78852" lon="4.64555">
        <ele>521.069702</ele>
        <time>2016-10-02T08:38:00Z</time>
      </trkpt>
      <trkpt lat="45.78846" lon="4.64575">
        <ele>520.687134</ele>
        <time>2016-10-02T08:38:02Z</time>
      </trkpt>
      <trkpt lat="45.78845" lon="4.64593">
        <ele>520.32489</ele>
        <time>2016-10-02T08:38:04Z</time>
      </trkpt>
      <trkpt lat="45.78848" lon="4.64606">
        <ele>520.364136</ele>
        <time>2016-10-02T08:38:06Z</time>
      </trkpt>
      <trkpt lat="45.78852" lon="4.64617">
        <ele>520.048706</ele>
        <time>2016-10-02T08:38:08Z</time>
      </trkpt>
      <trkpt lat="45.78856" lon="4.6463">
        <ele>520.092346</ele>
        <time>2016-10-02T08:38:10Z</time>
      </trkpt>
      <trkpt lat="45.78858" lon="4.64641">
        <ele>520.011597</ele>
        <time>2016-10-02T08:38:12Z</time>
      </trkpt>
      <trkpt lat="45.78861" lon="4.64654">
        <ele>519.804871</ele>
        <time>2016-10-02T08:38:14Z</time>
      </trkpt>
      <trkpt lat="45.78867" lon="4.64666">
        <ele>519.404541</ele>
        <time>2016-10-02T08:38:16Z</time>
      </trkpt>
      <trkpt lat="45.78873" lon="4.64679">
        <ele>518.695496</ele>
        <time>2016-10-02T08:38:18Z</time>
      </trkpt>
      <trkpt lat="45.78879" lon="4.6469">
        <ele>517.931091</ele>
        <time>2016-10-02T08:38:20Z</time>
      </trkpt>
      <trkpt lat="45.78887" lon="4.64701">
        <ele>517.190369</ele>
        <time>2016-10-02T08:38:22Z</time>
      </trkpt>
      <trkpt lat="45.78898" lon="4.64712">
        <ele>516.550415</ele>
        <time>2016-10-02T08:38:24Z</time>
      </trkpt>
      <trkpt lat="45.78907" lon="4.64725">
        <ele>516.423767</ele>
        <time>2016-10-02T08:38:26Z</time>
      </trkpt>
      <trkpt lat="45.78917" lon="4.6474">
        <ele>515.737671</ele>
        <time>2016-10-02T08:38:28Z</time>
      </trkpt>
      <trkpt lat="45.78927" lon="4.64755">
        <ele>515.162109</ele>
        <time>2016-10-02T08:38:30Z</time>
      </trkpt>
      <trkpt lat="45.78936" lon="4.6477">
        <ele>514.776184</ele>
        <time>2016-10-02T08:38:32Z</time>
      </trkpt>
      <trkpt lat="45.78945" lon="4.64787">
        <ele>514.262573</ele>
        <time>2016-10-02T08:38:34Z</time>
      </trkpt>
      <trkpt lat="45.78955" lon="4.648">
        <ele>514.081604</ele>
        <time>2016-10-02T08:38:36Z</time>
      </trkpt>
      <trkpt lat="45.78965" lon="4.6481">
        <ele>513.386353</ele>
        <time>2016-10-02T08:38:38Z</time>
      </trkpt>
      <trkpt lat="45.78972" lon="4.64822">
        <ele>512.741028</ele>
        <time>2016-10-02T08:38:40Z</time>
      </trkpt>
      <trkpt lat="45.78978" lon="4.64832">
        <ele>512.195679</ele>
        <time>2016-10-02T08:38:42Z</time>
      </trkpt>
      <trkpt lat="45.78983" lon="4.64838">
        <ele>511.866211</ele>
        <time>2016-10-02T08:38:44Z</time>
      </trkpt>
      <trkpt lat="45.78986" lon="4.64843">
        <ele>511.477936</ele>
        <time>2016-10-02T08:38:46Z</time>
      </trkpt>
      <trkpt lat="45.7899" lon="4.64847">
        <ele>511.244568</ele>
        <time>2016-10-02T08:38:48Z</time>
      </trkpt>
      <trkpt lat="45.78994" lon="4.64851">
        <ele>510.878265</ele>
        <time>2016-10-02T08:38:50Z</time>
      </trkpt>
      <trkpt lat="45.78998" lon="4.64855">
        <ele>510.716858</ele>
        <time>2016-10-02T08:38:52Z</time>
      </trkpt>
      <trkpt lat="45.79002" lon="4.6486">
        <ele>510.591125</ele>
        <time>2016-10-02T08:38:54Z</time>
      </trkpt>
      <trkpt lat="45.79007" lon="4.64864">
        <ele>510.326233</ele>
        <time>2016-10-02T08:38:56Z</time>
      </trkpt>
      <trkpt lat="45.79011" lon="4.64867">
        <ele>510.08844</ele>
        <time>2016-10-02T08:38:58Z</time>
      </trkpt>
      <trkpt lat="45.79015" lon="4.64872">
        <ele>510.561371</ele>
        <time>2016-10-02T08:39:00Z</time>
      </trkpt>
      <trkpt lat="45.79017" lon="4.64876">
        <ele>510.791931</ele>
        <time>2016-10-02T08:39:02Z</time>
      </trkpt>
      <trkpt lat="45.7902" lon="4.64881">
        <ele>510.981689</ele>
        <time>2016-10-02T08:39:04Z</time>
      </trkpt>
      <trkpt lat="45.79024" lon="4.64885">
        <ele>511.429382</ele>
        <time>2016-10-02T08:39:06Z</time>
      </trkpt>
      <trkpt lat="45.79027" lon="4.6489">
        <ele>511.80899</ele>
        <time>2016-10-02T08:39:08Z</time>
      </trkpt>
      <trkpt lat="45.7903" lon="4.64894">
        <ele>512.390015</ele>
        <time>2016-10-02T08:39:10Z</time>
      </trkpt>
      <trkpt lat="45.79034" lon="4.649">
        <ele>512.965637</ele>
        <time>2016-10-02T08:39:12Z</time>
      </trkpt>
      <trkpt lat="45.79037" lon="4.64907">
        <ele>513.523926</ele>
        <time>2016-10-02T08:39:14Z</time>
      </trkpt>
      <trkpt lat="45.79039" lon="4.64916">
        <ele>513.96991</ele>
        <time>2016-10-02T08:39:16Z</time>
      </trkpt>
      <trkpt lat="45.79038" lon="4.64925">
        <ele>514.574036</ele>
        <time>2016-10-02T08:39:18Z</time>
      </trkpt>
      <trkpt lat="45.79037" lon="4.64935">
        <ele>515.522339</ele>
        <time>2016-10-02T08:39:20Z</time>
      </trkpt>
      <trkpt lat="45.79034" lon="4.64944">
        <ele>515.897461</ele>
        <time>2016-10-02T08:39:22Z</time>
      </trkpt>
      <trkpt lat="45.79031" lon="4.64953">
        <ele>516.574219</ele>
        <time>2016-10-02T08:39:24Z</time>
      </trkpt>
      <trkpt lat="45.7903" lon="4.64964">
        <ele>517.024231</ele>
        <time>2016-10-02T08:39:26Z</time>
      </trkpt>
      <trkpt lat="45.79028" lon="4.64975">
        <ele>517.565247</ele>
        <time>2016-10-02T08:39:28Z</time>
      </trkpt>
      <trkpt lat="45.79027" lon="4.64986">
        <ele>517.920776</ele>
        <time>2016-10-02T08:39:30Z</time>
      </trkpt>
      <trkpt lat="45.79027" lon="4.64999">
        <ele>518.37439</ele>
        <time>2016-10-02T08:39:32Z</time>
      </trkpt>
      <trkpt lat="45.79028" lon="4.65014">
        <ele>518.483398</ele>
        <time>2016-10-02T08:39:34Z</time>
      </trkpt>
      <trkpt lat="45.79029" lon="4.65028">
        <ele>518.338989</ele>
        <time>2016-10-02T08:39:36Z</time>
      </trkpt>
      <trkpt lat="45.79029" lon="4.65042">
        <ele>518.338501</ele>
        <time>2016-10-02T08:39:38Z</time>
      </trkpt>
      <trkpt lat="45.79029" lon="4.65055">
        <ele>518.772339</ele>
        <time>2016-10-02T08:39:40Z</time>
      </trkpt>
      <trkpt lat="45.79027" lon="4.65068">
        <ele>518.626282</ele>
        <time>2016-10-02T08:39:42Z</time>
      </trkpt>
      <trkpt lat="45.79025" lon="4.65081">
        <ele>519.025208</ele>
        <time>2016-10-02T08:39:44Z</time>
      </trkpt>
      <trkpt lat="45.79024" lon="4.65095">
        <ele>518.988159</ele>
        <time>2016-10-02T08:39:46Z</time>
      </trkpt>
      <trkpt lat="45.79024" lon="4.65109">
        <ele>519.302429</ele>
        <time>2016-10-02T08:39:48Z</time>
      </trkpt>
      <trkpt lat="45.79023" lon="4.65125">
        <ele>519.346069</ele>
        <time>2016-10-02T08:39:50Z</time>
      </trkpt>
      <trkpt lat="45.79023" lon="4.65141">
        <ele>519.370667</ele>
        <time>2016-10-02T08:39:52Z</time>
      </trkpt>
      <trkpt lat="45.79022" lon="4.65156">
        <ele>519.6698</ele>
        <time>2016-10-02T08:39:54Z</time>
      </trkpt>
      <trkpt lat="45.79021" lon="4.65171">
        <ele>519.630493</ele>
        <time>2016-10-02T08:39:56Z</time>
      </trkpt>
      <trkpt lat="45.79019" lon="4.65186">
        <ele>519.567261</ele>
        <time>2016-10-02T08:39:58Z</time>
      </trkpt>
      <trkpt lat="45.79015" lon="4.652">
        <ele>519.691711</ele>
        <time>2016-10-02T08:40:00Z</time>
      </trkpt>
      <trkpt lat="45.79012" lon="4.6521">
        <ele>519.763733</ele>
        <time>2016-10-02T08:40:02Z</time>
      </trkpt>
      <trkpt lat="45.79009" lon="4.65218">
        <ele>519.709167</ele>
        <time>2016-10-02T08:40:04Z</time>
      </trkpt>
      <trkpt lat="45.79007" lon="4.65226">
        <ele>519.837585</ele>
        <time>2016-10-02T08:40:06Z</time>
      </trkpt>
      <trkpt lat="45.79006" lon="4.65233">
        <ele>519.924194</ele>
        <time>2016-10-02T08:40:08Z</time>
      </trkpt>
      <trkpt lat="45.79005" lon="4.65242">
        <ele>519.960327</ele>
        <time>2016-10-02T08:40:10Z</time>
      </trkpt>
      <trkpt lat="45.79004" lon="4.65253">
        <ele>520.197205</ele>
        <time>2016-10-02T08:40:12Z</time>
      </trkpt>
      <trkpt lat="45.79005" lon="4.65265">
        <ele>520.47876</ele>
        <time>2016-10-02T08:40:14Z</time>
      </trkpt>
      <trkpt lat="45.79005" lon="4.6528">
        <ele>520.594421</ele>
        <time>2016-10-02T08:40:16Z</time>
      </trkpt>
      <trkpt lat="45.79005" lon="4.65294">
        <ele>521.130859</ele>
        <time>2016-10-02T08:40:18Z</time>
      </trkpt>
      <trkpt lat="45.79006" lon="4.65303">
        <ele>521.346741</ele>
        <time>2016-10-02T08:40:20Z</time>
      </trkpt>
      <trkpt lat="45.7901" lon="4.65309">
        <ele>521.305298</ele>
        <time>2016-10-02T08:40:22Z</time>
      </trkpt>
      <trkpt lat="45.79016" lon="4.65309">
        <ele>521.683105</ele>
        <time>2016-10-02T08:40:24Z</time>
      </trkpt>
      <trkpt lat="45.79022" lon="4.6531">
        <ele>521.599365</ele>
        <time>2016-10-02T08:40:26Z</time>
      </trkpt>
      <trkpt lat="45.79028" lon="4.65315">
        <ele>521.819702</ele>
        <time>2016-10-02T08:40:28Z</time>
      </trkpt>
      <trkpt lat="45.79034" lon="4.65313">
        <ele>521.741089</ele>
        <time>2016-10-02T08:40:30Z</time>
      </trkpt>
      <trkpt lat="45.79041" lon="4.65314">
        <ele>521.767273</ele>
        <time>2016-10-02T08:40:32Z</time>
      </trkpt>
      <trkpt lat="45.79049" lon="4.65318">
        <ele>521.795044</ele>
        <time>2016-10-02T08:40:34Z</time>
      </trkpt>
      <trkpt lat="45.79057" lon="4.65323">
        <ele>521.637817</ele>
        <time>2016-10-02T08:40:36Z</time>
      </trkpt>
      <trkpt lat="45.79063" lon="4.6533">
        <ele>521.5047</ele>
        <time>2016-10-02T08:40:38Z</time>
      </trkpt>
      <trkpt lat="45.7907" lon="4.65334">
        <ele>521.491577</ele>
        <time>2016-10-02T08:40:40Z</time>
      </trkpt>
      <trkpt lat="45.79077" lon="4.65338">
        <ele>521.701233</ele>
        <time>2016-10-02T08:40:42Z</time>
      </trkpt>
      <trkpt lat="45.79086" lon="4.65344">
        <ele>521.437195</ele>
        <time>2016-10-02T08:40:44Z</time>
      </trkpt>
      <trkpt lat="45.79092" lon="4.65351">
        <ele>521.00708</ele>
        <time>2016-10-02T08:40:46Z</time>
      </trkpt>
      <trkpt lat="45.79098" lon="4.65357">
        <ele>520.908813</ele>
        <time>2016-10-02T08:40:48Z</time>
      </trkpt>
      <trkpt lat="45.79105" lon="4.65365">
        <ele>520.791077</ele>
        <time>2016-10-02T08:40:50Z</time>
      </trkpt>
      <trkpt lat="45.79112" lon="4.6537">
        <ele>520.644226</ele>
        <time>2016-10-02T08:40:52Z</time>
      </trkpt>
      <trkpt lat="45.79121" lon="4.65375">
        <ele>520.228516</ele>
        <time>2016-10-02T08:40:54Z</time>
      </trkpt>
      <trkpt lat="45.79133" lon="4.6538">
        <ele>520.110413</ele>
        <time>2016-10-02T08:40:56Z</time>
      </trkpt>
      <trkpt lat="45.79145" lon="4.65385">
        <ele>519.765747</ele>
        <time>2016-10-02T08:40:58Z</time>
      </trkpt>
      <trkpt lat="45.79155" lon="4.65393">
        <ele>519.155029</ele>
        <time>2016-10-02T08:41:00Z</time>
      </trkpt>
      <trkpt lat="45.79166" lon="4.654">
        <ele>519.070007</ele>
        <time>2016-10-02T08:41:02Z</time>
      </trkpt>
      <trkpt lat="45.79175" lon="4.65406">
        <ele>518.166931</ele>
        <time>2016-10-02T08:41:04Z</time>
      </trkpt>
      <trkpt lat="45.79185" lon="4.65411">
        <ele>517.224487</ele>
        <time>2016-10-02T08:41:06Z</time>
      </trkpt>
      <trkpt lat="45.79195" lon="4.65415">
        <ele>516.439514</ele>
        <time>2016-10-02T08:41:08Z</time>
      </trkpt>
      <trkpt lat="45.79203" lon="4.65418">
        <ele>516.003418</ele>
        <time>2016-10-02T08:41:10Z</time>
      </trkpt>
      <trkpt lat="45.79208" lon="4.65422">
        <ele>515.105347</ele>
        <time>2016-10-02T08:41:12Z</time>
      </trkpt>
      <trkpt lat="45.79213" lon="4.65422">
        <ele>514.135193</ele>
        <time>2016-10-02T08:41:14Z</time>
      </trkpt>
      <trkpt lat="45.79219" lon="4.65424">
        <ele>512.98645</ele>
        <time>2016-10-02T08:41:16Z</time>
      </trkpt>
      <trkpt lat="45.79226" lon="4.65425">
        <ele>511.931488</ele>
        <time>2016-10-02T08:41:18Z</time>
      </trkpt>
      <trkpt lat="45.79231" lon="4.65422">
        <ele>510.561859</ele>
        <time>2016-10-02T08:41:20Z</time>
      </trkpt>
      <trkpt lat="45.79239" lon="4.65419">
        <ele>509.43985</ele>
        <time>2016-10-02T08:41:22Z</time>
      </trkpt>
      <trkpt lat="45.79249" lon="4.65415">
        <ele>507.850494</ele>
        <time>2016-10-02T08:41:24Z</time>
      </trkpt>
      <trkpt lat="45.79259" lon="4.65409">
        <ele>506.354156</ele>
        <time>2016-10-02T08:41:26Z</time>
      </trkpt>
      <trkpt lat="45.79265" lon="4.65401">
        <ele>505.238953</ele>
        <time>2016-10-02T08:41:28Z</time>
      </trkpt>
      <trkpt lat="45.79269" lon="4.65392">
        <ele>503.705231</ele>
        <time>2016-10-02T08:41:30Z</time>
      </trkpt>
      <trkpt lat="45.79275" lon="4.65388">
        <ele>502.95575</ele>
        <time>2016-10-02T08:41:32Z</time>
      </trkpt>
      <trkpt lat="45.79281" lon="4.65384">
        <ele>501.473083</ele>
        <time>2016-10-02T08:41:34Z</time>
      </trkpt>
      <trkpt lat="45.79285" lon="4.65375">
        <ele>500.125916</ele>
        <time>2016-10-02T08:41:36Z</time>
      </trkpt>
      <trkpt lat="45.79289" lon="4.65368">
        <ele>498.350342</ele>
        <time>2016-10-02T08:41:38Z</time>
      </trkpt>
      <trkpt lat="45.79293" lon="4.65362">
        <ele>497.122009</ele>
        <time>2016-10-02T08:41:40Z</time>
      </trkpt>
      <trkpt lat="45.79295" lon="4.6536">
        <ele>494.436707</ele>
        <time>2016-10-02T08:41:44Z</time>
      </trkpt>
      <trkpt lat="45.79297" lon="4.65361">
        <ele>491.944244</ele>
        <time>2016-10-02T08:41:50Z</time>
      </trkpt>
      <trkpt lat="45.79303" lon="4.65361">
        <ele>487.529144</ele>
        <time>2016-10-02T08:42:06Z</time>
      </trkpt>
      <trkpt lat="45.79308" lon="4.65355">
        <ele>487.48233</ele>
        <time>2016-10-02T08:42:08Z</time>
      </trkpt>
      <trkpt lat="45.7931" lon="4.65348">
        <ele>487.334381</ele>
        <time>2016-10-02T08:42:10Z</time>
      </trkpt>
      <trkpt lat="45.7931" lon="4.65341">
        <ele>487.180267</ele>
        <time>2016-10-02T08:42:12Z</time>
      </trkpt>
      <trkpt lat="45.79308" lon="4.65336">
        <ele>486.912537</ele>
        <time>2016-10-02T08:42:14Z</time>
      </trkpt>
      <trkpt lat="45.79309" lon="4.65333">
        <ele>486.645996</ele>
        <time>2016-10-02T08:42:16Z</time>
      </trkpt>
      <trkpt lat="45.7931" lon="4.6533">
        <ele>486.540192</ele>
        <time>2016-10-02T08:42:18Z</time>
      </trkpt>
      <trkpt lat="45.7931" lon="4.65326">
        <ele>486.303131</ele>
        <time>2016-10-02T08:42:20Z</time>
      </trkpt>
      <trkpt lat="45.79313" lon="4.65317">
        <ele>484.078369</ele>
        <time>2016-10-02T08:42:52Z</time>
      </trkpt>
      <trkpt lat="45.79316" lon="4.65302">
        <ele>483.762787</ele>
        <time>2016-10-02T08:42:54Z</time>
      </trkpt>
      <trkpt lat="45.79318" lon="4.6529">
        <ele>483.615143</ele>
        <time>2016-10-02T08:42:56Z</time>
      </trkpt>
      <trkpt lat="45.79317" lon="4.65278">
        <ele>483.149323</ele>
        <time>2016-10-02T08:42:58Z</time>
      </trkpt>
      <trkpt lat="45.79318" lon="4.65265">
        <ele>482.753723</ele>
        <time>2016-10-02T08:43:00Z</time>
      </trkpt>
      <trkpt lat="45.79318" lon="4.65254">
        <ele>482.401611</ele>
        <time>2016-10-02T08:43:02Z</time>
      </trkpt>
      <trkpt lat="45.79318" lon="4.65244">
        <ele>481.61142</ele>
        <time>2016-10-02T08:43:04Z</time>
      </trkpt>
      <trkpt lat="45.79318" lon="4.65232">
        <ele>481.02066</ele>
        <time>2016-10-02T08:43:06Z</time>
      </trkpt>
      <trkpt lat="45.79316" lon="4.65222">
        <ele>480.603577</ele>
        <time>2016-10-02T08:43:08Z</time>
      </trkpt>
      <trkpt lat="45.79314" lon="4.65215">
        <ele>479.925873</ele>
        <time>2016-10-02T08:43:10Z</time>
      </trkpt>
      <trkpt lat="45.79313" lon="4.65207">
        <ele>478.941895</ele>
        <time>2016-10-02T08:43:12Z</time>
      </trkpt>
      <trkpt lat="45.79311" lon="4.65201">
        <ele>477.994812</ele>
        <time>2016-10-02T08:43:14Z</time>
      </trkpt>
      <trkpt lat="45.79308" lon="4.65192">
        <ele>469.369537</ele>
        <time>2016-10-02T08:43:34Z</time>
      </trkpt>
      <trkpt lat="45.79305" lon="4.65178">
        <ele>468.590027</ele>
        <time>2016-10-02T08:43:36Z</time>
      </trkpt>
      <trkpt lat="45.79306" lon="4.65171">
        <ele>467.742584</ele>
        <time>2016-10-02T08:43:38Z</time>
      </trkpt>
      <trkpt lat="45.79303" lon="4.65159">
        <ele>466.850403</ele>
        <time>2016-10-02T08:43:40Z</time>
      </trkpt>
      <trkpt lat="45.79304" lon="4.6515">
        <ele>466.24057</ele>
        <time>2016-10-02T08:43:42Z</time>
      </trkpt>
      <trkpt lat="45.79306" lon="4.65139">
        <ele>465.999512</ele>
        <time>2016-10-02T08:43:44Z</time>
      </trkpt>
      <trkpt lat="45.79309" lon="4.65129">
        <ele>465.384094</ele>
        <time>2016-10-02T08:43:46Z</time>
      </trkpt>
      <trkpt lat="45.79314" lon="4.65118">
        <ele>464.902252</ele>
        <time>2016-10-02T08:43:48Z</time>
      </trkpt>
      <trkpt lat="45.7932" lon="4.65106">
        <ele>464.025574</ele>
        <time>2016-10-02T08:43:50Z</time>
      </trkpt>
      <trkpt lat="45.79324" lon="4.65093">
        <ele>463.07074</ele>
        <time>2016-10-02T08:43:52Z</time>
      </trkpt>
      <trkpt lat="45.79326" lon="4.65081">
        <ele>462.484955</ele>
        <time>2016-10-02T08:43:54Z</time>
      </trkpt>
      <trkpt lat="45.79325" lon="4.6507">
        <ele>461.700989</ele>
        <time>2016-10-02T08:43:56Z</time>
      </trkpt>
      <trkpt lat="45.79327" lon="4.65059">
        <ele>460.83136</ele>
        <time>2016-10-02T08:43:58Z</time>
      </trkpt>
      <trkpt lat="45.7933" lon="4.65049">
        <ele>460.315186</ele>
        <time>2016-10-02T08:44:00Z</time>
      </trkpt>
      <trkpt lat="45.79331" lon="4.65039">
        <ele>458.825439</ele>
        <time>2016-10-02T08:44:02Z</time>
      </trkpt>
      <trkpt lat="45.79333" lon="4.65028">
        <ele>457.349701</ele>
        <time>2016-10-02T08:44:04Z</time>
      </trkpt>
      <trkpt lat="45.79335" lon="4.65015">
        <ele>456.61499</ele>
        <time>2016-10-02T08:44:06Z</time>
      </trkpt>
      <trkpt lat="45.79339" lon="4.65002">
        <ele>455.288025</ele>
        <time>2016-10-02T08:44:08Z</time>
      </trkpt>
      <trkpt lat="45.79347" lon="4.64994">
        <ele>453.851166</ele>
        <time>2016-10-02T08:44:10Z</time>
      </trkpt>
      <trkpt lat="45.79353" lon="4.6499">
        <ele>452.026947</ele>
        <time>2016-10-02T08:44:12Z</time>
      </trkpt>
      <trkpt lat="45.7936" lon="4.64983">
        <ele>450.431213</ele>
        <time>2016-10-02T08:44:14Z</time>
      </trkpt>
      <trkpt lat="45.79366" lon="4.64975">
        <ele>448.507507</ele>
        <time>2016-10-02T08:44:16Z</time>
      </trkpt>
      <trkpt lat="45.79375" lon="4.6497">
        <ele>446.693207</ele>
        <time>2016-10-02T08:44:18Z</time>
      </trkpt>
      <trkpt lat="45.79386" lon="4.6497">
        <ele>444.803406</ele>
        <time>2016-10-02T08:44:20Z</time>
      </trkpt>
      <trkpt lat="45.79397" lon="4.64974">
        <ele>442.907043</ele>
        <time>2016-10-02T08:44:22Z</time>
      </trkpt>
      <trkpt lat="45.79409" lon="4.64976">
        <ele>441.292633</ele>
        <time>2016-10-02T08:44:24Z</time>
      </trkpt>
      <trkpt lat="45.79422" lon="4.64977">
        <ele>439.161804</ele>
        <time>2016-10-02T08:44:26Z</time>
      </trkpt>
      <trkpt lat="45.79436" lon="4.64979">
        <ele>438.209167</ele>
        <time>2016-10-02T08:44:28Z</time>
      </trkpt>
      <trkpt lat="45.79448" lon="4.64981">
        <ele>436.351898</ele>
        <time>2016-10-02T08:44:30Z</time>
      </trkpt>
      <trkpt lat="45.79459" lon="4.64986">
        <ele>434.863953</ele>
        <time>2016-10-02T08:44:32Z</time>
      </trkpt>
      <trkpt lat="45.79472" lon="4.64989">
        <ele>432.735748</ele>
        <time>2016-10-02T08:44:34Z</time>
      </trkpt>
      <trkpt lat="45.79486" lon="4.64994">
        <ele>430.786682</ele>
        <time>2016-10-02T08:44:36Z</time>
      </trkpt>
      <trkpt lat="45.79498" lon="4.65001">
        <ele>429.35083</ele>
        <time>2016-10-02T08:44:38Z</time>
      </trkpt>
      <trkpt lat="45.79513" lon="4.65004">
        <ele>428.002838</ele>
        <time>2016-10-02T08:44:40Z</time>
      </trkpt>
      <trkpt lat="45.79528" lon="4.65011">
        <ele>426.426422</ele>
        <time>2016-10-02T08:44:42Z</time>
      </trkpt>
      <trkpt lat="45.79543" lon="4.65018">
        <ele>425.429626</ele>
        <time>2016-10-02T08:44:44Z</time>
      </trkpt>
      <trkpt lat="45.79557" lon="4.65025">
        <ele>424.212494</ele>
        <time>2016-10-02T08:44:46Z</time>
      </trkpt>
      <trkpt lat="45.7957" lon="4.65036">
        <ele>422.628571</ele>
        <time>2016-10-02T08:44:48Z</time>
      </trkpt>
      <trkpt lat="45.79581" lon="4.6505">
        <ele>421.735291</ele>
        <time>2016-10-02T08:44:50Z</time>
      </trkpt>
      <trkpt lat="45.7959" lon="4.65063">
        <ele>420.907562</ele>
        <time>2016-10-02T08:44:52Z</time>
      </trkpt>
      <trkpt lat="45.79599" lon="4.65076">
        <ele>420.128815</ele>
        <time>2016-10-02T08:44:54Z</time>
      </trkpt>
      <trkpt lat="45.79608" lon="4.65086">
        <ele>419.046783</ele>
        <time>2016-10-02T08:44:56Z</time>
      </trkpt>
      <trkpt lat="45.79616" lon="4.65094">
        <ele>418.46759</ele>
        <time>2016-10-02T08:44:58Z</time>
      </trkpt>
      <trkpt lat="45.79623" lon="4.65103">
        <ele>417.83783</ele>
        <time>2016-10-02T08:45:00Z</time>
      </trkpt>
      <trkpt lat="45.79631" lon="4.6511">
        <ele>417.237</ele>
        <time>2016-10-02T08:45:02Z</time>
      </trkpt>
      <trkpt lat="45.7964" lon="4.65116">
        <ele>417.059875</ele>
        <time>2016-10-02T08:45:04Z</time>
      </trkpt>
      <trkpt lat="45.79652" lon="4.65119">
        <ele>416.431305</ele>
        <time>2016-10-02T08:45:06Z</time>
      </trkpt>
      <trkpt lat="45.79665" lon="4.65121">
        <ele>415.583252</ele>
        <time>2016-10-02T08:45:08Z</time>
      </trkpt>
      <trkpt lat="45.79678" lon="4.65123">
        <ele>414.66333</ele>
        <time>2016-10-02T08:45:10Z</time>
      </trkpt>
      <trkpt lat="45.79689" lon="4.65125">
        <ele>414.333405</ele>
        <time>2016-10-02T08:45:12Z</time>
      </trkpt>
      <trkpt lat="45.79701" lon="4.65123">
        <ele>414.391418</ele>
        <time>2016-10-02T08:45:14Z</time>
      </trkpt>
      <trkpt lat="45.79714" lon="4.65118">
        <ele>414.184082</ele>
        <time>2016-10-02T08:45:16Z</time>
      </trkpt>
      <trkpt lat="45.79727" lon="4.65115">
        <ele>413.880768</ele>
        <time>2016-10-02T08:45:18Z</time>
      </trkpt>
      <trkpt lat="45.79739" lon="4.6511">
        <ele>413.28717</ele>
        <time>2016-10-02T08:45:20Z</time>
      </trkpt>
      <trkpt lat="45.79752" lon="4.65106">
        <ele>412.425385</ele>
        <time>2016-10-02T08:45:22Z</time>
      </trkpt>
      <trkpt lat="45.79765" lon="4.651">
        <ele>411.4664</ele>
        <time>2016-10-02T08:45:24Z</time>
      </trkpt>
      <trkpt lat="45.79778" lon="4.65098">
        <ele>410.50177</ele>
        <time>2016-10-02T08:45:26Z</time>
      </trkpt>
      <trkpt lat="45.79788" lon="4.65098">
        <ele>409.846344</ele>
        <time>2016-10-02T08:45:28Z</time>
      </trkpt>
      <trkpt lat="45.79801" lon="4.65098">
        <ele>409.373901</ele>
        <time>2016-10-02T08:45:30Z</time>
      </trkpt>
      <trkpt lat="45.79814" lon="4.65098">
        <ele>408.391113</ele>
        <time>2016-10-02T08:45:32Z</time>
      </trkpt>
      <trkpt lat="45.79826" lon="4.65099">
        <ele>407.623962</ele>
        <time>2016-10-02T08:45:34Z</time>
      </trkpt>
      <trkpt lat="45.79837" lon="4.65097">
        <ele>406.858337</ele>
        <time>2016-10-02T08:45:36Z</time>
      </trkpt>
      <trkpt lat="45.79845" lon="4.65092">
        <ele>405.822205</ele>
        <time>2016-10-02T08:45:38Z</time>
      </trkpt>
      <trkpt lat="45.7985" lon="4.6509">
        <ele>404.946075</ele>
        <time>2016-10-02T08:45:40Z</time>
      </trkpt>
      <trkpt lat="45.79852" lon="4.65094">
        <ele>404.224731</ele>
        <time>2016-10-02T08:45:42Z</time>
      </trkpt>
      <trkpt lat="45.79851" lon="4.65099">
        <ele>403.734833</ele>
        <time>2016-10-02T08:45:44Z</time>
      </trkpt>
      <trkpt lat="45.7985" lon="4.65105">
        <ele>402.891815</ele>
        <time>2016-10-02T08:45:46Z</time>
      </trkpt>
      <trkpt lat="45.7985" lon="4.65109">
        <ele>401.963074</ele>
        <time>2016-10-02T08:45:48Z</time>
      </trkpt>
      <trkpt lat="45.7985" lon="4.65113">
        <ele>401.68042</ele>
        <time>2016-10-02T08:45:50Z</time>
      </trkpt>
      <trkpt lat="45.7985" lon="4.65118">
        <ele>401.423492</ele>
        <time>2016-10-02T08:45:52Z</time>
      </trkpt>
      <trkpt lat="45.7985" lon="4.65122">
        <ele>400.807434</ele>
        <time>2016-10-02T08:45:54Z</time>
      </trkpt>
      <trkpt lat="45.79848" lon="4.65127">
        <ele>400.373596</ele>
        <time>2016-10-02T08:45:56Z</time>
      </trkpt>
      <trkpt lat="45.79848" lon="4.65131">
        <ele>399.917267</ele>
        <time>2016-10-02T08:45:58Z</time>
      </trkpt>
      <trkpt lat="45.79848" lon="4.65134">
        <ele>399.725037</ele>
        <time>2016-10-02T08:46:00Z</time>
      </trkpt>
      <trkpt lat="45.79847" lon="4.65138">
        <ele>399.64093</ele>
        <time>2016-10-02T08:46:02Z</time>
      </trkpt>
      <trkpt lat="45.79847" lon="4.65143">
        <ele>399.418701</ele>
        <time>2016-10-02T08:46:04Z</time>
      </trkpt>
      <trkpt lat="45.79847" lon="4.65147">
        <ele>399.522217</ele>
        <time>2016-10-02T08:46:06Z</time>
      </trkpt>
      <trkpt lat="45.79849" lon="4.65152">
        <ele>399.776703</ele>
        <time>2016-10-02T08:46:08Z</time>
      </trkpt>
      <trkpt lat="45.7985" lon="4.65157">
        <ele>400.020172</ele>
        <time>2016-10-02T08:46:10Z</time>
      </trkpt>
      <trkpt lat="45.7985" lon="4.65162">
        <ele>400.345886</ele>
        <time>2016-10-02T08:46:12Z</time>
      </trkpt>
      <trkpt lat="45.7985" lon="4.65167">
        <ele>400.747467</ele>
        <time>2016-10-02T08:46:14Z</time>
      </trkpt>
      <trkpt lat="45.79851" lon="4.65171">
        <ele>401.383698</ele>
        <time>2016-10-02T08:46:16Z</time>
      </trkpt>
      <trkpt lat="45.79852" lon="4.65175">
        <ele>402.070618</ele>
        <time>2016-10-02T08:46:18Z</time>
      </trkpt>
      <trkpt lat="45.79853" lon="4.65179">
        <ele>402.499939</ele>
        <time>2016-10-02T08:46:20Z</time>
      </trkpt>
      <trkpt lat="45.79854" lon="4.65183">
        <ele>403.054352</ele>
        <time>2016-10-02T08:46:22Z</time>
      </trkpt>
      <trkpt lat="45.79856" lon="4.65186">
        <ele>403.399567</ele>
        <time>2016-10-02T08:46:24Z</time>
      </trkpt>
      <trkpt lat="45.79858" lon="4.65187">
        <ele>403.855957</ele>
        <time>2016-10-02T08:46:26Z</time>
      </trkpt>
      <trkpt lat="45.79862" lon="4.65189">
        <ele>404.071716</ele>
        <time>2016-10-02T08:46:28Z</time>
      </trkpt>
      <trkpt lat="45.79864" lon="4.65191">
        <ele>404.526276</ele>
        <time>2016-10-02T08:46:30Z</time>
      </trkpt>
      <trkpt lat="45.79866" lon="4.65193">
        <ele>405.00473</ele>
        <time>2016-10-02T08:46:32Z</time>
      </trkpt>
      <trkpt lat="45.79869" lon="4.65195">
        <ele>405.376038</ele>
        <time>2016-10-02T08:46:34Z</time>
      </trkpt>
      <trkpt lat="45.79871" lon="4.65197">
        <ele>405.845215</ele>
        <time>2016-10-02T08:46:36Z</time>
      </trkpt>
      <trkpt lat="45.79873" lon="4.65199">
        <ele>406.200043</ele>
        <time>2016-10-02T08:46:38Z</time>
      </trkpt>
      <trkpt lat="45.79875" lon="4.65202">
        <ele>406.606873</ele>
        <time>2016-10-02T08:46:40Z</time>
      </trkpt>
      <trkpt lat="45.79877" lon="4.65204">
        <ele>407.01474</ele>
        <time>2016-10-02T08:46:42Z</time>
      </trkpt>
      <trkpt lat="45.79878" lon="4.65206">
        <ele>407.940582</ele>
        <time>2016-10-02T08:46:46Z</time>
      </trkpt>
      <trkpt lat="45.79879" lon="4.65207">
        <ele>408.322571</ele>
        <time>2016-10-02T08:46:48Z</time>
      </trkpt>
      <trkpt lat="45.79881" lon="4.65209">
        <ele>408.728119</ele>
        <time>2016-10-02T08:46:50Z</time>
      </trkpt>
      <trkpt lat="45.79883" lon="4.65211">
        <ele>408.939636</ele>
        <time>2016-10-02T08:46:52Z</time>
      </trkpt>
      <trkpt lat="45.79885" lon="4.65211">
        <ele>409.333099</ele>
        <time>2016-10-02T08:46:54Z</time>
      </trkpt>
      <trkpt lat="45.79886" lon="4.65212">
        <ele>409.74408</ele>
        <time>2016-10-02T08:46:56Z</time>
      </trkpt>
      <trkpt lat="45.79888" lon="4.65215">
        <ele>410.794098</ele>
        <time>2016-10-02T08:47:03Z</time>
      </trkpt>
      <trkpt lat="45.7989" lon="4.65218">
        <ele>411.017426</ele>
        <time>2016-10-02T08:47:05Z</time>
      </trkpt>
      <trkpt lat="45.79892" lon="4.65221">
        <ele>411.308929</ele>
        <time>2016-10-02T08:47:07Z</time>
      </trkpt>
      <trkpt lat="45.79894" lon="4.65223">
        <ele>411.44278</ele>
        <time>2016-10-02T08:47:09Z</time>
      </trkpt>
      <trkpt lat="45.79896" lon="4.65226">
        <ele>411.717682</ele>
        <time>2016-10-02T08:47:11Z</time>
      </trkpt>
      <trkpt lat="45.79899" lon="4.65228">
        <ele>412.024841</ele>
        <time>2016-10-02T08:47:13Z</time>
      </trkpt>
      <trkpt lat="45.79901" lon="4.65231">
        <ele>412.359528</ele>
        <time>2016-10-02T08:47:15Z</time>
      </trkpt>
      <trkpt lat="45.79904" lon="4.65234">
        <ele>412.728821</ele>
        <time>2016-10-02T08:47:17Z</time>
      </trkpt>
      <trkpt lat="45.79907" lon="4.65237">
        <ele>413.025879</ele>
        <time>2016-10-02T08:47:19Z</time>
      </trkpt>
      <trkpt lat="45.79909" lon="4.6524">
        <ele>413.284119</ele>
        <time>2016-10-02T08:47:21Z</time>
      </trkpt>
      <trkpt lat="45.79911" lon="4.65243">
        <ele>413.580963</ele>
        <time>2016-10-02T08:47:23Z</time>
      </trkpt>
      <trkpt lat="45.79913" lon="4.65246">
        <ele>413.874664</ele>
        <time>2016-10-02T08:47:25Z</time>
      </trkpt>
      <trkpt lat="45.79915" lon="4.65249">
        <ele>414.161926</ele>
        <time>2016-10-02T08:47:27Z</time>
      </trkpt>
      <trkpt lat="45.79917" lon="4.65251">
        <ele>414.347656</ele>
        <time>2016-10-02T08:47:29Z</time>
      </trkpt>
      <trkpt lat="45.79919" lon="4.65255">
        <ele>414.719147</ele>
        <time>2016-10-02T08:47:31Z</time>
      </trkpt>
      <trkpt lat="45.7992" lon="4.65258">
        <ele>414.906982</ele>
        <time>2016-10-02T08:47:33Z</time>
      </trkpt>
      <trkpt lat="45.79922" lon="4.65261">
        <ele>415.183899</ele>
        <time>2016-10-02T08:47:35Z</time>
      </trkpt>
      <trkpt lat="45.79924" lon="4.65264">
        <ele>415.460388</ele>
        <time>2016-10-02T08:47:37Z</time>
      </trkpt>
      <trkpt lat="45.79927" lon="4.65266">
        <ele>415.717438</ele>
        <time>2016-10-02T08:47:39Z</time>
      </trkpt>
      <trkpt lat="45.79929" lon="4.65269">
        <ele>416.063171</ele>
        <time>2016-10-02T08:47:41Z</time>
      </trkpt>
      <trkpt lat="45.79931" lon="4.65272">
        <ele>416.430359</ele>
        <time>2016-10-02T08:47:43Z</time>
      </trkpt>
      <trkpt lat="45.79933" lon="4.65275">
        <ele>416.734955</ele>
        <time>2016-10-02T08:47:45Z</time>
      </trkpt>
      <trkpt lat="45.79936" lon="4.65278">
        <ele>417.117249</ele>
        <time>2016-10-02T08:47:47Z</time>
      </trkpt>
      <trkpt lat="45.79939" lon="4.65281">
        <ele>417.470398</ele>
        <time>2016-10-02T08:47:49Z</time>
      </trkpt>
      <trkpt lat="45.79942" lon="4.65284">
        <ele>417.949951</ele>
        <time>2016-10-02T08:47:51Z</time>
      </trkpt>
      <trkpt lat="45.79945" lon="4.65286">
        <ele>418.302155</ele>
        <time>2016-10-02T08:47:53Z</time>
      </trkpt>
      <trkpt lat="45.79948" lon="4.65289">
        <ele>418.608948</ele>
        <time>2016-10-02T08:47:55Z</time>
      </trkpt>
      <trkpt lat="45.79951" lon="4.65292">
        <ele>418.904968</ele>
        <time>2016-10-02T08:47:57Z</time>
      </trkpt>
      <trkpt lat="45.79954" lon="4.65295">
        <ele>419.196686</ele>
        <time>2016-10-02T08:47:59Z</time>
      </trkpt>
      <trkpt lat="45.79957" lon="4.65298">
        <ele>419.415833</ele>
        <time>2016-10-02T08:48:01Z</time>
      </trkpt>
      <trkpt lat="45.7996" lon="4.65301">
        <ele>419.778259</ele>
        <time>2016-10-02T08:48:03Z</time>
      </trkpt>
      <trkpt lat="45.79964" lon="4.65304">
        <ele>420.171539</ele>
        <time>2016-10-02T08:48:05Z</time>
      </trkpt>
      <trkpt lat="45.79967" lon="4.65307">
        <ele>420.39624</ele>
        <time>2016-10-02T08:48:07Z</time>
      </trkpt>
      <trkpt lat="45.79971" lon="4.65311">
        <ele>420.674164</ele>
        <time>2016-10-02T08:48:09Z</time>
      </trkpt>
      <trkpt lat="45.79975" lon="4.65315">
        <ele>421.03125</ele>
        <time>2016-10-02T08:48:11Z</time>
      </trkpt>
      <trkpt lat="45.7998" lon="4.65319">
        <ele>421.344635</ele>
        <time>2016-10-02T08:48:13Z</time>
      </trkpt>
      <trkpt lat="45.79984" lon="4.65323">
        <ele>421.756348</ele>
        <time>2016-10-02T08:48:15Z</time>
      </trkpt>
      <trkpt lat="45.79989" lon="4.65328">
        <ele>422.119446</ele>
        <time>2016-10-02T08:48:17Z</time>
      </trkpt>
      <trkpt lat="45.79994" lon="4.65332">
        <ele>422.508484</ele>
        <time>2016-10-02T08:48:19Z</time>
      </trkpt>
      <trkpt lat="45.79999" lon="4.65338">
        <ele>422.690033</ele>
        <time>2016-10-02T08:48:21Z</time>
      </trkpt>
      <trkpt lat="45.80005" lon="4.65344">
        <ele>422.815491</ele>
        <time>2016-10-02T08:48:23Z</time>
      </trkpt>
      <trkpt lat="45.8001" lon="4.65349">
        <ele>423.161285</ele>
        <time>2016-10-02T08:48:25Z</time>
      </trkpt>
      <trkpt lat="45.80016" lon="4.65354">
        <ele>423.447815</ele>
        <time>2016-10-02T08:48:27Z</time>
      </trkpt>
      <trkpt lat="45.80022" lon="4.6536">
        <ele>423.747162</ele>
        <time>2016-10-02T08:48:29Z</time>
      </trkpt>
      <trkpt lat="45.80027" lon="4.65366">
        <ele>423.98233</ele>
        <time>2016-10-02T08:48:31Z</time>
      </trkpt>
      <trkpt lat="45.80034" lon="4.65371">
        <ele>424.28717</ele>
        <time>2016-10-02T08:48:33Z</time>
      </trkpt>
      <trkpt lat="45.8004" lon="4.65377">
        <ele>424.609314</ele>
        <time>2016-10-02T08:48:35Z</time>
      </trkpt>
      <trkpt lat="45.80047" lon="4.65383">
        <ele>424.775787</ele>
        <time>2016-10-02T08:48:37Z</time>
      </trkpt>
      <trkpt lat="45.80053" lon="4.6539">
        <ele>424.931458</ele>
        <time>2016-10-02T08:48:39Z</time>
      </trkpt>
      <trkpt lat="45.80059" lon="4.65395">
        <ele>425.126953</ele>
        <time>2016-10-02T08:48:41Z</time>
      </trkpt>
      <trkpt lat="45.80066" lon="4.65402">
        <ele>425.30426</ele>
        <time>2016-10-02T08:48:43Z</time>
      </trkpt>
      <trkpt lat="45.80072" lon="4.65408">
        <ele>425.529602</ele>
        <time>2016-10-02T08:48:45Z</time>
      </trkpt>
      <trkpt lat="45.80078" lon="4.65415">
        <ele>425.773865</ele>
        <time>2016-10-02T08:48:47Z</time>
      </trkpt>
      <trkpt lat="45.80084" lon="4.65421">
        <ele>426.093842</ele>
        <time>2016-10-02T08:48:49Z</time>
      </trkpt>
      <trkpt lat="45.8009" lon="4.65427">
        <ele>426.36499</ele>
        <time>2016-10-02T08:48:51Z</time>
      </trkpt>
      <trkpt lat="45.80095" lon="4.6543">
        <ele>426.53476</ele>
        <time>2016-10-02T08:48:53Z</time>
      </trkpt>
      <trkpt lat="45.80098" lon="4.65431">
        <ele>426.647156</ele>
        <time>2016-10-02T08:48:55Z</time>
      </trkpt>
      <trkpt lat="45.80101" lon="4.6543">
        <ele>426.647156</ele>
        <time>2016-10-02T08:48:57Z</time>
      </trkpt>
      <trkpt lat="45.80102" lon="4.65428">
        <ele>426.69693</ele>
        <time>2016-10-02T08:48:59Z</time>
      </trkpt>
      <trkpt lat="45.80104" lon="4.65426">
        <ele>426.7453</ele>
        <time>2016-10-02T08:49:01Z</time>
      </trkpt>
      <trkpt lat="45.80106" lon="4.65422">
        <ele>426.812347</ele>
        <time>2016-10-02T08:49:03Z</time>
      </trkpt>
      <trkpt lat="45.80108" lon="4.65417">
        <ele>427.091125</ele>
        <time>2016-10-02T08:49:05Z</time>
      </trkpt>
      <trkpt lat="45.8011" lon="4.65412">
        <ele>427.091125</ele>
        <time>2016-10-02T08:49:07Z</time>
      </trkpt>
      <trkpt lat="45.80113" lon="4.65407">
        <ele>427.21524</ele>
        <time>2016-10-02T08:49:09Z</time>
      </trkpt>
      <trkpt lat="45.80116" lon="4.65402">
        <ele>427.308411</ele>
        <time>2016-10-02T08:49:11Z</time>
      </trkpt>
      <trkpt lat="45.80118" lon="4.65396">
        <ele>427.434967</ele>
        <time>2016-10-02T08:49:13Z</time>
      </trkpt>
      <trkpt lat="45.80121" lon="4.6539">
        <ele>427.38736</ele>
        <time>2016-10-02T08:49:15Z</time>
      </trkpt>
      <trkpt lat="45.80123" lon="4.65385">
        <ele>427.370056</ele>
        <time>2016-10-02T08:49:17Z</time>
      </trkpt>
      <trkpt lat="45.80126" lon="4.65379">
        <ele>427.494232</ele>
        <time>2016-10-02T08:49:19Z</time>
      </trkpt>
      <trkpt lat="45.80129" lon="4.65373">
        <ele>427.58075</ele>
        <time>2016-10-02T08:49:21Z</time>
      </trkpt>
      <trkpt lat="45.80133" lon="4.65365">
        <ele>427.654236</ele>
        <time>2016-10-02T08:49:23Z</time>
      </trkpt>
      <trkpt lat="45.80137" lon="4.65357">
        <ele>427.688812</ele>
        <time>2016-10-02T08:49:25Z</time>
      </trkpt>
      <trkpt lat="45.8014" lon="4.65349">
        <ele>427.799164</ele>
        <time>2016-10-02T08:49:27Z</time>
      </trkpt>
      <trkpt lat="45.80144" lon="4.6534">
        <ele>427.740784</ele>
        <time>2016-10-02T08:49:29Z</time>
      </trkpt>
      <trkpt lat="45.80148" lon="4.6533">
        <ele>427.820801</ele>
        <time>2016-10-02T08:49:31Z</time>
      </trkpt>
      <trkpt lat="45.80153" lon="4.6532">
        <ele>427.818604</ele>
        <time>2016-10-02T08:49:33Z</time>
      </trkpt>
      <trkpt lat="45.80158" lon="4.65308">
        <ele>427.743469</ele>
        <time>2016-10-02T08:49:35Z</time>
      </trkpt>
      <trkpt lat="45.80163" lon="4.65296">
        <ele>427.840759</ele>
        <time>2016-10-02T08:49:37Z</time>
      </trkpt>
      <trkpt lat="45.8017" lon="4.65284">
        <ele>427.826813</ele>
        <time>2016-10-02T08:49:39Z</time>
      </trkpt>
      <trkpt lat="45.80177" lon="4.65273">
        <ele>427.697083</ele>
        <time>2016-10-02T08:49:41Z</time>
      </trkpt>
      <trkpt lat="45.80184" lon="4.65261">
        <ele>427.834167</ele>
        <time>2016-10-02T08:49:43Z</time>
      </trkpt>
      <trkpt lat="45.80191" lon="4.65249">
        <ele>427.732666</ele>
        <time>2016-10-02T08:49:45Z</time>
      </trkpt>
      <trkpt lat="45.80198" lon="4.65235">
        <ele>427.620209</ele>
        <time>2016-10-02T08:49:47Z</time>
      </trkpt>
      <trkpt lat="45.80205" lon="4.6522">
        <ele>427.414886</ele>
        <time>2016-10-02T08:49:49Z</time>
      </trkpt>
      <trkpt lat="45.80213" lon="4.65205">
        <ele>427.618225</ele>
        <time>2016-10-02T08:49:51Z</time>
      </trkpt>
      <trkpt lat="45.80222" lon="4.65189">
        <ele>427.118896</ele>
        <time>2016-10-02T08:49:53Z</time>
      </trkpt>
      <trkpt lat="45.80232" lon="4.65173">
        <ele>426.766937</ele>
        <time>2016-10-02T08:49:55Z</time>
      </trkpt>
      <trkpt lat="45.80244" lon="4.65156">
        <ele>426.699524</ele>
        <time>2016-10-02T08:49:57Z</time>
      </trkpt>
      <trkpt lat="45.80255" lon="4.65139">
        <ele>426.329834</ele>
        <time>2016-10-02T08:49:59Z</time>
      </trkpt>
      <trkpt lat="45.80265" lon="4.65121">
        <ele>425.820953</ele>
        <time>2016-10-02T08:50:01Z</time>
      </trkpt>
      <trkpt lat="45.80275" lon="4.65102">
        <ele>425.318542</ele>
        <time>2016-10-02T08:50:03Z</time>
      </trkpt>
      <trkpt lat="45.80282" lon="4.65082">
        <ele>424.893555</ele>
        <time>2016-10-02T08:50:05Z</time>
      </trkpt>
      <trkpt lat="45.80288" lon="4.65063">
        <ele>424.753082</ele>
        <time>2016-10-02T08:50:07Z</time>
      </trkpt>
      <trkpt lat="45.80294" lon="4.65043">
        <ele>424.214844</ele>
        <time>2016-10-02T08:50:09Z</time>
      </trkpt>
      <trkpt lat="45.80299" lon="4.65023">
        <ele>423.917725</ele>
        <time>2016-10-02T08:50:11Z</time>
      </trkpt>
      <trkpt lat="45.80305" lon="4.65003">
        <ele>423.288666</ele>
        <time>2016-10-02T08:50:13Z</time>
      </trkpt>
      <trkpt lat="45.8031" lon="4.64985">
        <ele>423.044342</ele>
        <time>2016-10-02T08:50:15Z</time>
      </trkpt>
      <trkpt lat="45.80315" lon="4.64967">
        <ele>422.830261</ele>
        <time>2016-10-02T08:50:17Z</time>
      </trkpt>
      <trkpt lat="45.80321" lon="4.6495">
        <ele>422.451599</ele>
        <time>2016-10-02T08:50:19Z</time>
      </trkpt>
      <trkpt lat="45.80327" lon="4.64935">
        <ele>421.897369</ele>
        <time>2016-10-02T08:50:21Z</time>
      </trkpt>
      <trkpt lat="45.80335" lon="4.64921">
        <ele>421.575867</ele>
        <time>2016-10-02T08:50:23Z</time>
      </trkpt>
      <trkpt lat="45.80344" lon="4.64907">
        <ele>421.005066</ele>
        <time>2016-10-02T08:50:25Z</time>
      </trkpt>
      <trkpt lat="45.80353" lon="4.64891">
        <ele>420.77124</ele>
        <time>2016-10-02T08:50:27Z</time>
      </trkpt>
      <trkpt lat="45.80361" lon="4.64873">
        <ele>420.682678</ele>
        <time>2016-10-02T08:50:29Z</time>
      </trkpt>
      <trkpt lat="45.8037" lon="4.64854">
        <ele>419.841949</ele>
        <time>2016-10-02T08:50:31Z</time>
      </trkpt>
      <trkpt lat="45.8038" lon="4.64832">
        <ele>419.483246</ele>
        <time>2016-10-02T08:50:33Z</time>
      </trkpt>
      <trkpt lat="45.80395" lon="4.64814">
        <ele>419.364441</ele>
        <time>2016-10-02T08:50:35Z</time>
      </trkpt>
      <trkpt lat="45.8041" lon="4.64799">
        <ele>419.278656</ele>
        <time>2016-10-02T08:50:37Z</time>
      </trkpt>
      <trkpt lat="45.80426" lon="4.64782">
        <ele>418.475433</ele>
        <time>2016-10-02T08:50:39Z</time>
      </trkpt>
      <trkpt lat="45.80437" lon="4.64761">
        <ele>417.967865</ele>
        <time>2016-10-02T08:50:41Z</time>
      </trkpt>
      <trkpt lat="45.80442" lon="4.64733">
        <ele>417.458344</ele>
        <time>2016-10-02T08:50:43Z</time>
      </trkpt>
      <trkpt lat="45.80449" lon="4.64704">
        <ele>416.922699</ele>
        <time>2016-10-02T08:50:45Z</time>
      </trkpt>
      <trkpt lat="45.80457" lon="4.64674">
        <ele>416.148376</ele>
        <time>2016-10-02T08:50:47Z</time>
      </trkpt>
      <trkpt lat="45.80465" lon="4.64646">
        <ele>414.855286</ele>
        <time>2016-10-02T08:50:49Z</time>
      </trkpt>
      <trkpt lat="45.80475" lon="4.6462">
        <ele>414.066895</ele>
        <time>2016-10-02T08:50:51Z</time>
      </trkpt>
      <trkpt lat="45.80484" lon="4.646">
        <ele>413.080627</ele>
        <time>2016-10-02T08:50:53Z</time>
      </trkpt>
      <trkpt lat="45.80492" lon="4.64583">
        <ele>412.672607</ele>
        <time>2016-10-02T08:50:55Z</time>
      </trkpt>
      <trkpt lat="45.80498" lon="4.64572">
        <ele>411.396637</ele>
        <time>2016-10-02T08:50:57Z</time>
      </trkpt>
      <trkpt lat="45.80502" lon="4.64566">
        <ele>410.24176</ele>
        <time>2016-10-02T08:50:59Z</time>
      </trkpt>
      <trkpt lat="45.80507" lon="4.64563">
        <ele>409.061371</ele>
        <time>2016-10-02T08:51:01Z</time>
      </trkpt>
      <trkpt lat="45.80514" lon="4.64558">
        <ele>408.268707</ele>
        <time>2016-10-02T08:51:03Z</time>
      </trkpt>
      <trkpt lat="45.8052" lon="4.64546">
        <ele>407.22583</ele>
        <time>2016-10-02T08:51:05Z</time>
      </trkpt>
      <trkpt lat="45.80524" lon="4.64532">
        <ele>406.034424</ele>
        <time>2016-10-02T08:51:07Z</time>
      </trkpt>
      <trkpt lat="45.80528" lon="4.64515">
        <ele>405.106628</ele>
        <time>2016-10-02T08:51:09Z</time>
      </trkpt>
      <trkpt lat="45.80534" lon="4.64498">
        <ele>403.800964</ele>
        <time>2016-10-02T08:51:11Z</time>
      </trkpt>
      <trkpt lat="45.80539" lon="4.64481">
        <ele>403.10199</ele>
        <time>2016-10-02T08:51:13Z</time>
      </trkpt>
      <trkpt lat="45.80546" lon="4.64464">
        <ele>401.997131</ele>
        <time>2016-10-02T08:51:15Z</time>
      </trkpt>
      <trkpt lat="45.80553" lon="4.64446">
        <ele>401.014587</ele>
        <time>2016-10-02T08:51:17Z</time>
      </trkpt>
      <trkpt lat="45.80561" lon="4.64428">
        <ele>399.944336</ele>
        <time>2016-10-02T08:51:19Z</time>
      </trkpt>
      <trkpt lat="45.80569" lon="4.6441">
        <ele>399.577637</ele>
        <time>2016-10-02T08:51:21Z</time>
      </trkpt>
      <trkpt lat="45.80577" lon="4.64391">
        <ele>398.938904</ele>
        <time>2016-10-02T08:51:23Z</time>
      </trkpt>
      <trkpt lat="45.80586" lon="4.64372">
        <ele>398.229248</ele>
        <time>2016-10-02T08:51:25Z</time>
      </trkpt>
      <trkpt lat="45.80593" lon="4.64353">
        <ele>397.347229</ele>
        <time>2016-10-02T08:51:27Z</time>
      </trkpt>
      <trkpt lat="45.80601" lon="4.64335">
        <ele>396.896912</ele>
        <time>2016-10-02T08:51:29Z</time>
      </trkpt>
      <trkpt lat="45.8061" lon="4.64317">
        <ele>396.796875</ele>
        <time>2016-10-02T08:51:31Z</time>
      </trkpt>
      <trkpt lat="45.80616" lon="4.64297">
        <ele>396.451141</ele>
        <time>2016-10-02T08:51:33Z</time>
      </trkpt>
      <trkpt lat="45.80623" lon="4.64278">
        <ele>396.239685</ele>
        <time>2016-10-02T08:51:35Z</time>
      </trkpt>
      <trkpt lat="45.80629" lon="4.64258">
        <ele>395.914185</ele>
        <time>2016-10-02T08:51:37Z</time>
      </trkpt>
      <trkpt lat="45.80634" lon="4.64237">
        <ele>395.746033</ele>
        <time>2016-10-02T08:51:39Z</time>
      </trkpt>
      <trkpt lat="45.80637" lon="4.64216">
        <ele>395.45932</ele>
        <time>2016-10-02T08:51:41Z</time>
      </trkpt>
      <trkpt lat="45.80639" lon="4.64193">
        <ele>395.13385</ele>
        <time>2016-10-02T08:51:43Z</time>
      </trkpt>
      <trkpt lat="45.80641" lon="4.64172">
        <ele>394.787201</ele>
        <time>2016-10-02T08:51:45Z</time>
      </trkpt>
      <trkpt lat="45.8065" lon="4.64155">
        <ele>394.524475</ele>
        <time>2016-10-02T08:51:47Z</time>
      </trkpt>
      <trkpt lat="45.80664" lon="4.6415">
        <ele>394.298309</ele>
        <time>2016-10-02T08:51:49Z</time>
      </trkpt>
      <trkpt lat="45.80678" lon="4.64159">
        <ele>393.822052</ele>
        <time>2016-10-02T08:51:51Z</time>
      </trkpt>
      <trkpt lat="45.8069" lon="4.64177">
        <ele>393.662567</ele>
        <time>2016-10-02T08:51:53Z</time>
      </trkpt>
      <trkpt lat="45.80701" lon="4.64194">
        <ele>393.227051</ele>
        <time>2016-10-02T08:51:55Z</time>
      </trkpt>
      <trkpt lat="45.80714" lon="4.64203">
        <ele>393.028748</ele>
        <time>2016-10-02T08:51:57Z</time>
      </trkpt>
      <trkpt lat="45.80723" lon="4.64198">
        <ele>392.584839</ele>
        <time>2016-10-02T08:51:59Z</time>
      </trkpt>
      <trkpt lat="45.80727" lon="4.64189">
        <ele>392.050598</ele>
        <time>2016-10-02T08:52:01Z</time>
      </trkpt>
      <trkpt lat="45.80731" lon="4.64179">
        <ele>391.697571</ele>
        <time>2016-10-02T08:52:03Z</time>
      </trkpt>
      <trkpt lat="45.80734" lon="4.64171">
        <ele>391.195496</ele>
        <time>2016-10-02T08:52:05Z</time>
      </trkpt>
      <trkpt lat="45.80737" lon="4.64163">
        <ele>391.057556</ele>
        <time>2016-10-02T08:52:07Z</time>
      </trkpt>
      <trkpt lat="45.80741" lon="4.64155">
        <ele>390.826965</ele>
        <time>2016-10-02T08:52:09Z</time>
      </trkpt>
      <trkpt lat="45.80743" lon="4.64147">
        <ele>390.557556</ele>
        <time>2016-10-02T08:52:11Z</time>
      </trkpt>
      <trkpt lat="45.80745" lon="4.64139">
        <ele>390.366638</ele>
        <time>2016-10-02T08:52:13Z</time>
      </trkpt>
      <trkpt lat="45.80748" lon="4.64133">
        <ele>390.243835</ele>
        <time>2016-10-02T08:52:15Z</time>
      </trkpt>
      <trkpt lat="45.8075" lon="4.64126">
        <ele>390.024231</ele>
        <time>2016-10-02T08:52:17Z</time>
      </trkpt>
      <trkpt lat="45.80751" lon="4.6412">
        <ele>389.914246</ele>
        <time>2016-10-02T08:52:19Z</time>
      </trkpt>
      <trkpt lat="45.80753" lon="4.64113">
        <ele>389.785706</ele>
        <time>2016-10-02T08:52:21Z</time>
      </trkpt>
      <trkpt lat="45.80754" lon="4.64107">
        <ele>389.787537</ele>
        <time>2016-10-02T08:52:23Z</time>
      </trkpt>
      <trkpt lat="45.80756" lon="4.641">
        <ele>389.892487</ele>
        <time>2016-10-02T08:52:25Z</time>
      </trkpt>
      <trkpt lat="45.80757" lon="4.64094">
        <ele>390.054138</ele>
        <time>2016-10-02T08:52:27Z</time>
      </trkpt>
      <trkpt lat="45.80758" lon="4.64088">
        <ele>390.245789</ele>
        <time>2016-10-02T08:52:29Z</time>
      </trkpt>
      <trkpt lat="45.80758" lon="4.64082">
        <ele>390.405182</ele>
        <time>2016-10-02T08:52:31Z</time>
      </trkpt>
      <trkpt lat="45.80759" lon="4.64076">
        <ele>390.592621</ele>
        <time>2016-10-02T08:52:33Z</time>
      </trkpt>
      <trkpt lat="45.8076" lon="4.6407">
        <ele>390.842926</ele>
        <time>2016-10-02T08:52:35Z</time>
      </trkpt>
      <trkpt lat="45.80761" lon="4.64064">
        <ele>391.14032</ele>
        <time>2016-10-02T08:52:37Z</time>
      </trkpt>
      <trkpt lat="45.80762" lon="4.64059">
        <ele>391.467926</ele>
        <time>2016-10-02T08:52:39Z</time>
      </trkpt>
      <trkpt lat="45.80763" lon="4.64054">
        <ele>391.916107</ele>
        <time>2016-10-02T08:52:41Z</time>
      </trkpt>
      <trkpt lat="45.80764" lon="4.64049">
        <ele>392.59906</ele>
        <time>2016-10-02T08:52:43Z</time>
      </trkpt>
      <trkpt lat="45.80765" lon="4.64044">
        <ele>393.00824</ele>
        <time>2016-10-02T08:52:45Z</time>
      </trkpt>
      <trkpt lat="45.80766" lon="4.64038">
        <ele>393.639618</ele>
        <time>2016-10-02T08:52:47Z</time>
      </trkpt>
      <trkpt lat="45.80767" lon="4.64033">
        <ele>394.115936</ele>
        <time>2016-10-02T08:52:49Z</time>
      </trkpt>
      <trkpt lat="45.80768" lon="4.64028">
        <ele>394.521179</ele>
        <time>2016-10-02T08:52:51Z</time>
      </trkpt>
      <trkpt lat="45.80769" lon="4.64022">
        <ele>394.974854</ele>
        <time>2016-10-02T08:52:53Z</time>
      </trkpt>
      <trkpt lat="45.8077" lon="4.64017">
        <ele>395.145142</ele>
        <time>2016-10-02T08:52:55Z</time>
      </trkpt>
      <trkpt lat="45.80771" lon="4.64012">
        <ele>395.639435</ele>
        <time>2016-10-02T08:52:57Z</time>
      </trkpt>
      <trkpt lat="45.80772" lon="4.64006">
        <ele>396.135071</ele>
        <time>2016-10-02T08:52:59Z</time>
      </trkpt>
      <trkpt lat="45.80773" lon="4.64">
        <ele>396.577026</ele>
        <time>2016-10-02T08:53:01Z</time>
      </trkpt>
      <trkpt lat="45.80773" lon="4.63995">
        <ele>397.01178</ele>
        <time>2016-10-02T08:53:03Z</time>
      </trkpt>
      <trkpt lat="45.80774" lon="4.63989">
        <ele>397.452759</ele>
        <time>2016-10-02T08:53:05Z</time>
      </trkpt>
      <trkpt lat="45.80774" lon="4.63984">
        <ele>397.898071</ele>
        <time>2016-10-02T08:53:07Z</time>
      </trkpt>
      <trkpt lat="45.80774" lon="4.63978">
        <ele>398.224182</ele>
        <time>2016-10-02T08:53:09Z</time>
      </trkpt>
      <trkpt lat="45.80774" lon="4.63973">
        <ele>398.610199</ele>
        <time>2016-10-02T08:53:11Z</time>
      </trkpt>
      <trkpt lat="45.80773" lon="4.63967">
        <ele>399.078186</ele>
        <time>2016-10-02T08:53:13Z</time>
      </trkpt>
      <trkpt lat="45.80773" lon="4.63961">
        <ele>399.541565</ele>
        <time>2016-10-02T08:53:15Z</time>
      </trkpt>
      <trkpt lat="45.80772" lon="4.63955">
        <ele>399.944855</ele>
        <time>2016-10-02T08:53:17Z</time>
      </trkpt>
      <trkpt lat="45.80772" lon="4.63949">
        <ele>400.085022</ele>
        <time>2016-10-02T08:53:19Z</time>
      </trkpt>
      <trkpt lat="45.80772" lon="4.63944">
        <ele>400.420593</ele>
        <time>2016-10-02T08:53:21Z</time>
      </trkpt>
      <trkpt lat="45.80772" lon="4.63938">
        <ele>400.778625</ele>
        <time>2016-10-02T08:53:23Z</time>
      </trkpt>
      <trkpt lat="45.80772" lon="4.63932">
        <ele>401.229431</ele>
        <time>2016-10-02T08:53:25Z</time>
      </trkpt>
      <trkpt lat="45.80773" lon="4.63926">
        <ele>401.736359</ele>
        <time>2016-10-02T08:53:27Z</time>
      </trkpt>
      <trkpt lat="45.80773" lon="4.63921">
        <ele>402.144501</ele>
        <time>2016-10-02T08:53:29Z</time>
      </trkpt>
      <trkpt lat="45.80773" lon="4.63915">
        <ele>402.528442</ele>
        <time>2016-10-02T08:53:31Z</time>
      </trkpt>
      <trkpt lat="45.80774" lon="4.6391">
        <ele>402.905945</ele>
        <time>2016-10-02T08:53:33Z</time>
      </trkpt>
      <trkpt lat="45.80774" lon="4.63904">
        <ele>403.362244</ele>
        <time>2016-10-02T08:53:35Z</time>
      </trkpt>
      <trkpt lat="45.80775" lon="4.63899">
        <ele>403.864258</ele>
        <time>2016-10-02T08:53:37Z</time>
      </trkpt>
      <trkpt lat="45.80775" lon="4.63893">
        <ele>404.267731</ele>
        <time>2016-10-02T08:53:39Z</time>
      </trkpt>
      <trkpt lat="45.80776" lon="4.63888">
        <ele>404.671143</ele>
        <time>2016-10-02T08:53:41Z</time>
      </trkpt>
      <trkpt lat="45.80776" lon="4.63882">
        <ele>404.891235</ele>
        <time>2016-10-02T08:53:43Z</time>
      </trkpt>
      <trkpt lat="45.80776" lon="4.63876">
        <ele>405.277466</ele>
        <time>2016-10-02T08:53:45Z</time>
      </trkpt>
      <trkpt lat="45.80776" lon="4.63871">
        <ele>405.757813</ele>
        <time>2016-10-02T08:53:47Z</time>
      </trkpt>
      <trkpt lat="45.80777" lon="4.63865">
        <ele>406.134155</ele>
        <time>2016-10-02T08:53:49Z</time>
      </trkpt>
      <trkpt lat="45.80777" lon="4.63859">
        <ele>406.555481</ele>
        <time>2016-10-02T08:53:51Z</time>
      </trkpt>
      <trkpt lat="45.80777" lon="4.63854">
        <ele>406.993591</ele>
        <time>2016-10-02T08:53:53Z</time>
      </trkpt>
      <trkpt lat="45.80778" lon="4.63848">
        <ele>407.330383</ele>
        <time>2016-10-02T08:53:55Z</time>
      </trkpt>
      <trkpt lat="45.80778" lon="4.63842">
        <ele>407.682617</ele>
        <time>2016-10-02T08:53:57Z</time>
      </trkpt>
      <trkpt lat="45.80778" lon="4.63837">
        <ele>408.101349</ele>
        <time>2016-10-02T08:53:59Z</time>
      </trkpt>
      <trkpt lat="45.80778" lon="4.63831">
        <ele>408.542542</ele>
        <time>2016-10-02T08:54:01Z</time>
      </trkpt>
      <trkpt lat="45.80777" lon="4.63826">
        <ele>408.975891</ele>
        <time>2016-10-02T08:54:03Z</time>
      </trkpt>
      <trkpt lat="45.80777" lon="4.6382">
        <ele>409.37735</ele>
        <time>2016-10-02T08:54:05Z</time>
      </trkpt>
      <trkpt lat="45.80777" lon="4.63814">
        <ele>409.661438</ele>
        <time>2016-10-02T08:54:07Z</time>
      </trkpt>
      <trkpt lat="45.80776" lon="4.63809">
        <ele>409.793121</ele>
        <time>2016-10-02T08:54:09Z</time>
      </trkpt>
      <trkpt lat="45.80776" lon="4.63804">
        <ele>410.148834</ele>
        <time>2016-10-02T08:54:11Z</time>
      </trkpt>
      <trkpt lat="45.80776" lon="4.63798">
        <ele>410.532654</ele>
        <time>2016-10-02T08:54:13Z</time>
      </trkpt>
      <trkpt lat="45.80776" lon="4.63792">
        <ele>410.916504</ele>
        <time>2016-10-02T08:54:15Z</time>
      </trkpt>
      <trkpt lat="45.80776" lon="4.63787">
        <ele>411.203705</ele>
        <time>2016-10-02T08:54:17Z</time>
      </trkpt>
      <trkpt lat="45.80776" lon="4.63781">
        <ele>411.557861</ele>
        <time>2016-10-02T08:54:19Z</time>
      </trkpt>
      <trkpt lat="45.80776" lon="4.63776">
        <ele>411.833191</ele>
        <time>2016-10-02T08:54:21Z</time>
      </trkpt>
      <trkpt lat="45.80775" lon="4.6377">
        <ele>412.157043</ele>
        <time>2016-10-02T08:54:23Z</time>
      </trkpt>
      <trkpt lat="45.80776" lon="4.63765">
        <ele>412.301666</ele>
        <time>2016-10-02T08:54:25Z</time>
      </trkpt>
      <trkpt lat="45.80776" lon="4.6376">
        <ele>412.476563</ele>
        <time>2016-10-02T08:54:27Z</time>
      </trkpt>
      <trkpt lat="45.80776" lon="4.63755">
        <ele>412.661621</ele>
        <time>2016-10-02T08:54:29Z</time>
      </trkpt>
      <trkpt lat="45.80776" lon="4.63749">
        <ele>412.815765</ele>
        <time>2016-10-02T08:54:31Z</time>
      </trkpt>
      <trkpt lat="45.80776" lon="4.63743">
        <ele>413.039215</ele>
        <time>2016-10-02T08:54:33Z</time>
      </trkpt>
      <trkpt lat="45.80777" lon="4.63737">
        <ele>413.281097</ele>
        <time>2016-10-02T08:54:35Z</time>
      </trkpt>
      <trkpt lat="45.80779" lon="4.63731">
        <ele>413.466736</ele>
        <time>2016-10-02T08:54:37Z</time>
      </trkpt>
      <trkpt lat="45.8078" lon="4.63726">
        <ele>413.755676</ele>
        <time>2016-10-02T08:54:39Z</time>
      </trkpt>
      <trkpt lat="45.80782" lon="4.63717">
        <ele>413.816986</ele>
        <time>2016-10-02T08:54:42Z</time>
      </trkpt>
      <trkpt lat="45.80784" lon="4.63711">
        <ele>414.132324</ele>
        <time>2016-10-02T08:54:44Z</time>
      </trkpt>
      <trkpt lat="45.80786" lon="4.63706">
        <ele>414.36557</ele>
        <time>2016-10-02T08:54:46Z</time>
      </trkpt>
      <trkpt lat="45.80788" lon="4.637">
        <ele>414.705139</ele>
        <time>2016-10-02T08:54:48Z</time>
      </trkpt>
      <trkpt lat="45.80789" lon="4.63694">
        <ele>414.804504</ele>
        <time>2016-10-02T08:54:50Z</time>
      </trkpt>
      <trkpt lat="45.8079" lon="4.63689">
        <ele>415.073181</ele>
        <time>2016-10-02T08:54:52Z</time>
      </trkpt>
      <trkpt lat="45.80791" lon="4.63684">
        <ele>415.425354</ele>
        <time>2016-10-02T08:54:54Z</time>
      </trkpt>
      <trkpt lat="45.80792" lon="4.63679">
        <ele>415.644348</ele>
        <time>2016-10-02T08:54:56Z</time>
      </trkpt>
      <trkpt lat="45.80793" lon="4.63674">
        <ele>415.951477</ele>
        <time>2016-10-02T08:54:58Z</time>
      </trkpt>
      <trkpt lat="45.80793" lon="4.6367">
        <ele>416.292572</ele>
        <time>2016-10-02T08:55:00Z</time>
      </trkpt>
      <trkpt lat="45.80793" lon="4.63665">
        <ele>416.5755</ele>
        <time>2016-10-02T08:55:02Z</time>
      </trkpt>
      <trkpt lat="45.80794" lon="4.63659">
        <ele>416.976166</ele>
        <time>2016-10-02T08:55:04Z</time>
      </trkpt>
      <trkpt lat="45.80794" lon="4.63655">
        <ele>417.324036</ele>
        <time>2016-10-02T08:55:06Z</time>
      </trkpt>
      <trkpt lat="45.80795" lon="4.6365">
        <ele>417.740967</ele>
        <time>2016-10-02T08:55:08Z</time>
      </trkpt>
      <trkpt lat="45.80795" lon="4.63646">
        <ele>418.043396</ele>
        <time>2016-10-02T08:55:10Z</time>
      </trkpt>
      <trkpt lat="45.80796" lon="4.63641">
        <ele>418.428375</ele>
        <time>2016-10-02T08:55:12Z</time>
      </trkpt>
      <trkpt lat="45.80796" lon="4.63637">
        <ele>418.877777</ele>
        <time>2016-10-02T08:55:14Z</time>
      </trkpt>
      <trkpt lat="45.80796" lon="4.63633">
        <ele>419.458923</ele>
        <time>2016-10-02T08:55:16Z</time>
      </trkpt>
      <trkpt lat="45.80797" lon="4.63629">
        <ele>419.92569</ele>
        <time>2016-10-02T08:55:18Z</time>
      </trkpt>
      <trkpt lat="45.80797" lon="4.63625">
        <ele>420.349213</ele>
        <time>2016-10-02T08:55:20Z</time>
      </trkpt>
      <trkpt lat="45.80798" lon="4.63621">
        <ele>420.794281</ele>
        <time>2016-10-02T08:55:22Z</time>
      </trkpt>
      <trkpt lat="45.80798" lon="4.63617">
        <ele>421.247253</ele>
        <time>2016-10-02T08:55:24Z</time>
      </trkpt>
      <trkpt lat="45.80798" lon="4.63614">
        <ele>421.660065</ele>
        <time>2016-10-02T08:55:26Z</time>
      </trkpt>
      <trkpt lat="45.80799" lon="4.63611">
        <ele>422.174469</ele>
        <time>2016-10-02T08:55:28Z</time>
      </trkpt>
      <trkpt lat="45.80799" lon="4.63607">
        <ele>422.691071</ele>
        <time>2016-10-02T08:55:30Z</time>
      </trkpt>
      <trkpt lat="45.80799" lon="4.63603">
        <ele>423.244446</ele>
        <time>2016-10-02T08:55:32Z</time>
      </trkpt>
      <trkpt lat="45.80799" lon="4.63599">
        <ele>423.681091</ele>
        <time>2016-10-02T08:55:34Z</time>
      </trkpt>
      <trkpt lat="45.808" lon="4.63595">
        <ele>424.156647</ele>
        <time>2016-10-02T08:55:36Z</time>
      </trkpt>
      <trkpt lat="45.808" lon="4.63591">
        <ele>424.413086</ele>
        <time>2016-10-02T08:55:38Z</time>
      </trkpt>
      <trkpt lat="45.808" lon="4.63587">
        <ele>424.814941</ele>
        <time>2016-10-02T08:55:40Z</time>
      </trkpt>
      <trkpt lat="45.808" lon="4.63583">
        <ele>425.27182</ele>
        <time>2016-10-02T08:55:42Z</time>
      </trkpt>
      <trkpt lat="45.808" lon="4.63579">
        <ele>425.71283</ele>
        <time>2016-10-02T08:55:44Z</time>
      </trkpt>
      <trkpt lat="45.808" lon="4.63575">
        <ele>426.035645</ele>
        <time>2016-10-02T08:55:46Z</time>
      </trkpt>
      <trkpt lat="45.808" lon="4.63571">
        <ele>426.43042</ele>
        <time>2016-10-02T08:55:48Z</time>
      </trkpt>
      <trkpt lat="45.808" lon="4.63566">
        <ele>426.829193</ele>
        <time>2016-10-02T08:55:50Z</time>
      </trkpt>
      <trkpt lat="45.80799" lon="4.63562">
        <ele>427.279297</ele>
        <time>2016-10-02T08:55:52Z</time>
      </trkpt>
      <trkpt lat="45.80798" lon="4.63558">
        <ele>427.778809</ele>
        <time>2016-10-02T08:55:54Z</time>
      </trkpt>
      <trkpt lat="45.80798" lon="4.63553">
        <ele>428.204895</ele>
        <time>2016-10-02T08:55:56Z</time>
      </trkpt>
      <trkpt lat="45.80798" lon="4.63549">
        <ele>428.620697</ele>
        <time>2016-10-02T08:55:58Z</time>
      </trkpt>
      <trkpt lat="45.80797" lon="4.63545">
        <ele>429.193787</ele>
        <time>2016-10-02T08:56:00Z</time>
      </trkpt>
      <trkpt lat="45.80797" lon="4.63541">
        <ele>429.388489</ele>
        <time>2016-10-02T08:56:02Z</time>
      </trkpt>
      <trkpt lat="45.80797" lon="4.63537">
        <ele>429.886566</ele>
        <time>2016-10-02T08:56:04Z</time>
      </trkpt>
      <trkpt lat="45.80796" lon="4.63533">
        <ele>430.345062</ele>
        <time>2016-10-02T08:56:06Z</time>
      </trkpt>
      <trkpt lat="45.80797" lon="4.63529">
        <ele>430.803619</ele>
        <time>2016-10-02T08:56:08Z</time>
      </trkpt>
      <trkpt lat="45.80796" lon="4.63526">
        <ele>431.268707</ele>
        <time>2016-10-02T08:56:10Z</time>
      </trkpt>
      <trkpt lat="45.80796" lon="4.63522">
        <ele>431.668945</ele>
        <time>2016-10-02T08:56:12Z</time>
      </trkpt>
      <trkpt lat="45.80796" lon="4.63518">
        <ele>432.118958</ele>
        <time>2016-10-02T08:56:14Z</time>
      </trkpt>
      <trkpt lat="45.80795" lon="4.63514">
        <ele>432.524841</ele>
        <time>2016-10-02T08:56:16Z</time>
      </trkpt>
      <trkpt lat="45.80795" lon="4.6351">
        <ele>432.952484</ele>
        <time>2016-10-02T08:56:18Z</time>
      </trkpt>
      <trkpt lat="45.80794" lon="4.63506">
        <ele>433.359711</ele>
        <time>2016-10-02T08:56:20Z</time>
      </trkpt>
      <trkpt lat="45.80793" lon="4.63501">
        <ele>433.829254</ele>
        <time>2016-10-02T08:56:22Z</time>
      </trkpt>
      <trkpt lat="45.80792" lon="4.63497">
        <ele>434.287933</ele>
        <time>2016-10-02T08:56:24Z</time>
      </trkpt>
      <trkpt lat="45.80791" lon="4.63493">
        <ele>434.813812</ele>
        <time>2016-10-02T08:56:26Z</time>
      </trkpt>
      <trkpt lat="45.8079" lon="4.63489">
        <ele>435.053314</ele>
        <time>2016-10-02T08:56:28Z</time>
      </trkpt>
      <trkpt lat="45.80789" lon="4.63485">
        <ele>435.541687</ele>
        <time>2016-10-02T08:56:30Z</time>
      </trkpt>
      <trkpt lat="45.80787" lon="4.63481">
        <ele>436.040588</ele>
        <time>2016-10-02T08:56:32Z</time>
      </trkpt>
      <trkpt lat="45.80787" lon="4.63477">
        <ele>436.436676</ele>
        <time>2016-10-02T08:56:34Z</time>
      </trkpt>
      <trkpt lat="45.80785" lon="4.63473">
        <ele>436.731262</ele>
        <time>2016-10-02T08:56:36Z</time>
      </trkpt>
      <trkpt lat="45.80784" lon="4.63469">
        <ele>437.125183</ele>
        <time>2016-10-02T08:56:38Z</time>
      </trkpt>
      <trkpt lat="45.80783" lon="4.63465">
        <ele>437.507477</ele>
        <time>2016-10-02T08:56:40Z</time>
      </trkpt>
      <trkpt lat="45.80782" lon="4.63461">
        <ele>437.892761</ele>
        <time>2016-10-02T08:56:42Z</time>
      </trkpt>
      <trkpt lat="45.80781" lon="4.63457">
        <ele>438.285645</ele>
        <time>2016-10-02T08:56:44Z</time>
      </trkpt>
      <trkpt lat="45.8078" lon="4.63453">
        <ele>438.647156</ele>
        <time>2016-10-02T08:56:46Z</time>
      </trkpt>
      <trkpt lat="45.80779" lon="4.63449">
        <ele>439.062805</ele>
        <time>2016-10-02T08:56:48Z</time>
      </trkpt>
      <trkpt lat="45.80778" lon="4.63445">
        <ele>439.248962</ele>
        <time>2016-10-02T08:56:50Z</time>
      </trkpt>
      <trkpt lat="45.80777" lon="4.6344">
        <ele>439.55014</ele>
        <time>2016-10-02T08:56:52Z</time>
      </trkpt>
      <trkpt lat="45.80776" lon="4.63436">
        <ele>439.898285</ele>
        <time>2016-10-02T08:56:54Z</time>
      </trkpt>
      <trkpt lat="45.80775" lon="4.63432">
        <ele>440.197083</ele>
        <time>2016-10-02T08:56:56Z</time>
      </trkpt>
      <trkpt lat="45.80774" lon="4.63428">
        <ele>440.572449</ele>
        <time>2016-10-02T08:56:58Z</time>
      </trkpt>
      <trkpt lat="45.80774" lon="4.63424">
        <ele>440.871979</ele>
        <time>2016-10-02T08:57:00Z</time>
      </trkpt>
      <trkpt lat="45.80774" lon="4.6342">
        <ele>441.197418</ele>
        <time>2016-10-02T08:57:02Z</time>
      </trkpt>
      <trkpt lat="45.80775" lon="4.63416">
        <ele>441.472351</ele>
        <time>2016-10-02T08:57:04Z</time>
      </trkpt>
      <trkpt lat="45.80775" lon="4.63412">
        <ele>441.751709</ele>
        <time>2016-10-02T08:57:06Z</time>
      </trkpt>
      <trkpt lat="45.80776" lon="4.63407">
        <ele>442.044037</ele>
        <time>2016-10-02T08:57:08Z</time>
      </trkpt>
      <trkpt lat="45.80776" lon="4.63402">
        <ele>442.513367</ele>
        <time>2016-10-02T08:57:10Z</time>
      </trkpt>
      <trkpt lat="45.80777" lon="4.63398">
        <ele>442.831787</ele>
        <time>2016-10-02T08:57:12Z</time>
      </trkpt>
      <trkpt lat="45.80778" lon="4.63393">
        <ele>443.195618</ele>
        <time>2016-10-02T08:57:14Z</time>
      </trkpt>
      <trkpt lat="45.80779" lon="4.63389">
        <ele>443.620117</ele>
        <time>2016-10-02T08:57:16Z</time>
      </trkpt>
      <trkpt lat="45.80779" lon="4.63385">
        <ele>443.808197</ele>
        <time>2016-10-02T08:57:18Z</time>
      </trkpt>
      <trkpt lat="45.8078" lon="4.6338">
        <ele>444.17627</ele>
        <time>2016-10-02T08:57:20Z</time>
      </trkpt>
      <trkpt lat="45.8078" lon="4.63376">
        <ele>444.644348</ele>
        <time>2016-10-02T08:57:22Z</time>
      </trkpt>
      <trkpt lat="45.80781" lon="4.63371">
        <ele>444.951965</ele>
        <time>2016-10-02T08:57:24Z</time>
      </trkpt>
      <trkpt lat="45.80781" lon="4.63367">
        <ele>445.324127</ele>
        <time>2016-10-02T08:57:26Z</time>
      </trkpt>
      <trkpt lat="45.80782" lon="4.63362">
        <ele>445.635559</ele>
        <time>2016-10-02T08:57:28Z</time>
      </trkpt>
      <trkpt lat="45.80782" lon="4.63357">
        <ele>445.96405</ele>
        <time>2016-10-02T08:57:30Z</time>
      </trkpt>
      <trkpt lat="45.80782" lon="4.63352">
        <ele>446.275787</ele>
        <time>2016-10-02T08:57:32Z</time>
      </trkpt>
      <trkpt lat="45.80782" lon="4.63347">
        <ele>446.581635</ele>
        <time>2016-10-02T08:57:34Z</time>
      </trkpt>
      <trkpt lat="45.80783" lon="4.63341">
        <ele>446.828613</ele>
        <time>2016-10-02T08:57:36Z</time>
      </trkpt>
      <trkpt lat="45.80784" lon="4.63335">
        <ele>447.214264</ele>
        <time>2016-10-02T08:57:38Z</time>
      </trkpt>
      <trkpt lat="45.80785" lon="4.63329">
        <ele>447.404877</ele>
        <time>2016-10-02T08:57:40Z</time>
      </trkpt>
      <trkpt lat="45.80787" lon="4.63322">
        <ele>447.78067</ele>
        <time>2016-10-02T08:57:42Z</time>
      </trkpt>
      <trkpt lat="45.80788" lon="4.63316">
        <ele>448.204987</ele>
        <time>2016-10-02T08:57:44Z</time>
      </trkpt>
      <trkpt lat="45.8079" lon="4.6331">
        <ele>448.629578</ele>
        <time>2016-10-02T08:57:46Z</time>
      </trkpt>
      <trkpt lat="45.80792" lon="4.63304">
        <ele>449.017487</ele>
        <time>2016-10-02T08:57:48Z</time>
      </trkpt>
      <trkpt lat="45.80793" lon="4.63298">
        <ele>449.392395</ele>
        <time>2016-10-02T08:57:50Z</time>
      </trkpt>
      <trkpt lat="45.80795" lon="4.63292">
        <ele>449.608215</ele>
        <time>2016-10-02T08:57:52Z</time>
      </trkpt>
      <trkpt lat="45.80796" lon="4.63286">
        <ele>449.946289</ele>
        <time>2016-10-02T08:57:54Z</time>
      </trkpt>
      <trkpt lat="45.80798" lon="4.6328">
        <ele>450.089294</ele>
        <time>2016-10-02T08:57:56Z</time>
      </trkpt>
      <trkpt lat="45.808" lon="4.63273">
        <ele>450.384033</ele>
        <time>2016-10-02T08:57:58Z</time>
      </trkpt>
      <trkpt lat="45.80801" lon="4.63267">
        <ele>450.741852</ele>
        <time>2016-10-02T08:58:00Z</time>
      </trkpt>
      <trkpt lat="45.80801" lon="4.6326">
        <ele>450.887054</ele>
        <time>2016-10-02T08:58:02Z</time>
      </trkpt>
      <trkpt lat="45.80801" lon="4.63253">
        <ele>451.220856</ele>
        <time>2016-10-02T08:58:04Z</time>
      </trkpt>
      <trkpt lat="45.80801" lon="4.63248">
        <ele>451.467529</ele>
        <time>2016-10-02T08:58:06Z</time>
      </trkpt>
      <trkpt lat="45.80801" lon="4.63242">
        <ele>451.54425</ele>
        <time>2016-10-02T08:58:08Z</time>
      </trkpt>
      <trkpt lat="45.808" lon="4.63234">
        <ele>451.878326</ele>
        <time>2016-10-02T08:58:10Z</time>
      </trkpt>
      <trkpt lat="45.80798" lon="4.63227">
        <ele>452.19986</ele>
        <time>2016-10-02T08:58:12Z</time>
      </trkpt>
      <trkpt lat="45.80797" lon="4.6322">
        <ele>452.590088</ele>
        <time>2016-10-02T08:58:14Z</time>
      </trkpt>
      <trkpt lat="45.80796" lon="4.63213">
        <ele>452.995514</ele>
        <time>2016-10-02T08:58:16Z</time>
      </trkpt>
      <trkpt lat="45.80794" lon="4.63206">
        <ele>453.09082</ele>
        <time>2016-10-02T08:58:18Z</time>
      </trkpt>
      <trkpt lat="45.80793" lon="4.63199">
        <ele>453.402679</ele>
        <time>2016-10-02T08:58:20Z</time>
      </trkpt>
      <trkpt lat="45.80793" lon="4.63192">
        <ele>453.664063</ele>
        <time>2016-10-02T08:58:22Z</time>
      </trkpt>
      <trkpt lat="45.80792" lon="4.63185">
        <ele>454.023346</ele>
        <time>2016-10-02T08:58:24Z</time>
      </trkpt>
      <trkpt lat="45.80789" lon="4.63178">
        <ele>454.233643</ele>
        <time>2016-10-02T08:58:26Z</time>
      </trkpt>
      <trkpt lat="45.80788" lon="4.63171">
        <ele>454.459076</ele>
        <time>2016-10-02T08:58:28Z</time>
      </trkpt>
      <trkpt lat="45.80786" lon="4.63165">
        <ele>454.565338</ele>
        <time>2016-10-02T08:58:30Z</time>
      </trkpt>
      <trkpt lat="45.80784" lon="4.63158">
        <ele>454.723633</ele>
        <time>2016-10-02T08:58:32Z</time>
      </trkpt>
      <trkpt lat="45.80782" lon="4.63152">
        <ele>455.056244</ele>
        <time>2016-10-02T08:58:34Z</time>
      </trkpt>
      <trkpt lat="45.8078" lon="4.63146">
        <ele>455.315125</ele>
        <time>2016-10-02T08:58:36Z</time>
      </trkpt>
      <trkpt lat="45.80778" lon="4.63141">
        <ele>455.820251</ele>
        <time>2016-10-02T08:58:38Z</time>
      </trkpt>
      <trkpt lat="45.80775" lon="4.63135">
        <ele>456.09903</ele>
        <time>2016-10-02T08:58:40Z</time>
      </trkpt>
      <trkpt lat="45.80772" lon="4.63131">
        <ele>456.404846</ele>
        <time>2016-10-02T08:58:42Z</time>
      </trkpt>
      <trkpt lat="45.80769" lon="4.63126">
        <ele>456.877594</ele>
        <time>2016-10-02T08:58:44Z</time>
      </trkpt>
      <trkpt lat="45.80764" lon="4.63122">
        <ele>457.007721</ele>
        <time>2016-10-02T08:58:46Z</time>
      </trkpt>
      <trkpt lat="45.80761" lon="4.63118">
        <ele>457.326416</ele>
        <time>2016-10-02T08:58:48Z</time>
      </trkpt>
      <trkpt lat="45.80756" lon="4.63115">
        <ele>457.713196</ele>
        <time>2016-10-02T08:58:50Z</time>
      </trkpt>
      <trkpt lat="45.80752" lon="4.63111">
        <ele>458.126373</ele>
        <time>2016-10-02T08:58:52Z</time>
      </trkpt>
      <trkpt lat="45.80747" lon="4.63107">
        <ele>458.429871</ele>
        <time>2016-10-02T08:58:54Z</time>
      </trkpt>
      <trkpt lat="45.80743" lon="4.63104">
        <ele>458.718353</ele>
        <time>2016-10-02T08:58:56Z</time>
      </trkpt>
      <trkpt lat="45.80737" lon="4.631">
        <ele>458.891846</ele>
        <time>2016-10-02T08:58:58Z</time>
      </trkpt>
      <trkpt lat="45.80732" lon="4.63095">
        <ele>459.394928</ele>
        <time>2016-10-02T08:59:00Z</time>
      </trkpt>
      <trkpt lat="45.80727" lon="4.6309">
        <ele>459.74234</ele>
        <time>2016-10-02T08:59:02Z</time>
      </trkpt>
      <trkpt lat="45.80723" lon="4.63085">
        <ele>460.102448</ele>
        <time>2016-10-02T08:59:04Z</time>
      </trkpt>
      <trkpt lat="45.80718" lon="4.63079">
        <ele>460.284668</ele>
        <time>2016-10-02T08:59:06Z</time>
      </trkpt>
      <trkpt lat="45.80715" lon="4.63074">
        <ele>460.545013</ele>
        <time>2016-10-02T08:59:08Z</time>
      </trkpt>
      <trkpt lat="45.80712" lon="4.63069">
        <ele>460.976715</ele>
        <time>2016-10-02T08:59:10Z</time>
      </trkpt>
      <trkpt lat="45.80708" lon="4.63062">
        <ele>461.178467</ele>
        <time>2016-10-02T08:59:12Z</time>
      </trkpt>
      <trkpt lat="45.80706" lon="4.63055">
        <ele>461.603668</ele>
        <time>2016-10-02T08:59:14Z</time>
      </trkpt>
      <trkpt lat="45.80703" lon="4.63048">
        <ele>461.921234</ele>
        <time>2016-10-02T08:59:16Z</time>
      </trkpt>
      <trkpt lat="45.807" lon="4.63041">
        <ele>462.247986</ele>
        <time>2016-10-02T08:59:18Z</time>
      </trkpt>
      <trkpt lat="45.807" lon="4.63034">
        <ele>462.612549</ele>
        <time>2016-10-02T08:59:20Z</time>
      </trkpt>
      <trkpt lat="45.80702" lon="4.6303">
        <ele>462.969421</ele>
        <time>2016-10-02T08:59:22Z</time>
      </trkpt>
      <trkpt lat="45.80705" lon="4.6303">
        <ele>463.305756</ele>
        <time>2016-10-02T08:59:24Z</time>
      </trkpt>
      <trkpt lat="45.80709" lon="4.63032">
        <ele>463.564026</ele>
        <time>2016-10-02T08:59:26Z</time>
      </trkpt>
      <trkpt lat="45.80712" lon="4.63032">
        <ele>463.913513</ele>
        <time>2016-10-02T08:59:28Z</time>
      </trkpt>
      <trkpt lat="45.80716" lon="4.63034">
        <ele>464.27124</ele>
        <time>2016-10-02T08:59:30Z</time>
      </trkpt>
      <trkpt lat="45.80719" lon="4.63034">
        <ele>464.520844</ele>
        <time>2016-10-02T08:59:32Z</time>
      </trkpt>
      <trkpt lat="45.80723" lon="4.63035">
        <ele>464.88031</ele>
        <time>2016-10-02T08:59:34Z</time>
      </trkpt>
      <trkpt lat="45.80727" lon="4.63036">
        <ele>465.028076</ele>
        <time>2016-10-02T08:59:36Z</time>
      </trkpt>
      <trkpt lat="45.8073" lon="4.63037">
        <ele>465.305847</ele>
        <time>2016-10-02T08:59:38Z</time>
      </trkpt>
      <trkpt lat="45.80734" lon="4.63038">
        <ele>465.661316</ele>
        <time>2016-10-02T08:59:40Z</time>
      </trkpt>
      <trkpt lat="45.80738" lon="4.63039">
        <ele>466.088867</ele>
        <time>2016-10-02T08:59:42Z</time>
      </trkpt>
      <trkpt lat="45.80742" lon="4.6304">
        <ele>466.405365</ele>
        <time>2016-10-02T08:59:44Z</time>
      </trkpt>
      <trkpt lat="45.80745" lon="4.63042">
        <ele>466.765778</ele>
        <time>2016-10-02T08:59:46Z</time>
      </trkpt>
      <trkpt lat="45.80749" lon="4.63043">
        <ele>467.191742</ele>
        <time>2016-10-02T08:59:48Z</time>
      </trkpt>
      <trkpt lat="45.80753" lon="4.63044">
        <ele>467.482574</ele>
        <time>2016-10-02T08:59:50Z</time>
      </trkpt>
      <trkpt lat="45.80757" lon="4.63046">
        <ele>467.877045</ele>
        <time>2016-10-02T08:59:52Z</time>
      </trkpt>
      <trkpt lat="45.8076" lon="4.63047">
        <ele>468.304688</ele>
        <time>2016-10-02T08:59:54Z</time>
      </trkpt>
      <trkpt lat="45.80764" lon="4.63048">
        <ele>468.547028</ele>
        <time>2016-10-02T08:59:56Z</time>
      </trkpt>
      <trkpt lat="45.80768" lon="4.6305">
        <ele>468.903076</ele>
        <time>2016-10-02T08:59:58Z</time>
      </trkpt>
      <trkpt lat="45.80772" lon="4.63051">
        <ele>469.233093</ele>
        <time>2016-10-02T09:00:00Z</time>
      </trkpt>
      <trkpt lat="45.80775" lon="4.63053">
        <ele>469.495789</ele>
        <time>2016-10-02T09:00:02Z</time>
      </trkpt>
      <trkpt lat="45.80779" lon="4.63054">
        <ele>469.825867</ele>
        <time>2016-10-02T09:00:04Z</time>
      </trkpt>
      <trkpt lat="45.80782" lon="4.63055">
        <ele>470.012634</ele>
        <time>2016-10-02T09:00:06Z</time>
      </trkpt>
      <trkpt lat="45.80786" lon="4.63056">
        <ele>470.309906</ele>
        <time>2016-10-02T09:00:08Z</time>
      </trkpt>
      <trkpt lat="45.8079" lon="4.63057">
        <ele>470.685638</ele>
        <time>2016-10-02T09:00:10Z</time>
      </trkpt>
      <trkpt lat="45.80793" lon="4.63058">
        <ele>471.093933</ele>
        <time>2016-10-02T09:00:12Z</time>
      </trkpt>
      <trkpt lat="45.80797" lon="4.63059">
        <ele>471.541321</ele>
        <time>2016-10-02T09:00:14Z</time>
      </trkpt>
      <trkpt lat="45.808" lon="4.6306">
        <ele>471.958313</ele>
        <time>2016-10-02T09:00:16Z</time>
      </trkpt>
      <trkpt lat="45.80803" lon="4.63061">
        <ele>472.420959</ele>
        <time>2016-10-02T09:00:18Z</time>
      </trkpt>
      <trkpt lat="45.80806" lon="4.63062">
        <ele>472.890076</ele>
        <time>2016-10-02T09:00:20Z</time>
      </trkpt>
      <trkpt lat="45.80809" lon="4.63063">
        <ele>473.309723</ele>
        <time>2016-10-02T09:00:22Z</time>
      </trkpt>
      <trkpt lat="45.80812" lon="4.63065">
        <ele>473.785461</ele>
        <time>2016-10-02T09:00:24Z</time>
      </trkpt>
      <trkpt lat="45.80814" lon="4.63067">
        <ele>474.270325</ele>
        <time>2016-10-02T09:00:26Z</time>
      </trkpt>
      <trkpt lat="45.80817" lon="4.63069">
        <ele>474.791107</ele>
        <time>2016-10-02T09:00:28Z</time>
      </trkpt>
      <trkpt lat="45.80819" lon="4.63071">
        <ele>475.303864</ele>
        <time>2016-10-02T09:00:30Z</time>
      </trkpt>
      <trkpt lat="45.80822" lon="4.63073">
        <ele>475.564545</ele>
        <time>2016-10-02T09:00:32Z</time>
      </trkpt>
      <trkpt lat="45.80824" lon="4.63074">
        <ele>476.097412</ele>
        <time>2016-10-02T09:00:34Z</time>
      </trkpt>
      <trkpt lat="45.80827" lon="4.63075">
        <ele>476.694977</ele>
        <time>2016-10-02T09:00:36Z</time>
      </trkpt>
      <trkpt lat="45.80829" lon="4.63077">
        <ele>477.348938</ele>
        <time>2016-10-02T09:00:38Z</time>
      </trkpt>
      <trkpt lat="45.80832" lon="4.63078">
        <ele>477.857422</ele>
        <time>2016-10-02T09:00:40Z</time>
      </trkpt>
      <trkpt lat="45.80834" lon="4.63079">
        <ele>478.407227</ele>
        <time>2016-10-02T09:00:42Z</time>
      </trkpt>
      <trkpt lat="45.80837" lon="4.63081">
        <ele>479.048248</ele>
        <time>2016-10-02T09:00:44Z</time>
      </trkpt>
      <trkpt lat="45.8084" lon="4.63082">
        <ele>479.576355</ele>
        <time>2016-10-02T09:00:46Z</time>
      </trkpt>
      <trkpt lat="45.80842" lon="4.63083">
        <ele>480.182922</ele>
        <time>2016-10-02T09:00:48Z</time>
      </trkpt>
      <trkpt lat="45.80845" lon="4.63085">
        <ele>480.741455</ele>
        <time>2016-10-02T09:00:50Z</time>
      </trkpt>
      <trkpt lat="45.80847" lon="4.63086">
        <ele>481.195801</ele>
        <time>2016-10-02T09:00:52Z</time>
      </trkpt>
      <trkpt lat="45.80849" lon="4.63088">
        <ele>481.795715</ele>
        <time>2016-10-02T09:00:54Z</time>
      </trkpt>
      <trkpt lat="45.80851" lon="4.6309">
        <ele>482.280579</ele>
        <time>2016-10-02T09:00:56Z</time>
      </trkpt>
      <trkpt lat="45.80854" lon="4.63092">
        <ele>482.804504</ele>
        <time>2016-10-02T09:00:58Z</time>
      </trkpt>
      <trkpt lat="45.80856" lon="4.63094">
        <ele>483.343658</ele>
        <time>2016-10-02T09:01:00Z</time>
      </trkpt>
      <trkpt lat="45.80858" lon="4.63096">
        <ele>483.582825</ele>
        <time>2016-10-02T09:01:02Z</time>
      </trkpt>
      <trkpt lat="45.80861" lon="4.63097">
        <ele>484.070251</ele>
        <time>2016-10-02T09:01:04Z</time>
      </trkpt>
      <trkpt lat="45.80863" lon="4.63098">
        <ele>484.522522</ele>
        <time>2016-10-02T09:01:06Z</time>
      </trkpt>
      <trkpt lat="45.80869" lon="4.63098">
        <ele>488.40802</ele>
        <time>2016-10-02T09:01:58Z</time>
      </trkpt>
      <trkpt lat="45.80871" lon="4.63097">
        <ele>488.486328</ele>
        <time>2016-10-02T09:02:00Z</time>
      </trkpt>
      <trkpt lat="45.80869" lon="4.63097">
        <ele>489.760742</ele>
        <time>2016-10-02T09:07:59Z</time>
      </trkpt>
      <trkpt lat="45.80862" lon="4.63098">
        <ele>489.772522</ele>
        <time>2016-10-02T09:08:01Z</time>
      </trkpt>
      <trkpt lat="45.80864" lon="4.63106">
        <ele>489.271576</ele>
        <time>2016-10-02T09:08:13Z</time>
      </trkpt>
      <trkpt lat="45.80871" lon="4.6312">
        <ele>489.31073</ele>
        <time>2016-10-02T09:08:15Z</time>
      </trkpt>
      <trkpt lat="45.80875" lon="4.63126">
        <ele>489.270844</ele>
        <time>2016-10-02T09:08:17Z</time>
      </trkpt>
      <trkpt lat="45.80878" lon="4.6313">
        <ele>489.066345</ele>
        <time>2016-10-02T09:08:19Z</time>
      </trkpt>
      <trkpt lat="45.80882" lon="4.63137">
        <ele>489.046783</ele>
        <time>2016-10-02T09:08:21Z</time>
      </trkpt>
      <trkpt lat="45.80887" lon="4.63144">
        <ele>489.000153</ele>
        <time>2016-10-02T09:08:23Z</time>
      </trkpt>
      <trkpt lat="45.80892" lon="4.63151">
        <ele>489.315735</ele>
        <time>2016-10-02T09:08:25Z</time>
      </trkpt>
      <trkpt lat="45.80898" lon="4.63159">
        <ele>489.100922</ele>
        <time>2016-10-02T09:08:27Z</time>
      </trkpt>
      <trkpt lat="45.80904" lon="4.63167">
        <ele>489.181458</ele>
        <time>2016-10-02T09:08:29Z</time>
      </trkpt>
      <trkpt lat="45.8091" lon="4.63177">
        <ele>488.956696</ele>
        <time>2016-10-02T09:08:31Z</time>
      </trkpt>
      <trkpt lat="45.80915" lon="4.63188">
        <ele>488.834869</ele>
        <time>2016-10-02T09:08:33Z</time>
      </trkpt>
      <trkpt lat="45.8092" lon="4.63199">
        <ele>488.839203</ele>
        <time>2016-10-02T09:08:35Z</time>
      </trkpt>
      <trkpt lat="45.80927" lon="4.63209">
        <ele>488.824951</ele>
        <time>2016-10-02T09:08:37Z</time>
      </trkpt>
      <trkpt lat="45.80933" lon="4.63218">
        <ele>488.857605</ele>
        <time>2016-10-02T09:08:39Z</time>
      </trkpt>
      <trkpt lat="45.80939" lon="4.63226">
        <ele>488.822906</ele>
        <time>2016-10-02T09:08:41Z</time>
      </trkpt>
      <trkpt lat="45.80945" lon="4.63234">
        <ele>488.89093</ele>
        <time>2016-10-02T09:08:43Z</time>
      </trkpt>
      <trkpt lat="45.8095" lon="4.63243">
        <ele>489.143372</ele>
        <time>2016-10-02T09:08:45Z</time>
      </trkpt>
      <trkpt lat="45.80956" lon="4.63251">
        <ele>489.299988</ele>
        <time>2016-10-02T09:08:47Z</time>
      </trkpt>
      <trkpt lat="45.80962" lon="4.63261">
        <ele>489.444763</ele>
        <time>2016-10-02T09:08:49Z</time>
      </trkpt>
      <trkpt lat="45.80968" lon="4.6327">
        <ele>489.65152</ele>
        <time>2016-10-02T09:08:51Z</time>
      </trkpt>
      <trkpt lat="45.80974" lon="4.6328">
        <ele>489.849457</ele>
        <time>2016-10-02T09:08:53Z</time>
      </trkpt>
      <trkpt lat="45.80981" lon="4.63288">
        <ele>490.127869</ele>
        <time>2016-10-02T09:08:55Z</time>
      </trkpt>
      <trkpt lat="45.80989" lon="4.63293">
        <ele>490.175781</ele>
        <time>2016-10-02T09:08:57Z</time>
      </trkpt>
      <trkpt lat="45.80997" lon="4.63295">
        <ele>490.498383</ele>
        <time>2016-10-02T09:08:59Z</time>
      </trkpt>
      <trkpt lat="45.81004" lon="4.63298">
        <ele>490.813812</ele>
        <time>2016-10-02T09:09:01Z</time>
      </trkpt>
      <trkpt lat="45.81012" lon="4.63303">
        <ele>490.97406</ele>
        <time>2016-10-02T09:09:03Z</time>
      </trkpt>
      <trkpt lat="45.81022" lon="4.63307">
        <ele>491.024109</ele>
        <time>2016-10-02T09:09:05Z</time>
      </trkpt>
      <trkpt lat="45.81031" lon="4.63311">
        <ele>490.675873</ele>
        <time>2016-10-02T09:09:07Z</time>
      </trkpt>
      <trkpt lat="45.8104" lon="4.63315">
        <ele>491.164886</ele>
        <time>2016-10-02T09:09:09Z</time>
      </trkpt>
      <trkpt lat="45.81048" lon="4.63319">
        <ele>491.240387</ele>
        <time>2016-10-02T09:09:11Z</time>
      </trkpt>
      <trkpt lat="45.81057" lon="4.63321">
        <ele>491.520935</ele>
        <time>2016-10-02T09:09:13Z</time>
      </trkpt>
      <trkpt lat="45.81067" lon="4.63325">
        <ele>491.423035</ele>
        <time>2016-10-02T09:09:15Z</time>
      </trkpt>
      <trkpt lat="45.81076" lon="4.63331">
        <ele>491.536774</ele>
        <time>2016-10-02T09:09:17Z</time>
      </trkpt>
      <trkpt lat="45.81085" lon="4.63336">
        <ele>491.302246</ele>
        <time>2016-10-02T09:09:19Z</time>
      </trkpt>
      <trkpt lat="45.81097" lon="4.63339">
        <ele>490.543701</ele>
        <time>2016-10-02T09:09:21Z</time>
      </trkpt>
      <trkpt lat="45.8111" lon="4.63343">
        <ele>490.785217</ele>
        <time>2016-10-02T09:09:23Z</time>
      </trkpt>
      <trkpt lat="45.81121" lon="4.63346">
        <ele>490.632904</ele>
        <time>2016-10-02T09:09:25Z</time>
      </trkpt>
      <trkpt lat="45.81131" lon="4.6335">
        <ele>490.110779</ele>
        <time>2016-10-02T09:09:27Z</time>
      </trkpt>
      <trkpt lat="45.81143" lon="4.6336">
        <ele>488.894714</ele>
        <time>2016-10-02T09:09:29Z</time>
      </trkpt>
      <trkpt lat="45.81156" lon="4.63375">
        <ele>488.386047</ele>
        <time>2016-10-02T09:09:31Z</time>
      </trkpt>
      <trkpt lat="45.81169" lon="4.63393">
        <ele>487.349518</ele>
        <time>2016-10-02T09:09:33Z</time>
      </trkpt>
      <trkpt lat="45.81178" lon="4.63411">
        <ele>486.252014</ele>
        <time>2016-10-02T09:09:35Z</time>
      </trkpt>
      <trkpt lat="45.81186" lon="4.63415">
        <ele>485.323334</ele>
        <time>2016-10-02T09:09:37Z</time>
      </trkpt>
      <trkpt lat="45.81195" lon="4.63416">
        <ele>484.447449</ele>
        <time>2016-10-02T09:09:39Z</time>
      </trkpt>
      <trkpt lat="45.81205" lon="4.63424">
        <ele>483.31485</ele>
        <time>2016-10-02T09:09:41Z</time>
      </trkpt>
      <trkpt lat="45.81215" lon="4.63435">
        <ele>482.013</ele>
        <time>2016-10-02T09:09:43Z</time>
      </trkpt>
      <trkpt lat="45.81225" lon="4.63446">
        <ele>480.82666</ele>
        <time>2016-10-02T09:09:45Z</time>
      </trkpt>
      <trkpt lat="45.81236" lon="4.63453">
        <ele>479.6745</ele>
        <time>2016-10-02T09:09:47Z</time>
      </trkpt>
      <trkpt lat="45.81247" lon="4.63449">
        <ele>479.12442</ele>
        <time>2016-10-02T09:09:49Z</time>
      </trkpt>
      <trkpt lat="45.81254" lon="4.63438">
        <ele>478.202332</ele>
        <time>2016-10-02T09:09:51Z</time>
      </trkpt>
      <trkpt lat="45.8126" lon="4.63428">
        <ele>476.918549</ele>
        <time>2016-10-02T09:09:53Z</time>
      </trkpt>
      <trkpt lat="45.81265" lon="4.63418">
        <ele>475.942566</ele>
        <time>2016-10-02T09:09:55Z</time>
      </trkpt>
      <trkpt lat="45.81271" lon="4.63408">
        <ele>475.173248</ele>
        <time>2016-10-02T09:09:57Z</time>
      </trkpt>
      <trkpt lat="45.81278" lon="4.63396">
        <ele>474.055573</ele>
        <time>2016-10-02T09:09:59Z</time>
      </trkpt>
      <trkpt lat="45.81282" lon="4.63385">
        <ele>473.275482</ele>
        <time>2016-10-02T09:10:01Z</time>
      </trkpt>
      <trkpt lat="45.81286" lon="4.63376">
        <ele>472.867096</ele>
        <time>2016-10-02T09:10:03Z</time>
      </trkpt>
      <trkpt lat="45.81288" lon="4.63369">
        <ele>471.413086</ele>
        <time>2016-10-02T09:10:05Z</time>
      </trkpt>
      <trkpt lat="45.81291" lon="4.6336">
        <ele>470.963287</ele>
        <time>2016-10-02T09:10:07Z</time>
      </trkpt>
      <trkpt lat="45.81295" lon="4.63348">
        <ele>470.045105</ele>
        <time>2016-10-02T09:10:09Z</time>
      </trkpt>
      <trkpt lat="45.81299" lon="4.63337">
        <ele>469.187408</ele>
        <time>2016-10-02T09:10:11Z</time>
      </trkpt>
      <trkpt lat="45.813" lon="4.63333">
        <ele>468.874817</ele>
        <time>2016-10-02T09:10:13Z</time>
      </trkpt>
      <trkpt lat="45.81302" lon="4.63329">
        <ele>466.463684</ele>
        <time>2016-10-02T09:10:23Z</time>
      </trkpt>
      <trkpt lat="45.81305" lon="4.63322">
        <ele>466.431152</ele>
        <time>2016-10-02T09:10:25Z</time>
      </trkpt>
      <trkpt lat="45.81308" lon="4.63314">
        <ele>466.118652</ele>
        <time>2016-10-02T09:10:27Z</time>
      </trkpt>
      <trkpt lat="45.81312" lon="4.63306">
        <ele>465.426422</ele>
        <time>2016-10-02T09:10:29Z</time>
      </trkpt>
      <trkpt lat="45.81318" lon="4.63303">
        <ele>464.864594</ele>
        <time>2016-10-02T09:10:31Z</time>
      </trkpt>
      <trkpt lat="45.81323" lon="4.63297">
        <ele>464.265686</ele>
        <time>2016-10-02T09:10:33Z</time>
      </trkpt>
      <trkpt lat="45.81328" lon="4.63285">
        <ele>463.623535</ele>
        <time>2016-10-02T09:10:35Z</time>
      </trkpt>
      <trkpt lat="45.81331" lon="4.63279">
        <ele>463.241608</ele>
        <time>2016-10-02T09:10:37Z</time>
      </trkpt>
      <trkpt lat="45.81333" lon="4.63281">
        <ele>462.46167</ele>
        <time>2016-10-02T09:10:39Z</time>
      </trkpt>
      <trkpt lat="45.81336" lon="4.63287">
        <ele>461.706696</ele>
        <time>2016-10-02T09:10:41Z</time>
      </trkpt>
      <trkpt lat="45.8134" lon="4.63294">
        <ele>460.846741</ele>
        <time>2016-10-02T09:10:43Z</time>
      </trkpt>
      <trkpt lat="45.81343" lon="4.63301">
        <ele>460.177643</ele>
        <time>2016-10-02T09:10:45Z</time>
      </trkpt>
      <trkpt lat="45.81347" lon="4.63307">
        <ele>459.59848</ele>
        <time>2016-10-02T09:10:47Z</time>
      </trkpt>
      <trkpt lat="45.81352" lon="4.63309">
        <ele>458.860168</ele>
        <time>2016-10-02T09:10:49Z</time>
      </trkpt>
      <trkpt lat="45.81358" lon="4.63301">
        <ele>458.3526</ele>
        <time>2016-10-02T09:10:51Z</time>
      </trkpt>
      <trkpt lat="45.81364" lon="4.63288">
        <ele>457.793457</ele>
        <time>2016-10-02T09:10:53Z</time>
      </trkpt>
      <trkpt lat="45.81373" lon="4.63272">
        <ele>456.824951</ele>
        <time>2016-10-02T09:10:55Z</time>
      </trkpt>
      <trkpt lat="45.81382" lon="4.63258">
        <ele>455.609222</ele>
        <time>2016-10-02T09:10:57Z</time>
      </trkpt>
      <trkpt lat="45.8139" lon="4.63256">
        <ele>454.682373</ele>
        <time>2016-10-02T09:10:59Z</time>
      </trkpt>
      <trkpt lat="45.81398" lon="4.6326">
        <ele>453.960846</ele>
        <time>2016-10-02T09:11:01Z</time>
      </trkpt>
      <trkpt lat="45.8141" lon="4.63266">
        <ele>453.17334</ele>
        <time>2016-10-02T09:11:03Z</time>
      </trkpt>
      <trkpt lat="45.81421" lon="4.63271">
        <ele>452.16098</ele>
        <time>2016-10-02T09:11:05Z</time>
      </trkpt>
      <trkpt lat="45.81434" lon="4.63278">
        <ele>451.020569</ele>
        <time>2016-10-02T09:11:07Z</time>
      </trkpt>
      <trkpt lat="45.81445" lon="4.63286">
        <ele>450.151306</ele>
        <time>2016-10-02T09:11:09Z</time>
      </trkpt>
      <trkpt lat="45.81458" lon="4.63286">
        <ele>449.442688</ele>
        <time>2016-10-02T09:11:11Z</time>
      </trkpt>
      <trkpt lat="45.81469" lon="4.63283">
        <ele>449.48053</ele>
        <time>2016-10-02T09:11:13Z</time>
      </trkpt>
      <trkpt lat="45.81479" lon="4.63293">
        <ele>448.912781</ele>
        <time>2016-10-02T09:11:15Z</time>
      </trkpt>
      <trkpt lat="45.81488" lon="4.63305">
        <ele>447.970551</ele>
        <time>2016-10-02T09:11:17Z</time>
      </trkpt>
      <trkpt lat="45.815" lon="4.63311">
        <ele>446.155426</ele>
        <time>2016-10-02T09:11:19Z</time>
      </trkpt>
      <trkpt lat="45.81514" lon="4.63307">
        <ele>445.659332</ele>
        <time>2016-10-02T09:11:21Z</time>
      </trkpt>
      <trkpt lat="45.81528" lon="4.63309">
        <ele>445.158875</ele>
        <time>2016-10-02T09:11:23Z</time>
      </trkpt>
      <trkpt lat="45.81539" lon="4.63307">
        <ele>444.297424</ele>
        <time>2016-10-02T09:11:25Z</time>
      </trkpt>
      <trkpt lat="45.81548" lon="4.63293">
        <ele>443.358459</ele>
        <time>2016-10-02T09:11:27Z</time>
      </trkpt>
      <trkpt lat="45.81558" lon="4.63279">
        <ele>441.542908</ele>
        <time>2016-10-02T09:11:29Z</time>
      </trkpt>
      <trkpt lat="45.8157" lon="4.63266">
        <ele>440.350037</ele>
        <time>2016-10-02T09:11:31Z</time>
      </trkpt>
      <trkpt lat="45.81582" lon="4.63255">
        <ele>438.724762</ele>
        <time>2016-10-02T09:11:33Z</time>
      </trkpt>
      <trkpt lat="45.81596" lon="4.63243">
        <ele>437.476898</ele>
        <time>2016-10-02T09:11:35Z</time>
      </trkpt>
      <trkpt lat="45.81609" lon="4.63228">
        <ele>436.256592</ele>
        <time>2016-10-02T09:11:37Z</time>
      </trkpt>
      <trkpt lat="45.81624" lon="4.63213">
        <ele>435.214264</ele>
        <time>2016-10-02T09:11:39Z</time>
      </trkpt>
      <trkpt lat="45.81637" lon="4.63198">
        <ele>433.482269</ele>
        <time>2016-10-02T09:11:41Z</time>
      </trkpt>
      <trkpt lat="45.81648" lon="4.63188">
        <ele>432.954895</ele>
        <time>2016-10-02T09:11:43Z</time>
      </trkpt>
      <trkpt lat="45.81653" lon="4.63186">
        <ele>431.509277</ele>
        <time>2016-10-02T09:11:45Z</time>
      </trkpt>
      <trkpt lat="45.81657" lon="4.63191">
        <ele>430.060303</ele>
        <time>2016-10-02T09:11:47Z</time>
      </trkpt>
      <trkpt lat="45.81658" lon="4.63195">
        <ele>428.578857</ele>
        <time>2016-10-02T09:11:49Z</time>
      </trkpt>
      <trkpt lat="45.81662" lon="4.63197">
        <ele>412.912903</ele>
        <time>2016-10-02T09:12:43Z</time>
      </trkpt>
      <trkpt lat="45.81664" lon="4.63207">
        <ele>412.819916</ele>
        <time>2016-10-02T09:12:45Z</time>
      </trkpt>
      <trkpt lat="45.81667" lon="4.63217">
        <ele>412.832855</ele>
        <time>2016-10-02T09:12:47Z</time>
      </trkpt>
      <trkpt lat="45.81671" lon="4.6323">
        <ele>412.804993</ele>
        <time>2016-10-02T09:12:49Z</time>
      </trkpt>
      <trkpt lat="45.81675" lon="4.63244">
        <ele>412.606354</ele>
        <time>2016-10-02T09:12:51Z</time>
      </trkpt>
      <trkpt lat="45.81679" lon="4.63259">
        <ele>412.336761</ele>
        <time>2016-10-02T09:12:53Z</time>
      </trkpt>
      <trkpt lat="45.81683" lon="4.63273">
        <ele>412.183502</ele>
        <time>2016-10-02T09:12:55Z</time>
      </trkpt>
      <trkpt lat="45.81686" lon="4.63285">
        <ele>412.088531</ele>
        <time>2016-10-02T09:12:57Z</time>
      </trkpt>
      <trkpt lat="45.8169" lon="4.63298">
        <ele>412.072357</ele>
        <time>2016-10-02T09:12:59Z</time>
      </trkpt>
      <trkpt lat="45.81694" lon="4.63311">
        <ele>412.26889</ele>
        <time>2016-10-02T09:13:01Z</time>
      </trkpt>
      <trkpt lat="45.81698" lon="4.63324">
        <ele>412.287292</ele>
        <time>2016-10-02T09:13:03Z</time>
      </trkpt>
      <trkpt lat="45.81702" lon="4.63337">
        <ele>412.315125</ele>
        <time>2016-10-02T09:13:05Z</time>
      </trkpt>
      <trkpt lat="45.81706" lon="4.63349">
        <ele>412.263336</ele>
        <time>2016-10-02T09:13:07Z</time>
      </trkpt>
      <trkpt lat="45.8171" lon="4.63359">
        <ele>412.212982</ele>
        <time>2016-10-02T09:13:09Z</time>
      </trkpt>
      <trkpt lat="45.81715" lon="4.63371">
        <ele>412.229584</ele>
        <time>2016-10-02T09:13:11Z</time>
      </trkpt>
      <trkpt lat="45.8172" lon="4.63382">
        <ele>412.223083</ele>
        <time>2016-10-02T09:13:13Z</time>
      </trkpt>
      <trkpt lat="45.81725" lon="4.63393">
        <ele>412.242523</ele>
        <time>2016-10-02T09:13:15Z</time>
      </trkpt>
      <trkpt lat="45.81731" lon="4.63403">
        <ele>412.13266</ele>
        <time>2016-10-02T09:13:17Z</time>
      </trkpt>
      <trkpt lat="45.81735" lon="4.63412">
        <ele>412.268738</ele>
        <time>2016-10-02T09:13:19Z</time>
      </trkpt>
      <trkpt lat="45.81739" lon="4.63422">
        <ele>412.358551</ele>
        <time>2016-10-02T09:13:21Z</time>
      </trkpt>
      <trkpt lat="45.81744" lon="4.63433">
        <ele>412.399261</ele>
        <time>2016-10-02T09:13:23Z</time>
      </trkpt>
      <trkpt lat="45.81748" lon="4.63443">
        <ele>412.457703</ele>
        <time>2016-10-02T09:13:25Z</time>
      </trkpt>
      <trkpt lat="45.81752" lon="4.63453">
        <ele>412.405914</ele>
        <time>2016-10-02T09:13:27Z</time>
      </trkpt>
      <trkpt lat="45.81755" lon="4.63463">
        <ele>412.405914</ele>
        <time>2016-10-02T09:13:29Z</time>
      </trkpt>
      <trkpt lat="45.81758" lon="4.63473">
        <ele>412.395172</ele>
        <time>2016-10-02T09:13:31Z</time>
      </trkpt>
      <trkpt lat="45.81761" lon="4.63482">
        <ele>412.813904</ele>
        <time>2016-10-02T09:13:33Z</time>
      </trkpt>
      <trkpt lat="45.81765" lon="4.63491">
        <ele>412.815857</ele>
        <time>2016-10-02T09:13:35Z</time>
      </trkpt>
      <trkpt lat="45.81769" lon="4.635">
        <ele>413.033691</ele>
        <time>2016-10-02T09:13:37Z</time>
      </trkpt>
      <trkpt lat="45.81772" lon="4.6351">
        <ele>413.303619</ele>
        <time>2016-10-02T09:13:39Z</time>
      </trkpt>
      <trkpt lat="45.81776" lon="4.6352">
        <ele>413.44281</ele>
        <time>2016-10-02T09:13:41Z</time>
      </trkpt>
      <trkpt lat="45.81779" lon="4.6353">
        <ele>413.362885</ele>
        <time>2016-10-02T09:13:43Z</time>
      </trkpt>
      <trkpt lat="45.81782" lon="4.6354">
        <ele>413.293762</ele>
        <time>2016-10-02T09:13:45Z</time>
      </trkpt>
      <trkpt lat="45.81785" lon="4.63549">
        <ele>413.384705</ele>
        <time>2016-10-02T09:13:47Z</time>
      </trkpt>
      <trkpt lat="45.81788" lon="4.63559">
        <ele>413.47821</ele>
        <time>2016-10-02T09:13:49Z</time>
      </trkpt>
      <trkpt lat="45.8179" lon="4.63566">
        <ele>413.498383</ele>
        <time>2016-10-02T09:13:51Z</time>
      </trkpt>
      <trkpt lat="45.81789" lon="4.63571">
        <ele>413.541565</ele>
        <time>2016-10-02T09:13:53Z</time>
      </trkpt>
      <trkpt lat="45.81788" lon="4.63573">
        <ele>413.729431</ele>
        <time>2016-10-02T09:13:55Z</time>
      </trkpt>
      <trkpt lat="45.81785" lon="4.63577">
        <ele>413.770447</ele>
        <time>2016-10-02T09:13:57Z</time>
      </trkpt>
      <trkpt lat="45.81783" lon="4.6358">
        <ele>414.01001</ele>
        <time>2016-10-02T09:13:59Z</time>
      </trkpt>
      <trkpt lat="45.8178" lon="4.63584">
        <ele>413.975433</ele>
        <time>2016-10-02T09:14:01Z</time>
      </trkpt>
      <trkpt lat="45.81778" lon="4.63588">
        <ele>414.039215</ele>
        <time>2016-10-02T09:14:03Z</time>
      </trkpt>
      <trkpt lat="45.81775" lon="4.63591">
        <ele>414.171295</ele>
        <time>2016-10-02T09:14:05Z</time>
      </trkpt>
      <trkpt lat="45.81773" lon="4.63595">
        <ele>414.34845</ele>
        <time>2016-10-02T09:14:07Z</time>
      </trkpt>
      <trkpt lat="45.8177" lon="4.63598">
        <ele>414.821381</ele>
        <time>2016-10-02T09:14:09Z</time>
      </trkpt>
      <trkpt lat="45.81767" lon="4.63602">
        <ele>415.14325</ele>
        <time>2016-10-02T09:14:11Z</time>
      </trkpt>
      <trkpt lat="45.81765" lon="4.63605">
        <ele>415.536316</ele>
        <time>2016-10-02T09:14:13Z</time>
      </trkpt>
      <trkpt lat="45.81762" lon="4.63608">
        <ele>415.892761</ele>
        <time>2016-10-02T09:14:15Z</time>
      </trkpt>
      <trkpt lat="45.8176" lon="4.6361">
        <ele>416.074219</ele>
        <time>2016-10-02T09:14:17Z</time>
      </trkpt>
      <trkpt lat="45.81758" lon="4.63613">
        <ele>416.352875</ele>
        <time>2016-10-02T09:14:19Z</time>
      </trkpt>
      <trkpt lat="45.81756" lon="4.63616">
        <ele>416.520264</ele>
        <time>2016-10-02T09:14:21Z</time>
      </trkpt>
      <trkpt lat="45.81754" lon="4.63619">
        <ele>416.865967</ele>
        <time>2016-10-02T09:14:23Z</time>
      </trkpt>
      <trkpt lat="45.81751" lon="4.63622">
        <ele>417.23761</ele>
        <time>2016-10-02T09:14:25Z</time>
      </trkpt>
      <trkpt lat="45.81749" lon="4.63625">
        <ele>417.743103</ele>
        <time>2016-10-02T09:14:27Z</time>
      </trkpt>
      <trkpt lat="45.81747" lon="4.63627">
        <ele>418.160095</ele>
        <time>2016-10-02T09:14:29Z</time>
      </trkpt>
      <trkpt lat="45.81745" lon="4.6363">
        <ele>418.624664</ele>
        <time>2016-10-02T09:14:31Z</time>
      </trkpt>
      <trkpt lat="45.81743" lon="4.63633">
        <ele>419.229645</ele>
        <time>2016-10-02T09:14:33Z</time>
      </trkpt>
      <trkpt lat="45.81741" lon="4.63635">
        <ele>419.724426</ele>
        <time>2016-10-02T09:14:35Z</time>
      </trkpt>
      <trkpt lat="45.81739" lon="4.63638">
        <ele>420.212738</ele>
        <time>2016-10-02T09:14:37Z</time>
      </trkpt>
      <trkpt lat="45.81736" lon="4.63641">
        <ele>420.729248</ele>
        <time>2016-10-02T09:14:39Z</time>
      </trkpt>
      <trkpt lat="45.81735" lon="4.63644">
        <ele>421.226227</ele>
        <time>2016-10-02T09:14:41Z</time>
      </trkpt>
      <trkpt lat="45.81732" lon="4.63647">
        <ele>421.498535</ele>
        <time>2016-10-02T09:14:43Z</time>
      </trkpt>
      <trkpt lat="45.8173" lon="4.6365">
        <ele>421.979431</ele>
        <time>2016-10-02T09:14:45Z</time>
      </trkpt>
      <trkpt lat="45.81728" lon="4.63654">
        <ele>422.530518</ele>
        <time>2016-10-02T09:14:47Z</time>
      </trkpt>
      <trkpt lat="45.81725" lon="4.63657">
        <ele>423.064362</ele>
        <time>2016-10-02T09:14:49Z</time>
      </trkpt>
      <trkpt lat="45.81723" lon="4.63661">
        <ele>423.48584</ele>
        <time>2016-10-02T09:14:51Z</time>
      </trkpt>
      <trkpt lat="45.8172" lon="4.63664">
        <ele>423.868469</ele>
        <time>2016-10-02T09:14:53Z</time>
      </trkpt>
      <trkpt lat="45.81717" lon="4.63668">
        <ele>424.307312</ele>
        <time>2016-10-02T09:14:55Z</time>
      </trkpt>
      <trkpt lat="45.81714" lon="4.63671">
        <ele>424.707275</ele>
        <time>2016-10-02T09:14:57Z</time>
      </trkpt>
      <trkpt lat="45.81711" lon="4.63675">
        <ele>425.049164</ele>
        <time>2016-10-02T09:14:59Z</time>
      </trkpt>
      <trkpt lat="45.81709" lon="4.63678">
        <ele>425.452332</ele>
        <time>2016-10-02T09:15:01Z</time>
      </trkpt>
      <trkpt lat="45.81706" lon="4.63681">
        <ele>425.649078</ele>
        <time>2016-10-02T09:15:03Z</time>
      </trkpt>
      <trkpt lat="45.81703" lon="4.63685">
        <ele>425.99176</ele>
        <time>2016-10-02T09:15:05Z</time>
      </trkpt>
      <trkpt lat="45.81699" lon="4.6369">
        <ele>426.391754</ele>
        <time>2016-10-02T09:15:07Z</time>
      </trkpt>
      <trkpt lat="45.81695" lon="4.63696">
        <ele>426.720947</ele>
        <time>2016-10-02T09:15:09Z</time>
      </trkpt>
      <trkpt lat="45.81691" lon="4.63701">
        <ele>427.101501</ele>
        <time>2016-10-02T09:15:11Z</time>
      </trkpt>
      <trkpt lat="45.81687" lon="4.63707">
        <ele>427.616302</ele>
        <time>2016-10-02T09:15:13Z</time>
      </trkpt>
      <trkpt lat="45.81681" lon="4.63714">
        <ele>428.125641</ele>
        <time>2016-10-02T09:15:15Z</time>
      </trkpt>
      <trkpt lat="45.81675" lon="4.63722">
        <ele>428.506256</ele>
        <time>2016-10-02T09:15:17Z</time>
      </trkpt>
      <trkpt lat="45.81669" lon="4.63729">
        <ele>428.811188</ele>
        <time>2016-10-02T09:15:19Z</time>
      </trkpt>
      <trkpt lat="45.81662" lon="4.63735">
        <ele>429.020935</ele>
        <time>2016-10-02T09:15:21Z</time>
      </trkpt>
      <trkpt lat="45.81656" lon="4.63742">
        <ele>429.193939</ele>
        <time>2016-10-02T09:15:23Z</time>
      </trkpt>
      <trkpt lat="45.81648" lon="4.63748">
        <ele>429.5047</ele>
        <time>2016-10-02T09:15:25Z</time>
      </trkpt>
      <trkpt lat="45.8164" lon="4.63753">
        <ele>429.58252</ele>
        <time>2016-10-02T09:15:27Z</time>
      </trkpt>
      <trkpt lat="45.8163" lon="4.63757">
        <ele>429.79068</ele>
        <time>2016-10-02T09:15:29Z</time>
      </trkpt>
      <trkpt lat="45.81622" lon="4.63759">
        <ele>429.851227</ele>
        <time>2016-10-02T09:15:31Z</time>
      </trkpt>
      <trkpt lat="45.81615" lon="4.6376">
        <ele>430.048035</ele>
        <time>2016-10-02T09:15:33Z</time>
      </trkpt>
      <trkpt lat="45.81606" lon="4.63762">
        <ele>430.213226</ele>
        <time>2016-10-02T09:15:35Z</time>
      </trkpt>
      <trkpt lat="45.81594" lon="4.63763">
        <ele>430.321381</ele>
        <time>2016-10-02T09:15:37Z</time>
      </trkpt>
      <trkpt lat="45.8158" lon="4.63765">
        <ele>430.212158</ele>
        <time>2016-10-02T09:15:39Z</time>
      </trkpt>
      <trkpt lat="45.81564" lon="4.63767">
        <ele>430.181946</ele>
        <time>2016-10-02T09:15:41Z</time>
      </trkpt>
      <trkpt lat="45.81548" lon="4.6377">
        <ele>429.695648</ele>
        <time>2016-10-02T09:15:43Z</time>
      </trkpt>
      <trkpt lat="45.81532" lon="4.63774">
        <ele>429.031097</ele>
        <time>2016-10-02T09:15:45Z</time>
      </trkpt>
      <trkpt lat="45.81515" lon="4.63777">
        <ele>428.37616</ele>
        <time>2016-10-02T09:15:47Z</time>
      </trkpt>
      <trkpt lat="45.81495" lon="4.63782">
        <ele>428.306946</ele>
        <time>2016-10-02T09:15:49Z</time>
      </trkpt>
      <trkpt lat="45.81473" lon="4.63788">
        <ele>427.427307</ele>
        <time>2016-10-02T09:15:51Z</time>
      </trkpt>
      <trkpt lat="45.81451" lon="4.63796">
        <ele>426.495789</ele>
        <time>2016-10-02T09:15:53Z</time>
      </trkpt>
      <trkpt lat="45.81429" lon="4.63804">
        <ele>424.463776</ele>
        <time>2016-10-02T09:15:55Z</time>
      </trkpt>
      <trkpt lat="45.8141" lon="4.63815">
        <ele>423.176331</ele>
        <time>2016-10-02T09:15:57Z</time>
      </trkpt>
      <trkpt lat="45.81392" lon="4.63829">
        <ele>421.656647</ele>
        <time>2016-10-02T09:15:59Z</time>
      </trkpt>
      <trkpt lat="45.81377" lon="4.63843">
        <ele>419.905365</ele>
        <time>2016-10-02T09:16:01Z</time>
      </trkpt>
      <trkpt lat="45.81371" lon="4.63857">
        <ele>418.460358</ele>
        <time>2016-10-02T09:16:03Z</time>
      </trkpt>
      <trkpt lat="45.81378" lon="4.63869">
        <ele>417.062988</ele>
        <time>2016-10-02T09:16:05Z</time>
      </trkpt>
      <trkpt lat="45.81391" lon="4.63871">
        <ele>415.442963</ele>
        <time>2016-10-02T09:16:07Z</time>
      </trkpt>
      <trkpt lat="45.81406" lon="4.63874">
        <ele>413.766693</ele>
        <time>2016-10-02T09:16:09Z</time>
      </trkpt>
      <trkpt lat="45.81416" lon="4.6388">
        <ele>412.933105</ele>
        <time>2016-10-02T09:16:11Z</time>
      </trkpt>
      <trkpt lat="45.81418" lon="4.63894">
        <ele>411.6521</ele>
        <time>2016-10-02T09:16:13Z</time>
      </trkpt>
      <trkpt lat="45.81416" lon="4.63916">
        <ele>410.064636</ele>
        <time>2016-10-02T09:16:15Z</time>
      </trkpt>
      <trkpt lat="45.81409" lon="4.63941">
        <ele>408.362823</ele>
        <time>2016-10-02T09:16:17Z</time>
      </trkpt>
      <trkpt lat="45.81398" lon="4.63965">
        <ele>406.264587</ele>
        <time>2016-10-02T09:16:19Z</time>
      </trkpt>
      <trkpt lat="45.81389" lon="4.63984">
        <ele>404.46106</ele>
        <time>2016-10-02T09:16:21Z</time>
      </trkpt>
      <trkpt lat="45.81387" lon="4.63995">
        <ele>402.292694</ele>
        <time>2016-10-02T09:16:23Z</time>
      </trkpt>
      <trkpt lat="45.81395" lon="4.64005">
        <ele>400.605804</ele>
        <time>2016-10-02T09:16:25Z</time>
      </trkpt>
      <trkpt lat="45.81405" lon="4.64013">
        <ele>398.893738</ele>
        <time>2016-10-02T09:16:27Z</time>
      </trkpt>
      <trkpt lat="45.81411" lon="4.64018">
        <ele>397.110291</ele>
        <time>2016-10-02T09:16:29Z</time>
      </trkpt>
      <trkpt lat="45.81418" lon="4.64025">
        <ele>394.836456</ele>
        <time>2016-10-02T09:16:31Z</time>
      </trkpt>
      <trkpt lat="45.81424" lon="4.64034">
        <ele>394.345215</ele>
        <time>2016-10-02T09:16:33Z</time>
      </trkpt>
      <trkpt lat="45.81426" lon="4.64049">
        <ele>392.663147</ele>
        <time>2016-10-02T09:16:35Z</time>
      </trkpt>
      <trkpt lat="45.81428" lon="4.6407">
        <ele>392.003906</ele>
        <time>2016-10-02T09:16:37Z</time>
      </trkpt>
      <trkpt lat="45.8143" lon="4.64095">
        <ele>390.088959</ele>
        <time>2016-10-02T09:16:39Z</time>
      </trkpt>
      <trkpt lat="45.81431" lon="4.64119">
        <ele>388.846161</ele>
        <time>2016-10-02T09:16:41Z</time>
      </trkpt>
      <trkpt lat="45.81431" lon="4.64142">
        <ele>387.706848</ele>
        <time>2016-10-02T09:16:43Z</time>
      </trkpt>
      <trkpt lat="45.81429" lon="4.64167">
        <ele>386.196594</ele>
        <time>2016-10-02T09:16:45Z</time>
      </trkpt>
      <trkpt lat="45.81424" lon="4.64192">
        <ele>384.461151</ele>
        <time>2016-10-02T09:16:47Z</time>
      </trkpt>
      <trkpt lat="45.81419" lon="4.64218">
        <ele>382.410187</ele>
        <time>2016-10-02T09:16:49Z</time>
      </trkpt>
      <trkpt lat="45.81414" lon="4.64242">
        <ele>380.28241</ele>
        <time>2016-10-02T09:16:51Z</time>
      </trkpt>
      <trkpt lat="45.8141" lon="4.64266">
        <ele>379.1315</ele>
        <time>2016-10-02T09:16:53Z</time>
      </trkpt>
      <trkpt lat="45.81406" lon="4.64287">
        <ele>377.074951</ele>
        <time>2016-10-02T09:16:55Z</time>
      </trkpt>
      <trkpt lat="45.81409" lon="4.64306">
        <ele>374.860352</ele>
        <time>2016-10-02T09:16:57Z</time>
      </trkpt>
      <trkpt lat="45.81418" lon="4.64319">
        <ele>372.472107</ele>
        <time>2016-10-02T09:16:59Z</time>
      </trkpt>
      <trkpt lat="45.81427" lon="4.64333">
        <ele>370.363068</ele>
        <time>2016-10-02T09:17:01Z</time>
      </trkpt>
      <trkpt lat="45.81437" lon="4.6435">
        <ele>368.221497</ele>
        <time>2016-10-02T09:17:03Z</time>
      </trkpt>
      <trkpt lat="45.81443" lon="4.64369">
        <ele>366.738251</ele>
        <time>2016-10-02T09:17:05Z</time>
      </trkpt>
      <trkpt lat="45.81444" lon="4.64387">
        <ele>364.838013</ele>
        <time>2016-10-02T09:17:07Z</time>
      </trkpt>
      <trkpt lat="45.81442" lon="4.64403">
        <ele>363.271057</ele>
        <time>2016-10-02T09:17:09Z</time>
      </trkpt>
      <trkpt lat="45.81438" lon="4.64419">
        <ele>361.624695</ele>
        <time>2016-10-02T09:17:11Z</time>
      </trkpt>
      <trkpt lat="45.81435" lon="4.64432">
        <ele>360.132904</ele>
        <time>2016-10-02T09:17:13Z</time>
      </trkpt>
      <trkpt lat="45.8143" lon="4.64443">
        <ele>359.438629</ele>
        <time>2016-10-02T09:17:15Z</time>
      </trkpt>
      <trkpt lat="45.81426" lon="4.64457">
        <ele>358.077332</ele>
        <time>2016-10-02T09:17:17Z</time>
      </trkpt>
      <trkpt lat="45.81422" lon="4.6447">
        <ele>356.538757</ele>
        <time>2016-10-02T09:17:19Z</time>
      </trkpt>
      <trkpt lat="45.81417" lon="4.64484">
        <ele>355.599792</ele>
        <time>2016-10-02T09:17:21Z</time>
      </trkpt>
      <trkpt lat="45.81413" lon="4.64497">
        <ele>354.525818</ele>
        <time>2016-10-02T09:17:23Z</time>
      </trkpt>
      <trkpt lat="45.81409" lon="4.64509">
        <ele>353.24765</ele>
        <time>2016-10-02T09:17:25Z</time>
      </trkpt>
      <trkpt lat="45.81406" lon="4.6452">
        <ele>352.276947</ele>
        <time>2016-10-02T09:17:27Z</time>
      </trkpt>
      <trkpt lat="45.81404" lon="4.6453">
        <ele>351.45694</ele>
        <time>2016-10-02T09:17:29Z</time>
      </trkpt>
      <trkpt lat="45.81403" lon="4.64541">
        <ele>351.021545</ele>
        <time>2016-10-02T09:17:31Z</time>
      </trkpt>
      <trkpt lat="45.81406" lon="4.64556">
        <ele>350.720947</ele>
        <time>2016-10-02T09:17:33Z</time>
      </trkpt>
      <trkpt lat="45.81414" lon="4.64571">
        <ele>350.042908</ele>
        <time>2016-10-02T09:17:35Z</time>
      </trkpt>
      <trkpt lat="45.81423" lon="4.64583">
        <ele>349.319641</ele>
        <time>2016-10-02T09:17:37Z</time>
      </trkpt>
      <trkpt lat="45.81424" lon="4.64591">
        <ele>349.143646</ele>
        <time>2016-10-02T09:17:39Z</time>
      </trkpt>
      <trkpt lat="45.81418" lon="4.64596">
        <ele>349.308899</ele>
        <time>2016-10-02T09:17:41Z</time>
      </trkpt>
      <trkpt lat="45.81407" lon="4.64598">
        <ele>349.30542</ele>
        <time>2016-10-02T09:17:43Z</time>
      </trkpt>
      <trkpt lat="45.81395" lon="4.64603">
        <ele>349.065155</ele>
        <time>2016-10-02T09:17:45Z</time>
      </trkpt>
      <trkpt lat="45.81382" lon="4.6461">
        <ele>348.065521</ele>
        <time>2016-10-02T09:17:47Z</time>
      </trkpt>
      <trkpt lat="45.81372" lon="4.64616">
        <ele>347.40509</ele>
        <time>2016-10-02T09:17:49Z</time>
      </trkpt>
      <trkpt lat="45.81363" lon="4.64624">
        <ele>346.785217</ele>
        <time>2016-10-02T09:17:51Z</time>
      </trkpt>
      <trkpt lat="45.81355" lon="4.64638">
        <ele>346.427002</ele>
        <time>2016-10-02T09:17:53Z</time>
      </trkpt>
      <trkpt lat="45.81347" lon="4.64656">
        <ele>346.203888</ele>
        <time>2016-10-02T09:17:55Z</time>
      </trkpt>
      <trkpt lat="45.81339" lon="4.64674">
        <ele>345.538239</ele>
        <time>2016-10-02T09:17:57Z</time>
      </trkpt>
      <trkpt lat="45.81331" lon="4.64694">
        <ele>345.173401</ele>
        <time>2016-10-02T09:17:59Z</time>
      </trkpt>
      <trkpt lat="45.81321" lon="4.64714">
        <ele>344.529968</ele>
        <time>2016-10-02T09:18:01Z</time>
      </trkpt>
      <trkpt lat="45.8131" lon="4.64732">
        <ele>344.19751</ele>
        <time>2016-10-02T09:18:03Z</time>
      </trkpt>
      <trkpt lat="45.81301" lon="4.64752">
        <ele>343.02887</ele>
        <time>2016-10-02T09:18:05Z</time>
      </trkpt>
      <trkpt lat="45.81293" lon="4.64772">
        <ele>342.306396</ele>
        <time>2016-10-02T09:18:07Z</time>
      </trkpt>
      <trkpt lat="45.81285" lon="4.64793">
        <ele>340.908691</ele>
        <time>2016-10-02T09:18:09Z</time>
      </trkpt>
      <trkpt lat="45.81275" lon="4.64801">
        <ele>339.729187</ele>
        <time>2016-10-02T09:18:11Z</time>
      </trkpt>
      <trkpt lat="45.81264" lon="4.64795">
        <ele>338.559021</ele>
        <time>2016-10-02T09:18:13Z</time>
      </trkpt>
      <trkpt lat="45.81252" lon="4.6479">
        <ele>337.388092</ele>
        <time>2016-10-02T09:18:15Z</time>
      </trkpt>
      <trkpt lat="45.81245" lon="4.64786">
        <ele>336.270264</ele>
        <time>2016-10-02T09:18:17Z</time>
      </trkpt>
      <trkpt lat="45.81239" lon="4.64784">
        <ele>334.943909</ele>
        <time>2016-10-02T09:18:19Z</time>
      </trkpt>
      <trkpt lat="45.81231" lon="4.64787">
        <ele>333.835876</ele>
        <time>2016-10-02T09:18:21Z</time>
      </trkpt>
      <trkpt lat="45.81224" lon="4.64794">
        <ele>332.49765</ele>
        <time>2016-10-02T09:18:23Z</time>
      </trkpt>
      <trkpt lat="45.81216" lon="4.64802">
        <ele>331.506775</ele>
        <time>2016-10-02T09:18:25Z</time>
      </trkpt>
      <trkpt lat="45.81207" lon="4.64807">
        <ele>330.651886</ele>
        <time>2016-10-02T09:18:27Z</time>
      </trkpt>
      <trkpt lat="45.81199" lon="4.64816">
        <ele>330.390686</ele>
        <time>2016-10-02T09:18:29Z</time>
      </trkpt>
      <trkpt lat="45.81195" lon="4.64828">
        <ele>329.855164</ele>
        <time>2016-10-02T09:18:31Z</time>
      </trkpt>
      <trkpt lat="45.81191" lon="4.64842">
        <ele>329.086182</ele>
        <time>2016-10-02T09:18:33Z</time>
      </trkpt>
      <trkpt lat="45.81185" lon="4.64856">
        <ele>328.387543</ele>
        <time>2016-10-02T09:18:35Z</time>
      </trkpt>
      <trkpt lat="45.81181" lon="4.64869">
        <ele>327.176727</ele>
        <time>2016-10-02T09:18:37Z</time>
      </trkpt>
      <trkpt lat="45.81177" lon="4.64885">
        <ele>326.54306</ele>
        <time>2016-10-02T09:18:39Z</time>
      </trkpt>
      <trkpt lat="45.81174" lon="4.64899">
        <ele>325.467316</ele>
        <time>2016-10-02T09:18:41Z</time>
      </trkpt>
      <trkpt lat="45.81171" lon="4.6491">
        <ele>324.651245</ele>
        <time>2016-10-02T09:18:43Z</time>
      </trkpt>
      <trkpt lat="45.81169" lon="4.6492">
        <ele>323.787842</ele>
        <time>2016-10-02T09:18:45Z</time>
      </trkpt>
      <trkpt lat="45.81165" lon="4.64931">
        <ele>322.986938</ele>
        <time>2016-10-02T09:18:47Z</time>
      </trkpt>
      <trkpt lat="45.81162" lon="4.64937">
        <ele>322.640228</ele>
        <time>2016-10-02T09:18:49Z</time>
      </trkpt>
      <trkpt lat="45.81159" lon="4.64937">
        <ele>322.188629</ele>
        <time>2016-10-02T09:18:51Z</time>
      </trkpt>
      <trkpt lat="45.81156" lon="4.64935">
        <ele>321.985291</ele>
        <time>2016-10-02T09:18:53Z</time>
      </trkpt>
      <trkpt lat="45.81154" lon="4.64934">
        <ele>321.692566</ele>
        <time>2016-10-02T09:18:55Z</time>
      </trkpt>
      <trkpt lat="45.81152" lon="4.64932">
        <ele>321.284424</ele>
        <time>2016-10-02T09:18:57Z</time>
      </trkpt>
      <trkpt lat="45.8115" lon="4.6493">
        <ele>321.017761</ele>
        <time>2016-10-02T09:18:59Z</time>
      </trkpt>
      <trkpt lat="45.81149" lon="4.64928">
        <ele>321.004944</ele>
        <time>2016-10-02T09:19:01Z</time>
      </trkpt>
      <trkpt lat="45.81147" lon="4.64927">
        <ele>320.773743</ele>
        <time>2016-10-02T09:19:03Z</time>
      </trkpt>
      <trkpt lat="45.81146" lon="4.64925">
        <ele>320.745911</ele>
        <time>2016-10-02T09:19:05Z</time>
      </trkpt>
      <trkpt lat="45.81144" lon="4.64922">
        <ele>320.579651</ele>
        <time>2016-10-02T09:19:07Z</time>
      </trkpt>
      <trkpt lat="45.81143" lon="4.64918">
        <ele>320.549652</ele>
        <time>2016-10-02T09:19:09Z</time>
      </trkpt>
      <trkpt lat="45.81141" lon="4.64914">
        <ele>320.54068</ele>
        <time>2016-10-02T09:19:11Z</time>
      </trkpt>
      <trkpt lat="45.8114" lon="4.64911">
        <ele>320.485016</ele>
        <time>2016-10-02T09:19:13Z</time>
      </trkpt>
      <trkpt lat="45.81139" lon="4.64907">
        <ele>320.405731</ele>
        <time>2016-10-02T09:19:15Z</time>
      </trkpt>
      <trkpt lat="45.81139" lon="4.64903">
        <ele>320.266602</ele>
        <time>2016-10-02T09:19:17Z</time>
      </trkpt>
      <trkpt lat="45.81138" lon="4.64898">
        <ele>320.343658</ele>
        <time>2016-10-02T09:19:19Z</time>
      </trkpt>
      <trkpt lat="45.81136" lon="4.64894">
        <ele>320.235016</ele>
        <time>2016-10-02T09:19:21Z</time>
      </trkpt>
      <trkpt lat="45.81134" lon="4.64889">
        <ele>320.252136</ele>
        <time>2016-10-02T09:19:23Z</time>
      </trkpt>
      <trkpt lat="45.81133" lon="4.64884">
        <ele>320.352692</ele>
        <time>2016-10-02T09:19:25Z</time>
      </trkpt>
      <trkpt lat="45.81132" lon="4.6488">
        <ele>320.618103</ele>
        <time>2016-10-02T09:19:27Z</time>
      </trkpt>
      <trkpt lat="45.81131" lon="4.64874">
        <ele>320.88443</ele>
        <time>2016-10-02T09:19:29Z</time>
      </trkpt>
      <trkpt lat="45.81129" lon="4.64868">
        <ele>321.189728</ele>
        <time>2016-10-02T09:19:31Z</time>
      </trkpt>
      <trkpt lat="45.81127" lon="4.64863">
        <ele>321.724823</ele>
        <time>2016-10-02T09:19:33Z</time>
      </trkpt>
      <trkpt lat="45.81125" lon="4.64858">
        <ele>322.106354</ele>
        <time>2016-10-02T09:19:35Z</time>
      </trkpt>
      <trkpt lat="45.81124" lon="4.64852">
        <ele>322.40387</ele>
        <time>2016-10-02T09:19:37Z</time>
      </trkpt>
      <trkpt lat="45.81122" lon="4.64846">
        <ele>322.650024</ele>
        <time>2016-10-02T09:19:39Z</time>
      </trkpt>
      <trkpt lat="45.81121" lon="4.64841">
        <ele>323.087769</ele>
        <time>2016-10-02T09:19:41Z</time>
      </trkpt>
      <trkpt lat="45.81119" lon="4.64835">
        <ele>323.373047</ele>
        <time>2016-10-02T09:19:43Z</time>
      </trkpt>
      <trkpt lat="45.81118" lon="4.64829">
        <ele>323.792633</ele>
        <time>2016-10-02T09:19:45Z</time>
      </trkpt>
      <trkpt lat="45.81116" lon="4.64824">
        <ele>324.066711</ele>
        <time>2016-10-02T09:19:47Z</time>
      </trkpt>
      <trkpt lat="45.81115" lon="4.64819">
        <ele>324.574371</ele>
        <time>2016-10-02T09:19:49Z</time>
      </trkpt>
      <trkpt lat="45.81113" lon="4.64814">
        <ele>324.820618</ele>
        <time>2016-10-02T09:19:51Z</time>
      </trkpt>
      <trkpt lat="45.81112" lon="4.6481">
        <ele>325.182922</ele>
        <time>2016-10-02T09:19:53Z</time>
      </trkpt>
      <trkpt lat="45.8111" lon="4.64806">
        <ele>325.448578</ele>
        <time>2016-10-02T09:19:55Z</time>
      </trkpt>
      <trkpt lat="45.81109" lon="4.64803">
        <ele>325.778381</ele>
        <time>2016-10-02T09:19:57Z</time>
      </trkpt>
      <trkpt lat="45.81107" lon="4.64799">
        <ele>326.1745</ele>
        <time>2016-10-02T09:19:59Z</time>
      </trkpt>
      <trkpt lat="45.81105" lon="4.64795">
        <ele>326.404449</ele>
        <time>2016-10-02T09:20:01Z</time>
      </trkpt>
      <trkpt lat="45.81103" lon="4.64792">
        <ele>326.676422</ele>
        <time>2016-10-02T09:20:03Z</time>
      </trkpt>
      <trkpt lat="45.81101" lon="4.64788">
        <ele>326.944122</ele>
        <time>2016-10-02T09:20:05Z</time>
      </trkpt>
      <trkpt lat="45.811" lon="4.64785">
        <ele>327.36615</ele>
        <time>2016-10-02T09:20:07Z</time>
      </trkpt>
      <trkpt lat="45.81098" lon="4.64783">
        <ele>327.644592</ele>
        <time>2016-10-02T09:20:09Z</time>
      </trkpt>
      <trkpt lat="45.81096" lon="4.64779">
        <ele>327.857819</ele>
        <time>2016-10-02T09:20:11Z</time>
      </trkpt>
      <trkpt lat="45.81093" lon="4.64775">
        <ele>328.238007</ele>
        <time>2016-10-02T09:20:13Z</time>
      </trkpt>
      <trkpt lat="45.8109" lon="4.6477">
        <ele>328.285126</ele>
        <time>2016-10-02T09:20:15Z</time>
      </trkpt>
      <trkpt lat="45.81088" lon="4.64766">
        <ele>328.559265</ele>
        <time>2016-10-02T09:20:17Z</time>
      </trkpt>
      <trkpt lat="45.81085" lon="4.64762">
        <ele>328.809875</ele>
        <time>2016-10-02T09:20:19Z</time>
      </trkpt>
      <trkpt lat="45.81083" lon="4.64759">
        <ele>329.077423</ele>
        <time>2016-10-02T09:20:21Z</time>
      </trkpt>
      <trkpt lat="45.81081" lon="4.64756">
        <ele>329.366028</ele>
        <time>2016-10-02T09:20:23Z</time>
      </trkpt>
      <trkpt lat="45.81079" lon="4.64753">
        <ele>329.528778</ele>
        <time>2016-10-02T09:20:25Z</time>
      </trkpt>
      <trkpt lat="45.81077" lon="4.64749">
        <ele>329.740326</ele>
        <time>2016-10-02T09:20:27Z</time>
      </trkpt>
      <trkpt lat="45.81075" lon="4.64746">
        <ele>329.969482</ele>
        <time>2016-10-02T09:20:29Z</time>
      </trkpt>
      <trkpt lat="45.81074" lon="4.64744">
        <ele>330.055176</ele>
        <time>2016-10-02T09:20:31Z</time>
      </trkpt>
      <trkpt lat="45.81072" lon="4.64741">
        <ele>330.311829</ele>
        <time>2016-10-02T09:20:33Z</time>
      </trkpt>
      <trkpt lat="45.8107" lon="4.64739">
        <ele>330.587006</ele>
        <time>2016-10-02T09:20:35Z</time>
      </trkpt>
      <trkpt lat="45.81067" lon="4.64735">
        <ele>330.901794</ele>
        <time>2016-10-02T09:20:37Z</time>
      </trkpt>
      <trkpt lat="45.81065" lon="4.64732">
        <ele>331.111755</ele>
        <time>2016-10-02T09:20:39Z</time>
      </trkpt>
      <trkpt lat="45.81063" lon="4.64728">
        <ele>331.424561</ele>
        <time>2016-10-02T09:20:41Z</time>
      </trkpt>
      <trkpt lat="45.8106" lon="4.64724">
        <ele>331.797333</ele>
        <time>2016-10-02T09:20:43Z</time>
      </trkpt>
      <trkpt lat="45.81058" lon="4.64721">
        <ele>331.874481</ele>
        <time>2016-10-02T09:20:45Z</time>
      </trkpt>
      <trkpt lat="45.81056" lon="4.64717">
        <ele>332.127319</ele>
        <time>2016-10-02T09:20:47Z</time>
      </trkpt>
      <trkpt lat="45.81054" lon="4.64713">
        <ele>332.407867</ele>
        <time>2016-10-02T09:20:49Z</time>
      </trkpt>
      <trkpt lat="45.81052" lon="4.64711">
        <ele>332.598572</ele>
        <time>2016-10-02T09:20:51Z</time>
      </trkpt>
      <trkpt lat="45.81049" lon="4.64707">
        <ele>333.059479</ele>
        <time>2016-10-02T09:20:53Z</time>
      </trkpt>
      <trkpt lat="45.81047" lon="4.64704">
        <ele>333.300201</ele>
        <time>2016-10-02T09:20:55Z</time>
      </trkpt>
      <trkpt lat="45.81044" lon="4.64699">
        <ele>333.705139</ele>
        <time>2016-10-02T09:20:57Z</time>
      </trkpt>
      <trkpt lat="45.81041" lon="4.64694">
        <ele>333.752258</ele>
        <time>2016-10-02T09:20:59Z</time>
      </trkpt>
      <trkpt lat="45.81038" lon="4.64689">
        <ele>334.080627</ele>
        <time>2016-10-02T09:21:01Z</time>
      </trkpt>
      <trkpt lat="45.81034" lon="4.64684">
        <ele>334.373657</ele>
        <time>2016-10-02T09:21:03Z</time>
      </trkpt>
      <trkpt lat="45.8103" lon="4.64679">
        <ele>334.551544</ele>
        <time>2016-10-02T09:21:05Z</time>
      </trkpt>
      <trkpt lat="45.81027" lon="4.64675">
        <ele>334.707977</ele>
        <time>2016-10-02T09:21:07Z</time>
      </trkpt>
      <trkpt lat="45.81024" lon="4.6467">
        <ele>335.030792</ele>
        <time>2016-10-02T09:21:09Z</time>
      </trkpt>
      <trkpt lat="45.81021" lon="4.64666">
        <ele>335.389954</ele>
        <time>2016-10-02T09:21:11Z</time>
      </trkpt>
      <trkpt lat="45.81018" lon="4.64661">
        <ele>335.707367</ele>
        <time>2016-10-02T09:21:13Z</time>
      </trkpt>
      <trkpt lat="45.81015" lon="4.64657">
        <ele>336.055023</ele>
        <time>2016-10-02T09:21:15Z</time>
      </trkpt>
      <trkpt lat="45.81012" lon="4.64652">
        <ele>336.326263</ele>
        <time>2016-10-02T09:21:17Z</time>
      </trkpt>
      <trkpt lat="45.81008" lon="4.64647">
        <ele>336.682129</ele>
        <time>2016-10-02T09:21:19Z</time>
      </trkpt>
      <trkpt lat="45.81006" lon="4.64643">
        <ele>337.044434</ele>
        <time>2016-10-02T09:21:21Z</time>
      </trkpt>
      <trkpt lat="45.81002" lon="4.64638">
        <ele>337.370331</ele>
        <time>2016-10-02T09:21:23Z</time>
      </trkpt>
      <trkpt lat="45.80999" lon="4.64634">
        <ele>337.522522</ele>
        <time>2016-10-02T09:21:25Z</time>
      </trkpt>
      <trkpt lat="45.80997" lon="4.6463">
        <ele>337.857178</ele>
        <time>2016-10-02T09:21:27Z</time>
      </trkpt>
      <trkpt lat="45.80994" lon="4.64626">
        <ele>338.234528</ele>
        <time>2016-10-02T09:21:29Z</time>
      </trkpt>
      <trkpt lat="45.80991" lon="4.64622">
        <ele>338.639801</ele>
        <time>2016-10-02T09:21:31Z</time>
      </trkpt>
      <trkpt lat="45.80989" lon="4.64618">
        <ele>339.107239</ele>
        <time>2016-10-02T09:21:33Z</time>
      </trkpt>
      <trkpt lat="45.80986" lon="4.64614">
        <ele>339.492828</ele>
        <time>2016-10-02T09:21:35Z</time>
      </trkpt>
      <trkpt lat="45.80984" lon="4.6461">
        <ele>339.896667</ele>
        <time>2016-10-02T09:21:37Z</time>
      </trkpt>
      <trkpt lat="45.80981" lon="4.64606">
        <ele>340.312653</ele>
        <time>2016-10-02T09:21:39Z</time>
      </trkpt>
      <trkpt lat="45.80978" lon="4.64603">
        <ele>340.878601</ele>
        <time>2016-10-02T09:21:41Z</time>
      </trkpt>
      <trkpt lat="45.80976" lon="4.64599">
        <ele>341.264099</ele>
        <time>2016-10-02T09:21:43Z</time>
      </trkpt>
      <trkpt lat="45.80973" lon="4.64595">
        <ele>341.622162</ele>
        <time>2016-10-02T09:21:45Z</time>
      </trkpt>
      <trkpt lat="45.8097" lon="4.64592">
        <ele>341.774414</ele>
        <time>2016-10-02T09:21:47Z</time>
      </trkpt>
      <trkpt lat="45.80967" lon="4.64589">
        <ele>342.272766</ele>
        <time>2016-10-02T09:21:49Z</time>
      </trkpt>
      <trkpt lat="45.80964" lon="4.64586">
        <ele>342.679443</ele>
        <time>2016-10-02T09:21:51Z</time>
      </trkpt>
      <trkpt lat="45.80961" lon="4.64583">
        <ele>343.007721</ele>
        <time>2016-10-02T09:21:53Z</time>
      </trkpt>
      <trkpt lat="45.80958" lon="4.64579">
        <ele>343.402496</ele>
        <time>2016-10-02T09:21:55Z</time>
      </trkpt>
      <trkpt lat="45.80955" lon="4.64576">
        <ele>343.802307</ele>
        <time>2016-10-02T09:21:57Z</time>
      </trkpt>
      <trkpt lat="45.80951" lon="4.64573">
        <ele>344.244202</ele>
        <time>2016-10-02T09:21:59Z</time>
      </trkpt>
      <trkpt lat="45.80948" lon="4.6457">
        <ele>344.662506</ele>
        <time>2016-10-02T09:22:01Z</time>
      </trkpt>
      <trkpt lat="45.80944" lon="4.64567">
        <ele>344.930603</ele>
        <time>2016-10-02T09:22:03Z</time>
      </trkpt>
      <trkpt lat="45.8094" lon="4.64563">
        <ele>345.194458</ele>
        <time>2016-10-02T09:22:05Z</time>
      </trkpt>
      <trkpt lat="45.80938" lon="4.64559">
        <ele>345.681213</ele>
        <time>2016-10-02T09:22:07Z</time>
      </trkpt>
      <trkpt lat="45.80935" lon="4.64555">
        <ele>345.975159</ele>
        <time>2016-10-02T09:22:09Z</time>
      </trkpt>
      <trkpt lat="45.80933" lon="4.6455">
        <ele>346.196106</ele>
        <time>2016-10-02T09:22:11Z</time>
      </trkpt>
      <trkpt lat="45.80931" lon="4.64546">
        <ele>346.417969</ele>
        <time>2016-10-02T09:22:13Z</time>
      </trkpt>
      <trkpt lat="45.80928" lon="4.64541">
        <ele>346.711945</ele>
        <time>2016-10-02T09:22:15Z</time>
      </trkpt>
      <trkpt lat="45.80926" lon="4.64537">
        <ele>346.987213</ele>
        <time>2016-10-02T09:22:17Z</time>
      </trkpt>
      <trkpt lat="45.80924" lon="4.64533">
        <ele>347.404785</ele>
        <time>2016-10-02T09:22:19Z</time>
      </trkpt>
      <trkpt lat="45.80921" lon="4.64529">
        <ele>347.737396</ele>
        <time>2016-10-02T09:22:21Z</time>
      </trkpt>
      <trkpt lat="45.80917" lon="4.64526">
        <ele>348.033508</ele>
        <time>2016-10-02T09:22:23Z</time>
      </trkpt>
      <trkpt lat="45.80915" lon="4.64531">
        <ele>348.391876</ele>
        <time>2016-10-02T09:22:25Z</time>
      </trkpt>
      <trkpt lat="45.80914" lon="4.64539">
        <ele>348.848969</ele>
        <time>2016-10-02T09:22:27Z</time>
      </trkpt>
      <trkpt lat="45.80912" lon="4.64551">
        <ele>349.127136</ele>
        <time>2016-10-02T09:22:29Z</time>
      </trkpt>
      <trkpt lat="45.80909" lon="4.64564">
        <ele>349.378235</ele>
        <time>2016-10-02T09:22:31Z</time>
      </trkpt>
      <trkpt lat="45.80906" lon="4.6458">
        <ele>349.414703</ele>
        <time>2016-10-02T09:22:33Z</time>
      </trkpt>
      <trkpt lat="45.80903" lon="4.64599">
        <ele>349.533417</ele>
        <time>2016-10-02T09:22:35Z</time>
      </trkpt>
      <trkpt lat="45.80901" lon="4.64619">
        <ele>349.347931</ele>
        <time>2016-10-02T09:22:37Z</time>
      </trkpt>
      <trkpt lat="45.80903" lon="4.64641">
        <ele>348.753052</ele>
        <time>2016-10-02T09:22:39Z</time>
      </trkpt>
      <trkpt lat="45.80901" lon="4.6466">
        <ele>348.692932</ele>
        <time>2016-10-02T09:22:41Z</time>
      </trkpt>
      <trkpt lat="45.80898" lon="4.64677">
        <ele>348.150269</ele>
        <time>2016-10-02T09:22:43Z</time>
      </trkpt>
      <trkpt lat="45.80892" lon="4.64691">
        <ele>347.693481</ele>
        <time>2016-10-02T09:22:45Z</time>
      </trkpt>
      <trkpt lat="45.80891" lon="4.64707">
        <ele>346.898041</ele>
        <time>2016-10-02T09:22:47Z</time>
      </trkpt>
      <trkpt lat="45.80891" lon="4.64723">
        <ele>346.248474</ele>
        <time>2016-10-02T09:22:49Z</time>
      </trkpt>
      <trkpt lat="45.8089" lon="4.64737">
        <ele>345.560852</ele>
        <time>2016-10-02T09:22:51Z</time>
      </trkpt>
      <trkpt lat="45.80886" lon="4.64754">
        <ele>344.687225</ele>
        <time>2016-10-02T09:22:53Z</time>
      </trkpt>
      <trkpt lat="45.80887" lon="4.64768">
        <ele>344.365173</ele>
        <time>2016-10-02T09:22:55Z</time>
      </trkpt>
      <trkpt lat="45.80889" lon="4.64776">
        <ele>343.639618</ele>
        <time>2016-10-02T09:22:57Z</time>
      </trkpt>
      <trkpt lat="45.80891" lon="4.64782">
        <ele>342.97818</ele>
        <time>2016-10-02T09:22:59Z</time>
      </trkpt>
      <trkpt lat="45.80893" lon="4.64787">
        <ele>342.357056</ele>
        <time>2016-10-02T09:23:01Z</time>
      </trkpt>
      <trkpt lat="45.80894" lon="4.64792">
        <ele>341.580139</ele>
        <time>2016-10-02T09:23:03Z</time>
      </trkpt>
      <trkpt lat="45.80896" lon="4.64802">
        <ele>341.056122</ele>
        <time>2016-10-02T09:23:07Z</time>
      </trkpt>
      <trkpt lat="45.80897" lon="4.64808">
        <ele>340.526154</ele>
        <time>2016-10-02T09:23:09Z</time>
      </trkpt>
      <trkpt lat="45.80898" lon="4.64813">
        <ele>339.773132</ele>
        <time>2016-10-02T09:23:11Z</time>
      </trkpt>
      <trkpt lat="45.80898" lon="4.64819">
        <ele>339.374084</ele>
        <time>2016-10-02T09:23:13Z</time>
      </trkpt>
      <trkpt lat="45.80899" lon="4.64825">
        <ele>338.751892</ele>
        <time>2016-10-02T09:23:15Z</time>
      </trkpt>
      <trkpt lat="45.809" lon="4.64831">
        <ele>338.520203</ele>
        <time>2016-10-02T09:23:17Z</time>
      </trkpt>
      <trkpt lat="45.80901" lon="4.64836">
        <ele>338.182892</ele>
        <time>2016-10-02T09:23:19Z</time>
      </trkpt>
      <trkpt lat="45.80903" lon="4.64842">
        <ele>338.497375</ele>
        <time>2016-10-02T09:23:21Z</time>
      </trkpt>
      <trkpt lat="45.80904" lon="4.64849">
        <ele>338.716034</ele>
        <time>2016-10-02T09:23:23Z</time>
      </trkpt>
      <trkpt lat="45.80904" lon="4.64857">
        <ele>338.64093</ele>
        <time>2016-10-02T09:23:25Z</time>
      </trkpt>
      <trkpt lat="45.80905" lon="4.64865">
        <ele>338.838196</ele>
        <time>2016-10-02T09:23:27Z</time>
      </trkpt>
      <trkpt lat="45.80906" lon="4.64873">
        <ele>339.197235</ele>
        <time>2016-10-02T09:23:29Z</time>
      </trkpt>
      <trkpt lat="45.80907" lon="4.64882">
        <ele>339.88324</ele>
        <time>2016-10-02T09:23:31Z</time>
      </trkpt>
      <trkpt lat="45.80907" lon="4.6489">
        <ele>340.283936</ele>
        <time>2016-10-02T09:23:33Z</time>
      </trkpt>
      <trkpt lat="45.80909" lon="4.64899">
        <ele>340.615417</ele>
        <time>2016-10-02T09:23:35Z</time>
      </trkpt>
      <trkpt lat="45.80912" lon="4.64911">
        <ele>341.241455</ele>
        <time>2016-10-02T09:23:37Z</time>
      </trkpt>
      <trkpt lat="45.80915" lon="4.64925">
        <ele>341.463287</ele>
        <time>2016-10-02T09:23:39Z</time>
      </trkpt>
      <trkpt lat="45.80917" lon="4.6494">
        <ele>341.795532</ele>
        <time>2016-10-02T09:23:41Z</time>
      </trkpt>
      <trkpt lat="45.80919" lon="4.64958">
        <ele>342.037628</ele>
        <time>2016-10-02T09:23:43Z</time>
      </trkpt>
      <trkpt lat="45.80921" lon="4.64974">
        <ele>342.525085</ele>
        <time>2016-10-02T09:23:45Z</time>
      </trkpt>
      <trkpt lat="45.80922" lon="4.64993">
        <ele>342.69931</ele>
        <time>2016-10-02T09:23:47Z</time>
      </trkpt>
      <trkpt lat="45.80923" lon="4.65011">
        <ele>342.680023</ele>
        <time>2016-10-02T09:23:49Z</time>
      </trkpt>
      <trkpt lat="45.80925" lon="4.6503">
        <ele>342.634979</ele>
        <time>2016-10-02T09:23:51Z</time>
      </trkpt>
      <trkpt lat="45.80929" lon="4.65047">
        <ele>342.725586</ele>
        <time>2016-10-02T09:23:53Z</time>
      </trkpt>
      <trkpt lat="45.80933" lon="4.65063">
        <ele>342.558441</ele>
        <time>2016-10-02T09:23:55Z</time>
      </trkpt>
      <trkpt lat="45.80937" lon="4.65076">
        <ele>342.558472</ele>
        <time>2016-10-02T09:23:57Z</time>
      </trkpt>
      <trkpt lat="45.8094" lon="4.65087">
        <ele>342.504852</ele>
        <time>2016-10-02T09:23:59Z</time>
      </trkpt>
      <trkpt lat="45.80942" lon="4.65096">
        <ele>342.377502</ele>
        <time>2016-10-02T09:24:01Z</time>
      </trkpt>
      <trkpt lat="45.80944" lon="4.65104">
        <ele>342.272278</ele>
        <time>2016-10-02T09:24:03Z</time>
      </trkpt>
      <trkpt lat="45.80946" lon="4.6511">
        <ele>342.11145</ele>
        <time>2016-10-02T09:24:05Z</time>
      </trkpt>
      <trkpt lat="45.80947" lon="4.65116">
        <ele>341.991364</ele>
        <time>2016-10-02T09:24:07Z</time>
      </trkpt>
      <trkpt lat="45.80949" lon="4.65122">
        <ele>341.797394</ele>
        <time>2016-10-02T09:24:09Z</time>
      </trkpt>
      <trkpt lat="45.8095" lon="4.65127">
        <ele>341.733063</ele>
        <time>2016-10-02T09:24:11Z</time>
      </trkpt>
      <trkpt lat="45.80951" lon="4.65132">
        <ele>341.583191</ele>
        <time>2016-10-02T09:24:13Z</time>
      </trkpt>
      <trkpt lat="45.80953" lon="4.65137">
        <ele>341.478088</ele>
        <time>2016-10-02T09:24:15Z</time>
      </trkpt>
      <trkpt lat="45.80954" lon="4.65142">
        <ele>341.525238</ele>
        <time>2016-10-02T09:24:17Z</time>
      </trkpt>
      <trkpt lat="45.80956" lon="4.65146">
        <ele>341.428711</ele>
        <time>2016-10-02T09:24:19Z</time>
      </trkpt>
      <trkpt lat="45.80957" lon="4.65151">
        <ele>341.600159</ele>
        <time>2016-10-02T09:24:21Z</time>
      </trkpt>
      <trkpt lat="45.80959" lon="4.65156">
        <ele>341.776337</ele>
        <time>2016-10-02T09:24:23Z</time>
      </trkpt>
      <trkpt lat="45.80961" lon="4.65161">
        <ele>342.066193</ele>
        <time>2016-10-02T09:24:25Z</time>
      </trkpt>
      <trkpt lat="45.80962" lon="4.65165">
        <ele>341.945923</ele>
        <time>2016-10-02T09:24:27Z</time>
      </trkpt>
      <trkpt lat="45.80964" lon="4.6517">
        <ele>342.208435</ele>
        <time>2016-10-02T09:24:29Z</time>
      </trkpt>
      <trkpt lat="45.80965" lon="4.65175">
        <ele>342.48822</ele>
        <time>2016-10-02T09:24:31Z</time>
      </trkpt>
      <trkpt lat="45.80966" lon="4.6518">
        <ele>342.863068</ele>
        <time>2016-10-02T09:24:33Z</time>
      </trkpt>
      <trkpt lat="45.80968" lon="4.65185">
        <ele>343.251251</ele>
        <time>2016-10-02T09:24:35Z</time>
      </trkpt>
      <trkpt lat="45.80969" lon="4.6519">
        <ele>343.448456</ele>
        <time>2016-10-02T09:24:37Z</time>
      </trkpt>
      <trkpt lat="45.80971" lon="4.65195">
        <ele>343.670105</ele>
        <time>2016-10-02T09:24:39Z</time>
      </trkpt>
      <trkpt lat="45.80972" lon="4.65201">
        <ele>344.120575</ele>
        <time>2016-10-02T09:24:41Z</time>
      </trkpt>
      <trkpt lat="45.80974" lon="4.65208">
        <ele>344.547485</ele>
        <time>2016-10-02T09:24:43Z</time>
      </trkpt>
      <trkpt lat="45.80975" lon="4.65216">
        <ele>344.904358</ele>
        <time>2016-10-02T09:24:45Z</time>
      </trkpt>
      <trkpt lat="45.80978" lon="4.65222">
        <ele>345.423553</ele>
        <time>2016-10-02T09:24:47Z</time>
      </trkpt>
      <trkpt lat="45.8098" lon="4.6523">
        <ele>345.886932</ele>
        <time>2016-10-02T09:24:49Z</time>
      </trkpt>
      <trkpt lat="45.80981" lon="4.65237">
        <ele>346.375793</ele>
        <time>2016-10-02T09:24:51Z</time>
      </trkpt>
      <trkpt lat="45.80983" lon="4.65244">
        <ele>346.821777</ele>
        <time>2016-10-02T09:24:53Z</time>
      </trkpt>
      <trkpt lat="45.80985" lon="4.65251">
        <ele>347.161743</ele>
        <time>2016-10-02T09:24:55Z</time>
      </trkpt>
      <trkpt lat="45.80986" lon="4.65259">
        <ele>347.481445</ele>
        <time>2016-10-02T09:24:57Z</time>
      </trkpt>
      <trkpt lat="45.80983" lon="4.65265">
        <ele>347.985657</ele>
        <time>2016-10-02T09:24:59Z</time>
      </trkpt>
      <trkpt lat="45.80978" lon="4.65268">
        <ele>348.19162</ele>
        <time>2016-10-02T09:25:01Z</time>
      </trkpt>
      <trkpt lat="45.80971" lon="4.65271">
        <ele>348.516968</ele>
        <time>2016-10-02T09:25:03Z</time>
      </trkpt>
      <trkpt lat="45.80965" lon="4.65274">
        <ele>348.879669</ele>
        <time>2016-10-02T09:25:05Z</time>
      </trkpt>
      <trkpt lat="45.80958" lon="4.65277">
        <ele>349.074982</ele>
        <time>2016-10-02T09:25:07Z</time>
      </trkpt>
      <trkpt lat="45.80951" lon="4.65282">
        <ele>349.16507</ele>
        <time>2016-10-02T09:25:09Z</time>
      </trkpt>
      <trkpt lat="45.80944" lon="4.65286">
        <ele>349.498993</ele>
        <time>2016-10-02T09:25:11Z</time>
      </trkpt>
      <trkpt lat="45.80937" lon="4.6529">
        <ele>349.833527</ele>
        <time>2016-10-02T09:25:13Z</time>
      </trkpt>
      <trkpt lat="45.8093" lon="4.65294">
        <ele>349.975159</ele>
        <time>2016-10-02T09:25:15Z</time>
      </trkpt>
      <trkpt lat="45.80923" lon="4.65298">
        <ele>350.142517</ele>
        <time>2016-10-02T09:25:17Z</time>
      </trkpt>
      <trkpt lat="45.80915" lon="4.65302">
        <ele>350.450867</ele>
        <time>2016-10-02T09:25:19Z</time>
      </trkpt>
      <trkpt lat="45.80908" lon="4.65305">
        <ele>350.689026</ele>
        <time>2016-10-02T09:25:21Z</time>
      </trkpt>
      <trkpt lat="45.80901" lon="4.65309">
        <ele>350.753448</ele>
        <time>2016-10-02T09:25:23Z</time>
      </trkpt>
      <trkpt lat="45.80894" lon="4.65312">
        <ele>350.897278</ele>
        <time>2016-10-02T09:25:25Z</time>
      </trkpt>
      <trkpt lat="45.80887" lon="4.65316">
        <ele>351.026062</ele>
        <time>2016-10-02T09:25:27Z</time>
      </trkpt>
      <trkpt lat="45.80883" lon="4.65323">
        <ele>351.183655</ele>
        <time>2016-10-02T09:25:29Z</time>
      </trkpt>
      <trkpt lat="45.8088" lon="4.65332">
        <ele>351.270386</ele>
        <time>2016-10-02T09:25:31Z</time>
      </trkpt>
      <trkpt lat="45.80878" lon="4.65341">
        <ele>351.4617</ele>
        <time>2016-10-02T09:25:33Z</time>
      </trkpt>
      <trkpt lat="45.80876" lon="4.65351">
        <ele>351.599792</ele>
        <time>2016-10-02T09:25:35Z</time>
      </trkpt>
      <trkpt lat="45.80873" lon="4.65361">
        <ele>351.968079</ele>
        <time>2016-10-02T09:25:37Z</time>
      </trkpt>
      <trkpt lat="45.80871" lon="4.65371">
        <ele>352.118378</ele>
        <time>2016-10-02T09:25:39Z</time>
      </trkpt>
      <trkpt lat="45.80869" lon="4.65381">
        <ele>352.29538</ele>
        <time>2016-10-02T09:25:41Z</time>
      </trkpt>
      <trkpt lat="45.80866" lon="4.65391">
        <ele>352.502319</ele>
        <time>2016-10-02T09:25:43Z</time>
      </trkpt>
      <trkpt lat="45.80864" lon="4.65401">
        <ele>352.699982</ele>
        <time>2016-10-02T09:25:45Z</time>
      </trkpt>
      <trkpt lat="45.80861" lon="4.65412">
        <ele>352.953308</ele>
        <time>2016-10-02T09:25:47Z</time>
      </trkpt>
      <trkpt lat="45.80858" lon="4.65422">
        <ele>353.107849</ele>
        <time>2016-10-02T09:25:49Z</time>
      </trkpt>
      <trkpt lat="45.80856" lon="4.65432">
        <ele>353.423462</ele>
        <time>2016-10-02T09:25:51Z</time>
      </trkpt>
      <trkpt lat="45.80854" lon="4.65441">
        <ele>353.507172</ele>
        <time>2016-10-02T09:25:53Z</time>
      </trkpt>
      <trkpt lat="45.80851" lon="4.6545">
        <ele>353.742615</ele>
        <time>2016-10-02T09:25:55Z</time>
      </trkpt>
      <trkpt lat="45.80848" lon="4.65458">
        <ele>353.989319</ele>
        <time>2016-10-02T09:25:57Z</time>
      </trkpt>
      <trkpt lat="45.80845" lon="4.65467">
        <ele>354.245789</ele>
        <time>2016-10-02T09:25:59Z</time>
      </trkpt>
      <trkpt lat="45.80842" lon="4.65476">
        <ele>354.305908</ele>
        <time>2016-10-02T09:26:01Z</time>
      </trkpt>
      <trkpt lat="45.80839" lon="4.65486">
        <ele>354.651001</ele>
        <time>2016-10-02T09:26:03Z</time>
      </trkpt>
      <trkpt lat="45.80835" lon="4.65498">
        <ele>354.762665</ele>
        <time>2016-10-02T09:26:05Z</time>
      </trkpt>
      <trkpt lat="45.8083" lon="4.65514">
        <ele>354.964478</ele>
        <time>2016-10-02T09:26:07Z</time>
      </trkpt>
      <trkpt lat="45.80825" lon="4.65533">
        <ele>355.056824</ele>
        <time>2016-10-02T09:26:09Z</time>
      </trkpt>
      <trkpt lat="45.80819" lon="4.65553">
        <ele>355.239838</ele>
        <time>2016-10-02T09:26:11Z</time>
      </trkpt>
      <trkpt lat="45.80814" lon="4.65575">
        <ele>355.056519</ele>
        <time>2016-10-02T09:26:13Z</time>
      </trkpt>
      <trkpt lat="45.80813" lon="4.65598">
        <ele>354.921326</ele>
        <time>2016-10-02T09:26:15Z</time>
      </trkpt>
      <trkpt lat="45.80813" lon="4.65621">
        <ele>354.667358</ele>
        <time>2016-10-02T09:26:17Z</time>
      </trkpt>
      <trkpt lat="45.80813" lon="4.65643">
        <ele>353.982941</ele>
        <time>2016-10-02T09:26:19Z</time>
      </trkpt>
      <trkpt lat="45.80813" lon="4.65666">
        <ele>353.873474</ele>
        <time>2016-10-02T09:26:21Z</time>
      </trkpt>
      <trkpt lat="45.80813" lon="4.65686">
        <ele>353.170837</ele>
        <time>2016-10-02T09:26:23Z</time>
      </trkpt>
      <trkpt lat="45.80813" lon="4.65705">
        <ele>352.406982</ele>
        <time>2016-10-02T09:26:25Z</time>
      </trkpt>
      <trkpt lat="45.80812" lon="4.65723">
        <ele>351.557129</ele>
        <time>2016-10-02T09:26:27Z</time>
      </trkpt>
      <trkpt lat="45.80813" lon="4.65744">
        <ele>350.763245</ele>
        <time>2016-10-02T09:26:29Z</time>
      </trkpt>
      <trkpt lat="45.80814" lon="4.65765">
        <ele>350.39209</ele>
        <time>2016-10-02T09:26:31Z</time>
      </trkpt>
      <trkpt lat="45.80822" lon="4.65783">
        <ele>349.663269</ele>
        <time>2016-10-02T09:26:33Z</time>
      </trkpt>
      <trkpt lat="45.80831" lon="4.65797">
        <ele>348.967529</ele>
        <time>2016-10-02T09:26:35Z</time>
      </trkpt>
      <trkpt lat="45.80837" lon="4.65811">
        <ele>348.087799</ele>
        <time>2016-10-02T09:26:37Z</time>
      </trkpt>
      <trkpt lat="45.8084" lon="4.65822">
        <ele>347.424805</ele>
        <time>2016-10-02T09:26:39Z</time>
      </trkpt>
      <trkpt lat="45.80842" lon="4.65831">
        <ele>346.544525</ele>
        <time>2016-10-02T09:26:41Z</time>
      </trkpt>
      <trkpt lat="45.80842" lon="4.65843">
        <ele>345.995209</ele>
        <time>2016-10-02T09:26:43Z</time>
      </trkpt>
      <trkpt lat="45.8084" lon="4.65857">
        <ele>344.9664</ele>
        <time>2016-10-02T09:26:45Z</time>
      </trkpt>
      <trkpt lat="45.80838" lon="4.65873">
        <ele>344.421295</ele>
        <time>2016-10-02T09:26:47Z</time>
      </trkpt>
      <trkpt lat="45.80837" lon="4.65888">
        <ele>343.79248</ele>
        <time>2016-10-02T09:26:49Z</time>
      </trkpt>
      <trkpt lat="45.80837" lon="4.65904">
        <ele>342.982086</ele>
        <time>2016-10-02T09:26:51Z</time>
      </trkpt>
      <trkpt lat="45.80839" lon="4.65919">
        <ele>342.60434</ele>
        <time>2016-10-02T09:26:53Z</time>
      </trkpt>
      <trkpt lat="45.80841" lon="4.65934">
        <ele>342.351227</ele>
        <time>2016-10-02T09:26:55Z</time>
      </trkpt>
      <trkpt lat="45.80843" lon="4.65948">
        <ele>341.869965</ele>
        <time>2016-10-02T09:26:57Z</time>
      </trkpt>
      <trkpt lat="45.80845" lon="4.65962">
        <ele>341.638245</ele>
        <time>2016-10-02T09:26:59Z</time>
      </trkpt>
      <trkpt lat="45.80846" lon="4.65975">
        <ele>341.647278</ele>
        <time>2016-10-02T09:27:01Z</time>
      </trkpt>
      <trkpt lat="45.80846" lon="4.65988">
        <ele>341.136261</ele>
        <time>2016-10-02T09:27:03Z</time>
      </trkpt>
      <trkpt lat="45.80847" lon="4.66001">
        <ele>341.181213</ele>
        <time>2016-10-02T09:27:05Z</time>
      </trkpt>
      <trkpt lat="45.80847" lon="4.66013">
        <ele>341.358643</ele>
        <time>2016-10-02T09:27:07Z</time>
      </trkpt>
      <trkpt lat="45.80847" lon="4.66025">
        <ele>341.534485</ele>
        <time>2016-10-02T09:27:09Z</time>
      </trkpt>
      <trkpt lat="45.80847" lon="4.66037">
        <ele>341.821838</ele>
        <time>2016-10-02T09:27:11Z</time>
      </trkpt>
      <trkpt lat="45.80847" lon="4.66048">
        <ele>341.890564</ele>
        <time>2016-10-02T09:27:13Z</time>
      </trkpt>
      <trkpt lat="45.80847" lon="4.66059">
        <ele>342.193359</ele>
        <time>2016-10-02T09:27:15Z</time>
      </trkpt>
      <trkpt lat="45.80847" lon="4.66069">
        <ele>342.500061</ele>
        <time>2016-10-02T09:27:17Z</time>
      </trkpt>
      <trkpt lat="45.80847" lon="4.66079">
        <ele>342.613831</ele>
        <time>2016-10-02T09:27:19Z</time>
      </trkpt>
      <trkpt lat="45.80847" lon="4.66089">
        <ele>342.794037</ele>
        <time>2016-10-02T09:27:21Z</time>
      </trkpt>
      <trkpt lat="45.80847" lon="4.66098">
        <ele>343.218353</ele>
        <time>2016-10-02T09:27:23Z</time>
      </trkpt>
      <trkpt lat="45.80847" lon="4.66108">
        <ele>343.46933</ele>
        <time>2016-10-02T09:27:25Z</time>
      </trkpt>
      <trkpt lat="45.80848" lon="4.66118">
        <ele>343.951324</ele>
        <time>2016-10-02T09:27:27Z</time>
      </trkpt>
      <trkpt lat="45.8085" lon="4.66129">
        <ele>344.258148</ele>
        <time>2016-10-02T09:27:29Z</time>
      </trkpt>
      <trkpt lat="45.80851" lon="4.66139">
        <ele>344.563141</ele>
        <time>2016-10-02T09:27:31Z</time>
      </trkpt>
      <trkpt lat="45.80851" lon="4.66149">
        <ele>344.91275</ele>
        <time>2016-10-02T09:27:33Z</time>
      </trkpt>
      <trkpt lat="45.80851" lon="4.66158">
        <ele>345.189545</ele>
        <time>2016-10-02T09:27:35Z</time>
      </trkpt>
      <trkpt lat="45.80851" lon="4.66167">
        <ele>345.60849</ele>
        <time>2016-10-02T09:27:37Z</time>
      </trkpt>
      <trkpt lat="45.80851" lon="4.66176">
        <ele>346.108337</ele>
        <time>2016-10-02T09:27:39Z</time>
      </trkpt>
      <trkpt lat="45.8085" lon="4.66186">
        <ele>346.36319</ele>
        <time>2016-10-02T09:27:41Z</time>
      </trkpt>
      <trkpt lat="45.8085" lon="4.66196">
        <ele>346.792267</ele>
        <time>2016-10-02T09:27:43Z</time>
      </trkpt>
      <trkpt lat="45.80851" lon="4.66205">
        <ele>346.914886</ele>
        <time>2016-10-02T09:27:45Z</time>
      </trkpt>
      <trkpt lat="45.80851" lon="4.66213">
        <ele>347.295593</ele>
        <time>2016-10-02T09:27:47Z</time>
      </trkpt>
      <trkpt lat="45.80852" lon="4.66222">
        <ele>347.710297</ele>
        <time>2016-10-02T09:27:49Z</time>
      </trkpt>
      <trkpt lat="45.80853" lon="4.66231">
        <ele>348.186646</ele>
        <time>2016-10-02T09:27:51Z</time>
      </trkpt>
      <trkpt lat="45.80854" lon="4.6624">
        <ele>348.532166</ele>
        <time>2016-10-02T09:27:53Z</time>
      </trkpt>
      <trkpt lat="45.80853" lon="4.66247">
        <ele>348.885376</ele>
        <time>2016-10-02T09:27:55Z</time>
      </trkpt>
      <trkpt lat="45.80851" lon="4.66256">
        <ele>349.145081</ele>
        <time>2016-10-02T09:27:57Z</time>
      </trkpt>
      <trkpt lat="45.80848" lon="4.66265">
        <ele>349.327454</ele>
        <time>2016-10-02T09:27:59Z</time>
      </trkpt>
      <trkpt lat="45.80845" lon="4.66274">
        <ele>349.561249</ele>
        <time>2016-10-02T09:28:01Z</time>
      </trkpt>
      <trkpt lat="45.80841" lon="4.66282">
        <ele>349.870178</ele>
        <time>2016-10-02T09:28:03Z</time>
      </trkpt>
      <trkpt lat="45.80838" lon="4.66291">
        <ele>350.10199</ele>
        <time>2016-10-02T09:28:05Z</time>
      </trkpt>
      <trkpt lat="45.80835" lon="4.663">
        <ele>350.269409</ele>
        <time>2016-10-02T09:28:07Z</time>
      </trkpt>
      <trkpt lat="45.80832" lon="4.66309">
        <ele>350.567505</ele>
        <time>2016-10-02T09:28:09Z</time>
      </trkpt>
      <trkpt lat="45.80829" lon="4.66318">
        <ele>350.706787</ele>
        <time>2016-10-02T09:28:11Z</time>
      </trkpt>
      <trkpt lat="45.80827" lon="4.66327">
        <ele>350.858765</ele>
        <time>2016-10-02T09:28:13Z</time>
      </trkpt>
      <trkpt lat="45.80824" lon="4.66336">
        <ele>351.185852</ele>
        <time>2016-10-02T09:28:15Z</time>
      </trkpt>
      <trkpt lat="45.80821" lon="4.66345">
        <ele>351.415558</ele>
        <time>2016-10-02T09:28:17Z</time>
      </trkpt>
      <trkpt lat="45.80818" lon="4.66354">
        <ele>351.700958</ele>
        <time>2016-10-02T09:28:19Z</time>
      </trkpt>
      <trkpt lat="45.80815" lon="4.66363">
        <ele>351.925659</ele>
        <time>2016-10-02T09:28:21Z</time>
      </trkpt>
      <trkpt lat="45.80812" lon="4.66372">
        <ele>352.374237</ele>
        <time>2016-10-02T09:28:23Z</time>
      </trkpt>
      <trkpt lat="45.80809" lon="4.66381">
        <ele>352.773621</ele>
        <time>2016-10-02T09:28:25Z</time>
      </trkpt>
      <trkpt lat="45.80806" lon="4.66389">
        <ele>353.191345</ele>
        <time>2016-10-02T09:28:27Z</time>
      </trkpt>
      <trkpt lat="45.80803" lon="4.66397">
        <ele>353.466156</ele>
        <time>2016-10-02T09:28:29Z</time>
      </trkpt>
      <trkpt lat="45.80801" lon="4.66406">
        <ele>353.622894</ele>
        <time>2016-10-02T09:28:31Z</time>
      </trkpt>
      <trkpt lat="45.80798" lon="4.66415">
        <ele>353.941986</ele>
        <time>2016-10-02T09:28:33Z</time>
      </trkpt>
      <trkpt lat="45.80795" lon="4.66424">
        <ele>354.284241</ele>
        <time>2016-10-02T09:28:35Z</time>
      </trkpt>
      <trkpt lat="45.80792" lon="4.66433">
        <ele>354.754395</ele>
        <time>2016-10-02T09:28:37Z</time>
      </trkpt>
      <trkpt lat="45.8079" lon="4.66442">
        <ele>355.130188</ele>
        <time>2016-10-02T09:28:39Z</time>
      </trkpt>
      <trkpt lat="45.80789" lon="4.66451">
        <ele>355.683075</ele>
        <time>2016-10-02T09:28:41Z</time>
      </trkpt>
      <trkpt lat="45.80788" lon="4.66461">
        <ele>356.176971</ele>
        <time>2016-10-02T09:28:43Z</time>
      </trkpt>
      <trkpt lat="45.80788" lon="4.66472">
        <ele>356.608673</ele>
        <time>2016-10-02T09:28:45Z</time>
      </trkpt>
      <trkpt lat="45.80789" lon="4.66482">
        <ele>356.758972</ele>
        <time>2016-10-02T09:28:47Z</time>
      </trkpt>
      <trkpt lat="45.80789" lon="4.66494">
        <ele>357.148224</ele>
        <time>2016-10-02T09:28:49Z</time>
      </trkpt>
      <trkpt lat="45.80789" lon="4.66505">
        <ele>357.582306</ele>
        <time>2016-10-02T09:28:51Z</time>
      </trkpt>
      <trkpt lat="45.8079" lon="4.66518">
        <ele>358.012054</ele>
        <time>2016-10-02T09:28:53Z</time>
      </trkpt>
      <trkpt lat="45.8079" lon="4.66531">
        <ele>358.433777</ele>
        <time>2016-10-02T09:28:55Z</time>
      </trkpt>
      <trkpt lat="45.8079" lon="4.66544">
        <ele>358.785156</ele>
        <time>2016-10-02T09:28:57Z</time>
      </trkpt>
      <trkpt lat="45.80789" lon="4.66557">
        <ele>358.971985</ele>
        <time>2016-10-02T09:28:59Z</time>
      </trkpt>
      <trkpt lat="45.80786" lon="4.66569">
        <ele>359.281433</ele>
        <time>2016-10-02T09:29:01Z</time>
      </trkpt>
      <trkpt lat="45.80782" lon="4.66581">
        <ele>359.541992</ele>
        <time>2016-10-02T09:29:03Z</time>
      </trkpt>
      <trkpt lat="45.80777" lon="4.66592">
        <ele>359.584961</ele>
        <time>2016-10-02T09:29:05Z</time>
      </trkpt>
      <trkpt lat="45.80771" lon="4.66602">
        <ele>359.610748</ele>
        <time>2016-10-02T09:29:07Z</time>
      </trkpt>
      <trkpt lat="45.80764" lon="4.66613">
        <ele>359.758087</ele>
        <time>2016-10-02T09:29:09Z</time>
      </trkpt>
      <trkpt lat="45.80758" lon="4.66623">
        <ele>359.974304</ele>
        <time>2016-10-02T09:29:11Z</time>
      </trkpt>
      <trkpt lat="45.80751" lon="4.66633">
        <ele>360.169739</ele>
        <time>2016-10-02T09:29:13Z</time>
      </trkpt>
      <trkpt lat="45.80746" lon="4.66644">
        <ele>360.310272</ele>
        <time>2016-10-02T09:29:15Z</time>
      </trkpt>
      <trkpt lat="45.80743" lon="4.66656">
        <ele>360.395447</ele>
        <time>2016-10-02T09:29:17Z</time>
      </trkpt>
      <trkpt lat="45.80743" lon="4.6667">
        <ele>360.464203</ele>
        <time>2016-10-02T09:29:19Z</time>
      </trkpt>
      <trkpt lat="45.80745" lon="4.66682">
        <ele>360.601715</ele>
        <time>2016-10-02T09:29:21Z</time>
      </trkpt>
      <trkpt lat="45.80747" lon="4.66695">
        <ele>360.66507</ele>
        <time>2016-10-02T09:29:23Z</time>
      </trkpt>
      <trkpt lat="45.8075" lon="4.66706">
        <ele>360.693604</ele>
        <time>2016-10-02T09:29:25Z</time>
      </trkpt>
      <trkpt lat="45.80753" lon="4.66716">
        <ele>360.76236</ele>
        <time>2016-10-02T09:29:27Z</time>
      </trkpt>
      <trkpt lat="45.80758" lon="4.66724">
        <ele>360.983124</ele>
        <time>2016-10-02T09:29:29Z</time>
      </trkpt>
      <trkpt lat="45.80762" lon="4.66731">
        <ele>361.013214</ele>
        <time>2016-10-02T09:29:31Z</time>
      </trkpt>
      <trkpt lat="45.80768" lon="4.66735">
        <ele>361.123962</ele>
        <time>2016-10-02T09:29:33Z</time>
      </trkpt>
      <trkpt lat="45.80777" lon="4.66737">
        <ele>361.212616</ele>
        <time>2016-10-02T09:29:35Z</time>
      </trkpt>
      <trkpt lat="45.80787" lon="4.66733">
        <ele>361.13446</ele>
        <time>2016-10-02T09:29:37Z</time>
      </trkpt>
      <trkpt lat="45.80799" lon="4.66724">
        <ele>361.327881</ele>
        <time>2016-10-02T09:29:39Z</time>
      </trkpt>
      <trkpt lat="45.80811" lon="4.66713">
        <ele>361.397308</ele>
        <time>2016-10-02T09:29:41Z</time>
      </trkpt>
      <trkpt lat="45.80825" lon="4.66703">
        <ele>361.881287</ele>
        <time>2016-10-02T09:29:43Z</time>
      </trkpt>
      <trkpt lat="45.80841" lon="4.66696">
        <ele>361.550537</ele>
        <time>2016-10-02T09:29:45Z</time>
      </trkpt>
      <trkpt lat="45.8086" lon="4.66689">
        <ele>361.305725</ele>
        <time>2016-10-02T09:29:47Z</time>
      </trkpt>
      <trkpt lat="45.80877" lon="4.66678">
        <ele>360.902832</ele>
        <time>2016-10-02T09:29:49Z</time>
      </trkpt>
      <trkpt lat="45.80895" lon="4.66667">
        <ele>360.490509</ele>
        <time>2016-10-02T09:29:51Z</time>
      </trkpt>
      <trkpt lat="45.80914" lon="4.66663">
        <ele>360.188477</ele>
        <time>2016-10-02T09:29:53Z</time>
      </trkpt>
      <trkpt lat="45.80935" lon="4.66662">
        <ele>359.743225</ele>
        <time>2016-10-02T09:29:55Z</time>
      </trkpt>
      <trkpt lat="45.80957" lon="4.66662">
        <ele>358.899567</ele>
        <time>2016-10-02T09:29:57Z</time>
      </trkpt>
      <trkpt lat="45.80977" lon="4.66659">
        <ele>357.982971</ele>
        <time>2016-10-02T09:29:59Z</time>
      </trkpt>
      <trkpt lat="45.80996" lon="4.66658">
        <ele>357.139282</ele>
        <time>2016-10-02T09:30:01Z</time>
      </trkpt>
      <trkpt lat="45.81016" lon="4.66656">
        <ele>356.168976</ele>
        <time>2016-10-02T09:30:03Z</time>
      </trkpt>
      <trkpt lat="45.81035" lon="4.66655">
        <ele>355.263092</ele>
        <time>2016-10-02T09:30:05Z</time>
      </trkpt>
      <trkpt lat="45.81052" lon="4.6665">
        <ele>354.395203</ele>
        <time>2016-10-02T09:30:07Z</time>
      </trkpt>
      <trkpt lat="45.81068" lon="4.6665">
        <ele>352.891296</ele>
        <time>2016-10-02T09:30:09Z</time>
      </trkpt>
      <trkpt lat="45.81085" lon="4.66656">
        <ele>351.524048</ele>
        <time>2016-10-02T09:30:11Z</time>
      </trkpt>
      <trkpt lat="45.81103" lon="4.66662">
        <ele>350.158356</ele>
        <time>2016-10-02T09:30:13Z</time>
      </trkpt>
      <trkpt lat="45.81123" lon="4.66669">
        <ele>349.49295</ele>
        <time>2016-10-02T09:30:15Z</time>
      </trkpt>
      <trkpt lat="45.81144" lon="4.66678">
        <ele>347.95343</ele>
        <time>2016-10-02T09:30:17Z</time>
      </trkpt>
      <trkpt lat="45.81166" lon="4.66687">
        <ele>346.517303</ele>
        <time>2016-10-02T09:30:19Z</time>
      </trkpt>
      <trkpt lat="45.81189" lon="4.66694">
        <ele>344.802826</ele>
        <time>2016-10-02T09:30:21Z</time>
      </trkpt>
      <trkpt lat="45.8121" lon="4.66703">
        <ele>343.101379</ele>
        <time>2016-10-02T09:30:23Z</time>
      </trkpt>
      <trkpt lat="45.81232" lon="4.66711">
        <ele>340.757965</ele>
        <time>2016-10-02T09:30:25Z</time>
      </trkpt>
      <trkpt lat="45.81253" lon="4.66719">
        <ele>339.745392</ele>
        <time>2016-10-02T09:30:27Z</time>
      </trkpt>
      <trkpt lat="45.81273" lon="4.66726">
        <ele>338.637329</ele>
        <time>2016-10-02T09:30:29Z</time>
      </trkpt>
      <trkpt lat="45.81291" lon="4.66733">
        <ele>337.712891</ele>
        <time>2016-10-02T09:30:31Z</time>
      </trkpt>
      <trkpt lat="45.81308" lon="4.6674">
        <ele>336.268005</ele>
        <time>2016-10-02T09:30:33Z</time>
      </trkpt>
      <trkpt lat="45.8132" lon="4.66739">
        <ele>335.241455</ele>
        <time>2016-10-02T09:30:35Z</time>
      </trkpt>
      <trkpt lat="45.81327" lon="4.66725">
        <ele>334.521179</ele>
        <time>2016-10-02T09:30:37Z</time>
      </trkpt>
      <trkpt lat="45.8133" lon="4.66705">
        <ele>333.935974</ele>
        <time>2016-10-02T09:30:39Z</time>
      </trkpt>
      <trkpt lat="45.81333" lon="4.66685">
        <ele>332.993134</ele>
        <time>2016-10-02T09:30:41Z</time>
      </trkpt>
      <trkpt lat="45.81336" lon="4.66665">
        <ele>331.682007</ele>
        <time>2016-10-02T09:30:43Z</time>
      </trkpt>
      <trkpt lat="45.81339" lon="4.66648">
        <ele>330.66217</ele>
        <time>2016-10-02T09:30:45Z</time>
      </trkpt>
      <trkpt lat="45.81347" lon="4.66645">
        <ele>329.387604</ele>
        <time>2016-10-02T09:30:47Z</time>
      </trkpt>
      <trkpt lat="45.81356" lon="4.66648">
        <ele>328.23761</ele>
        <time>2016-10-02T09:30:49Z</time>
      </trkpt>
      <trkpt lat="45.81365" lon="4.66651">
        <ele>327.689636</ele>
        <time>2016-10-02T09:30:51Z</time>
      </trkpt>
      <trkpt lat="45.81374" lon="4.66653">
        <ele>326.795105</ele>
        <time>2016-10-02T09:30:53Z</time>
      </trkpt>
      <trkpt lat="45.81384" lon="4.66655">
        <ele>325.914825</ele>
        <time>2016-10-02T09:30:55Z</time>
      </trkpt>
      <trkpt lat="45.81395" lon="4.66657">
        <ele>325.122864</ele>
        <time>2016-10-02T09:30:57Z</time>
      </trkpt>
      <trkpt lat="45.81406" lon="4.6666">
        <ele>324.470306</ele>
        <time>2016-10-02T09:30:59Z</time>
      </trkpt>
      <trkpt lat="45.81415" lon="4.66668">
        <ele>323.905334</ele>
        <time>2016-10-02T09:31:01Z</time>
      </trkpt>
      <trkpt lat="45.81425" lon="4.66672">
        <ele>323.541321</ele>
        <time>2016-10-02T09:31:03Z</time>
      </trkpt>
      <trkpt lat="45.81437" lon="4.66673">
        <ele>323.106873</ele>
        <time>2016-10-02T09:31:05Z</time>
      </trkpt>
      <trkpt lat="45.8145" lon="4.66675">
        <ele>322.681183</ele>
        <time>2016-10-02T09:31:07Z</time>
      </trkpt>
      <trkpt lat="45.81463" lon="4.66677">
        <ele>321.873596</ele>
        <time>2016-10-02T09:31:09Z</time>
      </trkpt>
      <trkpt lat="45.81477" lon="4.66679">
        <ele>321.108459</ele>
        <time>2016-10-02T09:31:11Z</time>
      </trkpt>
      <trkpt lat="45.8149" lon="4.66681">
        <ele>320.20163</ele>
        <time>2016-10-02T09:31:13Z</time>
      </trkpt>
      <trkpt lat="45.81504" lon="4.66683">
        <ele>319.878479</ele>
        <time>2016-10-02T09:31:15Z</time>
      </trkpt>
      <trkpt lat="45.81516" lon="4.66686">
        <ele>319.148987</ele>
        <time>2016-10-02T09:31:17Z</time>
      </trkpt>
      <trkpt lat="45.81522" lon="4.66687">
        <ele>318.346344</ele>
        <time>2016-10-02T09:31:19Z</time>
      </trkpt>
      <trkpt lat="45.81526" lon="4.66688">
        <ele>317.63382</ele>
        <time>2016-10-02T09:31:21Z</time>
      </trkpt>
      <trkpt lat="45.81529" lon="4.66689">
        <ele>317.223083</ele>
        <time>2016-10-02T09:31:23Z</time>
      </trkpt>
      <trkpt lat="45.81531" lon="4.6669">
        <ele>316.696838</ele>
        <time>2016-10-02T09:31:25Z</time>
      </trkpt>
      <trkpt lat="45.81533" lon="4.6669">
        <ele>316.450836</ele>
        <time>2016-10-02T09:31:27Z</time>
      </trkpt>
      <trkpt lat="45.81535" lon="4.6669">
        <ele>316.167358</ele>
        <time>2016-10-02T09:31:29Z</time>
      </trkpt>
      <trkpt lat="45.81537" lon="4.66689">
        <ele>315.687561</ele>
        <time>2016-10-02T09:31:31Z</time>
      </trkpt>
      <trkpt lat="45.81538" lon="4.66689">
        <ele>315.205505</ele>
        <time>2016-10-02T09:31:33Z</time>
      </trkpt>
      <trkpt lat="45.8154" lon="4.66689">
        <ele>314.767487</ele>
        <time>2016-10-02T09:31:35Z</time>
      </trkpt>
      <trkpt lat="45.81542" lon="4.6669">
        <ele>314.45166</ele>
        <time>2016-10-02T09:31:37Z</time>
      </trkpt>
      <trkpt lat="45.81543" lon="4.66689">
        <ele>313.782074</ele>
        <time>2016-10-02T09:31:39Z</time>
      </trkpt>
      <trkpt lat="45.81545" lon="4.66688">
        <ele>313.378448</ele>
        <time>2016-10-02T09:31:41Z</time>
      </trkpt>
      <trkpt lat="45.81546" lon="4.66687">
        <ele>313.123962</ele>
        <time>2016-10-02T09:31:43Z</time>
      </trkpt>
      <trkpt lat="45.81548" lon="4.66687">
        <ele>312.602112</ele>
        <time>2016-10-02T09:31:45Z</time>
      </trkpt>
      <trkpt lat="45.8155" lon="4.66687">
        <ele>312.075897</ele>
        <time>2016-10-02T09:31:47Z</time>
      </trkpt>
      <trkpt lat="45.81549" lon="4.66689">
        <ele>309.922272</ele>
        <time>2016-10-02T09:32:01Z</time>
      </trkpt>
      <trkpt lat="45.81546" lon="4.66689">
        <ele>309.845306</ele>
        <time>2016-10-02T09:32:03Z</time>
      </trkpt>
      <trkpt lat="45.81543" lon="4.66689">
        <ele>309.758881</ele>
        <time>2016-10-02T09:32:05Z</time>
      </trkpt>
      <trkpt lat="45.81537" lon="4.66689">
        <ele>309.681885</ele>
        <time>2016-10-02T09:32:07Z</time>
      </trkpt>
      <trkpt lat="45.81533" lon="4.66689">
        <ele>309.642975</ele>
        <time>2016-10-02T09:32:09Z</time>
      </trkpt>
      <trkpt lat="45.81529" lon="4.66688">
        <ele>309.679352</ele>
        <time>2016-10-02T09:32:11Z</time>
      </trkpt>
      <trkpt lat="45.81525" lon="4.66688">
        <ele>309.677185</ele>
        <time>2016-10-02T09:32:13Z</time>
      </trkpt>
      <trkpt lat="45.81521" lon="4.66688">
        <ele>309.680664</ele>
        <time>2016-10-02T09:32:15Z</time>
      </trkpt>
      <trkpt lat="45.81517" lon="4.66687">
        <ele>309.711975</ele>
        <time>2016-10-02T09:32:17Z</time>
      </trkpt>
      <trkpt lat="45.81513" lon="4.66685">
        <ele>309.853088</ele>
        <time>2016-10-02T09:32:19Z</time>
      </trkpt>
      <trkpt lat="45.81508" lon="4.66684">
        <ele>309.979248</ele>
        <time>2016-10-02T09:32:21Z</time>
      </trkpt>
      <trkpt lat="45.81502" lon="4.66683">
        <ele>310.218109</ele>
        <time>2016-10-02T09:32:23Z</time>
      </trkpt>
      <trkpt lat="45.81496" lon="4.66683">
        <ele>310.44928</ele>
        <time>2016-10-02T09:32:25Z</time>
      </trkpt>
      <trkpt lat="45.8149" lon="4.66682">
        <ele>310.740082</ele>
        <time>2016-10-02T09:32:27Z</time>
      </trkpt>
      <trkpt lat="45.81485" lon="4.66681">
        <ele>311.383972</ele>
        <time>2016-10-02T09:32:29Z</time>
      </trkpt>
      <trkpt lat="45.8148" lon="4.66681">
        <ele>311.746338</ele>
        <time>2016-10-02T09:32:31Z</time>
      </trkpt>
      <trkpt lat="45.81475" lon="4.6668">
        <ele>312.124908</ele>
        <time>2016-10-02T09:32:33Z</time>
      </trkpt>
      <trkpt lat="45.81469" lon="4.66679">
        <ele>312.291687</ele>
        <time>2016-10-02T09:32:35Z</time>
      </trkpt>
      <trkpt lat="45.81463" lon="4.66678">
        <ele>312.682495</ele>
        <time>2016-10-02T09:32:37Z</time>
      </trkpt>
      <trkpt lat="45.81456" lon="4.66677">
        <ele>313.136658</ele>
        <time>2016-10-02T09:32:39Z</time>
      </trkpt>
      <trkpt lat="45.8145" lon="4.66676">
        <ele>313.549408</ele>
        <time>2016-10-02T09:32:41Z</time>
      </trkpt>
      <trkpt lat="45.81443" lon="4.66675">
        <ele>313.934418</ele>
        <time>2016-10-02T09:32:43Z</time>
      </trkpt>
      <trkpt lat="45.81437" lon="4.66675">
        <ele>314.263763</ele>
        <time>2016-10-02T09:32:45Z</time>
      </trkpt>
      <trkpt lat="45.81432" lon="4.66674">
        <ele>314.668884</ele>
        <time>2016-10-02T09:32:47Z</time>
      </trkpt>
      <trkpt lat="45.81427" lon="4.66673">
        <ele>315.026031</ele>
        <time>2016-10-02T09:32:49Z</time>
      </trkpt>
      <trkpt lat="45.81423" lon="4.66672">
        <ele>315.277832</ele>
        <time>2016-10-02T09:32:51Z</time>
      </trkpt>
      <trkpt lat="45.81419" lon="4.66671">
        <ele>315.534515</ele>
        <time>2016-10-02T09:32:53Z</time>
      </trkpt>
      <trkpt lat="45.81417" lon="4.66669">
        <ele>315.814697</ele>
        <time>2016-10-02T09:32:55Z</time>
      </trkpt>
      <trkpt lat="45.81414" lon="4.66666">
        <ele>315.840393</ele>
        <time>2016-10-02T09:32:57Z</time>
      </trkpt>
      <trkpt lat="45.81411" lon="4.66662">
        <ele>315.994385</ele>
        <time>2016-10-02T09:32:59Z</time>
      </trkpt>
      <trkpt lat="45.81407" lon="4.6666">
        <ele>316.191406</ele>
        <time>2016-10-02T09:33:01Z</time>
      </trkpt>
      <trkpt lat="45.81402" lon="4.66659">
        <ele>316.345062</ele>
        <time>2016-10-02T09:33:03Z</time>
      </trkpt>
      <trkpt lat="45.81397" lon="4.66658">
        <ele>316.377869</ele>
        <time>2016-10-02T09:33:05Z</time>
      </trkpt>
      <trkpt lat="45.81391" lon="4.66657">
        <ele>316.60434</ele>
        <time>2016-10-02T09:33:07Z</time>
      </trkpt>
      <trkpt lat="45.81385" lon="4.66657">
        <ele>316.850922</ele>
        <time>2016-10-02T09:33:09Z</time>
      </trkpt>
      <trkpt lat="45.81378" lon="4.66655">
        <ele>316.690002</ele>
        <time>2016-10-02T09:33:11Z</time>
      </trkpt>
      <trkpt lat="45.81372" lon="4.66654">
        <ele>316.796967</ele>
        <time>2016-10-02T09:33:13Z</time>
      </trkpt>
      <trkpt lat="45.81366" lon="4.66652">
        <ele>316.86972</ele>
        <time>2016-10-02T09:33:15Z</time>
      </trkpt>
      <trkpt lat="45.8136" lon="4.6665">
        <ele>316.930206</ele>
        <time>2016-10-02T09:33:17Z</time>
      </trkpt>
      <trkpt lat="45.81353" lon="4.66648">
        <ele>317.025696</ele>
        <time>2016-10-02T09:33:19Z</time>
      </trkpt>
      <trkpt lat="45.81347" lon="4.66646">
        <ele>317.008575</ele>
        <time>2016-10-02T09:33:21Z</time>
      </trkpt>
      <trkpt lat="45.81342" lon="4.66648">
        <ele>317.145477</ele>
        <time>2016-10-02T09:33:23Z</time>
      </trkpt>
      <trkpt lat="45.81339" lon="4.66654">
        <ele>317.233215</ele>
        <time>2016-10-02T09:33:25Z</time>
      </trkpt>
      <trkpt lat="45.81338" lon="4.66662">
        <ele>317.453613</ele>
        <time>2016-10-02T09:33:27Z</time>
      </trkpt>
      <trkpt lat="45.81337" lon="4.6667">
        <ele>317.58844</ele>
        <time>2016-10-02T09:33:29Z</time>
      </trkpt>
      <trkpt lat="45.81335" lon="4.66677">
        <ele>317.837311</ele>
        <time>2016-10-02T09:33:31Z</time>
      </trkpt>
      <trkpt lat="45.81334" lon="4.66685">
        <ele>318.061951</ele>
        <time>2016-10-02T09:33:33Z</time>
      </trkpt>
      <trkpt lat="45.81333" lon="4.66692">
        <ele>318.404358</ele>
        <time>2016-10-02T09:33:35Z</time>
      </trkpt>
      <trkpt lat="45.81332" lon="4.66699">
        <ele>318.731781</ele>
        <time>2016-10-02T09:33:37Z</time>
      </trkpt>
      <trkpt lat="45.81331" lon="4.66706">
        <ele>319.260193</ele>
        <time>2016-10-02T09:33:39Z</time>
      </trkpt>
      <trkpt lat="45.8133" lon="4.66713">
        <ele>319.45282</ele>
        <time>2016-10-02T09:33:41Z</time>
      </trkpt>
      <trkpt lat="45.81329" lon="4.66719">
        <ele>319.846436</ele>
        <time>2016-10-02T09:33:43Z</time>
      </trkpt>
      <trkpt lat="45.81328" lon="4.66726">
        <ele>320.268372</ele>
        <time>2016-10-02T09:33:45Z</time>
      </trkpt>
      <trkpt lat="45.81326" lon="4.66732">
        <ele>320.777649</ele>
        <time>2016-10-02T09:33:47Z</time>
      </trkpt>
      <trkpt lat="45.81325" lon="4.66738">
        <ele>321.197205</ele>
        <time>2016-10-02T09:33:49Z</time>
      </trkpt>
      <trkpt lat="45.81322" lon="4.66741">
        <ele>321.566498</ele>
        <time>2016-10-02T09:33:51Z</time>
      </trkpt>
      <trkpt lat="45.81318" lon="4.66741">
        <ele>321.902893</ele>
        <time>2016-10-02T09:33:53Z</time>
      </trkpt>
      <trkpt lat="45.81312" lon="4.66739">
        <ele>322.330963</ele>
        <time>2016-10-02T09:33:55Z</time>
      </trkpt>
      <trkpt lat="45.81307" lon="4.66737">
        <ele>322.759094</ele>
        <time>2016-10-02T09:33:57Z</time>
      </trkpt>
      <trkpt lat="45.81301" lon="4.66735">
        <ele>323.401306</ele>
        <time>2016-10-02T09:33:59Z</time>
      </trkpt>
      <trkpt lat="45.81295" lon="4.66733">
        <ele>323.803772</ele>
        <time>2016-10-02T09:34:01Z</time>
      </trkpt>
      <trkpt lat="45.81288" lon="4.66731">
        <ele>324.182617</ele>
        <time>2016-10-02T09:34:03Z</time>
      </trkpt>
      <trkpt lat="45.81282" lon="4.66729">
        <ele>324.469513</ele>
        <time>2016-10-02T09:34:05Z</time>
      </trkpt>
      <trkpt lat="45.81275" lon="4.66726">
        <ele>324.670715</ele>
        <time>2016-10-02T09:34:07Z</time>
      </trkpt>
      <trkpt lat="45.81268" lon="4.66723">
        <ele>325.009583</ele>
        <time>2016-10-02T09:34:09Z</time>
      </trkpt>
      <trkpt lat="45.81262" lon="4.6672">
        <ele>325.412079</ele>
        <time>2016-10-02T09:34:11Z</time>
      </trkpt>
      <trkpt lat="45.81255" lon="4.66718">
        <ele>325.589111</ele>
        <time>2016-10-02T09:34:13Z</time>
      </trkpt>
      <trkpt lat="45.81249" lon="4.66716">
        <ele>326.014954</ele>
        <time>2016-10-02T09:34:15Z</time>
      </trkpt>
      <trkpt lat="45.81243" lon="4.66715">
        <ele>326.331909</ele>
        <time>2016-10-02T09:34:17Z</time>
      </trkpt>
      <trkpt lat="45.81237" lon="4.66712">
        <ele>326.67453</ele>
        <time>2016-10-02T09:34:19Z</time>
      </trkpt>
      <trkpt lat="45.81232" lon="4.6671">
        <ele>326.89505</ele>
        <time>2016-10-02T09:34:21Z</time>
      </trkpt>
      <trkpt lat="45.81228" lon="4.66711">
        <ele>327.169098</ele>
        <time>2016-10-02T09:34:23Z</time>
      </trkpt>
      <trkpt lat="45.81227" lon="4.66715">
        <ele>327.413239</ele>
        <time>2016-10-02T09:34:25Z</time>
      </trkpt>
      <trkpt lat="45.81229" lon="4.6672">
        <ele>327.638092</ele>
        <time>2016-10-02T09:34:27Z</time>
      </trkpt>
      <trkpt lat="45.81232" lon="4.66725">
        <ele>327.825348</ele>
        <time>2016-10-02T09:34:29Z</time>
      </trkpt>
      <trkpt lat="45.81234" lon="4.66731">
        <ele>328.007385</ele>
        <time>2016-10-02T09:34:31Z</time>
      </trkpt>
      <trkpt lat="45.81237" lon="4.66738">
        <ele>328.044312</ele>
        <time>2016-10-02T09:34:33Z</time>
      </trkpt>
      <trkpt lat="45.8124" lon="4.66744">
        <ele>328.319885</ele>
        <time>2016-10-02T09:34:35Z</time>
      </trkpt>
      <trkpt lat="45.81243" lon="4.66751">
        <ele>328.493378</ele>
        <time>2016-10-02T09:34:37Z</time>
      </trkpt>
      <trkpt lat="45.81246" lon="4.66758">
        <ele>328.724701</ele>
        <time>2016-10-02T09:34:39Z</time>
      </trkpt>
      <trkpt lat="45.81249" lon="4.66765">
        <ele>328.789856</ele>
        <time>2016-10-02T09:34:41Z</time>
      </trkpt>
      <trkpt lat="45.81252" lon="4.66771">
        <ele>329.070587</ele>
        <time>2016-10-02T09:34:43Z</time>
      </trkpt>
      <trkpt lat="45.81255" lon="4.66778">
        <ele>329.301941</ele>
        <time>2016-10-02T09:34:45Z</time>
      </trkpt>
      <trkpt lat="45.81258" lon="4.66785">
        <ele>329.698242</ele>
        <time>2016-10-02T09:34:47Z</time>
      </trkpt>
      <trkpt lat="45.81261" lon="4.66792">
        <ele>329.948273</ele>
        <time>2016-10-02T09:34:49Z</time>
      </trkpt>
      <trkpt lat="45.81265" lon="4.66798">
        <ele>330.284607</ele>
        <time>2016-10-02T09:34:51Z</time>
      </trkpt>
      <trkpt lat="45.81268" lon="4.66806">
        <ele>330.680969</ele>
        <time>2016-10-02T09:34:53Z</time>
      </trkpt>
      <trkpt lat="45.81271" lon="4.66813">
        <ele>331.041016</ele>
        <time>2016-10-02T09:34:55Z</time>
      </trkpt>
      <trkpt lat="45.81274" lon="4.66821">
        <ele>331.154541</ele>
        <time>2016-10-02T09:34:57Z</time>
      </trkpt>
      <trkpt lat="45.81278" lon="4.66829">
        <ele>331.429871</ele>
        <time>2016-10-02T09:34:59Z</time>
      </trkpt>
      <trkpt lat="45.81281" lon="4.66837">
        <ele>331.556335</ele>
        <time>2016-10-02T09:35:01Z</time>
      </trkpt>
      <trkpt lat="45.81285" lon="4.66846">
        <ele>332.025513</ele>
        <time>2016-10-02T09:35:03Z</time>
      </trkpt>
      <trkpt lat="45.81289" lon="4.66855">
        <ele>332.269745</ele>
        <time>2016-10-02T09:35:05Z</time>
      </trkpt>
      <trkpt lat="45.81292" lon="4.66864">
        <ele>332.481873</ele>
        <time>2016-10-02T09:35:07Z</time>
      </trkpt>
      <trkpt lat="45.81297" lon="4.66874">
        <ele>332.715424</ele>
        <time>2016-10-02T09:35:09Z</time>
      </trkpt>
      <trkpt lat="45.813" lon="4.66884">
        <ele>332.939484</ele>
        <time>2016-10-02T09:35:11Z</time>
      </trkpt>
      <trkpt lat="45.81304" lon="4.66894">
        <ele>333.297394</ele>
        <time>2016-10-02T09:35:13Z</time>
      </trkpt>
      <trkpt lat="45.81308" lon="4.66904">
        <ele>333.580872</ele>
        <time>2016-10-02T09:35:15Z</time>
      </trkpt>
      <trkpt lat="45.81312" lon="4.66914">
        <ele>333.662292</ele>
        <time>2016-10-02T09:35:17Z</time>
      </trkpt>
      <trkpt lat="45.81315" lon="4.66924">
        <ele>333.997375</ele>
        <time>2016-10-02T09:35:19Z</time>
      </trkpt>
      <trkpt lat="45.81319" lon="4.66934">
        <ele>334.250244</ele>
        <time>2016-10-02T09:35:21Z</time>
      </trkpt>
      <trkpt lat="45.81324" lon="4.66945">
        <ele>334.467957</ele>
        <time>2016-10-02T09:35:23Z</time>
      </trkpt>
      <trkpt lat="45.81329" lon="4.66956">
        <ele>334.630707</ele>
        <time>2016-10-02T09:35:25Z</time>
      </trkpt>
      <trkpt lat="45.81334" lon="4.66968">
        <ele>335.00116</ele>
        <time>2016-10-02T09:35:27Z</time>
      </trkpt>
      <trkpt lat="45.81339" lon="4.66982">
        <ele>334.84903</ele>
        <time>2016-10-02T09:35:29Z</time>
      </trkpt>
      <trkpt lat="45.81344" lon="4.66998">
        <ele>334.979736</ele>
        <time>2016-10-02T09:35:31Z</time>
      </trkpt>
      <trkpt lat="45.81351" lon="4.67017">
        <ele>334.979736</ele>
        <time>2016-10-02T09:35:33Z</time>
      </trkpt>
      <trkpt lat="45.81359" lon="4.67038">
        <ele>334.510559</ele>
        <time>2016-10-02T09:35:35Z</time>
      </trkpt>
      <trkpt lat="45.81367" lon="4.6706">
        <ele>333.923828</ele>
        <time>2016-10-02T09:35:37Z</time>
      </trkpt>
      <trkpt lat="45.81374" lon="4.67083">
        <ele>333.535156</ele>
        <time>2016-10-02T09:35:39Z</time>
      </trkpt>
      <trkpt lat="45.81381" lon="4.67105">
        <ele>333.220276</ele>
        <time>2016-10-02T09:35:41Z</time>
      </trkpt>
      <trkpt lat="45.81389" lon="4.67128">
        <ele>332.954254</ele>
        <time>2016-10-02T09:35:43Z</time>
      </trkpt>
      <trkpt lat="45.81398" lon="4.67149">
        <ele>332.562164</ele>
        <time>2016-10-02T09:35:45Z</time>
      </trkpt>
      <trkpt lat="45.81408" lon="4.6717">
        <ele>331.814789</ele>
        <time>2016-10-02T09:35:47Z</time>
      </trkpt>
      <trkpt lat="45.8142" lon="4.67187">
        <ele>331.165924</ele>
        <time>2016-10-02T09:35:49Z</time>
      </trkpt>
      <trkpt lat="45.81432" lon="4.67204">
        <ele>330.684265</ele>
        <time>2016-10-02T09:35:51Z</time>
      </trkpt>
      <trkpt lat="45.81444" lon="4.67221">
        <ele>330.210938</ele>
        <time>2016-10-02T09:35:53Z</time>
      </trkpt>
      <trkpt lat="45.81457" lon="4.67238">
        <ele>329.47403</ele>
        <time>2016-10-02T09:35:55Z</time>
      </trkpt>
      <trkpt lat="45.81469" lon="4.67255">
        <ele>328.808044</ele>
        <time>2016-10-02T09:35:57Z</time>
      </trkpt>
      <trkpt lat="45.8148" lon="4.67268">
        <ele>327.980652</ele>
        <time>2016-10-02T09:35:59Z</time>
      </trkpt>
      <trkpt lat="45.81487" lon="4.67279">
        <ele>327.006287</ele>
        <time>2016-10-02T09:36:01Z</time>
      </trkpt>
      <trkpt lat="45.81489" lon="4.67291">
        <ele>326.05127</ele>
        <time>2016-10-02T09:36:03Z</time>
      </trkpt>
      <trkpt lat="45.81488" lon="4.67303">
        <ele>325.09613</ele>
        <time>2016-10-02T09:36:05Z</time>
      </trkpt>
      <trkpt lat="45.81485" lon="4.67315">
        <ele>324.657135</ele>
        <time>2016-10-02T09:36:07Z</time>
      </trkpt>
      <trkpt lat="45.81482" lon="4.67329">
        <ele>323.625092</ele>
        <time>2016-10-02T09:36:09Z</time>
      </trkpt>
      <trkpt lat="45.81479" lon="4.67342">
        <ele>322.78598</ele>
        <time>2016-10-02T09:36:11Z</time>
      </trkpt>
      <trkpt lat="45.81477" lon="4.67356">
        <ele>321.957245</ele>
        <time>2016-10-02T09:36:13Z</time>
      </trkpt>
      <trkpt lat="45.81479" lon="4.67368">
        <ele>321.191345</ele>
        <time>2016-10-02T09:36:15Z</time>
      </trkpt>
      <trkpt lat="45.81479" lon="4.6738">
        <ele>320.710968</ele>
        <time>2016-10-02T09:36:17Z</time>
      </trkpt>
      <trkpt lat="45.81475" lon="4.67387">
        <ele>320.606018</ele>
        <time>2016-10-02T09:36:19Z</time>
      </trkpt>
      <trkpt lat="45.81468" lon="4.67392">
        <ele>320.278412</ele>
        <time>2016-10-02T09:36:21Z</time>
      </trkpt>
      <trkpt lat="45.81462" lon="4.67398">
        <ele>319.771423</ele>
        <time>2016-10-02T09:36:23Z</time>
      </trkpt>
      <trkpt lat="45.81455" lon="4.67405">
        <ele>319.559479</ele>
        <time>2016-10-02T09:36:25Z</time>
      </trkpt>
      <trkpt lat="45.81448" lon="4.67412">
        <ele>319.309021</ele>
        <time>2016-10-02T09:36:27Z</time>
      </trkpt>
      <trkpt lat="45.81442" lon="4.67419">
        <ele>319.332611</ele>
        <time>2016-10-02T09:36:29Z</time>
      </trkpt>
      <trkpt lat="45.81435" lon="4.67426">
        <ele>319.349731</ele>
        <time>2016-10-02T09:36:31Z</time>
      </trkpt>
      <trkpt lat="45.81429" lon="4.67434">
        <ele>319.191132</ele>
        <time>2016-10-02T09:36:33Z</time>
      </trkpt>
      <trkpt lat="45.81424" lon="4.67442">
        <ele>319.043396</ele>
        <time>2016-10-02T09:36:35Z</time>
      </trkpt>
      <trkpt lat="45.81418" lon="4.67452">
        <ele>318.9021</ele>
        <time>2016-10-02T09:36:37Z</time>
      </trkpt>
      <trkpt lat="45.81414" lon="4.67463">
        <ele>318.931976</ele>
        <time>2016-10-02T09:36:39Z</time>
      </trkpt>
      <trkpt lat="45.81408" lon="4.67474">
        <ele>319.092468</ele>
        <time>2016-10-02T09:36:41Z</time>
      </trkpt>
      <trkpt lat="45.81404" lon="4.67485">
        <ele>319.29364</ele>
        <time>2016-10-02T09:36:43Z</time>
      </trkpt>
      <trkpt lat="45.81399" lon="4.67496">
        <ele>319.64032</ele>
        <time>2016-10-02T09:36:45Z</time>
      </trkpt>
      <trkpt lat="45.81394" lon="4.67506">
        <ele>319.73877</ele>
        <time>2016-10-02T09:36:47Z</time>
      </trkpt>
      <trkpt lat="45.81389" lon="4.67517">
        <ele>320.046936</ele>
        <time>2016-10-02T09:36:49Z</time>
      </trkpt>
      <trkpt lat="45.81384" lon="4.67527">
        <ele>320.303772</ele>
        <time>2016-10-02T09:36:51Z</time>
      </trkpt>
      <trkpt lat="45.81381" lon="4.67538">
        <ele>320.793793</ele>
        <time>2016-10-02T09:36:53Z</time>
      </trkpt>
      <trkpt lat="45.81377" lon="4.67549">
        <ele>321.022797</ele>
        <time>2016-10-02T09:36:55Z</time>
      </trkpt>
      <trkpt lat="45.81374" lon="4.67561">
        <ele>321.368011</ele>
        <time>2016-10-02T09:36:57Z</time>
      </trkpt>
      <trkpt lat="45.81371" lon="4.67573">
        <ele>321.721863</ele>
        <time>2016-10-02T09:36:59Z</time>
      </trkpt>
      <trkpt lat="45.81368" lon="4.67585">
        <ele>321.909241</ele>
        <time>2016-10-02T09:37:01Z</time>
      </trkpt>
      <trkpt lat="45.81364" lon="4.67598">
        <ele>322.168274</ele>
        <time>2016-10-02T09:37:03Z</time>
      </trkpt>
      <trkpt lat="45.81361" lon="4.6761">
        <ele>322.682007</ele>
        <time>2016-10-02T09:37:05Z</time>
      </trkpt>
      <trkpt lat="45.81358" lon="4.67623">
        <ele>322.958191</ele>
        <time>2016-10-02T09:37:07Z</time>
      </trkpt>
      <trkpt lat="45.81355" lon="4.67636">
        <ele>323.324097</ele>
        <time>2016-10-02T09:37:09Z</time>
      </trkpt>
      <trkpt lat="45.81352" lon="4.67649">
        <ele>323.645203</ele>
        <time>2016-10-02T09:37:11Z</time>
      </trkpt>
      <trkpt lat="45.81348" lon="4.67661">
        <ele>323.998352</ele>
        <time>2016-10-02T09:37:13Z</time>
      </trkpt>
      <trkpt lat="45.81344" lon="4.67674">
        <ele>324.10968</ele>
        <time>2016-10-02T09:37:15Z</time>
      </trkpt>
      <trkpt lat="45.8134" lon="4.67686">
        <ele>324.458588</ele>
        <time>2016-10-02T09:37:17Z</time>
      </trkpt>
      <trkpt lat="45.81336" lon="4.67698">
        <ele>324.754028</ele>
        <time>2016-10-02T09:37:19Z</time>
      </trkpt>
      <trkpt lat="45.81332" lon="4.6771">
        <ele>325.079498</ele>
        <time>2016-10-02T09:37:21Z</time>
      </trkpt>
      <trkpt lat="45.81327" lon="4.67723">
        <ele>325.385681</ele>
        <time>2016-10-02T09:37:23Z</time>
      </trkpt>
      <trkpt lat="45.81325" lon="4.67735">
        <ele>325.732239</ele>
        <time>2016-10-02T09:37:25Z</time>
      </trkpt>
      <trkpt lat="45.81323" lon="4.67748">
        <ele>326.062042</ele>
        <time>2016-10-02T09:37:27Z</time>
      </trkpt>
      <trkpt lat="45.81321" lon="4.6776">
        <ele>326.453918</ele>
        <time>2016-10-02T09:37:29Z</time>
      </trkpt>
      <trkpt lat="45.81319" lon="4.67773">
        <ele>326.859375</ele>
        <time>2016-10-02T09:37:31Z</time>
      </trkpt>
      <trkpt lat="45.81316" lon="4.67786">
        <ele>327.225555</ele>
        <time>2016-10-02T09:37:33Z</time>
      </trkpt>
      <trkpt lat="45.81315" lon="4.67799">
        <ele>327.604584</ele>
        <time>2016-10-02T09:37:35Z</time>
      </trkpt>
      <trkpt lat="45.81313" lon="4.67812">
        <ele>327.906555</ele>
        <time>2016-10-02T09:37:37Z</time>
      </trkpt>
      <trkpt lat="45.81312" lon="4.67826">
        <ele>328.143005</ele>
        <time>2016-10-02T09:37:39Z</time>
      </trkpt>
      <trkpt lat="45.81311" lon="4.67842">
        <ele>328.497559</ele>
        <time>2016-10-02T09:37:41Z</time>
      </trkpt>
      <trkpt lat="45.8131" lon="4.67858">
        <ele>328.749084</ele>
        <time>2016-10-02T09:37:43Z</time>
      </trkpt>
      <trkpt lat="45.81308" lon="4.67875">
        <ele>329.044098</ele>
        <time>2016-10-02T09:37:45Z</time>
      </trkpt>
      <trkpt lat="45.81308" lon="4.67893">
        <ele>329.198425</ele>
        <time>2016-10-02T09:37:47Z</time>
      </trkpt>
      <trkpt lat="45.81307" lon="4.67911">
        <ele>329.217682</ele>
        <time>2016-10-02T09:37:49Z</time>
      </trkpt>
      <trkpt lat="45.81305" lon="4.67929">
        <ele>329.392151</ele>
        <time>2016-10-02T09:37:51Z</time>
      </trkpt>
      <trkpt lat="45.81299" lon="4.67946">
        <ele>329.488525</ele>
        <time>2016-10-02T09:37:53Z</time>
      </trkpt>
      <trkpt lat="45.81291" lon="4.6796">
        <ele>329.447845</ele>
        <time>2016-10-02T09:37:55Z</time>
      </trkpt>
      <trkpt lat="45.81282" lon="4.67974">
        <ele>329.370789</ele>
        <time>2016-10-02T09:37:57Z</time>
      </trkpt>
      <trkpt lat="45.81272" lon="4.67988">
        <ele>329.342957</ele>
        <time>2016-10-02T09:37:59Z</time>
      </trkpt>
      <trkpt lat="45.81263" lon="4.68002">
        <ele>329.375092</ele>
        <time>2016-10-02T09:38:01Z</time>
      </trkpt>
      <trkpt lat="45.81253" lon="4.68016">
        <ele>329.272308</ele>
        <time>2016-10-02T09:38:03Z</time>
      </trkpt>
      <trkpt lat="45.81243" lon="4.68031">
        <ele>329.224121</ele>
        <time>2016-10-02T09:38:05Z</time>
      </trkpt>
      <trkpt lat="45.81233" lon="4.68045">
        <ele>329.029541</ele>
        <time>2016-10-02T09:38:07Z</time>
      </trkpt>
      <trkpt lat="45.81223" lon="4.68061">
        <ele>328.877533</ele>
        <time>2016-10-02T09:38:09Z</time>
      </trkpt>
      <trkpt lat="45.81212" lon="4.68077">
        <ele>328.753357</ele>
        <time>2016-10-02T09:38:11Z</time>
      </trkpt>
      <trkpt lat="45.812" lon="4.68093">
        <ele>328.509979</ele>
        <time>2016-10-02T09:38:13Z</time>
      </trkpt>
      <trkpt lat="45.81189" lon="4.68108">
        <ele>328.203735</ele>
        <time>2016-10-02T09:38:15Z</time>
      </trkpt>
      <trkpt lat="45.81177" lon="4.68121">
        <ele>327.691956</ele>
        <time>2016-10-02T09:38:17Z</time>
      </trkpt>
      <trkpt lat="45.81165" lon="4.68134">
        <ele>327.077545</ele>
        <time>2016-10-02T09:38:19Z</time>
      </trkpt>
      <trkpt lat="45.81154" lon="4.68145">
        <ele>326.412842</ele>
        <time>2016-10-02T09:38:21Z</time>
      </trkpt>
      <trkpt lat="45.81142" lon="4.68157">
        <ele>326.132324</ele>
        <time>2016-10-02T09:38:23Z</time>
      </trkpt>
      <trkpt lat="45.81136" lon="4.68175">
        <ele>325.633942</ele>
        <time>2016-10-02T09:38:25Z</time>
      </trkpt>
      <trkpt lat="45.81132" lon="4.68197">
        <ele>325.490417</ele>
        <time>2016-10-02T09:38:27Z</time>
      </trkpt>
      <trkpt lat="45.81129" lon="4.68222">
        <ele>325.090149</ele>
        <time>2016-10-02T09:38:29Z</time>
      </trkpt>
      <trkpt lat="45.81126" lon="4.68247">
        <ele>324.87851</ele>
        <time>2016-10-02T09:38:31Z</time>
      </trkpt>
      <trkpt lat="45.81122" lon="4.68273">
        <ele>324.56488</ele>
        <time>2016-10-02T09:38:33Z</time>
      </trkpt>
      <trkpt lat="45.81119" lon="4.68302">
        <ele>323.700378</ele>
        <time>2016-10-02T09:38:35Z</time>
      </trkpt>
      <trkpt lat="45.81115" lon="4.68332">
        <ele>323.241272</ele>
        <time>2016-10-02T09:38:37Z</time>
      </trkpt>
      <trkpt lat="45.81111" lon="4.68365">
        <ele>322.945892</ele>
        <time>2016-10-02T09:38:39Z</time>
      </trkpt>
      <trkpt lat="45.8111" lon="4.68398">
        <ele>322.186188</ele>
        <time>2016-10-02T09:38:41Z</time>
      </trkpt>
      <trkpt lat="45.8111" lon="4.68432">
        <ele>321.597504</ele>
        <time>2016-10-02T09:38:43Z</time>
      </trkpt>
      <trkpt lat="45.81109" lon="4.68465">
        <ele>321.151215</ele>
        <time>2016-10-02T09:38:45Z</time>
      </trkpt>
      <trkpt lat="45.81106" lon="4.68497">
        <ele>320.383057</ele>
        <time>2016-10-02T09:38:47Z</time>
      </trkpt>
      <trkpt lat="45.81104" lon="4.68529">
        <ele>319.766693</ele>
        <time>2016-10-02T09:38:49Z</time>
      </trkpt>
      <trkpt lat="45.81101" lon="4.68561">
        <ele>319.661804</ele>
        <time>2016-10-02T09:38:51Z</time>
      </trkpt>
      <trkpt lat="45.81097" lon="4.68591">
        <ele>319.037781</ele>
        <time>2016-10-02T09:38:53Z</time>
      </trkpt>
      <trkpt lat="45.81089" lon="4.68614">
        <ele>318.415649</ele>
        <time>2016-10-02T09:38:55Z</time>
      </trkpt>
      <trkpt lat="45.81075" lon="4.68624">
        <ele>317.917023</ele>
        <time>2016-10-02T09:38:57Z</time>
      </trkpt>
      <trkpt lat="45.81059" lon="4.68625">
        <ele>317.651154</ele>
        <time>2016-10-02T09:38:59Z</time>
      </trkpt>
      <trkpt lat="45.81044" lon="4.68624">
        <ele>317.439362</ele>
        <time>2016-10-02T09:39:01Z</time>
      </trkpt>
      <trkpt lat="45.8103" lon="4.68623">
        <ele>317.364441</ele>
        <time>2016-10-02T09:39:03Z</time>
      </trkpt>
      <trkpt lat="45.81017" lon="4.68622">
        <ele>316.904358</ele>
        <time>2016-10-02T09:39:05Z</time>
      </trkpt>
      <trkpt lat="45.81005" lon="4.68622">
        <ele>316.724609</ele>
        <time>2016-10-02T09:39:07Z</time>
      </trkpt>
      <trkpt lat="45.80993" lon="4.68624">
        <ele>316.35202</ele>
        <time>2016-10-02T09:39:09Z</time>
      </trkpt>
      <trkpt lat="45.80981" lon="4.6863">
        <ele>316.150482</ele>
        <time>2016-10-02T09:39:11Z</time>
      </trkpt>
      <trkpt lat="45.80972" lon="4.68641">
        <ele>315.743896</ele>
        <time>2016-10-02T09:39:13Z</time>
      </trkpt>
      <trkpt lat="45.80965" lon="4.68654">
        <ele>315.912781</ele>
        <time>2016-10-02T09:39:15Z</time>
      </trkpt>
      <trkpt lat="45.80958" lon="4.68668">
        <ele>315.932068</ele>
        <time>2016-10-02T09:39:17Z</time>
      </trkpt>
      <trkpt lat="45.80953" lon="4.68682">
        <ele>315.382629</ele>
        <time>2016-10-02T09:39:19Z</time>
      </trkpt>
      <trkpt lat="45.80946" lon="4.68696">
        <ele>315.264221</ele>
        <time>2016-10-02T09:39:21Z</time>
      </trkpt>
      <trkpt lat="45.8094" lon="4.68709">
        <ele>315.480286</ele>
        <time>2016-10-02T09:39:23Z</time>
      </trkpt>
      <trkpt lat="45.80933" lon="4.68723">
        <ele>315.531616</ele>
        <time>2016-10-02T09:39:25Z</time>
      </trkpt>
      <trkpt lat="45.80927" lon="4.68738">
        <ele>315.524109</ele>
        <time>2016-10-02T09:39:27Z</time>
      </trkpt>
      <trkpt lat="45.80921" lon="4.68752">
        <ele>315.936707</ele>
        <time>2016-10-02T09:39:29Z</time>
      </trkpt>
      <trkpt lat="45.80914" lon="4.68767">
        <ele>316.097107</ele>
        <time>2016-10-02T09:39:31Z</time>
      </trkpt>
      <trkpt lat="45.80907" lon="4.68782">
        <ele>315.871521</ele>
        <time>2016-10-02T09:39:33Z</time>
      </trkpt>
      <trkpt lat="45.809" lon="4.68797">
        <ele>316.051208</ele>
        <time>2016-10-02T09:39:35Z</time>
      </trkpt>
      <trkpt lat="45.80893" lon="4.68812">
        <ele>316.029816</ele>
        <time>2016-10-02T09:39:37Z</time>
      </trkpt>
      <trkpt lat="45.80885" lon="4.68826">
        <ele>315.718445</ele>
        <time>2016-10-02T09:39:39Z</time>
      </trkpt>
      <trkpt lat="45.80874" lon="4.68834">
        <ele>315.643646</ele>
        <time>2016-10-02T09:39:41Z</time>
      </trkpt>
      <trkpt lat="45.80861" lon="4.6884">
        <ele>315.675751</ele>
        <time>2016-10-02T09:39:43Z</time>
      </trkpt>
      <trkpt lat="45.80848" lon="4.68844">
        <ele>315.481079</ele>
        <time>2016-10-02T09:39:45Z</time>
      </trkpt>
      <trkpt lat="45.80835" lon="4.68851">
        <ele>315.213806</ele>
        <time>2016-10-02T09:39:47Z</time>
      </trkpt>
      <trkpt lat="45.80825" lon="4.68863">
        <ele>314.999908</ele>
        <time>2016-10-02T09:39:49Z</time>
      </trkpt>
      <trkpt lat="45.80816" lon="4.68875">
        <ele>314.520844</ele>
        <time>2016-10-02T09:39:51Z</time>
      </trkpt>
      <trkpt lat="45.80809" lon="4.68885">
        <ele>314.142242</ele>
        <time>2016-10-02T09:39:53Z</time>
      </trkpt>
      <trkpt lat="45.80801" lon="4.68896">
        <ele>313.789093</ele>
        <time>2016-10-02T09:39:55Z</time>
      </trkpt>
      <trkpt lat="45.80794" lon="4.68908">
        <ele>313.42334</ele>
        <time>2016-10-02T09:39:57Z</time>
      </trkpt>
      <trkpt lat="45.80786" lon="4.68919">
        <ele>313.105652</ele>
        <time>2016-10-02T09:39:59Z</time>
      </trkpt>
      <trkpt lat="45.80778" lon="4.6893">
        <ele>313.538147</ele>
        <time>2016-10-02T09:40:01Z</time>
      </trkpt>
      <trkpt lat="45.80766" lon="4.68946">
        <ele>313.406708</ele>
        <time>2016-10-02T09:40:04Z</time>
      </trkpt>
      <trkpt lat="45.80759" lon="4.68958">
        <ele>313.609985</ele>
        <time>2016-10-02T09:40:06Z</time>
      </trkpt>
      <trkpt lat="45.80751" lon="4.6897">
        <ele>313.376831</ele>
        <time>2016-10-02T09:40:08Z</time>
      </trkpt>
      <trkpt lat="45.80744" lon="4.6898">
        <ele>313.399353</ele>
        <time>2016-10-02T09:40:10Z</time>
      </trkpt>
      <trkpt lat="45.80735" lon="4.68988">
        <ele>313.132172</ele>
        <time>2016-10-02T09:40:12Z</time>
      </trkpt>
      <trkpt lat="45.80724" lon="4.68996">
        <ele>313.096252</ele>
        <time>2016-10-02T09:40:14Z</time>
      </trkpt>
      <trkpt lat="45.80713" lon="4.69005">
        <ele>312.878235</ele>
        <time>2016-10-02T09:40:16Z</time>
      </trkpt>
      <trkpt lat="45.80703" lon="4.69016">
        <ele>312.681427</ele>
        <time>2016-10-02T09:40:18Z</time>
      </trkpt>
      <trkpt lat="45.80694" lon="4.69027">
        <ele>312.655945</ele>
        <time>2016-10-02T09:40:20Z</time>
      </trkpt>
      <trkpt lat="45.80687" lon="4.69042">
        <ele>312.758362</ele>
        <time>2016-10-02T09:40:22Z</time>
      </trkpt>
      <trkpt lat="45.80681" lon="4.69058">
        <ele>312.324158</ele>
        <time>2016-10-02T09:40:24Z</time>
      </trkpt>
      <trkpt lat="45.80674" lon="4.69072">
        <ele>312.206543</ele>
        <time>2016-10-02T09:40:26Z</time>
      </trkpt>
      <trkpt lat="45.80669" lon="4.69085">
        <ele>312.138672</ele>
        <time>2016-10-02T09:40:28Z</time>
      </trkpt>
      <trkpt lat="45.80664" lon="4.69099">
        <ele>312.010681</ele>
        <time>2016-10-02T09:40:30Z</time>
      </trkpt>
      <trkpt lat="45.80659" lon="4.69109">
        <ele>311.811859</ele>
        <time>2016-10-02T09:40:32Z</time>
      </trkpt>
      <trkpt lat="45.80654" lon="4.6912">
        <ele>311.995026</ele>
        <time>2016-10-02T09:40:34Z</time>
      </trkpt>
      <trkpt lat="45.8065" lon="4.6913">
        <ele>311.965088</ele>
        <time>2016-10-02T09:40:36Z</time>
      </trkpt>
      <trkpt lat="45.80646" lon="4.69142">
        <ele>312.121429</ele>
        <time>2016-10-02T09:40:38Z</time>
      </trkpt>
      <trkpt lat="45.80642" lon="4.69154">
        <ele>312.269958</ele>
        <time>2016-10-02T09:40:40Z</time>
      </trkpt>
      <trkpt lat="45.80639" lon="4.69165">
        <ele>312.203705</ele>
        <time>2016-10-02T09:40:42Z</time>
      </trkpt>
      <trkpt lat="45.80634" lon="4.69176">
        <ele>311.932068</ele>
        <time>2016-10-02T09:40:44Z</time>
      </trkpt>
      <trkpt lat="45.80631" lon="4.69187">
        <ele>312.136292</ele>
        <time>2016-10-02T09:40:46Z</time>
      </trkpt>
      <trkpt lat="45.80627" lon="4.69197">
        <ele>311.706207</ele>
        <time>2016-10-02T09:40:48Z</time>
      </trkpt>
      <trkpt lat="45.80622" lon="4.69206">
        <ele>311.453918</ele>
        <time>2016-10-02T09:40:50Z</time>
      </trkpt>
      <trkpt lat="45.80618" lon="4.69218">
        <ele>310.878662</ele>
        <time>2016-10-02T09:40:52Z</time>
      </trkpt>
      <trkpt lat="45.80613" lon="4.6923">
        <ele>310.618317</ele>
        <time>2016-10-02T09:40:54Z</time>
      </trkpt>
      <trkpt lat="45.80608" lon="4.69242">
        <ele>310.30777</ele>
        <time>2016-10-02T09:40:56Z</time>
      </trkpt>
      <trkpt lat="45.80602" lon="4.69255">
        <ele>310.13031</ele>
        <time>2016-10-02T09:40:58Z</time>
      </trkpt>
      <trkpt lat="45.80595" lon="4.6927">
        <ele>309.937683</ele>
        <time>2016-10-02T09:41:00Z</time>
      </trkpt>
      <trkpt lat="45.8059" lon="4.69284">
        <ele>310.066071</ele>
        <time>2016-10-02T09:41:02Z</time>
      </trkpt>
      <trkpt lat="45.80585" lon="4.69296">
        <ele>310.004059</ele>
        <time>2016-10-02T09:41:04Z</time>
      </trkpt>
      <trkpt lat="45.8058" lon="4.69311">
        <ele>310.04895</ele>
        <time>2016-10-02T09:41:06Z</time>
      </trkpt>
      <trkpt lat="45.80573" lon="4.69328">
        <ele>310.314178</ele>
        <time>2016-10-02T09:41:08Z</time>
      </trkpt>
      <trkpt lat="45.80566" lon="4.69344">
        <ele>310.015198</ele>
        <time>2016-10-02T09:41:10Z</time>
      </trkpt>
      <trkpt lat="45.80562" lon="4.69359">
        <ele>310.376221</ele>
        <time>2016-10-02T09:41:12Z</time>
      </trkpt>
      <trkpt lat="45.80556" lon="4.69375">
        <ele>310.380493</ele>
        <time>2016-10-02T09:41:14Z</time>
      </trkpt>
      <trkpt lat="45.80549" lon="4.69394">
        <ele>309.898224</ele>
        <time>2016-10-02T09:41:16Z</time>
      </trkpt>
      <trkpt lat="45.80542" lon="4.69413">
        <ele>309.791138</ele>
        <time>2016-10-02T09:41:18Z</time>
      </trkpt>
      <trkpt lat="45.80534" lon="4.69432">
        <ele>309.564514</ele>
        <time>2016-10-02T09:41:20Z</time>
      </trkpt>
      <trkpt lat="45.80529" lon="4.6945">
        <ele>309.033417</ele>
        <time>2016-10-02T09:41:22Z</time>
      </trkpt>
      <trkpt lat="45.80532" lon="4.69465">
        <ele>308.719299</ele>
        <time>2016-10-02T09:41:24Z</time>
      </trkpt>
      <trkpt lat="45.80536" lon="4.69475">
        <ele>308.45639</ele>
        <time>2016-10-02T09:41:26Z</time>
      </trkpt>
      <trkpt lat="45.80542" lon="4.69485">
        <ele>308.193298</ele>
        <time>2016-10-02T09:41:28Z</time>
      </trkpt>
      <trkpt lat="45.8055" lon="4.69494">
        <ele>307.839264</ele>
        <time>2016-10-02T09:41:30Z</time>
      </trkpt>
      <trkpt lat="45.80558" lon="4.69503">
        <ele>307.565765</ele>
        <time>2016-10-02T09:41:32Z</time>
      </trkpt>
      <trkpt lat="45.80566" lon="4.69511">
        <ele>307.689728</ele>
        <time>2016-10-02T09:41:34Z</time>
      </trkpt>
      <trkpt lat="45.80572" lon="4.69523">
        <ele>307.437378</ele>
        <time>2016-10-02T09:41:36Z</time>
      </trkpt>
      <trkpt lat="45.80576" lon="4.69537">
        <ele>306.807098</ele>
        <time>2016-10-02T09:41:38Z</time>
      </trkpt>
      <trkpt lat="45.80579" lon="4.69552">
        <ele>306.903412</ele>
        <time>2016-10-02T09:41:40Z</time>
      </trkpt>
      <trkpt lat="45.80581" lon="4.69567">
        <ele>306.546539</ele>
        <time>2016-10-02T09:41:42Z</time>
      </trkpt>
      <trkpt lat="45.80587" lon="4.69582">
        <ele>305.796356</ele>
        <time>2016-10-02T09:41:44Z</time>
      </trkpt>
      <trkpt lat="45.80594" lon="4.69596">
        <ele>305.565552</ele>
        <time>2016-10-02T09:41:46Z</time>
      </trkpt>
      <trkpt lat="45.80599" lon="4.69611">
        <ele>304.907562</ele>
        <time>2016-10-02T09:41:48Z</time>
      </trkpt>
      <trkpt lat="45.80603" lon="4.69631">
        <ele>304.128662</ele>
        <time>2016-10-02T09:41:50Z</time>
      </trkpt>
      <trkpt lat="45.80607" lon="4.69651">
        <ele>303.669708</ele>
        <time>2016-10-02T09:41:52Z</time>
      </trkpt>
      <trkpt lat="45.8061" lon="4.69669">
        <ele>302.853668</ele>
        <time>2016-10-02T09:41:54Z</time>
      </trkpt>
      <trkpt lat="45.80618" lon="4.69683">
        <ele>302.338715</ele>
        <time>2016-10-02T09:41:56Z</time>
      </trkpt>
      <trkpt lat="45.80625" lon="4.69698">
        <ele>302.011963</ele>
        <time>2016-10-02T09:41:58Z</time>
      </trkpt>
      <trkpt lat="45.80632" lon="4.69715">
        <ele>301.309387</ele>
        <time>2016-10-02T09:42:00Z</time>
      </trkpt>
      <trkpt lat="45.8064" lon="4.6973">
        <ele>300.861023</ele>
        <time>2016-10-02T09:42:02Z</time>
      </trkpt>
      <trkpt lat="45.8065" lon="4.69741">
        <ele>300.641052</ele>
        <time>2016-10-02T09:42:04Z</time>
      </trkpt>
      <trkpt lat="45.8066" lon="4.69749">
        <ele>300.442383</ele>
        <time>2016-10-02T09:42:06Z</time>
      </trkpt>
      <trkpt lat="45.80668" lon="4.69757">
        <ele>300.115143</ele>
        <time>2016-10-02T09:42:08Z</time>
      </trkpt>
      <trkpt lat="45.80676" lon="4.69763">
        <ele>299.618713</ele>
        <time>2016-10-02T09:42:10Z</time>
      </trkpt>
      <trkpt lat="45.80684" lon="4.69773">
        <ele>299.789612</ele>
        <time>2016-10-02T09:42:12Z</time>
      </trkpt>
      <trkpt lat="45.80691" lon="4.69784">
        <ele>299.514069</ele>
        <time>2016-10-02T09:42:14Z</time>
      </trkpt>
      <trkpt lat="45.80697" lon="4.69793">
        <ele>298.822815</ele>
        <time>2016-10-02T09:42:16Z</time>
      </trkpt>
      <trkpt lat="45.80701" lon="4.69797">
        <ele>298.484833</ele>
        <time>2016-10-02T09:42:18Z</time>
      </trkpt>
      <trkpt lat="45.80705" lon="4.69801">
        <ele>298.392883</ele>
        <time>2016-10-02T09:42:20Z</time>
      </trkpt>
      <trkpt lat="45.80713" lon="4.69806">
        <ele>297.841583</ele>
        <time>2016-10-02T09:42:22Z</time>
      </trkpt>
      <trkpt lat="45.80718" lon="4.69807">
        <ele>297.532288</ele>
        <time>2016-10-02T09:42:24Z</time>
      </trkpt>
      <trkpt lat="45.80719" lon="4.69807">
        <ele>297.451233</ele>
        <time>2016-10-02T09:42:26Z</time>
      </trkpt>
      <trkpt lat="45.80722" lon="4.69807">
        <ele>297.064606</ele>
        <time>2016-10-02T09:42:28Z</time>
      </trkpt>
      <trkpt lat="45.80726" lon="4.69804">
        <ele>297.113617</ele>
        <time>2016-10-02T09:42:30Z</time>
      </trkpt>
      <trkpt lat="45.80731" lon="4.69797">
        <ele>297.173401</ele>
        <time>2016-10-02T09:42:32Z</time>
      </trkpt>
      <trkpt lat="45.80738" lon="4.69793">
        <ele>297.326691</ele>
        <time>2016-10-02T09:42:34Z</time>
      </trkpt>
      <trkpt lat="45.80747" lon="4.69797">
        <ele>297.198547</ele>
        <time>2016-10-02T09:42:36Z</time>
      </trkpt>
      <trkpt lat="45.80758" lon="4.69806">
        <ele>297.262604</ele>
        <time>2016-10-02T09:42:38Z</time>
      </trkpt>
      <trkpt lat="45.80771" lon="4.69816">
        <ele>297.273804</ele>
        <time>2016-10-02T09:42:40Z</time>
      </trkpt>
      <trkpt lat="45.80782" lon="4.69826">
        <ele>297.234589</ele>
        <time>2016-10-02T09:42:42Z</time>
      </trkpt>
      <trkpt lat="45.80791" lon="4.69842">
        <ele>296.660217</ele>
        <time>2016-10-02T09:42:44Z</time>
      </trkpt>
      <trkpt lat="45.80795" lon="4.69863">
        <ele>296.471588</ele>
        <time>2016-10-02T09:42:46Z</time>
      </trkpt>
      <trkpt lat="45.80795" lon="4.69884">
        <ele>296.576294</ele>
        <time>2016-10-02T09:42:48Z</time>
      </trkpt>
      <trkpt lat="45.80792" lon="4.69903">
        <ele>296.19278</ele>
        <time>2016-10-02T09:42:50Z</time>
      </trkpt>
      <trkpt lat="45.80787" lon="4.69919">
        <ele>295.684631</ele>
        <time>2016-10-02T09:42:52Z</time>
      </trkpt>
      <trkpt lat="45.80782" lon="4.69936">
        <ele>294.442535</ele>
        <time>2016-10-02T09:42:54Z</time>
      </trkpt>
      <trkpt lat="45.80777" lon="4.69951">
        <ele>293.428497</ele>
        <time>2016-10-02T09:42:56Z</time>
      </trkpt>
      <trkpt lat="45.80774" lon="4.69966">
        <ele>292.039001</ele>
        <time>2016-10-02T09:42:58Z</time>
      </trkpt>
      <trkpt lat="45.80774" lon="4.6998">
        <ele>291.401154</ele>
        <time>2016-10-02T09:43:00Z</time>
      </trkpt>
      <trkpt lat="45.80778" lon="4.69995">
        <ele>290.882935</ele>
        <time>2016-10-02T09:43:02Z</time>
      </trkpt>
      <trkpt lat="45.80788" lon="4.7001">
        <ele>289.73645</ele>
        <time>2016-10-02T09:43:04Z</time>
      </trkpt>
      <trkpt lat="45.80798" lon="4.70025">
        <ele>288.55249</ele>
        <time>2016-10-02T09:43:06Z</time>
      </trkpt>
      <trkpt lat="45.80803" lon="4.70042">
        <ele>287.277161</ele>
        <time>2016-10-02T09:43:08Z</time>
      </trkpt>
      <trkpt lat="45.80805" lon="4.70056">
        <ele>286.111664</ele>
        <time>2016-10-02T09:43:10Z</time>
      </trkpt>
      <trkpt lat="45.80806" lon="4.70062">
        <ele>284.836212</ele>
        <time>2016-10-02T09:43:12Z</time>
      </trkpt>
      <trkpt lat="45.80806" lon="4.70065">
        <ele>283.461853</ele>
        <time>2016-10-02T09:43:14Z</time>
      </trkpt>
      <trkpt lat="45.80807" lon="4.70069">
        <ele>282.331512</ele>
        <time>2016-10-02T09:43:16Z</time>
      </trkpt>
      <trkpt lat="45.80808" lon="4.70075">
        <ele>281.162872</ele>
        <time>2016-10-02T09:43:18Z</time>
      </trkpt>
      <trkpt lat="45.80808" lon="4.70085">
        <ele>279.944427</ele>
        <time>2016-10-02T09:43:20Z</time>
      </trkpt>
      <trkpt lat="45.80807" lon="4.701">
        <ele>278.740417</ele>
        <time>2016-10-02T09:43:22Z</time>
      </trkpt>
      <trkpt lat="45.80807" lon="4.70118">
        <ele>278.260712</ele>
        <time>2016-10-02T09:43:24Z</time>
      </trkpt>
      <trkpt lat="45.80809" lon="4.70138">
        <ele>277.467407</ele>
        <time>2016-10-02T09:43:26Z</time>
      </trkpt>
      <trkpt lat="45.80813" lon="4.70159">
        <ele>276.065308</ele>
        <time>2016-10-02T09:43:28Z</time>
      </trkpt>
      <trkpt lat="45.80814" lon="4.70179">
        <ele>274.780487</ele>
        <time>2016-10-02T09:43:30Z</time>
      </trkpt>
      <trkpt lat="45.80814" lon="4.70198">
        <ele>273.70343</ele>
        <time>2016-10-02T09:43:32Z</time>
      </trkpt>
      <trkpt lat="45.80812" lon="4.70216">
        <ele>273.054016</ele>
        <time>2016-10-02T09:43:34Z</time>
      </trkpt>
      <trkpt lat="45.8081" lon="4.70233">
        <ele>272.894226</ele>
        <time>2016-10-02T09:43:36Z</time>
      </trkpt>
      <trkpt lat="45.80807" lon="4.70252">
        <ele>272.736969</ele>
        <time>2016-10-02T09:43:38Z</time>
      </trkpt>
      <trkpt lat="45.80804" lon="4.7027">
        <ele>272.998383</ele>
        <time>2016-10-02T09:43:40Z</time>
      </trkpt>
      <trkpt lat="45.80802" lon="4.70287">
        <ele>272.303436</ele>
        <time>2016-10-02T09:43:42Z</time>
      </trkpt>
      <trkpt lat="45.80808" lon="4.703">
        <ele>272.222504</ele>
        <time>2016-10-02T09:43:44Z</time>
      </trkpt>
      <trkpt lat="45.80814" lon="4.70309">
        <ele>272.300354</ele>
        <time>2016-10-02T09:43:46Z</time>
      </trkpt>
      <trkpt lat="45.80819" lon="4.70321">
        <ele>272.468628</ele>
        <time>2016-10-02T09:43:48Z</time>
      </trkpt>
      <trkpt lat="45.80819" lon="4.70333">
        <ele>272.621979</ele>
        <time>2016-10-02T09:43:50Z</time>
      </trkpt>
      <trkpt lat="45.80815" lon="4.7034">
        <ele>272.698059</ele>
        <time>2016-10-02T09:43:52Z</time>
      </trkpt>
      <trkpt lat="45.80811" lon="4.70344">
        <ele>272.847229</ele>
        <time>2016-10-02T09:43:54Z</time>
      </trkpt>
      <trkpt lat="45.80808" lon="4.70348">
        <ele>273.088654</ele>
        <time>2016-10-02T09:43:56Z</time>
      </trkpt>
      <trkpt lat="45.80805" lon="4.70353">
        <ele>273.291077</ele>
        <time>2016-10-02T09:43:58Z</time>
      </trkpt>
      <trkpt lat="45.80803" lon="4.70357">
        <ele>273.565948</ele>
        <time>2016-10-02T09:44:00Z</time>
      </trkpt>
      <trkpt lat="45.80801" lon="4.70362">
        <ele>273.798218</ele>
        <time>2016-10-02T09:44:02Z</time>
      </trkpt>
      <trkpt lat="45.808" lon="4.70367">
        <ele>274.209442</ele>
        <time>2016-10-02T09:44:04Z</time>
      </trkpt>
      <trkpt lat="45.808" lon="4.70372">
        <ele>274.445984</ele>
        <time>2016-10-02T09:44:06Z</time>
      </trkpt>
      <trkpt lat="45.80801" lon="4.70377">
        <ele>274.828552</ele>
        <time>2016-10-02T09:44:08Z</time>
      </trkpt>
      <trkpt lat="45.80803" lon="4.7038">
        <ele>275.499634</ele>
        <time>2016-10-02T09:44:10Z</time>
      </trkpt>
      <trkpt lat="45.80805" lon="4.70381">
        <ele>275.877411</ele>
        <time>2016-10-02T09:44:12Z</time>
      </trkpt>
      <trkpt lat="45.80808" lon="4.70383">
        <ele>276.448517</ele>
        <time>2016-10-02T09:44:14Z</time>
      </trkpt>
      <trkpt lat="45.80811" lon="4.70384">
        <ele>276.744934</ele>
        <time>2016-10-02T09:44:16Z</time>
      </trkpt>
      <trkpt lat="45.80814" lon="4.70385">
        <ele>276.977234</ele>
        <time>2016-10-02T09:44:18Z</time>
      </trkpt>
      <trkpt lat="45.80817" lon="4.70386">
        <ele>277.477661</ele>
        <time>2016-10-02T09:44:20Z</time>
      </trkpt>
      <trkpt lat="45.80821" lon="4.70387">
        <ele>278.087219</ele>
        <time>2016-10-02T09:44:22Z</time>
      </trkpt>
      <trkpt lat="45.80824" lon="4.70388">
        <ele>278.76712</ele>
        <time>2016-10-02T09:44:24Z</time>
      </trkpt>
      <trkpt lat="45.80827" lon="4.7039">
        <ele>279.28714</ele>
        <time>2016-10-02T09:44:26Z</time>
      </trkpt>
      <trkpt lat="45.8083" lon="4.70392">
        <ele>279.510956</ele>
        <time>2016-10-02T09:44:28Z</time>
      </trkpt>
      <trkpt lat="45.80833" lon="4.70393">
        <ele>279.903137</ele>
        <time>2016-10-02T09:44:30Z</time>
      </trkpt>
      <trkpt lat="45.80836" lon="4.70395">
        <ele>280.483002</ele>
        <time>2016-10-02T09:44:32Z</time>
      </trkpt>
      <trkpt lat="45.80839" lon="4.70398">
        <ele>280.941223</ele>
        <time>2016-10-02T09:44:34Z</time>
      </trkpt>
      <trkpt lat="45.80843" lon="4.70401">
        <ele>281.454712</ele>
        <time>2016-10-02T09:44:36Z</time>
      </trkpt>
      <trkpt lat="45.80846" lon="4.70403">
        <ele>281.889679</ele>
        <time>2016-10-02T09:44:38Z</time>
      </trkpt>
      <trkpt lat="45.8085" lon="4.70406">
        <ele>282.2948</ele>
        <time>2016-10-02T09:44:40Z</time>
      </trkpt>
      <trkpt lat="45.80852" lon="4.70409">
        <ele>282.8172</ele>
        <time>2016-10-02T09:44:42Z</time>
      </trkpt>
      <trkpt lat="45.80854" lon="4.70412">
        <ele>283.27356</ele>
        <time>2016-10-02T09:44:44Z</time>
      </trkpt>
      <trkpt lat="45.80858" lon="4.70415">
        <ele>283.725647</ele>
        <time>2016-10-02T09:44:46Z</time>
      </trkpt>
      <trkpt lat="45.80861" lon="4.70418">
        <ele>284.07019</ele>
        <time>2016-10-02T09:44:48Z</time>
      </trkpt>
      <trkpt lat="45.80864" lon="4.70422">
        <ele>284.4534</ele>
        <time>2016-10-02T09:44:50Z</time>
      </trkpt>
      <trkpt lat="45.80866" lon="4.70425">
        <ele>284.685822</ele>
        <time>2016-10-02T09:44:52Z</time>
      </trkpt>
      <trkpt lat="45.80869" lon="4.70428">
        <ele>285.038452</ele>
        <time>2016-10-02T09:44:54Z</time>
      </trkpt>
      <trkpt lat="45.80871" lon="4.70432">
        <ele>285.450134</ele>
        <time>2016-10-02T09:44:56Z</time>
      </trkpt>
      <trkpt lat="45.80872" lon="4.70437">
        <ele>285.899109</ele>
        <time>2016-10-02T09:44:58Z</time>
      </trkpt>
      <trkpt lat="45.80874" lon="4.70441">
        <ele>286.351288</ele>
        <time>2016-10-02T09:45:00Z</time>
      </trkpt>
      <trkpt lat="45.80875" lon="4.70445">
        <ele>286.837677</ele>
        <time>2016-10-02T09:45:02Z</time>
      </trkpt>
      <trkpt lat="45.80875" lon="4.70449">
        <ele>287.167694</ele>
        <time>2016-10-02T09:45:04Z</time>
      </trkpt>
      <trkpt lat="45.80875" lon="4.70453">
        <ele>287.543182</ele>
        <time>2016-10-02T09:45:06Z</time>
      </trkpt>
      <trkpt lat="45.80875" lon="4.70457">
        <ele>288.044556</ele>
        <time>2016-10-02T09:45:08Z</time>
      </trkpt>
      <trkpt lat="45.80876" lon="4.70461">
        <ele>288.546021</ele>
        <time>2016-10-02T09:45:10Z</time>
      </trkpt>
      <trkpt lat="45.80876" lon="4.70465">
        <ele>289.11145</ele>
        <time>2016-10-02T09:45:12Z</time>
      </trkpt>
      <trkpt lat="45.80876" lon="4.7047">
        <ele>289.474152</ele>
        <time>2016-10-02T09:45:14Z</time>
      </trkpt>
      <trkpt lat="45.80876" lon="4.70474">
        <ele>289.870544</ele>
        <time>2016-10-02T09:45:16Z</time>
      </trkpt>
      <trkpt lat="45.80876" lon="4.70478">
        <ele>290.173889</ele>
        <time>2016-10-02T09:45:18Z</time>
      </trkpt>
      <trkpt lat="45.80876" lon="4.70482">
        <ele>290.654297</ele>
        <time>2016-10-02T09:45:20Z</time>
      </trkpt>
      <trkpt lat="45.80877" lon="4.70487">
        <ele>291.232605</ele>
        <time>2016-10-02T09:45:22Z</time>
      </trkpt>
      <trkpt lat="45.80877" lon="4.70492">
        <ele>291.659485</ele>
        <time>2016-10-02T09:45:24Z</time>
      </trkpt>
      <trkpt lat="45.80877" lon="4.70496">
        <ele>292.10553</ele>
        <time>2016-10-02T09:45:26Z</time>
      </trkpt>
      <trkpt lat="45.80877" lon="4.705">
        <ele>292.542053</ele>
        <time>2016-10-02T09:45:28Z</time>
      </trkpt>
      <trkpt lat="45.80877" lon="4.70504">
        <ele>293.072906</ele>
        <time>2016-10-02T09:45:30Z</time>
      </trkpt>
      <trkpt lat="45.80877" lon="4.70509">
        <ele>293.591461</ele>
        <time>2016-10-02T09:45:32Z</time>
      </trkpt>
      <trkpt lat="45.80877" lon="4.70513">
        <ele>294.122314</ele>
        <time>2016-10-02T09:45:34Z</time>
      </trkpt>
      <trkpt lat="45.80876" lon="4.70517">
        <ele>294.634613</ele>
        <time>2016-10-02T09:45:36Z</time>
      </trkpt>
      <trkpt lat="45.80876" lon="4.70521">
        <ele>295.106506</ele>
        <time>2016-10-02T09:45:38Z</time>
      </trkpt>
      <trkpt lat="45.80876" lon="4.70525">
        <ele>295.717041</ele>
        <time>2016-10-02T09:45:40Z</time>
      </trkpt>
      <trkpt lat="45.80876" lon="4.7053">
        <ele>296.122711</ele>
        <time>2016-10-02T09:45:42Z</time>
      </trkpt>
      <trkpt lat="45.80876" lon="4.70534">
        <ele>296.592438</ele>
        <time>2016-10-02T09:45:44Z</time>
      </trkpt>
      <trkpt lat="45.80876" lon="4.70539">
        <ele>297.152496</ele>
        <time>2016-10-02T09:45:46Z</time>
      </trkpt>
      <trkpt lat="45.80877" lon="4.70544">
        <ele>297.603027</ele>
        <time>2016-10-02T09:45:48Z</time>
      </trkpt>
      <trkpt lat="45.80877" lon="4.70548">
        <ele>297.799469</ele>
        <time>2016-10-02T09:45:50Z</time>
      </trkpt>
      <trkpt lat="45.80876" lon="4.70553">
        <ele>298.221191</ele>
        <time>2016-10-02T09:45:52Z</time>
      </trkpt>
      <trkpt lat="45.80876" lon="4.70558">
        <ele>298.59494</ele>
        <time>2016-10-02T09:45:54Z</time>
      </trkpt>
      <trkpt lat="45.80876" lon="4.70563">
        <ele>299.098907</ele>
        <time>2016-10-02T09:45:56Z</time>
      </trkpt>
      <trkpt lat="45.80876" lon="4.70567">
        <ele>299.592224</ele>
        <time>2016-10-02T09:45:58Z</time>
      </trkpt>
      <trkpt lat="45.80876" lon="4.70572">
        <ele>299.946136</ele>
        <time>2016-10-02T09:46:00Z</time>
      </trkpt>
      <trkpt lat="45.80876" lon="4.70577">
        <ele>300.356262</ele>
        <time>2016-10-02T09:46:02Z</time>
      </trkpt>
      <trkpt lat="45.80876" lon="4.70582">
        <ele>300.766418</ele>
        <time>2016-10-02T09:46:04Z</time>
      </trkpt>
      <trkpt lat="45.80876" lon="4.70587">
        <ele>301.205627</ele>
        <time>2016-10-02T09:46:06Z</time>
      </trkpt>
      <trkpt lat="45.80876" lon="4.70592">
        <ele>301.596527</ele>
        <time>2016-10-02T09:46:08Z</time>
      </trkpt>
      <trkpt lat="45.80875" lon="4.70598">
        <ele>302.082489</ele>
        <time>2016-10-02T09:46:10Z</time>
      </trkpt>
      <trkpt lat="45.80875" lon="4.70603">
        <ele>302.543121</ele>
        <time>2016-10-02T09:46:12Z</time>
      </trkpt>
      <trkpt lat="45.80875" lon="4.70608">
        <ele>302.743958</ele>
        <time>2016-10-02T09:46:14Z</time>
      </trkpt>
      <trkpt lat="45.80875" lon="4.70613">
        <ele>303.067566</ele>
        <time>2016-10-02T09:46:16Z</time>
      </trkpt>
      <trkpt lat="45.80875" lon="4.70618">
        <ele>303.435028</ele>
        <time>2016-10-02T09:46:18Z</time>
      </trkpt>
      <trkpt lat="45.80876" lon="4.70623">
        <ele>303.802551</ele>
        <time>2016-10-02T09:46:20Z</time>
      </trkpt>
      <trkpt lat="45.80877" lon="4.70628">
        <ele>304.125183</ele>
        <time>2016-10-02T09:46:22Z</time>
      </trkpt>
      <trkpt lat="45.80878" lon="4.70633">
        <ele>304.472443</ele>
        <time>2016-10-02T09:46:24Z</time>
      </trkpt>
      <trkpt lat="45.8088" lon="4.70638">
        <ele>304.771545</ele>
        <time>2016-10-02T09:46:26Z</time>
      </trkpt>
      <trkpt lat="45.80882" lon="4.70642">
        <ele>305.044128</ele>
        <time>2016-10-02T09:46:28Z</time>
      </trkpt>
      <trkpt lat="45.80883" lon="4.70647">
        <ele>305.42453</ele>
        <time>2016-10-02T09:46:30Z</time>
      </trkpt>
      <trkpt lat="45.80885" lon="4.70651">
        <ele>305.795349</ele>
        <time>2016-10-02T09:46:32Z</time>
      </trkpt>
      <trkpt lat="45.80888" lon="4.70655">
        <ele>306.173645</ele>
        <time>2016-10-02T09:46:34Z</time>
      </trkpt>
      <trkpt lat="45.8089" lon="4.7066">
        <ele>306.532684</ele>
        <time>2016-10-02T09:46:36Z</time>
      </trkpt>
      <trkpt lat="45.80892" lon="4.70664">
        <ele>306.699402</ele>
        <time>2016-10-02T09:46:38Z</time>
      </trkpt>
      <trkpt lat="45.80895" lon="4.70668">
        <ele>307.037842</ele>
        <time>2016-10-02T09:46:40Z</time>
      </trkpt>
      <trkpt lat="45.80897" lon="4.70672">
        <ele>307.437836</ele>
        <time>2016-10-02T09:46:42Z</time>
      </trkpt>
      <trkpt lat="45.80899" lon="4.70677">
        <ele>307.816223</ele>
        <time>2016-10-02T09:46:44Z</time>
      </trkpt>
      <trkpt lat="45.80902" lon="4.70681">
        <ele>308.123047</ele>
        <time>2016-10-02T09:46:46Z</time>
      </trkpt>
      <trkpt lat="45.80904" lon="4.70686">
        <ele>308.471039</ele>
        <time>2016-10-02T09:46:48Z</time>
      </trkpt>
      <trkpt lat="45.80907" lon="4.70691">
        <ele>308.887939</ele>
        <time>2016-10-02T09:46:50Z</time>
      </trkpt>
      <trkpt lat="45.8091" lon="4.70697">
        <ele>309.142334</ele>
        <time>2016-10-02T09:46:52Z</time>
      </trkpt>
      <trkpt lat="45.80912" lon="4.70703">
        <ele>309.454102</ele>
        <time>2016-10-02T09:46:54Z</time>
      </trkpt>
      <trkpt lat="45.80915" lon="4.7071">
        <ele>309.876404</ele>
        <time>2016-10-02T09:46:56Z</time>
      </trkpt>
      <trkpt lat="45.80917" lon="4.70717">
        <ele>310.233398</ele>
        <time>2016-10-02T09:46:58Z</time>
      </trkpt>
      <trkpt lat="45.80919" lon="4.70724">
        <ele>310.618317</ele>
        <time>2016-10-02T09:47:00Z</time>
      </trkpt>
      <trkpt lat="45.80922" lon="4.70731">
        <ele>311.00531</ele>
        <time>2016-10-02T09:47:02Z</time>
      </trkpt>
      <trkpt lat="45.80924" lon="4.70738">
        <ele>311.372559</ele>
        <time>2016-10-02T09:47:04Z</time>
      </trkpt>
      <trkpt lat="45.80925" lon="4.70747">
        <ele>311.495514</ele>
        <time>2016-10-02T09:47:06Z</time>
      </trkpt>
      <trkpt lat="45.80927" lon="4.70756">
        <ele>311.801941</ele>
        <time>2016-10-02T09:47:08Z</time>
      </trkpt>
      <trkpt lat="45.80928" lon="4.70765">
        <ele>312.192078</ele>
        <time>2016-10-02T09:47:10Z</time>
      </trkpt>
      <trkpt lat="45.8093" lon="4.70773">
        <ele>312.378082</ele>
        <time>2016-10-02T09:47:12Z</time>
      </trkpt>
      <trkpt lat="45.80931" lon="4.70782">
        <ele>312.690338</ele>
        <time>2016-10-02T09:47:14Z</time>
      </trkpt>
      <trkpt lat="45.80932" lon="4.70791">
        <ele>312.92984</ele>
        <time>2016-10-02T09:47:16Z</time>
      </trkpt>
      <trkpt lat="45.80933" lon="4.70799">
        <ele>313.178284</ele>
        <time>2016-10-02T09:47:18Z</time>
      </trkpt>
      <trkpt lat="45.80934" lon="4.70808">
        <ele>313.541107</ele>
        <time>2016-10-02T09:47:20Z</time>
      </trkpt>
      <trkpt lat="45.80935" lon="4.70816">
        <ele>313.868195</ele>
        <time>2016-10-02T09:47:22Z</time>
      </trkpt>
      <trkpt lat="45.80935" lon="4.70824">
        <ele>314.114166</ele>
        <time>2016-10-02T09:47:24Z</time>
      </trkpt>
      <trkpt lat="45.80935" lon="4.70831">
        <ele>314.455261</ele>
        <time>2016-10-02T09:47:26Z</time>
      </trkpt>
      <trkpt lat="45.80935" lon="4.70838">
        <ele>314.690552</ele>
        <time>2016-10-02T09:47:28Z</time>
      </trkpt>
      <trkpt lat="45.80934" lon="4.70844">
        <ele>314.995514</ele>
        <time>2016-10-02T09:47:30Z</time>
      </trkpt>
      <trkpt lat="45.80932" lon="4.7085">
        <ele>315.363464</ele>
        <time>2016-10-02T09:47:32Z</time>
      </trkpt>
      <trkpt lat="45.80929" lon="4.70855">
        <ele>315.57309</ele>
        <time>2016-10-02T09:47:34Z</time>
      </trkpt>
      <trkpt lat="45.80926" lon="4.7086">
        <ele>315.951508</ele>
        <time>2016-10-02T09:47:36Z</time>
      </trkpt>
      <trkpt lat="45.80922" lon="4.70866">
        <ele>316.251404</ele>
        <time>2016-10-02T09:47:38Z</time>
      </trkpt>
      <trkpt lat="45.8092" lon="4.70873">
        <ele>316.612976</ele>
        <time>2016-10-02T09:47:40Z</time>
      </trkpt>
      <trkpt lat="45.80918" lon="4.7088">
        <ele>316.854736</ele>
        <time>2016-10-02T09:47:42Z</time>
      </trkpt>
      <trkpt lat="45.80916" lon="4.70889">
        <ele>317.203522</ele>
        <time>2016-10-02T09:47:44Z</time>
      </trkpt>
      <trkpt lat="45.80914" lon="4.70898">
        <ele>317.523712</ele>
        <time>2016-10-02T09:47:46Z</time>
      </trkpt>
      <trkpt lat="45.80913" lon="4.70908">
        <ele>318.03653</ele>
        <time>2016-10-02T09:47:48Z</time>
      </trkpt>
      <trkpt lat="45.80911" lon="4.70917">
        <ele>318.52652</ele>
        <time>2016-10-02T09:47:50Z</time>
      </trkpt>
      <trkpt lat="45.80909" lon="4.70926">
        <ele>318.90097</ele>
        <time>2016-10-02T09:47:52Z</time>
      </trkpt>
      <trkpt lat="45.80908" lon="4.70935">
        <ele>319.459412</ele>
        <time>2016-10-02T09:47:54Z</time>
      </trkpt>
      <trkpt lat="45.80907" lon="4.70944">
        <ele>319.767761</ele>
        <time>2016-10-02T09:47:56Z</time>
      </trkpt>
      <trkpt lat="45.80907" lon="4.70953">
        <ele>319.932495</ele>
        <time>2016-10-02T09:47:58Z</time>
      </trkpt>
      <trkpt lat="45.80908" lon="4.70963">
        <ele>320.293121</ele>
        <time>2016-10-02T09:48:00Z</time>
      </trkpt>
      <trkpt lat="45.80909" lon="4.70972">
        <ele>320.639801</ele>
        <time>2016-10-02T09:48:02Z</time>
      </trkpt>
      <trkpt lat="45.8091" lon="4.70981">
        <ele>321.059387</ele>
        <time>2016-10-02T09:48:04Z</time>
      </trkpt>
      <trkpt lat="45.80912" lon="4.70991">
        <ele>321.393219</ele>
        <time>2016-10-02T09:48:06Z</time>
      </trkpt>
      <trkpt lat="45.80914" lon="4.71">
        <ele>321.626373</ele>
        <time>2016-10-02T09:48:08Z</time>
      </trkpt>
      <trkpt lat="45.80915" lon="4.71009">
        <ele>322.024414</ele>
        <time>2016-10-02T09:48:10Z</time>
      </trkpt>
      <trkpt lat="45.80917" lon="4.71018">
        <ele>322.287689</ele>
        <time>2016-10-02T09:48:12Z</time>
      </trkpt>
      <trkpt lat="45.8092" lon="4.71027">
        <ele>322.649475</ele>
        <time>2016-10-02T09:48:14Z</time>
      </trkpt>
      <trkpt lat="45.80922" lon="4.71035">
        <ele>322.990417</ele>
        <time>2016-10-02T09:48:16Z</time>
      </trkpt>
      <trkpt lat="45.80924" lon="4.71043">
        <ele>323.258484</ele>
        <time>2016-10-02T09:48:18Z</time>
      </trkpt>
      <trkpt lat="45.80927" lon="4.71051">
        <ele>323.384827</ele>
        <time>2016-10-02T09:48:20Z</time>
      </trkpt>
      <trkpt lat="45.80929" lon="4.7106">
        <ele>323.719299</ele>
        <time>2016-10-02T09:48:22Z</time>
      </trkpt>
      <trkpt lat="45.80932" lon="4.71069">
        <ele>323.995453</ele>
        <time>2016-10-02T09:48:24Z</time>
      </trkpt>
      <trkpt lat="45.80933" lon="4.71078">
        <ele>324.143158</ele>
        <time>2016-10-02T09:48:26Z</time>
      </trkpt>
      <trkpt lat="45.80935" lon="4.71087">
        <ele>324.46933</ele>
        <time>2016-10-02T09:48:28Z</time>
      </trkpt>
      <trkpt lat="45.80937" lon="4.71097">
        <ele>324.59137</ele>
        <time>2016-10-02T09:48:30Z</time>
      </trkpt>
      <trkpt lat="45.80939" lon="4.71108">
        <ele>324.775543</ele>
        <time>2016-10-02T09:48:32Z</time>
      </trkpt>
      <trkpt lat="45.80941" lon="4.71119">
        <ele>325.090271</ele>
        <time>2016-10-02T09:48:34Z</time>
      </trkpt>
      <trkpt lat="45.80945" lon="4.71129">
        <ele>325.377258</ele>
        <time>2016-10-02T09:48:36Z</time>
      </trkpt>
      <trkpt lat="45.80949" lon="4.7114">
        <ele>325.700348</ele>
        <time>2016-10-02T09:48:38Z</time>
      </trkpt>
      <trkpt lat="45.80953" lon="4.71151">
        <ele>326.133514</ele>
        <time>2016-10-02T09:48:40Z</time>
      </trkpt>
      <trkpt lat="45.80957" lon="4.71161">
        <ele>326.484711</ele>
        <time>2016-10-02T09:48:42Z</time>
      </trkpt>
      <trkpt lat="45.80961" lon="4.71172">
        <ele>326.662476</ele>
        <time>2016-10-02T09:48:44Z</time>
      </trkpt>
      <trkpt lat="45.80965" lon="4.71183">
        <ele>326.899353</ele>
        <time>2016-10-02T09:48:46Z</time>
      </trkpt>
      <trkpt lat="45.8097" lon="4.71193">
        <ele>327.207153</ele>
        <time>2016-10-02T09:48:48Z</time>
      </trkpt>
      <trkpt lat="45.80975" lon="4.71204">
        <ele>327.534973</ele>
        <time>2016-10-02T09:48:50Z</time>
      </trkpt>
      <trkpt lat="45.8098" lon="4.71216">
        <ele>327.791931</ele>
        <time>2016-10-02T09:48:52Z</time>
      </trkpt>
      <trkpt lat="45.80985" lon="4.71228">
        <ele>327.993103</ele>
        <time>2016-10-02T09:48:54Z</time>
      </trkpt>
      <trkpt lat="45.8099" lon="4.7124">
        <ele>328.122467</ele>
        <time>2016-10-02T09:48:56Z</time>
      </trkpt>
      <trkpt lat="45.80995" lon="4.71251">
        <ele>328.261658</ele>
        <time>2016-10-02T09:48:58Z</time>
      </trkpt>
      <trkpt lat="45.81001" lon="4.71262">
        <ele>328.367889</ele>
        <time>2016-10-02T09:49:00Z</time>
      </trkpt>
      <trkpt lat="45.81008" lon="4.71272">
        <ele>328.457306</ele>
        <time>2016-10-02T09:49:02Z</time>
      </trkpt>
      <trkpt lat="45.81016" lon="4.71281">
        <ele>328.564392</ele>
        <time>2016-10-02T09:49:04Z</time>
      </trkpt>
      <trkpt lat="45.81024" lon="4.71292">
        <ele>328.602905</ele>
        <time>2016-10-02T09:49:06Z</time>
      </trkpt>
      <trkpt lat="45.8103" lon="4.713">
        <ele>328.620056</ele>
        <time>2016-10-02T09:49:08Z</time>
      </trkpt>
      <trkpt lat="45.81037" lon="4.7131">
        <ele>328.75531</ele>
        <time>2016-10-02T09:49:10Z</time>
      </trkpt>
      <trkpt lat="45.81044" lon="4.71319">
        <ele>328.888123</ele>
        <time>2016-10-02T09:49:12Z</time>
      </trkpt>
      <trkpt lat="45.81051" lon="4.71328">
        <ele>329.063782</ele>
        <time>2016-10-02T09:49:14Z</time>
      </trkpt>
      <trkpt lat="45.81057" lon="4.71337">
        <ele>329.005951</ele>
        <time>2016-10-02T09:49:16Z</time>
      </trkpt>
      <trkpt lat="45.81064" lon="4.71345">
        <ele>329.107147</ele>
        <time>2016-10-02T09:49:18Z</time>
      </trkpt>
      <trkpt lat="45.8107" lon="4.71352">
        <ele>329.184357</ele>
        <time>2016-10-02T09:49:20Z</time>
      </trkpt>
      <trkpt lat="45.81075" lon="4.7136">
        <ele>329.167206</ele>
        <time>2016-10-02T09:49:22Z</time>
      </trkpt>
      <trkpt lat="45.81079" lon="4.71367">
        <ele>329.207703</ele>
        <time>2016-10-02T09:49:24Z</time>
      </trkpt>
      <trkpt lat="45.81083" lon="4.71373">
        <ele>329.287781</ele>
        <time>2016-10-02T09:49:26Z</time>
      </trkpt>
      <trkpt lat="45.81086" lon="4.7138">
        <ele>329.31192</ele>
        <time>2016-10-02T09:49:28Z</time>
      </trkpt>
      <trkpt lat="45.81088" lon="4.71387">
        <ele>329.500427</ele>
        <time>2016-10-02T09:49:30Z</time>
      </trkpt>
      <trkpt lat="45.81091" lon="4.71393">
        <ele>329.566895</ele>
        <time>2016-10-02T09:49:32Z</time>
      </trkpt>
      <trkpt lat="45.81094" lon="4.71399">
        <ele>329.575439</ele>
        <time>2016-10-02T09:49:34Z</time>
      </trkpt>
      <trkpt lat="45.81097" lon="4.71405">
        <ele>329.945557</ele>
        <time>2016-10-02T09:49:36Z</time>
      </trkpt>
      <trkpt lat="45.81102" lon="4.71411">
        <ele>330.07843</ele>
        <time>2016-10-02T09:49:38Z</time>
      </trkpt>
      <trkpt lat="45.81104" lon="4.71418">
        <ele>330.316223</ele>
        <time>2016-10-02T09:49:40Z</time>
      </trkpt>
      <trkpt lat="45.81107" lon="4.71424">
        <ele>330.577576</ele>
        <time>2016-10-02T09:49:42Z</time>
      </trkpt>
      <trkpt lat="45.81109" lon="4.7143">
        <ele>330.83609</ele>
        <time>2016-10-02T09:49:44Z</time>
      </trkpt>
      <trkpt lat="45.81112" lon="4.71437">
        <ele>331.309753</ele>
        <time>2016-10-02T09:49:46Z</time>
      </trkpt>
      <trkpt lat="45.81113" lon="4.71445">
        <ele>331.693207</ele>
        <time>2016-10-02T09:49:48Z</time>
      </trkpt>
      <trkpt lat="45.81115" lon="4.71454">
        <ele>332.12616</ele>
        <time>2016-10-02T09:49:50Z</time>
      </trkpt>
      <trkpt lat="45.81117" lon="4.71463">
        <ele>332.387543</ele>
        <time>2016-10-02T09:49:52Z</time>
      </trkpt>
      <trkpt lat="45.81115" lon="4.71471">
        <ele>332.60611</ele>
        <time>2016-10-02T09:49:54Z</time>
      </trkpt>
      <trkpt lat="45.81109" lon="4.71477">
        <ele>332.794128</ele>
        <time>2016-10-02T09:49:56Z</time>
      </trkpt>
      <trkpt lat="45.81101" lon="4.71484">
        <ele>333.150543</ele>
        <time>2016-10-02T09:49:58Z</time>
      </trkpt>
      <trkpt lat="45.81091" lon="4.71493">
        <ele>333.26886</ele>
        <time>2016-10-02T09:50:00Z</time>
      </trkpt>
      <trkpt lat="45.8108" lon="4.71503">
        <ele>333.420898</ele>
        <time>2016-10-02T09:50:02Z</time>
      </trkpt>
      <trkpt lat="45.81068" lon="4.71514">
        <ele>333.517395</ele>
        <time>2016-10-02T09:50:04Z</time>
      </trkpt>
      <trkpt lat="45.81055" lon="4.71525">
        <ele>333.572327</ele>
        <time>2016-10-02T09:50:06Z</time>
      </trkpt>
      <trkpt lat="45.81041" lon="4.71536">
        <ele>333.392395</ele>
        <time>2016-10-02T09:50:08Z</time>
      </trkpt>
      <trkpt lat="45.81027" lon="4.71548">
        <ele>333.585205</ele>
        <time>2016-10-02T09:50:10Z</time>
      </trkpt>
      <trkpt lat="45.81011" lon="4.7156">
        <ele>333.386017</ele>
        <time>2016-10-02T09:50:12Z</time>
      </trkpt>
      <trkpt lat="45.80993" lon="4.7157">
        <ele>333.136353</ele>
        <time>2016-10-02T09:50:14Z</time>
      </trkpt>
      <trkpt lat="45.80973" lon="4.71572">
        <ele>332.77655</ele>
        <time>2016-10-02T09:50:16Z</time>
      </trkpt>
      <trkpt lat="45.80952" lon="4.71577">
        <ele>332.173126</ele>
        <time>2016-10-02T09:50:18Z</time>
      </trkpt>
      <trkpt lat="45.8093" lon="4.71585">
        <ele>331.851501</ele>
        <time>2016-10-02T09:50:20Z</time>
      </trkpt>
      <trkpt lat="45.80911" lon="4.71599">
        <ele>331.172668</ele>
        <time>2016-10-02T09:50:22Z</time>
      </trkpt>
      <trkpt lat="45.80891" lon="4.71615">
        <ele>330.78717</ele>
        <time>2016-10-02T09:50:24Z</time>
      </trkpt>
      <trkpt lat="45.80871" lon="4.71631">
        <ele>330.05127</ele>
        <time>2016-10-02T09:50:26Z</time>
      </trkpt>
      <trkpt lat="45.80851" lon="4.71648">
        <ele>328.954681</ele>
        <time>2016-10-02T09:50:28Z</time>
      </trkpt>
      <trkpt lat="45.80833" lon="4.71669">
        <ele>328.460144</ele>
        <time>2016-10-02T09:50:30Z</time>
      </trkpt>
      <trkpt lat="45.8082" lon="4.71697">
        <ele>327.604889</ele>
        <time>2016-10-02T09:50:32Z</time>
      </trkpt>
      <trkpt lat="45.80807" lon="4.71726">
        <ele>326.536499</ele>
        <time>2016-10-02T09:50:34Z</time>
      </trkpt>
      <trkpt lat="45.80794" lon="4.71753">
        <ele>325.237091</ele>
        <time>2016-10-02T09:50:36Z</time>
      </trkpt>
      <trkpt lat="45.80784" lon="4.71775">
        <ele>324.026001</ele>
        <time>2016-10-02T09:50:38Z</time>
      </trkpt>
      <trkpt lat="45.80781" lon="4.71798">
        <ele>322.832886</ele>
        <time>2016-10-02T09:50:40Z</time>
      </trkpt>
      <trkpt lat="45.80783" lon="4.71821">
        <ele>321.719757</ele>
        <time>2016-10-02T09:50:42Z</time>
      </trkpt>
      <trkpt lat="45.80784" lon="4.71845">
        <ele>320.277557</ele>
        <time>2016-10-02T09:50:44Z</time>
      </trkpt>
      <trkpt lat="45.80785" lon="4.71869">
        <ele>319.243652</ele>
        <time>2016-10-02T09:50:46Z</time>
      </trkpt>
      <trkpt lat="45.80784" lon="4.71891">
        <ele>317.856018</ele>
        <time>2016-10-02T09:50:48Z</time>
      </trkpt>
      <trkpt lat="45.80779" lon="4.71911">
        <ele>316.84613</ele>
        <time>2016-10-02T09:50:50Z</time>
      </trkpt>
      <trkpt lat="45.80767" lon="4.71926">
        <ele>316.24469</ele>
        <time>2016-10-02T09:50:52Z</time>
      </trkpt>
      <trkpt lat="45.80753" lon="4.71935">
        <ele>315.108521</ele>
        <time>2016-10-02T09:50:54Z</time>
      </trkpt>
      <trkpt lat="45.80737" lon="4.71941">
        <ele>313.976013</ele>
        <time>2016-10-02T09:50:56Z</time>
      </trkpt>
      <trkpt lat="45.80721" lon="4.71945">
        <ele>313.022034</ele>
        <time>2016-10-02T09:50:58Z</time>
      </trkpt>
      <trkpt lat="45.80705" lon="4.7195">
        <ele>312.1073</ele>
        <time>2016-10-02T09:51:00Z</time>
      </trkpt>
      <trkpt lat="45.80689" lon="4.71954">
        <ele>310.932556</ele>
        <time>2016-10-02T09:51:02Z</time>
      </trkpt>
      <trkpt lat="45.80673" lon="4.71958">
        <ele>310.057434</ele>
        <time>2016-10-02T09:51:04Z</time>
      </trkpt>
      <trkpt lat="45.80658" lon="4.71963">
        <ele>308.876892</ele>
        <time>2016-10-02T09:51:06Z</time>
      </trkpt>
      <trkpt lat="45.80643" lon="4.71967">
        <ele>308.03241</ele>
        <time>2016-10-02T09:51:08Z</time>
      </trkpt>
      <trkpt lat="45.80628" lon="4.71969">
        <ele>307.303406</ele>
        <time>2016-10-02T09:51:10Z</time>
      </trkpt>
      <trkpt lat="45.80614" lon="4.71973">
        <ele>307.012726</ele>
        <time>2016-10-02T09:51:12Z</time>
      </trkpt>
      <trkpt lat="45.806" lon="4.71977">
        <ele>306.073669</ele>
        <time>2016-10-02T09:51:14Z</time>
      </trkpt>
      <trkpt lat="45.80587" lon="4.7198">
        <ele>305.50296</ele>
        <time>2016-10-02T09:51:16Z</time>
      </trkpt>
      <trkpt lat="45.80576" lon="4.71982">
        <ele>305.039185</ele>
        <time>2016-10-02T09:51:18Z</time>
      </trkpt>
      <trkpt lat="45.80565" lon="4.71987">
        <ele>304.735504</ele>
        <time>2016-10-02T09:51:20Z</time>
      </trkpt>
      <trkpt lat="45.80558" lon="4.71997">
        <ele>304.361725</ele>
        <time>2016-10-02T09:51:22Z</time>
      </trkpt>
      <trkpt lat="45.80552" lon="4.72008">
        <ele>303.843597</ele>
        <time>2016-10-02T09:51:24Z</time>
      </trkpt>
      <trkpt lat="45.80547" lon="4.72022">
        <ele>303.800842</ele>
        <time>2016-10-02T09:51:26Z</time>
      </trkpt>
      <trkpt lat="45.80543" lon="4.72036">
        <ele>303.223846</ele>
        <time>2016-10-02T09:51:28Z</time>
      </trkpt>
      <trkpt lat="45.80538" lon="4.72051">
        <ele>302.988892</ele>
        <time>2016-10-02T09:51:30Z</time>
      </trkpt>
      <trkpt lat="45.80536" lon="4.72065">
        <ele>302.533752</ele>
        <time>2016-10-02T09:51:32Z</time>
      </trkpt>
      <trkpt lat="45.80536" lon="4.72073">
        <ele>302.328613</ele>
        <time>2016-10-02T09:51:34Z</time>
      </trkpt>
      <trkpt lat="45.80537" lon="4.72079">
        <ele>302.027832</ele>
        <time>2016-10-02T09:51:36Z</time>
      </trkpt>
      <trkpt lat="45.80537" lon="4.72084">
        <ele>301.848206</ele>
        <time>2016-10-02T09:51:38Z</time>
      </trkpt>
      <trkpt lat="45.80537" lon="4.72088">
        <ele>301.590576</ele>
        <time>2016-10-02T09:51:40Z</time>
      </trkpt>
      <trkpt lat="45.80538" lon="4.72092">
        <ele>301.315674</ele>
        <time>2016-10-02T09:51:42Z</time>
      </trkpt>
      <trkpt lat="45.80539" lon="4.72096">
        <ele>301.121277</ele>
        <time>2016-10-02T09:51:44Z</time>
      </trkpt>
      <trkpt lat="45.8054" lon="4.72101">
        <ele>300.972839</ele>
        <time>2016-10-02T09:51:46Z</time>
      </trkpt>
      <trkpt lat="45.80541" lon="4.72107">
        <ele>300.88739</ele>
        <time>2016-10-02T09:51:48Z</time>
      </trkpt>
      <trkpt lat="45.80542" lon="4.7211">
        <ele>300.769897</ele>
        <time>2016-10-02T09:51:50Z</time>
      </trkpt>
      <trkpt lat="45.80542" lon="4.72114">
        <ele>300.66095</ele>
        <time>2016-10-02T09:51:52Z</time>
      </trkpt>
      <trkpt lat="45.80542" lon="4.72119">
        <ele>300.562683</ele>
        <time>2016-10-02T09:51:54Z</time>
      </trkpt>
      <trkpt lat="45.80544" lon="4.72123">
        <ele>300.57428</ele>
        <time>2016-10-02T09:51:56Z</time>
      </trkpt>
      <trkpt lat="45.80545" lon="4.72126">
        <ele>300.424744</ele>
        <time>2016-10-02T09:51:58Z</time>
      </trkpt>
    </trkseg>
  </trk>
</gpx>